<?xml version="1.0" encoding="UTF-8" standalone="no" ?>
<gpx xmlns="http://www.topografix.com/GPX/1/1" xmlns:xsi="http://www.w3.org/2001/XMLSchema-instance" xsi:schemaLocation="http://www.topografix.com/GPX/1/1 http://www.topografix.com/GPX/1/1/gpx.xsd" version="1.1" creator="VisuGPX - https://www.visugpx.com">
  <metadata>
    <name>Gigny Cyclisme sur route</name>
  </metadata>
  <trk>
    <name><![CDATA[Gigny Cyclisme sur route_1]]></name>
    <trkseg>
      <trkpt lat="46.45555" lon="5.46127">
        <ele>373.4</ele>
        <time>2022-05-11T11:26:30Z</time>
      </trkpt>
      <trkpt lat="46.45555" lon="5.46127">
        <ele>374</ele>
        <time>2022-05-11T11:26:31Z</time>
      </trkpt>
      <trkpt lat="46.45551" lon="5.46113">
        <ele>375</ele>
        <time>2022-05-11T11:27:37Z</time>
      </trkpt>
      <trkpt lat="46.45549" lon="5.46106">
        <ele>374.8</ele>
        <time>2022-05-11T11:27:40Z</time>
      </trkpt>
      <trkpt lat="46.45539" lon="5.46096">
        <ele>374.6</ele>
        <time>2022-05-11T11:27:45Z</time>
      </trkpt>
      <trkpt lat="46.45525" lon="5.46092">
        <ele>375</ele>
        <time>2022-05-11T11:27:50Z</time>
      </trkpt>
      <trkpt lat="46.45506" lon="5.46088">
        <ele>375.8</ele>
        <time>2022-05-11T11:27:56Z</time>
      </trkpt>
      <trkpt lat="46.45498" lon="5.46087">
        <ele>376</ele>
        <time>2022-05-11T11:27:59Z</time>
      </trkpt>
      <trkpt lat="46.45495" lon="5.46086">
        <ele>376</ele>
        <time>2022-05-11T11:28:00Z</time>
      </trkpt>
      <trkpt lat="46.45461" lon="5.4608">
        <ele>376.2</ele>
        <time>2022-05-11T11:28:11Z</time>
      </trkpt>
      <trkpt lat="46.45436" lon="5.46076">
        <ele>376.4</ele>
        <time>2022-05-11T11:28:19Z</time>
      </trkpt>
      <trkpt lat="46.45418" lon="5.46073">
        <ele>376.6</ele>
        <time>2022-05-11T11:28:25Z</time>
      </trkpt>
      <trkpt lat="46.45412" lon="5.46072">
        <ele>376.8</ele>
        <time>2022-05-11T11:28:27Z</time>
      </trkpt>
      <trkpt lat="46.45405" lon="5.46071">
        <ele>377</ele>
        <time>2022-05-11T11:28:29Z</time>
      </trkpt>
      <trkpt lat="46.45382" lon="5.46067">
        <ele>377.6</ele>
        <time>2022-05-11T11:28:36Z</time>
      </trkpt>
      <trkpt lat="46.45371" lon="5.46064">
        <ele>378</ele>
        <time>2022-05-11T11:28:39Z</time>
      </trkpt>
      <trkpt lat="46.45356" lon="5.46062">
        <ele>378.4</ele>
        <time>2022-05-11T11:28:43Z</time>
      </trkpt>
      <trkpt lat="46.45331" lon="5.46058">
        <ele>378.4</ele>
        <time>2022-05-11T11:28:50Z</time>
      </trkpt>
      <trkpt lat="46.4532" lon="5.46056">
        <ele>378.4</ele>
        <time>2022-05-11T11:28:53Z</time>
      </trkpt>
      <trkpt lat="46.45295" lon="5.46051">
        <ele>378.8</ele>
        <time>2022-05-11T11:29:00Z</time>
      </trkpt>
      <trkpt lat="46.45275" lon="5.46049">
        <ele>378.8</ele>
        <time>2022-05-11T11:29:05Z</time>
      </trkpt>
      <trkpt lat="46.45264" lon="5.46047">
        <ele>378.6</ele>
        <time>2022-05-11T11:29:08Z</time>
      </trkpt>
      <trkpt lat="46.45243" lon="5.46038">
        <ele>378.6</ele>
        <time>2022-05-11T11:29:14Z</time>
      </trkpt>
      <trkpt lat="46.45242" lon="5.46038">
        <ele>378.6</ele>
        <time>2022-05-11T11:29:15Z</time>
      </trkpt>
      <trkpt lat="46.45242" lon="5.46038">
        <ele>378.6</ele>
        <time>2022-05-11T11:29:17Z</time>
      </trkpt>
      <trkpt lat="46.45239" lon="5.46036">
        <ele>377.8</ele>
        <time>2022-05-11T11:29:27Z</time>
      </trkpt>
      <trkpt lat="46.45231" lon="5.46033">
        <ele>377.6</ele>
        <time>2022-05-11T11:29:29Z</time>
      </trkpt>
      <trkpt lat="46.45222" lon="5.46027">
        <ele>377.6</ele>
        <time>2022-05-11T11:29:31Z</time>
      </trkpt>
      <trkpt lat="46.45217" lon="5.46023">
        <ele>377.6</ele>
        <time>2022-05-11T11:29:32Z</time>
      </trkpt>
      <trkpt lat="46.45212" lon="5.46018">
        <ele>377.6</ele>
        <time>2022-05-11T11:29:33Z</time>
      </trkpt>
      <trkpt lat="46.452" lon="5.46008">
        <ele>377.4</ele>
        <time>2022-05-11T11:29:35Z</time>
      </trkpt>
      <trkpt lat="46.45181" lon="5.45993">
        <ele>377</ele>
        <time>2022-05-11T11:29:38Z</time>
      </trkpt>
      <trkpt lat="46.45163" lon="5.45981">
        <ele>376.6</ele>
        <time>2022-05-11T11:29:41Z</time>
      </trkpt>
      <trkpt lat="46.45151" lon="5.45971">
        <ele>376.2</ele>
        <time>2022-05-11T11:29:43Z</time>
      </trkpt>
      <trkpt lat="46.45133" lon="5.45956">
        <ele>376</ele>
        <time>2022-05-11T11:29:46Z</time>
      </trkpt>
      <trkpt lat="46.45115" lon="5.45944">
        <ele>375</ele>
        <time>2022-05-11T11:29:49Z</time>
      </trkpt>
      <trkpt lat="46.4511" lon="5.45942">
        <ele>374.8</ele>
        <time>2022-05-11T11:29:50Z</time>
      </trkpt>
      <trkpt lat="46.45075" lon="5.45925">
        <ele>374</ele>
        <time>2022-05-11T11:29:56Z</time>
      </trkpt>
      <trkpt lat="46.45068" lon="5.45921">
        <ele>373.8</ele>
        <time>2022-05-11T11:29:57Z</time>
      </trkpt>
      <trkpt lat="46.45058" lon="5.45914">
        <ele>373.6</ele>
        <time>2022-05-11T11:29:59Z</time>
      </trkpt>
      <trkpt lat="46.4504" lon="5.45902">
        <ele>373.4</ele>
        <time>2022-05-11T11:30:02Z</time>
      </trkpt>
      <trkpt lat="46.45024" lon="5.45892">
        <ele>373.4</ele>
        <time>2022-05-11T11:30:05Z</time>
      </trkpt>
      <trkpt lat="46.45003" lon="5.45881">
        <ele>373.2</ele>
        <time>2022-05-11T11:30:09Z</time>
      </trkpt>
      <trkpt lat="46.44972" lon="5.45862">
        <ele>373.8</ele>
        <time>2022-05-11T11:30:15Z</time>
      </trkpt>
      <trkpt lat="46.44949" lon="5.45848">
        <ele>374.2</ele>
        <time>2022-05-11T11:30:20Z</time>
      </trkpt>
      <trkpt lat="46.44944" lon="5.45845">
        <ele>374.4</ele>
        <time>2022-05-11T11:30:21Z</time>
      </trkpt>
      <trkpt lat="46.44939" lon="5.45844">
        <ele>374.8</ele>
        <time>2022-05-11T11:30:22Z</time>
      </trkpt>
      <trkpt lat="46.44925" lon="5.45837">
        <ele>375.4</ele>
        <time>2022-05-11T11:30:26Z</time>
      </trkpt>
      <trkpt lat="46.44913" lon="5.45828">
        <ele>375.8</ele>
        <time>2022-05-11T11:30:29Z</time>
      </trkpt>
      <trkpt lat="46.449" lon="5.4582">
        <ele>376</ele>
        <time>2022-05-11T11:30:32Z</time>
      </trkpt>
      <trkpt lat="46.44897" lon="5.45819">
        <ele>376</ele>
        <time>2022-05-11T11:30:33Z</time>
      </trkpt>
      <trkpt lat="46.44873" lon="5.45806">
        <ele>376.4</ele>
        <time>2022-05-11T11:30:38Z</time>
      </trkpt>
      <trkpt lat="46.44859" lon="5.45799">
        <ele>376.6</ele>
        <time>2022-05-11T11:30:41Z</time>
      </trkpt>
      <trkpt lat="46.44849" lon="5.45792">
        <ele>376.6</ele>
        <time>2022-05-11T11:30:43Z</time>
      </trkpt>
      <trkpt lat="46.44822" lon="5.45776">
        <ele>376.8</ele>
        <time>2022-05-11T11:30:48Z</time>
      </trkpt>
      <trkpt lat="46.44815" lon="5.45772">
        <ele>376.8</ele>
        <time>2022-05-11T11:30:49Z</time>
      </trkpt>
      <trkpt lat="46.44784" lon="5.45756">
        <ele>376.8</ele>
        <time>2022-05-11T11:30:55Z</time>
      </trkpt>
      <trkpt lat="46.44779" lon="5.45754">
        <ele>376.8</ele>
        <time>2022-05-11T11:30:56Z</time>
      </trkpt>
      <trkpt lat="46.44769" lon="5.45748">
        <ele>376.8</ele>
        <time>2022-05-11T11:30:58Z</time>
      </trkpt>
      <trkpt lat="46.4476" lon="5.45742">
        <ele>376.6</ele>
        <time>2022-05-11T11:31:00Z</time>
      </trkpt>
      <trkpt lat="46.44722" lon="5.45723">
        <ele>376.4</ele>
        <time>2022-05-11T11:31:07Z</time>
      </trkpt>
      <trkpt lat="46.44674" lon="5.45704">
        <ele>376</ele>
        <time>2022-05-11T11:31:16Z</time>
      </trkpt>
      <trkpt lat="46.44659" lon="5.457">
        <ele>376</ele>
        <time>2022-05-11T11:31:19Z</time>
      </trkpt>
      <trkpt lat="46.44646" lon="5.45694">
        <ele>376.2</ele>
        <time>2022-05-11T11:31:22Z</time>
      </trkpt>
      <trkpt lat="46.44628" lon="5.45689">
        <ele>376</ele>
        <time>2022-05-11T11:31:25Z</time>
      </trkpt>
      <trkpt lat="46.44612" lon="5.45685">
        <ele>375.8</ele>
        <time>2022-05-11T11:31:28Z</time>
      </trkpt>
      <trkpt lat="46.4459" lon="5.45678">
        <ele>375.8</ele>
        <time>2022-05-11T11:31:33Z</time>
      </trkpt>
      <trkpt lat="46.44586" lon="5.45676">
        <ele>375.6</ele>
        <time>2022-05-11T11:31:34Z</time>
      </trkpt>
      <trkpt lat="46.44581" lon="5.45674">
        <ele>375.6</ele>
        <time>2022-05-11T11:31:35Z</time>
      </trkpt>
      <trkpt lat="46.44566" lon="5.45668">
        <ele>376</ele>
        <time>2022-05-11T11:31:38Z</time>
      </trkpt>
      <trkpt lat="46.44553" lon="5.45665">
        <ele>376</ele>
        <time>2022-05-11T11:31:41Z</time>
      </trkpt>
      <trkpt lat="46.44528" lon="5.45658">
        <ele>376</ele>
        <time>2022-05-11T11:31:46Z</time>
      </trkpt>
      <trkpt lat="46.44518" lon="5.45655">
        <ele>376.4</ele>
        <time>2022-05-11T11:31:48Z</time>
      </trkpt>
      <trkpt lat="46.44502" lon="5.45651">
        <ele>376.8</ele>
        <time>2022-05-11T11:31:51Z</time>
      </trkpt>
      <trkpt lat="46.44498" lon="5.4565">
        <ele>377</ele>
        <time>2022-05-11T11:31:52Z</time>
      </trkpt>
      <trkpt lat="46.44495" lon="5.45648">
        <ele>377.2</ele>
        <time>2022-05-11T11:31:53Z</time>
      </trkpt>
      <trkpt lat="46.44471" lon="5.45645">
        <ele>377.8</ele>
        <time>2022-05-11T11:31:59Z</time>
      </trkpt>
      <trkpt lat="46.44441" lon="5.45639">
        <ele>378</ele>
        <time>2022-05-11T11:32:05Z</time>
      </trkpt>
      <trkpt lat="46.44395" lon="5.45634">
        <ele>377.2</ele>
        <time>2022-05-11T11:32:13Z</time>
      </trkpt>
      <trkpt lat="46.4437" lon="5.45631">
        <ele>375.8</ele>
        <time>2022-05-11T11:32:17Z</time>
      </trkpt>
      <trkpt lat="46.44345" lon="5.45628">
        <ele>374.8</ele>
        <time>2022-05-11T11:32:21Z</time>
      </trkpt>
      <trkpt lat="46.44338" lon="5.45627">
        <ele>374.8</ele>
        <time>2022-05-11T11:32:22Z</time>
      </trkpt>
      <trkpt lat="46.44302" lon="5.45623">
        <ele>373.8</ele>
        <time>2022-05-11T11:32:28Z</time>
      </trkpt>
      <trkpt lat="46.44284" lon="5.45622">
        <ele>373.6</ele>
        <time>2022-05-11T11:32:31Z</time>
      </trkpt>
      <trkpt lat="46.44245" lon="5.45622">
        <ele>373</ele>
        <time>2022-05-11T11:32:38Z</time>
      </trkpt>
      <trkpt lat="46.44234" lon="5.45624">
        <ele>372.8</ele>
        <time>2022-05-11T11:32:40Z</time>
      </trkpt>
      <trkpt lat="46.4421" lon="5.45628">
        <ele>372</ele>
        <time>2022-05-11T11:32:44Z</time>
      </trkpt>
      <trkpt lat="46.44198" lon="5.4563">
        <ele>371.6</ele>
        <time>2022-05-11T11:32:46Z</time>
      </trkpt>
      <trkpt lat="46.44164" lon="5.45637">
        <ele>371.2</ele>
        <time>2022-05-11T11:32:52Z</time>
      </trkpt>
      <trkpt lat="46.44105" lon="5.45648">
        <ele>370.8</ele>
        <time>2022-05-11T11:33:02Z</time>
      </trkpt>
      <trkpt lat="46.44071" lon="5.45655">
        <ele>370.6</ele>
        <time>2022-05-11T11:33:08Z</time>
      </trkpt>
      <trkpt lat="46.44048" lon="5.4566">
        <ele>370.4</ele>
        <time>2022-05-11T11:33:12Z</time>
      </trkpt>
      <trkpt lat="46.44002" lon="5.45668">
        <ele>369.6</ele>
        <time>2022-05-11T11:33:20Z</time>
      </trkpt>
      <trkpt lat="46.43972" lon="5.45674">
        <ele>369</ele>
        <time>2022-05-11T11:33:25Z</time>
      </trkpt>
      <trkpt lat="46.43921" lon="5.45683">
        <ele>368.8</ele>
        <time>2022-05-11T11:33:34Z</time>
      </trkpt>
      <trkpt lat="46.43893" lon="5.45691">
        <ele>369</ele>
        <time>2022-05-11T11:33:40Z</time>
      </trkpt>
      <trkpt lat="46.4388" lon="5.45696">
        <ele>369</ele>
        <time>2022-05-11T11:33:43Z</time>
      </trkpt>
      <trkpt lat="46.43873" lon="5.4571">
        <ele>369</ele>
        <time>2022-05-11T11:33:45Z</time>
      </trkpt>
      <trkpt lat="46.43873" lon="5.45725">
        <ele>369</ele>
        <time>2022-05-11T11:33:47Z</time>
      </trkpt>
      <trkpt lat="46.43877" lon="5.45739">
        <ele>368.8</ele>
        <time>2022-05-11T11:33:49Z</time>
      </trkpt>
      <trkpt lat="46.43888" lon="5.45775">
        <ele>368.6</ele>
        <time>2022-05-11T11:33:54Z</time>
      </trkpt>
      <trkpt lat="46.4389" lon="5.45782">
        <ele>368.4</ele>
        <time>2022-05-11T11:33:55Z</time>
      </trkpt>
      <trkpt lat="46.43896" lon="5.45803">
        <ele>368.2</ele>
        <time>2022-05-11T11:33:58Z</time>
      </trkpt>
      <trkpt lat="46.43897" lon="5.45817">
        <ele>368</ele>
        <time>2022-05-11T11:34:00Z</time>
      </trkpt>
      <trkpt lat="46.43897" lon="5.45824">
        <ele>367.8</ele>
        <time>2022-05-11T11:34:01Z</time>
      </trkpt>
      <trkpt lat="46.43896" lon="5.45831">
        <ele>367.8</ele>
        <time>2022-05-11T11:34:02Z</time>
      </trkpt>
      <trkpt lat="46.43892" lon="5.45845">
        <ele>367.8</ele>
        <time>2022-05-11T11:34:04Z</time>
      </trkpt>
      <trkpt lat="46.43888" lon="5.4585">
        <ele>367.8</ele>
        <time>2022-05-11T11:34:05Z</time>
      </trkpt>
      <trkpt lat="46.43884" lon="5.45854">
        <ele>367.8</ele>
        <time>2022-05-11T11:34:06Z</time>
      </trkpt>
      <trkpt lat="46.43875" lon="5.45861">
        <ele>367.8</ele>
        <time>2022-05-11T11:34:08Z</time>
      </trkpt>
      <trkpt lat="46.43866" lon="5.45866">
        <ele>367.8</ele>
        <time>2022-05-11T11:34:10Z</time>
      </trkpt>
      <trkpt lat="46.43834" lon="5.45882">
        <ele>368.8</ele>
        <time>2022-05-11T11:34:18Z</time>
      </trkpt>
      <trkpt lat="46.43815" lon="5.45893">
        <ele>369.8</ele>
        <time>2022-05-11T11:34:23Z</time>
      </trkpt>
      <trkpt lat="46.43808" lon="5.45897">
        <ele>370</ele>
        <time>2022-05-11T11:34:25Z</time>
      </trkpt>
      <trkpt lat="46.43804" lon="5.45899">
        <ele>370.2</ele>
        <time>2022-05-11T11:34:26Z</time>
      </trkpt>
      <trkpt lat="46.4378" lon="5.45912">
        <ele>370.4</ele>
        <time>2022-05-11T11:34:32Z</time>
      </trkpt>
      <trkpt lat="46.43772" lon="5.45919">
        <ele>370.4</ele>
        <time>2022-05-11T11:34:34Z</time>
      </trkpt>
      <trkpt lat="46.43765" lon="5.45927">
        <ele>370.2</ele>
        <time>2022-05-11T11:34:36Z</time>
      </trkpt>
      <trkpt lat="46.43749" lon="5.45947">
        <ele>370</ele>
        <time>2022-05-11T11:34:40Z</time>
      </trkpt>
      <trkpt lat="46.43743" lon="5.45954">
        <ele>369.8</ele>
        <time>2022-05-11T11:34:41Z</time>
      </trkpt>
      <trkpt lat="46.43719" lon="5.4598">
        <ele>369.6</ele>
        <time>2022-05-11T11:34:46Z</time>
      </trkpt>
      <trkpt lat="46.4371" lon="5.45992">
        <ele>369.4</ele>
        <time>2022-05-11T11:34:48Z</time>
      </trkpt>
      <trkpt lat="46.437" lon="5.46009">
        <ele>369.2</ele>
        <time>2022-05-11T11:34:51Z</time>
      </trkpt>
      <trkpt lat="46.43681" lon="5.46039">
        <ele>369</ele>
        <time>2022-05-11T11:34:57Z</time>
      </trkpt>
      <trkpt lat="46.43677" lon="5.46043">
        <ele>369</ele>
        <time>2022-05-11T11:34:58Z</time>
      </trkpt>
      <trkpt lat="46.4366" lon="5.46054">
        <ele>369</ele>
        <time>2022-05-11T11:35:02Z</time>
      </trkpt>
      <trkpt lat="46.43649" lon="5.46058">
        <ele>369.2</ele>
        <time>2022-05-11T11:35:05Z</time>
      </trkpt>
      <trkpt lat="46.4364" lon="5.46061">
        <ele>369.4</ele>
        <time>2022-05-11T11:35:07Z</time>
      </trkpt>
      <trkpt lat="46.43637" lon="5.46062">
        <ele>369.4</ele>
        <time>2022-05-11T11:35:08Z</time>
      </trkpt>
      <trkpt lat="46.43611" lon="5.46066">
        <ele>370</ele>
        <time>2022-05-11T11:35:14Z</time>
      </trkpt>
      <trkpt lat="46.43607" lon="5.46067">
        <ele>370.2</ele>
        <time>2022-05-11T11:35:15Z</time>
      </trkpt>
      <trkpt lat="46.43576" lon="5.46074">
        <ele>370.6</ele>
        <time>2022-05-11T11:35:22Z</time>
      </trkpt>
      <trkpt lat="46.43558" lon="5.46078">
        <ele>370.8</ele>
        <time>2022-05-11T11:35:26Z</time>
      </trkpt>
      <trkpt lat="46.43532" lon="5.46087">
        <ele>371</ele>
        <time>2022-05-11T11:35:32Z</time>
      </trkpt>
      <trkpt lat="46.43528" lon="5.46089">
        <ele>371</ele>
        <time>2022-05-11T11:35:33Z</time>
      </trkpt>
      <trkpt lat="46.43501" lon="5.46106">
        <ele>370.8</ele>
        <time>2022-05-11T11:35:39Z</time>
      </trkpt>
      <trkpt lat="46.43469" lon="5.46136">
        <ele>370.8</ele>
        <time>2022-05-11T11:35:47Z</time>
      </trkpt>
      <trkpt lat="46.43425" lon="5.46174">
        <ele>371</ele>
        <time>2022-05-11T11:35:57Z</time>
      </trkpt>
      <trkpt lat="46.43389" lon="5.46204">
        <ele>371</ele>
        <time>2022-05-11T11:36:06Z</time>
      </trkpt>
      <trkpt lat="46.43363" lon="5.46233">
        <ele>372</ele>
        <time>2022-05-11T11:36:14Z</time>
      </trkpt>
      <trkpt lat="46.43345" lon="5.46266">
        <ele>373.2</ele>
        <time>2022-05-11T11:36:21Z</time>
      </trkpt>
      <trkpt lat="46.43342" lon="5.46272">
        <ele>373.4</ele>
        <time>2022-05-11T11:36:22Z</time>
      </trkpt>
      <trkpt lat="46.43321" lon="5.4632">
        <ele>373.8</ele>
        <time>2022-05-11T11:36:30Z</time>
      </trkpt>
      <trkpt lat="46.43308" lon="5.46359">
        <ele>374.2</ele>
        <time>2022-05-11T11:36:36Z</time>
      </trkpt>
      <trkpt lat="46.43304" lon="5.46373">
        <ele>374.2</ele>
        <time>2022-05-11T11:36:38Z</time>
      </trkpt>
      <trkpt lat="46.43302" lon="5.4638">
        <ele>374.2</ele>
        <time>2022-05-11T11:36:39Z</time>
      </trkpt>
      <trkpt lat="46.43294" lon="5.46424">
        <ele>374.2</ele>
        <time>2022-05-11T11:36:45Z</time>
      </trkpt>
      <trkpt lat="46.43286" lon="5.46461">
        <ele>374.4</ele>
        <time>2022-05-11T11:36:50Z</time>
      </trkpt>
      <trkpt lat="46.43279" lon="5.46481">
        <ele>374.4</ele>
        <time>2022-05-11T11:36:53Z</time>
      </trkpt>
      <trkpt lat="46.43261" lon="5.46516">
        <ele>374.8</ele>
        <time>2022-05-11T11:36:59Z</time>
      </trkpt>
      <trkpt lat="46.43247" lon="5.46534">
        <ele>375.2</ele>
        <time>2022-05-11T11:37:03Z</time>
      </trkpt>
      <trkpt lat="46.43228" lon="5.46558">
        <ele>375.6</ele>
        <time>2022-05-11T11:37:08Z</time>
      </trkpt>
      <trkpt lat="46.43209" lon="5.4659">
        <ele>375.6</ele>
        <time>2022-05-11T11:37:13Z</time>
      </trkpt>
      <trkpt lat="46.432" lon="5.46605">
        <ele>375.6</ele>
        <time>2022-05-11T11:37:15Z</time>
      </trkpt>
      <trkpt lat="46.4319" lon="5.46617">
        <ele>375.4</ele>
        <time>2022-05-11T11:37:17Z</time>
      </trkpt>
      <trkpt lat="46.43185" lon="5.46622">
        <ele>375.2</ele>
        <time>2022-05-11T11:37:18Z</time>
      </trkpt>
      <trkpt lat="46.43155" lon="5.46645">
        <ele>374</ele>
        <time>2022-05-11T11:37:23Z</time>
      </trkpt>
      <trkpt lat="46.43142" lon="5.46651">
        <ele>373.8</ele>
        <time>2022-05-11T11:37:25Z</time>
      </trkpt>
      <trkpt lat="46.43128" lon="5.46655">
        <ele>373.4</ele>
        <time>2022-05-11T11:37:27Z</time>
      </trkpt>
      <trkpt lat="46.43108" lon="5.46655">
        <ele>373.4</ele>
        <time>2022-05-11T11:37:30Z</time>
      </trkpt>
      <trkpt lat="46.43083" lon="5.46648">
        <ele>373</ele>
        <time>2022-05-11T11:37:34Z</time>
      </trkpt>
      <trkpt lat="46.43071" lon="5.46644">
        <ele>373</ele>
        <time>2022-05-11T11:37:36Z</time>
      </trkpt>
      <trkpt lat="46.43058" lon="5.46641">
        <ele>372.8</ele>
        <time>2022-05-11T11:37:38Z</time>
      </trkpt>
      <trkpt lat="46.43039" lon="5.46642">
        <ele>372.4</ele>
        <time>2022-05-11T11:37:41Z</time>
      </trkpt>
      <trkpt lat="46.43011" lon="5.4665">
        <ele>371.8</ele>
        <time>2022-05-11T11:37:45Z</time>
      </trkpt>
      <trkpt lat="46.42997" lon="5.46655">
        <ele>371.4</ele>
        <time>2022-05-11T11:37:47Z</time>
      </trkpt>
      <trkpt lat="46.42976" lon="5.46661">
        <ele>370.6</ele>
        <time>2022-05-11T11:37:50Z</time>
      </trkpt>
      <trkpt lat="46.42954" lon="5.46663">
        <ele>370.2</ele>
        <time>2022-05-11T11:37:53Z</time>
      </trkpt>
      <trkpt lat="46.42909" lon="5.46668">
        <ele>369.6</ele>
        <time>2022-05-11T11:38:00Z</time>
      </trkpt>
      <trkpt lat="46.42867" lon="5.46673">
        <ele>369</ele>
        <time>2022-05-11T11:38:07Z</time>
      </trkpt>
      <trkpt lat="46.42821" lon="5.46687">
        <ele>368.6</ele>
        <time>2022-05-11T11:38:15Z</time>
      </trkpt>
      <trkpt lat="46.42778" lon="5.46702">
        <ele>368.6</ele>
        <time>2022-05-11T11:38:23Z</time>
      </trkpt>
      <trkpt lat="46.42738" lon="5.46716">
        <ele>368.6</ele>
        <time>2022-05-11T11:38:31Z</time>
      </trkpt>
      <trkpt lat="46.427" lon="5.46722">
        <ele>369</ele>
        <time>2022-05-11T11:38:39Z</time>
      </trkpt>
      <trkpt lat="46.42668" lon="5.46733">
        <ele>369.6</ele>
        <time>2022-05-11T11:38:46Z</time>
      </trkpt>
      <trkpt lat="46.42635" lon="5.46761">
        <ele>370.6</ele>
        <time>2022-05-11T11:38:54Z</time>
      </trkpt>
      <trkpt lat="46.42626" lon="5.4677">
        <ele>370.8</ele>
        <time>2022-05-11T11:38:56Z</time>
      </trkpt>
      <trkpt lat="46.42597" lon="5.46799">
        <ele>371</ele>
        <time>2022-05-11T11:39:03Z</time>
      </trkpt>
      <trkpt lat="46.42549" lon="5.46842">
        <ele>371.6</ele>
        <time>2022-05-11T11:39:15Z</time>
      </trkpt>
      <trkpt lat="46.42531" lon="5.46853">
        <ele>371.8</ele>
        <time>2022-05-11T11:39:19Z</time>
      </trkpt>
      <trkpt lat="46.42516" lon="5.46855">
        <ele>372.2</ele>
        <time>2022-05-11T11:39:22Z</time>
      </trkpt>
      <trkpt lat="46.42507" lon="5.46852">
        <ele>372.6</ele>
        <time>2022-05-11T11:39:24Z</time>
      </trkpt>
      <trkpt lat="46.42498" lon="5.46847">
        <ele>373</ele>
        <time>2022-05-11T11:39:26Z</time>
      </trkpt>
      <trkpt lat="46.42493" lon="5.46844">
        <ele>373.4</ele>
        <time>2022-05-11T11:39:27Z</time>
      </trkpt>
      <trkpt lat="46.42485" lon="5.46837">
        <ele>374.2</ele>
        <time>2022-05-11T11:39:29Z</time>
      </trkpt>
      <trkpt lat="46.42454" lon="5.46816">
        <ele>374.6</ele>
        <time>2022-05-11T11:39:36Z</time>
      </trkpt>
      <trkpt lat="46.42406" lon="5.46785">
        <ele>375.2</ele>
        <time>2022-05-11T11:39:46Z</time>
      </trkpt>
      <trkpt lat="46.42401" lon="5.46783">
        <ele>375.4</ele>
        <time>2022-05-11T11:39:47Z</time>
      </trkpt>
      <trkpt lat="46.42362" lon="5.46762">
        <ele>375.4</ele>
        <time>2022-05-11T11:39:55Z</time>
      </trkpt>
      <trkpt lat="46.42324" lon="5.46743">
        <ele>374.8</ele>
        <time>2022-05-11T11:40:03Z</time>
      </trkpt>
      <trkpt lat="46.42306" lon="5.46735">
        <ele>374.6</ele>
        <time>2022-05-11T11:40:07Z</time>
      </trkpt>
      <trkpt lat="46.42297" lon="5.46736">
        <ele>374.6</ele>
        <time>2022-05-11T11:40:09Z</time>
      </trkpt>
      <trkpt lat="46.42289" lon="5.46743">
        <ele>374.6</ele>
        <time>2022-05-11T11:40:11Z</time>
      </trkpt>
      <trkpt lat="46.42282" lon="5.46752">
        <ele>374.8</ele>
        <time>2022-05-11T11:40:13Z</time>
      </trkpt>
      <trkpt lat="46.42279" lon="5.46756">
        <ele>374.8</ele>
        <time>2022-05-11T11:40:14Z</time>
      </trkpt>
      <trkpt lat="46.42272" lon="5.46766">
        <ele>375</ele>
        <time>2022-05-11T11:40:16Z</time>
      </trkpt>
      <trkpt lat="46.42265" lon="5.46777">
        <ele>375</ele>
        <time>2022-05-11T11:40:18Z</time>
      </trkpt>
      <trkpt lat="46.42247" lon="5.46804">
        <ele>375</ele>
        <time>2022-05-11T11:40:23Z</time>
      </trkpt>
      <trkpt lat="46.42238" lon="5.46812">
        <ele>375</ele>
        <time>2022-05-11T11:40:25Z</time>
      </trkpt>
      <trkpt lat="46.42225" lon="5.46817">
        <ele>375</ele>
        <time>2022-05-11T11:40:27Z</time>
      </trkpt>
      <trkpt lat="46.42214" lon="5.46818">
        <ele>374.6</ele>
        <time>2022-05-11T11:40:29Z</time>
      </trkpt>
      <trkpt lat="46.42199" lon="5.46813">
        <ele>374.2</ele>
        <time>2022-05-11T11:40:31Z</time>
      </trkpt>
      <trkpt lat="46.42186" lon="5.46803">
        <ele>373.8</ele>
        <time>2022-05-11T11:40:33Z</time>
      </trkpt>
      <trkpt lat="46.42166" lon="5.46789">
        <ele>372.6</ele>
        <time>2022-05-11T11:40:36Z</time>
      </trkpt>
      <trkpt lat="46.42147" lon="5.46776">
        <ele>371.2</ele>
        <time>2022-05-11T11:40:39Z</time>
      </trkpt>
      <trkpt lat="46.42141" lon="5.46772">
        <ele>371</ele>
        <time>2022-05-11T11:40:40Z</time>
      </trkpt>
      <trkpt lat="46.42108" lon="5.46754">
        <ele>370.2</ele>
        <time>2022-05-11T11:40:46Z</time>
      </trkpt>
      <trkpt lat="46.42071" lon="5.46737">
        <ele>369.8</ele>
        <time>2022-05-11T11:40:53Z</time>
      </trkpt>
      <trkpt lat="46.42048" lon="5.46728">
        <ele>370</ele>
        <time>2022-05-11T11:40:58Z</time>
      </trkpt>
      <trkpt lat="46.42024" lon="5.46716">
        <ele>370.8</ele>
        <time>2022-05-11T11:41:04Z</time>
      </trkpt>
      <trkpt lat="46.42021" lon="5.46713">
        <ele>371</ele>
        <time>2022-05-11T11:41:05Z</time>
      </trkpt>
      <trkpt lat="46.42015" lon="5.46707">
        <ele>371.2</ele>
        <time>2022-05-11T11:41:07Z</time>
      </trkpt>
      <trkpt lat="46.42009" lon="5.467">
        <ele>371.4</ele>
        <time>2022-05-11T11:41:09Z</time>
      </trkpt>
      <trkpt lat="46.41999" lon="5.4669">
        <ele>372.2</ele>
        <time>2022-05-11T11:41:12Z</time>
      </trkpt>
      <trkpt lat="46.41982" lon="5.46672">
        <ele>373</ele>
        <time>2022-05-11T11:41:17Z</time>
      </trkpt>
      <trkpt lat="46.41975" lon="5.46667">
        <ele>373.4</ele>
        <time>2022-05-11T11:41:19Z</time>
      </trkpt>
      <trkpt lat="46.41959" lon="5.46655">
        <ele>374</ele>
        <time>2022-05-11T11:41:23Z</time>
      </trkpt>
      <trkpt lat="46.41954" lon="5.46651">
        <ele>374</ele>
        <time>2022-05-11T11:41:24Z</time>
      </trkpt>
      <trkpt lat="46.41946" lon="5.46646">
        <ele>374.4</ele>
        <time>2022-05-11T11:41:26Z</time>
      </trkpt>
      <trkpt lat="46.41929" lon="5.46637">
        <ele>375</ele>
        <time>2022-05-11T11:41:30Z</time>
      </trkpt>
      <trkpt lat="46.41907" lon="5.46624">
        <ele>375.6</ele>
        <time>2022-05-11T11:41:35Z</time>
      </trkpt>
      <trkpt lat="46.41899" lon="5.4662">
        <ele>375.6</ele>
        <time>2022-05-11T11:41:37Z</time>
      </trkpt>
      <trkpt lat="46.41857" lon="5.46607">
        <ele>375.6</ele>
        <time>2022-05-11T11:41:46Z</time>
      </trkpt>
      <trkpt lat="46.41822" lon="5.46603">
        <ele>375.8</ele>
        <time>2022-05-11T11:41:53Z</time>
      </trkpt>
      <trkpt lat="46.41817" lon="5.46601">
        <ele>375.8</ele>
        <time>2022-05-11T11:41:54Z</time>
      </trkpt>
      <trkpt lat="46.41813" lon="5.466">
        <ele>375.8</ele>
        <time>2022-05-11T11:41:55Z</time>
      </trkpt>
      <trkpt lat="46.41805" lon="5.46592">
        <ele>375.8</ele>
        <time>2022-05-11T11:41:57Z</time>
      </trkpt>
      <trkpt lat="46.41801" lon="5.46586">
        <ele>375.8</ele>
        <time>2022-05-11T11:41:58Z</time>
      </trkpt>
      <trkpt lat="46.41796" lon="5.46579">
        <ele>375.8</ele>
        <time>2022-05-11T11:41:59Z</time>
      </trkpt>
      <trkpt lat="46.41783" lon="5.4655">
        <ele>375.6</ele>
        <time>2022-05-11T11:42:03Z</time>
      </trkpt>
      <trkpt lat="46.41759" lon="5.46495">
        <ele>375.2</ele>
        <time>2022-05-11T11:42:11Z</time>
      </trkpt>
      <trkpt lat="46.41729" lon="5.46425">
        <ele>374.8</ele>
        <time>2022-05-11T11:42:21Z</time>
      </trkpt>
      <trkpt lat="46.41725" lon="5.46417">
        <ele>374.8</ele>
        <time>2022-05-11T11:42:22Z</time>
      </trkpt>
      <trkpt lat="46.41715" lon="5.46396">
        <ele>374.6</ele>
        <time>2022-05-11T11:42:25Z</time>
      </trkpt>
      <trkpt lat="46.41712" lon="5.46388">
        <ele>374.4</ele>
        <time>2022-05-11T11:42:26Z</time>
      </trkpt>
      <trkpt lat="46.41709" lon="5.4638">
        <ele>374.4</ele>
        <time>2022-05-11T11:42:27Z</time>
      </trkpt>
      <trkpt lat="46.41689" lon="5.46333">
        <ele>373.4</ele>
        <time>2022-05-11T11:42:33Z</time>
      </trkpt>
      <trkpt lat="46.41685" lon="5.46325">
        <ele>373</ele>
        <time>2022-05-11T11:42:34Z</time>
      </trkpt>
      <trkpt lat="46.41676" lon="5.46303">
        <ele>372.6</ele>
        <time>2022-05-11T11:42:37Z</time>
      </trkpt>
      <trkpt lat="46.41663" lon="5.46276">
        <ele>371.4</ele>
        <time>2022-05-11T11:42:41Z</time>
      </trkpt>
      <trkpt lat="46.41641" lon="5.46227">
        <ele>370.8</ele>
        <time>2022-05-11T11:42:48Z</time>
      </trkpt>
      <trkpt lat="46.41633" lon="5.46215">
        <ele>370.4</ele>
        <time>2022-05-11T11:42:50Z</time>
      </trkpt>
      <trkpt lat="46.41628" lon="5.4621">
        <ele>370.4</ele>
        <time>2022-05-11T11:42:51Z</time>
      </trkpt>
      <trkpt lat="46.41619" lon="5.46201">
        <ele>370.2</ele>
        <time>2022-05-11T11:42:53Z</time>
      </trkpt>
      <trkpt lat="46.41591" lon="5.46189">
        <ele>370.2</ele>
        <time>2022-05-11T11:42:58Z</time>
      </trkpt>
      <trkpt lat="46.41549" lon="5.46176">
        <ele>370.2</ele>
        <time>2022-05-11T11:43:06Z</time>
      </trkpt>
      <trkpt lat="46.41498" lon="5.4616">
        <ele>370.2</ele>
        <time>2022-05-11T11:43:16Z</time>
      </trkpt>
      <trkpt lat="46.41458" lon="5.46147">
        <ele>370.6</ele>
        <time>2022-05-11T11:43:24Z</time>
      </trkpt>
      <trkpt lat="46.41422" lon="5.46133">
        <ele>370.6</ele>
        <time>2022-05-11T11:43:31Z</time>
      </trkpt>
      <trkpt lat="46.41417" lon="5.46129">
        <ele>370.6</ele>
        <time>2022-05-11T11:43:32Z</time>
      </trkpt>
      <trkpt lat="46.41408" lon="5.4612">
        <ele>370.6</ele>
        <time>2022-05-11T11:43:34Z</time>
      </trkpt>
      <trkpt lat="46.41397" lon="5.46102">
        <ele>370.6</ele>
        <time>2022-05-11T11:43:37Z</time>
      </trkpt>
      <trkpt lat="46.4137" lon="5.46047">
        <ele>370.4</ele>
        <time>2022-05-11T11:43:45Z</time>
      </trkpt>
      <trkpt lat="46.41362" lon="5.46034">
        <ele>370</ele>
        <time>2022-05-11T11:43:47Z</time>
      </trkpt>
      <trkpt lat="46.41349" lon="5.46021">
        <ele>369.6</ele>
        <time>2022-05-11T11:43:50Z</time>
      </trkpt>
      <trkpt lat="46.41344" lon="5.46017">
        <ele>369.4</ele>
        <time>2022-05-11T11:43:51Z</time>
      </trkpt>
      <trkpt lat="46.4133" lon="5.46008">
        <ele>369.4</ele>
        <time>2022-05-11T11:43:54Z</time>
      </trkpt>
      <trkpt lat="46.41325" lon="5.46006">
        <ele>369.2</ele>
        <time>2022-05-11T11:43:55Z</time>
      </trkpt>
      <trkpt lat="46.41283" lon="5.45985">
        <ele>369.6</ele>
        <time>2022-05-11T11:44:04Z</time>
      </trkpt>
      <trkpt lat="46.41236" lon="5.45965">
        <ele>370</ele>
        <time>2022-05-11T11:44:13Z</time>
      </trkpt>
      <trkpt lat="46.41188" lon="5.45952">
        <ele>370.2</ele>
        <time>2022-05-11T11:44:22Z</time>
      </trkpt>
      <trkpt lat="46.41145" lon="5.45937">
        <ele>370</ele>
        <time>2022-05-11T11:44:30Z</time>
      </trkpt>
      <trkpt lat="46.4109" lon="5.45915">
        <ele>369.4</ele>
        <time>2022-05-11T11:44:40Z</time>
      </trkpt>
      <trkpt lat="46.41079" lon="5.4591">
        <ele>369.4</ele>
        <time>2022-05-11T11:44:42Z</time>
      </trkpt>
      <trkpt lat="46.41022" lon="5.45887">
        <ele>368.8</ele>
        <time>2022-05-11T11:44:52Z</time>
      </trkpt>
      <trkpt lat="46.40994" lon="5.45877">
        <ele>368.4</ele>
        <time>2022-05-11T11:44:57Z</time>
      </trkpt>
      <trkpt lat="46.40973" lon="5.45867">
        <ele>367.8</ele>
        <time>2022-05-11T11:45:01Z</time>
      </trkpt>
      <trkpt lat="46.40957" lon="5.4586">
        <ele>367.4</ele>
        <time>2022-05-11T11:45:04Z</time>
      </trkpt>
      <trkpt lat="46.40922" lon="5.45842">
        <ele>367</ele>
        <time>2022-05-11T11:45:10Z</time>
      </trkpt>
      <trkpt lat="46.40888" lon="5.45817">
        <ele>366.6</ele>
        <time>2022-05-11T11:45:16Z</time>
      </trkpt>
      <trkpt lat="46.40883" lon="5.45813">
        <ele>366.4</ele>
        <time>2022-05-11T11:45:17Z</time>
      </trkpt>
      <trkpt lat="46.40878" lon="5.4581">
        <ele>366.2</ele>
        <time>2022-05-11T11:45:18Z</time>
      </trkpt>
      <trkpt lat="46.40856" lon="5.45795">
        <ele>365.6</ele>
        <time>2022-05-11T11:45:22Z</time>
      </trkpt>
      <trkpt lat="46.40839" lon="5.45784">
        <ele>365.2</ele>
        <time>2022-05-11T11:45:25Z</time>
      </trkpt>
      <trkpt lat="46.40817" lon="5.45774">
        <ele>364.2</ele>
        <time>2022-05-11T11:45:29Z</time>
      </trkpt>
      <trkpt lat="46.40787" lon="5.45767">
        <ele>363.4</ele>
        <time>2022-05-11T11:45:34Z</time>
      </trkpt>
      <trkpt lat="46.40781" lon="5.45763">
        <ele>363.4</ele>
        <time>2022-05-11T11:45:35Z</time>
      </trkpt>
      <trkpt lat="46.4077" lon="5.45753">
        <ele>363.2</ele>
        <time>2022-05-11T11:45:37Z</time>
      </trkpt>
      <trkpt lat="46.40757" lon="5.45733">
        <ele>362.8</ele>
        <time>2022-05-11T11:45:40Z</time>
      </trkpt>
      <trkpt lat="46.40735" lon="5.45697">
        <ele>362.2</ele>
        <time>2022-05-11T11:45:45Z</time>
      </trkpt>
      <trkpt lat="46.40717" lon="5.4567">
        <ele>361.2</ele>
        <time>2022-05-11T11:45:49Z</time>
      </trkpt>
      <trkpt lat="46.40712" lon="5.45664">
        <ele>361</ele>
        <time>2022-05-11T11:45:50Z</time>
      </trkpt>
      <trkpt lat="46.40691" lon="5.45643">
        <ele>360.2</ele>
        <time>2022-05-11T11:45:54Z</time>
      </trkpt>
      <trkpt lat="46.40686" lon="5.45639">
        <ele>360.2</ele>
        <time>2022-05-11T11:45:55Z</time>
      </trkpt>
      <trkpt lat="46.40663" lon="5.4563">
        <ele>360</ele>
        <time>2022-05-11T11:45:59Z</time>
      </trkpt>
      <trkpt lat="46.40657" lon="5.45627">
        <ele>360</ele>
        <time>2022-05-11T11:46:00Z</time>
      </trkpt>
      <trkpt lat="46.40614" lon="5.45612">
        <ele>359.6</ele>
        <time>2022-05-11T11:46:08Z</time>
      </trkpt>
      <trkpt lat="46.40561" lon="5.45589">
        <ele>359.8</ele>
        <time>2022-05-11T11:46:18Z</time>
      </trkpt>
      <trkpt lat="46.40514" lon="5.45569">
        <ele>359.8</ele>
        <time>2022-05-11T11:46:27Z</time>
      </trkpt>
      <trkpt lat="46.40466" lon="5.45549">
        <ele>360</ele>
        <time>2022-05-11T11:46:36Z</time>
      </trkpt>
      <trkpt lat="46.40413" lon="5.45528">
        <ele>360.2</ele>
        <time>2022-05-11T11:46:46Z</time>
      </trkpt>
      <trkpt lat="46.40402" lon="5.45523">
        <ele>360.4</ele>
        <time>2022-05-11T11:46:48Z</time>
      </trkpt>
      <trkpt lat="46.40358" lon="5.45507">
        <ele>360.4</ele>
        <time>2022-05-11T11:46:56Z</time>
      </trkpt>
      <trkpt lat="46.40305" lon="5.45483">
        <ele>360.6</ele>
        <time>2022-05-11T11:47:06Z</time>
      </trkpt>
      <trkpt lat="46.40253" lon="5.4546">
        <ele>360.6</ele>
        <time>2022-05-11T11:47:16Z</time>
      </trkpt>
      <trkpt lat="46.40223" lon="5.45449">
        <ele>360.4</ele>
        <time>2022-05-11T11:47:22Z</time>
      </trkpt>
      <trkpt lat="46.40214" lon="5.45443">
        <ele>360.2</ele>
        <time>2022-05-11T11:47:24Z</time>
      </trkpt>
      <trkpt lat="46.40209" lon="5.4544">
        <ele>360.2</ele>
        <time>2022-05-11T11:47:25Z</time>
      </trkpt>
      <trkpt lat="46.40199" lon="5.45439">
        <ele>360.4</ele>
        <time>2022-05-11T11:47:27Z</time>
      </trkpt>
      <trkpt lat="46.40194" lon="5.45442">
        <ele>360.4</ele>
        <time>2022-05-11T11:47:28Z</time>
      </trkpt>
      <trkpt lat="46.4019" lon="5.45447">
        <ele>360.4</ele>
        <time>2022-05-11T11:47:29Z</time>
      </trkpt>
      <trkpt lat="46.40181" lon="5.45466">
        <ele>360.6</ele>
        <time>2022-05-11T11:47:32Z</time>
      </trkpt>
      <trkpt lat="46.40165" lon="5.45499">
        <ele>361.2</ele>
        <time>2022-05-11T11:47:37Z</time>
      </trkpt>
      <trkpt lat="46.40161" lon="5.45513">
        <ele>361.4</ele>
        <time>2022-05-11T11:47:39Z</time>
      </trkpt>
      <trkpt lat="46.40159" lon="5.45521">
        <ele>361.2</ele>
        <time>2022-05-11T11:47:40Z</time>
      </trkpt>
      <trkpt lat="46.40158" lon="5.45529">
        <ele>361.2</ele>
        <time>2022-05-11T11:47:41Z</time>
      </trkpt>
      <trkpt lat="46.40159" lon="5.45553">
        <ele>361.4</ele>
        <time>2022-05-11T11:47:44Z</time>
      </trkpt>
      <trkpt lat="46.40163" lon="5.45616">
        <ele>361.4</ele>
        <time>2022-05-11T11:47:52Z</time>
      </trkpt>
      <trkpt lat="46.40165" lon="5.45695">
        <ele>361.2</ele>
        <time>2022-05-11T11:48:02Z</time>
      </trkpt>
      <trkpt lat="46.40164" lon="5.45702">
        <ele>361.4</ele>
        <time>2022-05-11T11:48:03Z</time>
      </trkpt>
      <trkpt lat="46.40163" lon="5.45708">
        <ele>361.6</ele>
        <time>2022-05-11T11:48:04Z</time>
      </trkpt>
      <trkpt lat="46.40159" lon="5.45722">
        <ele>361.6</ele>
        <time>2022-05-11T11:48:06Z</time>
      </trkpt>
      <trkpt lat="46.40151" lon="5.45728">
        <ele>361.8</ele>
        <time>2022-05-11T11:48:08Z</time>
      </trkpt>
      <trkpt lat="46.40147" lon="5.45729">
        <ele>361.8</ele>
        <time>2022-05-11T11:48:09Z</time>
      </trkpt>
      <trkpt lat="46.40142" lon="5.45729">
        <ele>361.8</ele>
        <time>2022-05-11T11:48:10Z</time>
      </trkpt>
      <trkpt lat="46.40126" lon="5.45723">
        <ele>362.2</ele>
        <time>2022-05-11T11:48:14Z</time>
      </trkpt>
      <trkpt lat="46.40121" lon="5.4572">
        <ele>362.6</ele>
        <time>2022-05-11T11:48:15Z</time>
      </trkpt>
      <trkpt lat="46.40095" lon="5.4571">
        <ele>363.6</ele>
        <time>2022-05-11T11:48:21Z</time>
      </trkpt>
      <trkpt lat="46.40082" lon="5.45704">
        <ele>364.6</ele>
        <time>2022-05-11T11:48:24Z</time>
      </trkpt>
      <trkpt lat="46.40072" lon="5.45702">
        <ele>364.8</ele>
        <time>2022-05-11T11:48:26Z</time>
      </trkpt>
      <trkpt lat="46.40049" lon="5.45699">
        <ele>365.8</ele>
        <time>2022-05-11T11:48:31Z</time>
      </trkpt>
      <trkpt lat="46.40045" lon="5.457">
        <ele>366</ele>
        <time>2022-05-11T11:48:32Z</time>
      </trkpt>
      <trkpt lat="46.40017" lon="5.45709">
        <ele>367</ele>
        <time>2022-05-11T11:48:38Z</time>
      </trkpt>
      <trkpt lat="46.40008" lon="5.45714">
        <ele>367.2</ele>
        <time>2022-05-11T11:48:40Z</time>
      </trkpt>
      <trkpt lat="46.40003" lon="5.45716">
        <ele>367.6</ele>
        <time>2022-05-11T11:48:41Z</time>
      </trkpt>
      <trkpt lat="46.39992" lon="5.45718">
        <ele>368.2</ele>
        <time>2022-05-11T11:48:43Z</time>
      </trkpt>
      <trkpt lat="46.39984" lon="5.45718">
        <ele>368.8</ele>
        <time>2022-05-11T11:48:45Z</time>
      </trkpt>
      <trkpt lat="46.39968" lon="5.45718">
        <ele>369.6</ele>
        <time>2022-05-11T11:48:48Z</time>
      </trkpt>
      <trkpt lat="46.3994" lon="5.45716">
        <ele>370.2</ele>
        <time>2022-05-11T11:48:54Z</time>
      </trkpt>
      <trkpt lat="46.39925" lon="5.45715">
        <ele>370.6</ele>
        <time>2022-05-11T11:48:57Z</time>
      </trkpt>
      <trkpt lat="46.39897" lon="5.45713">
        <ele>371</ele>
        <time>2022-05-11T11:49:03Z</time>
      </trkpt>
      <trkpt lat="46.39878" lon="5.45713">
        <ele>371.6</ele>
        <time>2022-05-11T11:49:07Z</time>
      </trkpt>
      <trkpt lat="46.39863" lon="5.45713">
        <ele>371.8</ele>
        <time>2022-05-11T11:49:10Z</time>
      </trkpt>
      <trkpt lat="46.39859" lon="5.45713">
        <ele>371.8</ele>
        <time>2022-05-11T11:49:11Z</time>
      </trkpt>
      <trkpt lat="46.39836" lon="5.45717">
        <ele>372</ele>
        <time>2022-05-11T11:49:16Z</time>
      </trkpt>
      <trkpt lat="46.39819" lon="5.45723">
        <ele>372.4</ele>
        <time>2022-05-11T11:49:20Z</time>
      </trkpt>
      <trkpt lat="46.39803" lon="5.4573">
        <ele>372.8</ele>
        <time>2022-05-11T11:49:24Z</time>
      </trkpt>
      <trkpt lat="46.39784" lon="5.45739">
        <ele>373.6</ele>
        <time>2022-05-11T11:49:29Z</time>
      </trkpt>
      <trkpt lat="46.3978" lon="5.45742">
        <ele>374</ele>
        <time>2022-05-11T11:49:30Z</time>
      </trkpt>
      <trkpt lat="46.39761" lon="5.45751">
        <ele>375</ele>
        <time>2022-05-11T11:49:35Z</time>
      </trkpt>
      <trkpt lat="46.39749" lon="5.45756">
        <ele>375.6</ele>
        <time>2022-05-11T11:49:38Z</time>
      </trkpt>
      <trkpt lat="46.39739" lon="5.45759">
        <ele>376.4</ele>
        <time>2022-05-11T11:49:41Z</time>
      </trkpt>
      <trkpt lat="46.39718" lon="5.45765">
        <ele>377.6</ele>
        <time>2022-05-11T11:49:46Z</time>
      </trkpt>
      <trkpt lat="46.39714" lon="5.45766">
        <ele>377.8</ele>
        <time>2022-05-11T11:49:47Z</time>
      </trkpt>
      <trkpt lat="46.39676" lon="5.45777">
        <ele>378.8</ele>
        <time>2022-05-11T11:49:56Z</time>
      </trkpt>
      <trkpt lat="46.39669" lon="5.45779">
        <ele>379</ele>
        <time>2022-05-11T11:49:58Z</time>
      </trkpt>
      <trkpt lat="46.39642" lon="5.45786">
        <ele>379.8</ele>
        <time>2022-05-11T11:50:05Z</time>
      </trkpt>
      <trkpt lat="46.39634" lon="5.45787">
        <ele>380</ele>
        <time>2022-05-11T11:50:07Z</time>
      </trkpt>
      <trkpt lat="46.39621" lon="5.45788">
        <ele>380.8</ele>
        <time>2022-05-11T11:50:10Z</time>
      </trkpt>
      <trkpt lat="46.39597" lon="5.45786">
        <ele>381.8</ele>
        <time>2022-05-11T11:50:16Z</time>
      </trkpt>
      <trkpt lat="46.39592" lon="5.45786">
        <ele>382</ele>
        <time>2022-05-11T11:50:17Z</time>
      </trkpt>
      <trkpt lat="46.3957" lon="5.45785">
        <ele>383</ele>
        <time>2022-05-11T11:50:23Z</time>
      </trkpt>
      <trkpt lat="46.39566" lon="5.45784">
        <ele>383.2</ele>
        <time>2022-05-11T11:50:24Z</time>
      </trkpt>
      <trkpt lat="46.39546" lon="5.4578">
        <ele>384.4</ele>
        <time>2022-05-11T11:50:29Z</time>
      </trkpt>
      <trkpt lat="46.39538" lon="5.45777">
        <ele>385</ele>
        <time>2022-05-11T11:50:31Z</time>
      </trkpt>
      <trkpt lat="46.39508" lon="5.45763">
        <ele>385.4</ele>
        <time>2022-05-11T11:50:38Z</time>
      </trkpt>
      <trkpt lat="46.39474" lon="5.45754">
        <ele>385</ele>
        <time>2022-05-11T11:50:45Z</time>
      </trkpt>
      <trkpt lat="46.39444" lon="5.45749">
        <ele>384.2</ele>
        <time>2022-05-11T11:50:51Z</time>
      </trkpt>
      <trkpt lat="46.39409" lon="5.45742">
        <ele>384.4</ele>
        <time>2022-05-11T11:50:59Z</time>
      </trkpt>
      <trkpt lat="46.39371" lon="5.45733">
        <ele>384.6</ele>
        <time>2022-05-11T11:51:08Z</time>
      </trkpt>
      <trkpt lat="46.39338" lon="5.4573">
        <ele>384.4</ele>
        <time>2022-05-11T11:51:16Z</time>
      </trkpt>
      <trkpt lat="46.39333" lon="5.45725">
        <ele>384.2</ele>
        <time>2022-05-11T11:51:18Z</time>
      </trkpt>
      <trkpt lat="46.39331" lon="5.45721">
        <ele>384.2</ele>
        <time>2022-05-11T11:51:19Z</time>
      </trkpt>
      <trkpt lat="46.39325" lon="5.45695">
        <ele>384</ele>
        <time>2022-05-11T11:51:24Z</time>
      </trkpt>
      <trkpt lat="46.39325" lon="5.45682">
        <ele>384.2</ele>
        <time>2022-05-11T11:51:26Z</time>
      </trkpt>
      <trkpt lat="46.39325" lon="5.45661">
        <ele>384.2</ele>
        <time>2022-05-11T11:51:29Z</time>
      </trkpt>
      <trkpt lat="46.3933" lon="5.45607">
        <ele>384.4</ele>
        <time>2022-05-11T11:51:37Z</time>
      </trkpt>
      <trkpt lat="46.39333" lon="5.4557">
        <ele>385.2</ele>
        <time>2022-05-11T11:51:43Z</time>
      </trkpt>
      <trkpt lat="46.39333" lon="5.45558">
        <ele>385.6</ele>
        <time>2022-05-11T11:51:45Z</time>
      </trkpt>
      <trkpt lat="46.39332" lon="5.45553">
        <ele>386</ele>
        <time>2022-05-11T11:51:46Z</time>
      </trkpt>
      <trkpt lat="46.39328" lon="5.45548">
        <ele>386.2</ele>
        <time>2022-05-11T11:51:47Z</time>
      </trkpt>
      <trkpt lat="46.39318" lon="5.45551">
        <ele>386.8</ele>
        <time>2022-05-11T11:51:50Z</time>
      </trkpt>
      <trkpt lat="46.39306" lon="5.45558">
        <ele>387.6</ele>
        <time>2022-05-11T11:51:53Z</time>
      </trkpt>
      <trkpt lat="46.39296" lon="5.45562">
        <ele>388</ele>
        <time>2022-05-11T11:51:55Z</time>
      </trkpt>
      <trkpt lat="46.39258" lon="5.45577">
        <ele>388.8</ele>
        <time>2022-05-11T11:52:04Z</time>
      </trkpt>
      <trkpt lat="46.39221" lon="5.45594">
        <ele>388.8</ele>
        <time>2022-05-11T11:52:13Z</time>
      </trkpt>
      <trkpt lat="46.39209" lon="5.45597">
        <ele>389</ele>
        <time>2022-05-11T11:52:16Z</time>
      </trkpt>
      <trkpt lat="46.39192" lon="5.45603">
        <ele>389.4</ele>
        <time>2022-05-11T11:52:20Z</time>
      </trkpt>
      <trkpt lat="46.39159" lon="5.45613">
        <ele>389.6</ele>
        <time>2022-05-11T11:52:27Z</time>
      </trkpt>
      <trkpt lat="46.39119" lon="5.45628">
        <ele>390</ele>
        <time>2022-05-11T11:52:37Z</time>
      </trkpt>
      <trkpt lat="46.39093" lon="5.45636">
        <ele>391</ele>
        <time>2022-05-11T11:52:44Z</time>
      </trkpt>
      <trkpt lat="46.39081" lon="5.45639">
        <ele>391</ele>
        <time>2022-05-11T11:52:47Z</time>
      </trkpt>
      <trkpt lat="46.39061" lon="5.45643">
        <ele>391.2</ele>
        <time>2022-05-11T11:52:52Z</time>
      </trkpt>
      <trkpt lat="46.3902" lon="5.45651">
        <ele>392.2</ele>
        <time>2022-05-11T11:53:02Z</time>
      </trkpt>
      <trkpt lat="46.39015" lon="5.45651">
        <ele>392.2</ele>
        <time>2022-05-11T11:53:03Z</time>
      </trkpt>
      <trkpt lat="46.38972" lon="5.45652">
        <ele>393</ele>
        <time>2022-05-11T11:53:13Z</time>
      </trkpt>
      <trkpt lat="46.38946" lon="5.45648">
        <ele>394</ele>
        <time>2022-05-11T11:53:19Z</time>
      </trkpt>
      <trkpt lat="46.38934" lon="5.45646">
        <ele>394.2</ele>
        <time>2022-05-11T11:53:22Z</time>
      </trkpt>
      <trkpt lat="46.38879" lon="5.45644">
        <ele>394.6</ele>
        <time>2022-05-11T11:53:34Z</time>
      </trkpt>
      <trkpt lat="46.3885" lon="5.45648">
        <ele>395</ele>
        <time>2022-05-11T11:53:40Z</time>
      </trkpt>
      <trkpt lat="46.3884" lon="5.45648">
        <ele>395</ele>
        <time>2022-05-11T11:53:42Z</time>
      </trkpt>
      <trkpt lat="46.38814" lon="5.45647">
        <ele>394.8</ele>
        <time>2022-05-11T11:53:47Z</time>
      </trkpt>
      <trkpt lat="46.38798" lon="5.45643">
        <ele>394.4</ele>
        <time>2022-05-11T11:53:50Z</time>
      </trkpt>
      <trkpt lat="46.38751" lon="5.45636">
        <ele>393.4</ele>
        <time>2022-05-11T11:53:58Z</time>
      </trkpt>
      <trkpt lat="46.3874" lon="5.45635">
        <ele>393</ele>
        <time>2022-05-11T11:54:00Z</time>
      </trkpt>
      <trkpt lat="46.3872" lon="5.45635">
        <ele>392.4</ele>
        <time>2022-05-11T11:54:04Z</time>
      </trkpt>
      <trkpt lat="46.38682" lon="5.4563">
        <ele>392.4</ele>
        <time>2022-05-11T11:54:12Z</time>
      </trkpt>
      <trkpt lat="46.38647" lon="5.45632">
        <ele>393</ele>
        <time>2022-05-11T11:54:19Z</time>
      </trkpt>
      <trkpt lat="46.38596" lon="5.45643">
        <ele>393.2</ele>
        <time>2022-05-11T11:54:29Z</time>
      </trkpt>
      <trkpt lat="46.38551" lon="5.45652">
        <ele>393.2</ele>
        <time>2022-05-11T11:54:38Z</time>
      </trkpt>
      <trkpt lat="46.38514" lon="5.45658">
        <ele>394.2</ele>
        <time>2022-05-11T11:54:46Z</time>
      </trkpt>
      <trkpt lat="46.38497" lon="5.45658">
        <ele>394.4</ele>
        <time>2022-05-11T11:54:50Z</time>
      </trkpt>
      <trkpt lat="46.38483" lon="5.45656">
        <ele>394.6</ele>
        <time>2022-05-11T11:54:53Z</time>
      </trkpt>
      <trkpt lat="46.38475" lon="5.45655">
        <ele>395.2</ele>
        <time>2022-05-11T11:54:55Z</time>
      </trkpt>
      <trkpt lat="46.38459" lon="5.45654">
        <ele>396.2</ele>
        <time>2022-05-11T11:54:59Z</time>
      </trkpt>
      <trkpt lat="46.38455" lon="5.45654">
        <ele>396.6</ele>
        <time>2022-05-11T11:55:00Z</time>
      </trkpt>
      <trkpt lat="46.38451" lon="5.45654">
        <ele>396.8</ele>
        <time>2022-05-11T11:55:01Z</time>
      </trkpt>
      <trkpt lat="46.38444" lon="5.45654">
        <ele>397.2</ele>
        <time>2022-05-11T11:55:03Z</time>
      </trkpt>
      <trkpt lat="46.38424" lon="5.45652">
        <ele>398.2</ele>
        <time>2022-05-11T11:55:08Z</time>
      </trkpt>
      <trkpt lat="46.38404" lon="5.45647">
        <ele>399.2</ele>
        <time>2022-05-11T11:55:13Z</time>
      </trkpt>
      <trkpt lat="46.38387" lon="5.45641">
        <ele>399.8</ele>
        <time>2022-05-11T11:55:17Z</time>
      </trkpt>
      <trkpt lat="46.38379" lon="5.45639">
        <ele>400.2</ele>
        <time>2022-05-11T11:55:19Z</time>
      </trkpt>
      <trkpt lat="46.38349" lon="5.45634">
        <ele>400.8</ele>
        <time>2022-05-11T11:55:26Z</time>
      </trkpt>
      <trkpt lat="46.38316" lon="5.45629">
        <ele>401.2</ele>
        <time>2022-05-11T11:55:34Z</time>
      </trkpt>
      <trkpt lat="46.38303" lon="5.45627">
        <ele>402.2</ele>
        <time>2022-05-11T11:55:37Z</time>
      </trkpt>
      <trkpt lat="46.3826" lon="5.45621">
        <ele>403.2</ele>
        <time>2022-05-11T11:55:47Z</time>
      </trkpt>
      <trkpt lat="46.38255" lon="5.45621">
        <ele>403.2</ele>
        <time>2022-05-11T11:55:48Z</time>
      </trkpt>
      <trkpt lat="46.38225" lon="5.45619">
        <ele>404.2</ele>
        <time>2022-05-11T11:55:55Z</time>
      </trkpt>
      <trkpt lat="46.38212" lon="5.45618">
        <ele>405</ele>
        <time>2022-05-11T11:55:58Z</time>
      </trkpt>
      <trkpt lat="46.38207" lon="5.45618">
        <ele>405.4</ele>
        <time>2022-05-11T11:55:59Z</time>
      </trkpt>
      <trkpt lat="46.3817" lon="5.45615">
        <ele>406</ele>
        <time>2022-05-11T11:56:07Z</time>
      </trkpt>
      <trkpt lat="46.38158" lon="5.45614">
        <ele>406.4</ele>
        <time>2022-05-11T11:56:10Z</time>
      </trkpt>
      <trkpt lat="46.38137" lon="5.45612">
        <ele>406.8</ele>
        <time>2022-05-11T11:56:15Z</time>
      </trkpt>
      <trkpt lat="46.38125" lon="5.4561">
        <ele>407.6</ele>
        <time>2022-05-11T11:56:18Z</time>
      </trkpt>
      <trkpt lat="46.38098" lon="5.45605">
        <ele>408.8</ele>
        <time>2022-05-11T11:56:24Z</time>
      </trkpt>
      <trkpt lat="46.38094" lon="5.45603">
        <ele>409</ele>
        <time>2022-05-11T11:56:25Z</time>
      </trkpt>
      <trkpt lat="46.38082" lon="5.45599">
        <ele>409.8</ele>
        <time>2022-05-11T11:56:28Z</time>
      </trkpt>
      <trkpt lat="46.3806" lon="5.45594">
        <ele>410.8</ele>
        <time>2022-05-11T11:56:33Z</time>
      </trkpt>
      <trkpt lat="46.38022" lon="5.45584">
        <ele>411.2</ele>
        <time>2022-05-11T11:56:41Z</time>
      </trkpt>
      <trkpt lat="46.37989" lon="5.45581">
        <ele>411.2</ele>
        <time>2022-05-11T11:56:48Z</time>
      </trkpt>
      <trkpt lat="46.37956" lon="5.45582">
        <ele>411.8</ele>
        <time>2022-05-11T11:56:55Z</time>
      </trkpt>
      <trkpt lat="46.37947" lon="5.45584">
        <ele>412</ele>
        <time>2022-05-11T11:56:57Z</time>
      </trkpt>
      <trkpt lat="46.37907" lon="5.45591">
        <ele>412.4</ele>
        <time>2022-05-11T11:57:05Z</time>
      </trkpt>
      <trkpt lat="46.37896" lon="5.45594">
        <ele>412.8</ele>
        <time>2022-05-11T11:57:07Z</time>
      </trkpt>
      <trkpt lat="46.37863" lon="5.45596">
        <ele>413</ele>
        <time>2022-05-11T11:57:13Z</time>
      </trkpt>
      <trkpt lat="46.37828" lon="5.45594">
        <ele>411.8</ele>
        <time>2022-05-11T11:57:19Z</time>
      </trkpt>
      <trkpt lat="46.37822" lon="5.45593">
        <ele>411.4</ele>
        <time>2022-05-11T11:57:20Z</time>
      </trkpt>
      <trkpt lat="46.37804" lon="5.45592">
        <ele>410.6</ele>
        <time>2022-05-11T11:57:23Z</time>
      </trkpt>
      <trkpt lat="46.37779" lon="5.45591">
        <ele>409.6</ele>
        <time>2022-05-11T11:57:27Z</time>
      </trkpt>
      <trkpt lat="46.37772" lon="5.45591">
        <ele>409</ele>
        <time>2022-05-11T11:57:28Z</time>
      </trkpt>
      <trkpt lat="46.37758" lon="5.4559">
        <ele>407.8</ele>
        <time>2022-05-11T11:57:30Z</time>
      </trkpt>
      <trkpt lat="46.37736" lon="5.45588">
        <ele>407</ele>
        <time>2022-05-11T11:57:33Z</time>
      </trkpt>
      <trkpt lat="46.37729" lon="5.45588">
        <ele>406.4</ele>
        <time>2022-05-11T11:57:34Z</time>
      </trkpt>
      <trkpt lat="46.37714" lon="5.45586">
        <ele>405</ele>
        <time>2022-05-11T11:57:36Z</time>
      </trkpt>
      <trkpt lat="46.37685" lon="5.45585">
        <ele>404</ele>
        <time>2022-05-11T11:57:40Z</time>
      </trkpt>
      <trkpt lat="46.37676" lon="5.45585">
        <ele>403.4</ele>
        <time>2022-05-11T11:57:41Z</time>
      </trkpt>
      <trkpt lat="46.37671" lon="5.45585">
        <ele>402.8</ele>
        <time>2022-05-11T11:57:42Z</time>
      </trkpt>
      <trkpt lat="46.37636" lon="5.45585">
        <ele>401.8</ele>
        <time>2022-05-11T11:57:47Z</time>
      </trkpt>
      <trkpt lat="46.37612" lon="5.45585">
        <ele>400.8</ele>
        <time>2022-05-11T11:57:51Z</time>
      </trkpt>
      <trkpt lat="46.37568" lon="5.45586">
        <ele>400.2</ele>
        <time>2022-05-11T11:57:58Z</time>
      </trkpt>
      <trkpt lat="46.37556" lon="5.45588">
        <ele>400</ele>
        <time>2022-05-11T11:58:00Z</time>
      </trkpt>
      <trkpt lat="46.37542" lon="5.45591">
        <ele>399.8</ele>
        <time>2022-05-11T11:58:02Z</time>
      </trkpt>
      <trkpt lat="46.37517" lon="5.45601">
        <ele>398.6</ele>
        <time>2022-05-11T11:58:06Z</time>
      </trkpt>
      <trkpt lat="46.37495" lon="5.45612">
        <ele>397.4</ele>
        <time>2022-05-11T11:58:09Z</time>
      </trkpt>
      <trkpt lat="46.37472" lon="5.45624">
        <ele>396.2</ele>
        <time>2022-05-11T11:58:12Z</time>
      </trkpt>
      <trkpt lat="46.37464" lon="5.45627">
        <ele>395.8</ele>
        <time>2022-05-11T11:58:13Z</time>
      </trkpt>
      <trkpt lat="46.37437" lon="5.45634">
        <ele>394.8</ele>
        <time>2022-05-11T11:58:16Z</time>
      </trkpt>
      <trkpt lat="46.37423" lon="5.45635">
        <ele>394</ele>
        <time>2022-05-11T11:58:18Z</time>
      </trkpt>
      <trkpt lat="46.37415" lon="5.45636">
        <ele>393.6</ele>
        <time>2022-05-11T11:58:19Z</time>
      </trkpt>
      <trkpt lat="46.37393" lon="5.45634">
        <ele>392.6</ele>
        <time>2022-05-11T11:58:22Z</time>
      </trkpt>
      <trkpt lat="46.37378" lon="5.45633">
        <ele>391.6</ele>
        <time>2022-05-11T11:58:24Z</time>
      </trkpt>
      <trkpt lat="46.37351" lon="5.45633">
        <ele>390.4</ele>
        <time>2022-05-11T11:58:28Z</time>
      </trkpt>
      <trkpt lat="46.37331" lon="5.45634">
        <ele>389.6</ele>
        <time>2022-05-11T11:58:31Z</time>
      </trkpt>
      <trkpt lat="46.37325" lon="5.45634">
        <ele>389.4</ele>
        <time>2022-05-11T11:58:32Z</time>
      </trkpt>
      <trkpt lat="46.3729" lon="5.45634">
        <ele>388.8</ele>
        <time>2022-05-11T11:58:38Z</time>
      </trkpt>
      <trkpt lat="46.37255" lon="5.45637">
        <ele>388.4</ele>
        <time>2022-05-11T11:58:44Z</time>
      </trkpt>
      <trkpt lat="46.3725" lon="5.45637">
        <ele>388</ele>
        <time>2022-05-11T11:58:45Z</time>
      </trkpt>
      <trkpt lat="46.37227" lon="5.45638">
        <ele>387.2</ele>
        <time>2022-05-11T11:58:49Z</time>
      </trkpt>
      <trkpt lat="46.37194" lon="5.4564">
        <ele>386.2</ele>
        <time>2022-05-11T11:58:55Z</time>
      </trkpt>
      <trkpt lat="46.37171" lon="5.45642">
        <ele>385.8</ele>
        <time>2022-05-11T11:58:59Z</time>
      </trkpt>
      <trkpt lat="46.37154" lon="5.45644">
        <ele>385.4</ele>
        <time>2022-05-11T11:59:02Z</time>
      </trkpt>
      <trkpt lat="46.37148" lon="5.45644">
        <ele>385.2</ele>
        <time>2022-05-11T11:59:03Z</time>
      </trkpt>
      <trkpt lat="46.3713" lon="5.45645">
        <ele>385</ele>
        <time>2022-05-11T11:59:06Z</time>
      </trkpt>
      <trkpt lat="46.37112" lon="5.45645">
        <ele>384.4</ele>
        <time>2022-05-11T11:59:09Z</time>
      </trkpt>
      <trkpt lat="46.37077" lon="5.45645">
        <ele>383.8</ele>
        <time>2022-05-11T11:59:15Z</time>
      </trkpt>
      <trkpt lat="46.37065" lon="5.45645">
        <ele>383.6</ele>
        <time>2022-05-11T11:59:17Z</time>
      </trkpt>
      <trkpt lat="46.37031" lon="5.45637">
        <ele>382.8</ele>
        <time>2022-05-11T11:59:23Z</time>
      </trkpt>
      <trkpt lat="46.3702" lon="5.45632">
        <ele>382.4</ele>
        <time>2022-05-11T11:59:25Z</time>
      </trkpt>
      <trkpt lat="46.36975" lon="5.45611">
        <ele>382</ele>
        <time>2022-05-11T11:59:33Z</time>
      </trkpt>
      <trkpt lat="46.36953" lon="5.45603">
        <ele>381.8</ele>
        <time>2022-05-11T11:59:37Z</time>
      </trkpt>
      <trkpt lat="46.36936" lon="5.45601">
        <ele>381.6</ele>
        <time>2022-05-11T11:59:40Z</time>
      </trkpt>
      <trkpt lat="46.3689" lon="5.45593">
        <ele>380.8</ele>
        <time>2022-05-11T11:59:48Z</time>
      </trkpt>
      <trkpt lat="46.36838" lon="5.4559">
        <ele>380.8</ele>
        <time>2022-05-11T11:59:57Z</time>
      </trkpt>
      <trkpt lat="46.36808" lon="5.45588">
        <ele>380.6</ele>
        <time>2022-05-11T12:00:02Z</time>
      </trkpt>
      <trkpt lat="46.36779" lon="5.45589">
        <ele>380.2</ele>
        <time>2022-05-11T12:00:07Z</time>
      </trkpt>
      <trkpt lat="46.36731" lon="5.4559">
        <ele>379.4</ele>
        <time>2022-05-11T12:00:15Z</time>
      </trkpt>
      <trkpt lat="46.36714" lon="5.45592">
        <ele>379.2</ele>
        <time>2022-05-11T12:00:18Z</time>
      </trkpt>
      <trkpt lat="46.36656" lon="5.45602">
        <ele>379</ele>
        <time>2022-05-11T12:00:27Z</time>
      </trkpt>
      <trkpt lat="46.36636" lon="5.45606">
        <ele>378.4</ele>
        <time>2022-05-11T12:00:30Z</time>
      </trkpt>
      <trkpt lat="46.3661" lon="5.45611">
        <ele>377.4</ele>
        <time>2022-05-11T12:00:34Z</time>
      </trkpt>
      <trkpt lat="46.3659" lon="5.45613">
        <ele>376.2</ele>
        <time>2022-05-11T12:00:37Z</time>
      </trkpt>
      <trkpt lat="46.36553" lon="5.45612">
        <ele>375.2</ele>
        <time>2022-05-11T12:00:43Z</time>
      </trkpt>
      <trkpt lat="46.36542" lon="5.45611">
        <ele>375.2</ele>
        <time>2022-05-11T12:00:45Z</time>
      </trkpt>
      <trkpt lat="46.36489" lon="5.45608">
        <ele>374.6</ele>
        <time>2022-05-11T12:00:54Z</time>
      </trkpt>
      <trkpt lat="46.36435" lon="5.45621">
        <ele>374.4</ele>
        <time>2022-05-11T12:01:03Z</time>
      </trkpt>
      <trkpt lat="46.36407" lon="5.45634">
        <ele>374.2</ele>
        <time>2022-05-11T12:01:08Z</time>
      </trkpt>
      <trkpt lat="46.36383" lon="5.45644">
        <ele>374</ele>
        <time>2022-05-11T12:01:12Z</time>
      </trkpt>
      <trkpt lat="46.36349" lon="5.45649">
        <ele>373.8</ele>
        <time>2022-05-11T12:01:18Z</time>
      </trkpt>
      <trkpt lat="46.36291" lon="5.45645">
        <ele>373.4</ele>
        <time>2022-05-11T12:01:28Z</time>
      </trkpt>
      <trkpt lat="46.3625" lon="5.45641">
        <ele>373</ele>
        <time>2022-05-11T12:01:35Z</time>
      </trkpt>
      <trkpt lat="46.36233" lon="5.45639">
        <ele>372.8</ele>
        <time>2022-05-11T12:01:38Z</time>
      </trkpt>
      <trkpt lat="46.36191" lon="5.45639">
        <ele>372.2</ele>
        <time>2022-05-11T12:01:46Z</time>
      </trkpt>
      <trkpt lat="46.3618" lon="5.45639">
        <ele>372</ele>
        <time>2022-05-11T12:01:48Z</time>
      </trkpt>
      <trkpt lat="46.36146" lon="5.45641">
        <ele>371.4</ele>
        <time>2022-05-11T12:01:54Z</time>
      </trkpt>
      <trkpt lat="46.36124" lon="5.45641">
        <ele>371</ele>
        <time>2022-05-11T12:01:58Z</time>
      </trkpt>
      <trkpt lat="46.3608" lon="5.4564">
        <ele>371</ele>
        <time>2022-05-11T12:02:06Z</time>
      </trkpt>
      <trkpt lat="46.36027" lon="5.45637">
        <ele>370.4</ele>
        <time>2022-05-11T12:02:16Z</time>
      </trkpt>
      <trkpt lat="46.35969" lon="5.45631">
        <ele>370.6</ele>
        <time>2022-05-11T12:02:27Z</time>
      </trkpt>
      <trkpt lat="46.35959" lon="5.45631">
        <ele>370.6</ele>
        <time>2022-05-11T12:02:29Z</time>
      </trkpt>
      <trkpt lat="46.35917" lon="5.45637">
        <ele>370.8</ele>
        <time>2022-05-11T12:02:37Z</time>
      </trkpt>
      <trkpt lat="46.35876" lon="5.45651">
        <ele>370</ele>
        <time>2022-05-11T12:02:45Z</time>
      </trkpt>
      <trkpt lat="46.3587" lon="5.45653">
        <ele>370</ele>
        <time>2022-05-11T12:02:46Z</time>
      </trkpt>
      <trkpt lat="46.35839" lon="5.45664">
        <ele>369</ele>
        <time>2022-05-11T12:02:52Z</time>
      </trkpt>
      <trkpt lat="46.35827" lon="5.45665">
        <ele>368.4</ele>
        <time>2022-05-11T12:02:54Z</time>
      </trkpt>
      <trkpt lat="46.35802" lon="5.45662">
        <ele>368</ele>
        <time>2022-05-11T12:02:58Z</time>
      </trkpt>
      <trkpt lat="46.3579" lon="5.4566">
        <ele>367.4</ele>
        <time>2022-05-11T12:03:00Z</time>
      </trkpt>
      <trkpt lat="46.35784" lon="5.45658">
        <ele>366.8</ele>
        <time>2022-05-11T12:03:01Z</time>
      </trkpt>
      <trkpt lat="46.35773" lon="5.4566">
        <ele>366</ele>
        <time>2022-05-11T12:03:03Z</time>
      </trkpt>
      <trkpt lat="46.3577" lon="5.45666">
        <ele>365.6</ele>
        <time>2022-05-11T12:03:04Z</time>
      </trkpt>
      <trkpt lat="46.35768" lon="5.45672">
        <ele>365.6</ele>
        <time>2022-05-11T12:03:05Z</time>
      </trkpt>
      <trkpt lat="46.35769" lon="5.45687">
        <ele>365.4</ele>
        <time>2022-05-11T12:03:07Z</time>
      </trkpt>
      <trkpt lat="46.3577" lon="5.457">
        <ele>364.8</ele>
        <time>2022-05-11T12:03:09Z</time>
      </trkpt>
      <trkpt lat="46.35771" lon="5.45707">
        <ele>364.8</ele>
        <time>2022-05-11T12:03:10Z</time>
      </trkpt>
      <trkpt lat="46.35772" lon="5.45713">
        <ele>364.6</ele>
        <time>2022-05-11T12:03:11Z</time>
      </trkpt>
      <trkpt lat="46.35777" lon="5.45733">
        <ele>364</ele>
        <time>2022-05-11T12:03:14Z</time>
      </trkpt>
      <trkpt lat="46.35781" lon="5.45746">
        <ele>363.6</ele>
        <time>2022-05-11T12:03:16Z</time>
      </trkpt>
      <trkpt lat="46.35785" lon="5.4576">
        <ele>363.2</ele>
        <time>2022-05-11T12:03:18Z</time>
      </trkpt>
      <trkpt lat="46.35787" lon="5.45778">
        <ele>363</ele>
        <time>2022-05-11T12:03:20Z</time>
      </trkpt>
      <trkpt lat="46.35792" lon="5.45835">
        <ele>362.6</ele>
        <time>2022-05-11T12:03:26Z</time>
      </trkpt>
      <trkpt lat="46.35792" lon="5.45843">
        <ele>362.4</ele>
        <time>2022-05-11T12:03:27Z</time>
      </trkpt>
      <trkpt lat="46.3579" lon="5.45876">
        <ele>362</ele>
        <time>2022-05-11T12:03:31Z</time>
      </trkpt>
      <trkpt lat="46.35782" lon="5.45917">
        <ele>361.8</ele>
        <time>2022-05-11T12:03:36Z</time>
      </trkpt>
      <trkpt lat="46.3578" lon="5.45924">
        <ele>361.8</ele>
        <time>2022-05-11T12:03:37Z</time>
      </trkpt>
      <trkpt lat="46.35779" lon="5.4593">
        <ele>361.8</ele>
        <time>2022-05-11T12:03:38Z</time>
      </trkpt>
      <trkpt lat="46.35776" lon="5.45942">
        <ele>361.6</ele>
        <time>2022-05-11T12:03:40Z</time>
      </trkpt>
      <trkpt lat="46.35774" lon="5.45948">
        <ele>361.2</ele>
        <time>2022-05-11T12:03:41Z</time>
      </trkpt>
      <trkpt lat="46.35771" lon="5.45962">
        <ele>361</ele>
        <time>2022-05-11T12:03:43Z</time>
      </trkpt>
      <trkpt lat="46.35764" lon="5.45976">
        <ele>360.6</ele>
        <time>2022-05-11T12:03:45Z</time>
      </trkpt>
      <trkpt lat="46.35753" lon="5.45982">
        <ele>360.2</ele>
        <time>2022-05-11T12:03:47Z</time>
      </trkpt>
      <trkpt lat="46.3572" lon="5.45976">
        <ele>359.6</ele>
        <time>2022-05-11T12:03:52Z</time>
      </trkpt>
      <trkpt lat="46.35706" lon="5.45975">
        <ele>359.2</ele>
        <time>2022-05-11T12:03:55Z</time>
      </trkpt>
      <trkpt lat="46.35696" lon="5.45974">
        <ele>358.8</ele>
        <time>2022-05-11T12:03:57Z</time>
      </trkpt>
      <trkpt lat="46.35684" lon="5.45974">
        <ele>358.6</ele>
        <time>2022-05-11T12:04:00Z</time>
      </trkpt>
      <trkpt lat="46.35669" lon="5.45976">
        <ele>358.6</ele>
        <time>2022-05-11T12:04:04Z</time>
      </trkpt>
      <trkpt lat="46.35657" lon="5.45977">
        <ele>359.2</ele>
        <time>2022-05-11T12:04:09Z</time>
      </trkpt>
      <trkpt lat="46.35652" lon="5.45978">
        <ele>359</ele>
        <time>2022-05-11T12:04:12Z</time>
      </trkpt>
      <trkpt lat="46.35653" lon="5.4598">
        <ele>359</ele>
        <time>2022-05-11T12:04:13Z</time>
      </trkpt>
      <trkpt lat="46.35665" lon="5.45977">
        <ele>359</ele>
        <time>2022-05-11T12:04:17Z</time>
      </trkpt>
      <trkpt lat="46.35686" lon="5.45972">
        <ele>359.2</ele>
        <time>2022-05-11T12:04:24Z</time>
      </trkpt>
      <trkpt lat="46.35687" lon="5.45972">
        <ele>359.2</ele>
        <time>2022-05-11T12:04:27Z</time>
      </trkpt>
      <trkpt lat="46.35684" lon="5.45973">
        <ele>359.6</ele>
        <time>2022-05-11T12:04:42Z</time>
      </trkpt>
      <trkpt lat="46.35669" lon="5.45975">
        <ele>359.4</ele>
        <time>2022-05-11T12:04:48Z</time>
      </trkpt>
      <trkpt lat="46.35657" lon="5.45976">
        <ele>359.4</ele>
        <time>2022-05-11T12:04:54Z</time>
      </trkpt>
      <trkpt lat="46.35656" lon="5.45976">
        <ele>359.4</ele>
        <time>2022-05-11T12:04:56Z</time>
      </trkpt>
      <trkpt lat="46.35644" lon="5.45976">
        <ele>358.4</ele>
        <time>2022-05-11T12:06:07Z</time>
      </trkpt>
      <trkpt lat="46.35641" lon="5.45974">
        <ele>358.4</ele>
        <time>2022-05-11T12:06:08Z</time>
      </trkpt>
      <trkpt lat="46.35623" lon="5.45966">
        <ele>358.2</ele>
        <time>2022-05-11T12:06:14Z</time>
      </trkpt>
      <trkpt lat="46.35612" lon="5.45955">
        <ele>358.4</ele>
        <time>2022-05-11T12:06:19Z</time>
      </trkpt>
      <trkpt lat="46.3559" lon="5.45938">
        <ele>358.6</ele>
        <time>2022-05-11T12:06:26Z</time>
      </trkpt>
      <trkpt lat="46.35563" lon="5.45927">
        <ele>358.4</ele>
        <time>2022-05-11T12:06:33Z</time>
      </trkpt>
      <trkpt lat="46.3554" lon="5.45915">
        <ele>358.6</ele>
        <time>2022-05-11T12:06:39Z</time>
      </trkpt>
      <trkpt lat="46.35536" lon="5.45913">
        <ele>358.6</ele>
        <time>2022-05-11T12:06:40Z</time>
      </trkpt>
      <trkpt lat="46.35515" lon="5.45898">
        <ele>358.6</ele>
        <time>2022-05-11T12:06:45Z</time>
      </trkpt>
      <trkpt lat="46.35508" lon="5.45888">
        <ele>358.6</ele>
        <time>2022-05-11T12:06:47Z</time>
      </trkpt>
      <trkpt lat="46.35504" lon="5.45875">
        <ele>358.4</ele>
        <time>2022-05-11T12:06:49Z</time>
      </trkpt>
      <trkpt lat="46.35502" lon="5.4586">
        <ele>358.2</ele>
        <time>2022-05-11T12:06:51Z</time>
      </trkpt>
      <trkpt lat="46.35498" lon="5.45836">
        <ele>358</ele>
        <time>2022-05-11T12:06:54Z</time>
      </trkpt>
      <trkpt lat="46.35493" lon="5.45824">
        <ele>357.8</ele>
        <time>2022-05-11T12:06:56Z</time>
      </trkpt>
      <trkpt lat="46.35482" lon="5.45808">
        <ele>357.6</ele>
        <time>2022-05-11T12:06:59Z</time>
      </trkpt>
      <trkpt lat="46.35478" lon="5.45804">
        <ele>357.6</ele>
        <time>2022-05-11T12:07:00Z</time>
      </trkpt>
      <trkpt lat="46.35474" lon="5.45799">
        <ele>357.6</ele>
        <time>2022-05-11T12:07:01Z</time>
      </trkpt>
      <trkpt lat="46.35464" lon="5.45785">
        <ele>357.4</ele>
        <time>2022-05-11T12:07:04Z</time>
      </trkpt>
      <trkpt lat="46.35455" lon="5.45766">
        <ele>357.4</ele>
        <time>2022-05-11T12:07:07Z</time>
      </trkpt>
      <trkpt lat="46.35432" lon="5.45714">
        <ele>357.4</ele>
        <time>2022-05-11T12:07:15Z</time>
      </trkpt>
      <trkpt lat="46.35396" lon="5.45657">
        <ele>357.6</ele>
        <time>2022-05-11T12:07:25Z</time>
      </trkpt>
      <trkpt lat="46.35377" lon="5.45623">
        <ele>357.4</ele>
        <time>2022-05-11T12:07:31Z</time>
      </trkpt>
      <trkpt lat="46.35372" lon="5.45612">
        <ele>357.6</ele>
        <time>2022-05-11T12:07:33Z</time>
      </trkpt>
      <trkpt lat="46.3537" lon="5.456">
        <ele>357.8</ele>
        <time>2022-05-11T12:07:35Z</time>
      </trkpt>
      <trkpt lat="46.35371" lon="5.45579">
        <ele>358</ele>
        <time>2022-05-11T12:07:39Z</time>
      </trkpt>
      <trkpt lat="46.35368" lon="5.45572">
        <ele>358.4</ele>
        <time>2022-05-11T12:07:41Z</time>
      </trkpt>
      <trkpt lat="46.35364" lon="5.45571">
        <ele>358.6</ele>
        <time>2022-05-11T12:07:42Z</time>
      </trkpt>
      <trkpt lat="46.3536" lon="5.45571">
        <ele>358.8</ele>
        <time>2022-05-11T12:07:43Z</time>
      </trkpt>
      <trkpt lat="46.35355" lon="5.45572">
        <ele>358.8</ele>
        <time>2022-05-11T12:07:44Z</time>
      </trkpt>
      <trkpt lat="46.35342" lon="5.45577">
        <ele>358.8</ele>
        <time>2022-05-11T12:07:46Z</time>
      </trkpt>
      <trkpt lat="46.35302" lon="5.45602">
        <ele>358</ele>
        <time>2022-05-11T12:07:53Z</time>
      </trkpt>
      <trkpt lat="46.35296" lon="5.45607">
        <ele>357.6</ele>
        <time>2022-05-11T12:07:54Z</time>
      </trkpt>
      <trkpt lat="46.35279" lon="5.45622">
        <ele>356.8</ele>
        <time>2022-05-11T12:07:58Z</time>
      </trkpt>
      <trkpt lat="46.35275" lon="5.45625">
        <ele>356.8</ele>
        <time>2022-05-11T12:07:59Z</time>
      </trkpt>
      <trkpt lat="46.35261" lon="5.45632">
        <ele>356.8</ele>
        <time>2022-05-11T12:08:02Z</time>
      </trkpt>
      <trkpt lat="46.35227" lon="5.45643">
        <ele>357</ele>
        <time>2022-05-11T12:08:09Z</time>
      </trkpt>
      <trkpt lat="46.35199" lon="5.45649">
        <ele>357.8</ele>
        <time>2022-05-11T12:08:15Z</time>
      </trkpt>
      <trkpt lat="46.35168" lon="5.45671">
        <ele>358.6</ele>
        <time>2022-05-11T12:08:22Z</time>
      </trkpt>
      <trkpt lat="46.35158" lon="5.45674">
        <ele>358.6</ele>
        <time>2022-05-11T12:08:24Z</time>
      </trkpt>
      <trkpt lat="46.35148" lon="5.45673">
        <ele>358.8</ele>
        <time>2022-05-11T12:08:26Z</time>
      </trkpt>
      <trkpt lat="46.35143" lon="5.45672">
        <ele>358.8</ele>
        <time>2022-05-11T12:08:27Z</time>
      </trkpt>
      <trkpt lat="46.35119" lon="5.45666">
        <ele>359.2</ele>
        <time>2022-05-11T12:08:32Z</time>
      </trkpt>
      <trkpt lat="46.35094" lon="5.45665">
        <ele>359.6</ele>
        <time>2022-05-11T12:08:37Z</time>
      </trkpt>
      <trkpt lat="46.35068" lon="5.45666">
        <ele>360</ele>
        <time>2022-05-11T12:08:42Z</time>
      </trkpt>
      <trkpt lat="46.35021" lon="5.45666">
        <ele>360.2</ele>
        <time>2022-05-11T12:08:51Z</time>
      </trkpt>
      <trkpt lat="46.34975" lon="5.45665">
        <ele>360</ele>
        <time>2022-05-11T12:09:00Z</time>
      </trkpt>
      <trkpt lat="46.34938" lon="5.45667">
        <ele>361</ele>
        <time>2022-05-11T12:09:08Z</time>
      </trkpt>
      <trkpt lat="46.34928" lon="5.45667">
        <ele>361.2</ele>
        <time>2022-05-11T12:09:10Z</time>
      </trkpt>
      <trkpt lat="46.34883" lon="5.45659">
        <ele>361.8</ele>
        <time>2022-05-11T12:09:19Z</time>
      </trkpt>
      <trkpt lat="46.34831" lon="5.45648">
        <ele>362</ele>
        <time>2022-05-11T12:09:29Z</time>
      </trkpt>
      <trkpt lat="46.34789" lon="5.45643">
        <ele>362.2</ele>
        <time>2022-05-11T12:09:37Z</time>
      </trkpt>
      <trkpt lat="46.34737" lon="5.45643">
        <ele>361.8</ele>
        <time>2022-05-11T12:09:47Z</time>
      </trkpt>
      <trkpt lat="46.34719" lon="5.4564">
        <ele>362.4</ele>
        <time>2022-05-11T12:09:51Z</time>
      </trkpt>
      <trkpt lat="46.34713" lon="5.4564">
        <ele>362.6</ele>
        <time>2022-05-11T12:09:52Z</time>
      </trkpt>
      <trkpt lat="46.347" lon="5.45639">
        <ele>362.8</ele>
        <time>2022-05-11T12:09:55Z</time>
      </trkpt>
      <trkpt lat="46.34695" lon="5.45638">
        <ele>362.8</ele>
        <time>2022-05-11T12:09:56Z</time>
      </trkpt>
      <trkpt lat="46.34687" lon="5.45638">
        <ele>363.2</ele>
        <time>2022-05-11T12:09:58Z</time>
      </trkpt>
      <trkpt lat="46.34675" lon="5.45637">
        <ele>363.6</ele>
        <time>2022-05-11T12:10:01Z</time>
      </trkpt>
      <trkpt lat="46.34658" lon="5.45638">
        <ele>364.4</ele>
        <time>2022-05-11T12:10:05Z</time>
      </trkpt>
      <trkpt lat="46.34645" lon="5.4564">
        <ele>364.8</ele>
        <time>2022-05-11T12:10:08Z</time>
      </trkpt>
      <trkpt lat="46.34604" lon="5.45647">
        <ele>365.6</ele>
        <time>2022-05-11T12:10:16Z</time>
      </trkpt>
      <trkpt lat="46.34571" lon="5.4565">
        <ele>366</ele>
        <time>2022-05-11T12:10:22Z</time>
      </trkpt>
      <trkpt lat="46.34567" lon="5.45649">
        <ele>366</ele>
        <time>2022-05-11T12:10:23Z</time>
      </trkpt>
      <trkpt lat="46.34561" lon="5.45643">
        <ele>366</ele>
        <time>2022-05-11T12:10:24Z</time>
      </trkpt>
      <trkpt lat="46.34559" lon="5.4563">
        <ele>365.8</ele>
        <time>2022-05-11T12:10:26Z</time>
      </trkpt>
      <trkpt lat="46.3456" lon="5.45613">
        <ele>365.6</ele>
        <time>2022-05-11T12:10:28Z</time>
      </trkpt>
      <trkpt lat="46.34563" lon="5.45597">
        <ele>365.2</ele>
        <time>2022-05-11T12:10:30Z</time>
      </trkpt>
      <trkpt lat="46.34573" lon="5.45541">
        <ele>364.6</ele>
        <time>2022-05-11T12:10:37Z</time>
      </trkpt>
      <trkpt lat="46.34582" lon="5.45495">
        <ele>364.4</ele>
        <time>2022-05-11T12:10:44Z</time>
      </trkpt>
      <trkpt lat="46.34592" lon="5.45439">
        <ele>365.4</ele>
        <time>2022-05-11T12:10:53Z</time>
      </trkpt>
      <trkpt lat="46.34597" lon="5.45411">
        <ele>365.8</ele>
        <time>2022-05-11T12:10:57Z</time>
      </trkpt>
      <trkpt lat="46.34597" lon="5.45402">
        <ele>365.8</ele>
        <time>2022-05-11T12:10:58Z</time>
      </trkpt>
      <trkpt lat="46.34596" lon="5.45395">
        <ele>365.8</ele>
        <time>2022-05-11T12:10:59Z</time>
      </trkpt>
      <trkpt lat="46.34594" lon="5.45388">
        <ele>365.8</ele>
        <time>2022-05-11T12:11:00Z</time>
      </trkpt>
      <trkpt lat="46.34586" lon="5.45377">
        <ele>365.8</ele>
        <time>2022-05-11T12:11:02Z</time>
      </trkpt>
      <trkpt lat="46.34558" lon="5.45365">
        <ele>365.4</ele>
        <time>2022-05-11T12:11:07Z</time>
      </trkpt>
      <trkpt lat="46.3451" lon="5.45343">
        <ele>365.2</ele>
        <time>2022-05-11T12:11:16Z</time>
      </trkpt>
      <trkpt lat="46.34502" lon="5.4534">
        <ele>365.2</ele>
        <time>2022-05-11T12:11:18Z</time>
      </trkpt>
      <trkpt lat="46.34493" lon="5.45338">
        <ele>365.6</ele>
        <time>2022-05-11T12:11:20Z</time>
      </trkpt>
      <trkpt lat="46.34488" lon="5.45338">
        <ele>365.6</ele>
        <time>2022-05-11T12:11:21Z</time>
      </trkpt>
      <trkpt lat="46.34476" lon="5.4534">
        <ele>366.2</ele>
        <time>2022-05-11T12:11:24Z</time>
      </trkpt>
      <trkpt lat="46.34459" lon="5.45342">
        <ele>366.8</ele>
        <time>2022-05-11T12:11:28Z</time>
      </trkpt>
      <trkpt lat="46.34451" lon="5.4534">
        <ele>367</ele>
        <time>2022-05-11T12:11:30Z</time>
      </trkpt>
      <trkpt lat="46.34444" lon="5.45336">
        <ele>368</ele>
        <time>2022-05-11T12:11:32Z</time>
      </trkpt>
      <trkpt lat="46.34435" lon="5.45332">
        <ele>369</ele>
        <time>2022-05-11T12:11:34Z</time>
      </trkpt>
      <trkpt lat="46.34431" lon="5.45329">
        <ele>369</ele>
        <time>2022-05-11T12:11:35Z</time>
      </trkpt>
      <trkpt lat="46.34406" lon="5.45315">
        <ele>369.8</ele>
        <time>2022-05-11T12:11:41Z</time>
      </trkpt>
      <trkpt lat="46.34397" lon="5.4531">
        <ele>370.2</ele>
        <time>2022-05-11T12:11:43Z</time>
      </trkpt>
      <trkpt lat="46.34377" lon="5.453">
        <ele>370.4</ele>
        <time>2022-05-11T12:11:47Z</time>
      </trkpt>
      <trkpt lat="46.34371" lon="5.45298">
        <ele>370.4</ele>
        <time>2022-05-11T12:11:48Z</time>
      </trkpt>
      <trkpt lat="46.34353" lon="5.45291">
        <ele>370.2</ele>
        <time>2022-05-11T12:11:51Z</time>
      </trkpt>
      <trkpt lat="46.34324" lon="5.45283">
        <ele>369</ele>
        <time>2022-05-11T12:11:55Z</time>
      </trkpt>
      <trkpt lat="46.34315" lon="5.45281">
        <ele>368.6</ele>
        <time>2022-05-11T12:11:56Z</time>
      </trkpt>
      <trkpt lat="46.34297" lon="5.45276">
        <ele>367.8</ele>
        <time>2022-05-11T12:11:58Z</time>
      </trkpt>
      <trkpt lat="46.34269" lon="5.45265">
        <ele>366.6</ele>
        <time>2022-05-11T12:12:01Z</time>
      </trkpt>
      <trkpt lat="46.3425" lon="5.45256">
        <ele>365.2</ele>
        <time>2022-05-11T12:12:03Z</time>
      </trkpt>
      <trkpt lat="46.34241" lon="5.45252">
        <ele>364.2</ele>
        <time>2022-05-11T12:12:04Z</time>
      </trkpt>
      <trkpt lat="46.34224" lon="5.45243">
        <ele>362.8</ele>
        <time>2022-05-11T12:12:06Z</time>
      </trkpt>
      <trkpt lat="46.34207" lon="5.45235">
        <ele>361.6</ele>
        <time>2022-05-11T12:12:08Z</time>
      </trkpt>
      <trkpt lat="46.34198" lon="5.45231">
        <ele>360.6</ele>
        <time>2022-05-11T12:12:09Z</time>
      </trkpt>
      <trkpt lat="46.3419" lon="5.45227">
        <ele>360.2</ele>
        <time>2022-05-11T12:12:10Z</time>
      </trkpt>
      <trkpt lat="46.34157" lon="5.45211">
        <ele>359.2</ele>
        <time>2022-05-11T12:12:14Z</time>
      </trkpt>
      <trkpt lat="46.34133" lon="5.452">
        <ele>358.4</ele>
        <time>2022-05-11T12:12:17Z</time>
      </trkpt>
      <trkpt lat="46.34123" lon="5.45195">
        <ele>358</ele>
        <time>2022-05-11T12:12:18Z</time>
      </trkpt>
      <trkpt lat="46.34093" lon="5.45181">
        <ele>356.6</ele>
        <time>2022-05-11T12:12:22Z</time>
      </trkpt>
      <trkpt lat="46.3407" lon="5.4517">
        <ele>355.2</ele>
        <time>2022-05-11T12:12:25Z</time>
      </trkpt>
      <trkpt lat="46.34043" lon="5.4516">
        <ele>354</ele>
        <time>2022-05-11T12:12:29Z</time>
      </trkpt>
      <trkpt lat="46.34021" lon="5.45155">
        <ele>353</ele>
        <time>2022-05-11T12:12:32Z</time>
      </trkpt>
      <trkpt lat="46.33983" lon="5.45143">
        <ele>351.8</ele>
        <time>2022-05-11T12:12:37Z</time>
      </trkpt>
      <trkpt lat="46.3397" lon="5.45139">
        <ele>351.2</ele>
        <time>2022-05-11T12:12:39Z</time>
      </trkpt>
      <trkpt lat="46.33963" lon="5.45136">
        <ele>351</ele>
        <time>2022-05-11T12:12:40Z</time>
      </trkpt>
      <trkpt lat="46.33944" lon="5.45128">
        <ele>349.8</ele>
        <time>2022-05-11T12:12:43Z</time>
      </trkpt>
      <trkpt lat="46.33926" lon="5.4512">
        <ele>349</ele>
        <time>2022-05-11T12:12:46Z</time>
      </trkpt>
      <trkpt lat="46.33913" lon="5.45114">
        <ele>348.4</ele>
        <time>2022-05-11T12:12:48Z</time>
      </trkpt>
      <trkpt lat="46.33879" lon="5.45097">
        <ele>347.6</ele>
        <time>2022-05-11T12:12:54Z</time>
      </trkpt>
      <trkpt lat="46.33859" lon="5.45087">
        <ele>347.4</ele>
        <time>2022-05-11T12:12:58Z</time>
      </trkpt>
      <trkpt lat="46.33841" lon="5.45078">
        <ele>347.4</ele>
        <time>2022-05-11T12:13:02Z</time>
      </trkpt>
      <trkpt lat="46.33794" lon="5.45055">
        <ele>347.6</ele>
        <time>2022-05-11T12:13:12Z</time>
      </trkpt>
      <trkpt lat="46.33749" lon="5.45034">
        <ele>348.2</ele>
        <time>2022-05-11T12:13:22Z</time>
      </trkpt>
      <trkpt lat="46.33732" lon="5.45025">
        <ele>348.6</ele>
        <time>2022-05-11T12:13:26Z</time>
      </trkpt>
      <trkpt lat="46.33714" lon="5.45018">
        <ele>349</ele>
        <time>2022-05-11T12:13:30Z</time>
      </trkpt>
      <trkpt lat="46.3371" lon="5.45016">
        <ele>349.2</ele>
        <time>2022-05-11T12:13:31Z</time>
      </trkpt>
      <trkpt lat="46.3369" lon="5.45005">
        <ele>349.4</ele>
        <time>2022-05-11T12:13:36Z</time>
      </trkpt>
      <trkpt lat="46.33652" lon="5.44981">
        <ele>349.8</ele>
        <time>2022-05-11T12:13:45Z</time>
      </trkpt>
      <trkpt lat="46.33648" lon="5.44978">
        <ele>350</ele>
        <time>2022-05-11T12:13:46Z</time>
      </trkpt>
      <trkpt lat="46.33608" lon="5.44946">
        <ele>350.8</ele>
        <time>2022-05-11T12:13:56Z</time>
      </trkpt>
      <trkpt lat="46.33598" lon="5.44937">
        <ele>351</ele>
        <time>2022-05-11T12:13:59Z</time>
      </trkpt>
      <trkpt lat="46.33583" lon="5.44927">
        <ele>351.2</ele>
        <time>2022-05-11T12:14:03Z</time>
      </trkpt>
      <trkpt lat="46.33575" lon="5.44924">
        <ele>351.4</ele>
        <time>2022-05-11T12:14:05Z</time>
      </trkpt>
      <trkpt lat="46.33571" lon="5.44923">
        <ele>351.6</ele>
        <time>2022-05-11T12:14:06Z</time>
      </trkpt>
      <trkpt lat="46.33567" lon="5.44923">
        <ele>352</ele>
        <time>2022-05-11T12:14:07Z</time>
      </trkpt>
      <trkpt lat="46.33539" lon="5.44926">
        <ele>353.2</ele>
        <time>2022-05-11T12:14:14Z</time>
      </trkpt>
      <trkpt lat="46.3351" lon="5.44929">
        <ele>354.2</ele>
        <time>2022-05-11T12:14:21Z</time>
      </trkpt>
      <trkpt lat="46.33494" lon="5.44931">
        <ele>354.6</ele>
        <time>2022-05-11T12:14:25Z</time>
      </trkpt>
      <trkpt lat="46.33472" lon="5.44933">
        <ele>355.4</ele>
        <time>2022-05-11T12:14:31Z</time>
      </trkpt>
      <trkpt lat="46.33463" lon="5.44935">
        <ele>355.8</ele>
        <time>2022-05-11T12:14:34Z</time>
      </trkpt>
      <trkpt lat="46.33454" lon="5.44934">
        <ele>356.6</ele>
        <time>2022-05-11T12:14:37Z</time>
      </trkpt>
      <trkpt lat="46.33452" lon="5.44933">
        <ele>356.8</ele>
        <time>2022-05-11T12:14:38Z</time>
      </trkpt>
      <trkpt lat="46.3345" lon="5.44932">
        <ele>357</ele>
        <time>2022-05-11T12:14:39Z</time>
      </trkpt>
      <trkpt lat="46.3344" lon="5.4492">
        <ele>357.6</ele>
        <time>2022-05-11T12:14:43Z</time>
      </trkpt>
      <trkpt lat="46.33433" lon="5.44912">
        <ele>358</ele>
        <time>2022-05-11T12:14:45Z</time>
      </trkpt>
      <trkpt lat="46.33423" lon="5.44899">
        <ele>358.4</ele>
        <time>2022-05-11T12:14:48Z</time>
      </trkpt>
      <trkpt lat="46.3342" lon="5.44895">
        <ele>358.8</ele>
        <time>2022-05-11T12:14:49Z</time>
      </trkpt>
      <trkpt lat="46.33417" lon="5.4489">
        <ele>359</ele>
        <time>2022-05-11T12:14:50Z</time>
      </trkpt>
      <trkpt lat="46.33394" lon="5.44859">
        <ele>359.6</ele>
        <time>2022-05-11T12:14:56Z</time>
      </trkpt>
      <trkpt lat="46.33374" lon="5.44822">
        <ele>359</ele>
        <time>2022-05-11T12:15:01Z</time>
      </trkpt>
      <trkpt lat="46.33355" lon="5.44788">
        <ele>357.8</ele>
        <time>2022-05-11T12:15:05Z</time>
      </trkpt>
      <trkpt lat="46.33345" lon="5.44771">
        <ele>357.2</ele>
        <time>2022-05-11T12:15:07Z</time>
      </trkpt>
      <trkpt lat="46.33328" lon="5.44749">
        <ele>356.6</ele>
        <time>2022-05-11T12:15:10Z</time>
      </trkpt>
      <trkpt lat="46.3331" lon="5.44728">
        <ele>355.4</ele>
        <time>2022-05-11T12:15:13Z</time>
      </trkpt>
      <trkpt lat="46.33304" lon="5.44721">
        <ele>355.2</ele>
        <time>2022-05-11T12:15:14Z</time>
      </trkpt>
      <trkpt lat="46.33285" lon="5.44699">
        <ele>354.4</ele>
        <time>2022-05-11T12:15:17Z</time>
      </trkpt>
      <trkpt lat="46.33266" lon="5.44677">
        <ele>352.8</ele>
        <time>2022-05-11T12:15:20Z</time>
      </trkpt>
      <trkpt lat="46.33246" lon="5.44654">
        <ele>351.6</ele>
        <time>2022-05-11T12:15:23Z</time>
      </trkpt>
      <trkpt lat="46.33231" lon="5.4464">
        <ele>350.4</ele>
        <time>2022-05-11T12:15:25Z</time>
      </trkpt>
      <trkpt lat="46.33225" lon="5.44632">
        <ele>350.2</ele>
        <time>2022-05-11T12:15:26Z</time>
      </trkpt>
      <trkpt lat="46.33211" lon="5.44614">
        <ele>349.8</ele>
        <time>2022-05-11T12:15:28Z</time>
      </trkpt>
      <trkpt lat="46.33205" lon="5.44603">
        <ele>349.2</ele>
        <time>2022-05-11T12:15:29Z</time>
      </trkpt>
      <trkpt lat="46.332" lon="5.44593">
        <ele>348.8</ele>
        <time>2022-05-11T12:15:30Z</time>
      </trkpt>
      <trkpt lat="46.3319" lon="5.44571">
        <ele>347.8</ele>
        <time>2022-05-11T12:15:32Z</time>
      </trkpt>
      <trkpt lat="46.3318" lon="5.44552">
        <ele>346.8</ele>
        <time>2022-05-11T12:15:34Z</time>
      </trkpt>
      <trkpt lat="46.33175" lon="5.44544">
        <ele>346.4</ele>
        <time>2022-05-11T12:15:35Z</time>
      </trkpt>
      <trkpt lat="46.33167" lon="5.44528">
        <ele>345.4</ele>
        <time>2022-05-11T12:15:37Z</time>
      </trkpt>
      <trkpt lat="46.3316" lon="5.44511">
        <ele>343.2</ele>
        <time>2022-05-11T12:15:39Z</time>
      </trkpt>
      <trkpt lat="46.33158" lon="5.44502">
        <ele>342.8</ele>
        <time>2022-05-11T12:15:40Z</time>
      </trkpt>
      <trkpt lat="46.33156" lon="5.44492">
        <ele>342</ele>
        <time>2022-05-11T12:15:41Z</time>
      </trkpt>
      <trkpt lat="46.33154" lon="5.44462">
        <ele>341</ele>
        <time>2022-05-11T12:15:44Z</time>
      </trkpt>
      <trkpt lat="46.33146" lon="5.44417">
        <ele>340</ele>
        <time>2022-05-11T12:15:49Z</time>
      </trkpt>
      <trkpt lat="46.33143" lon="5.44409">
        <ele>340</ele>
        <time>2022-05-11T12:15:50Z</time>
      </trkpt>
      <trkpt lat="46.33139" lon="5.44402">
        <ele>340</ele>
        <time>2022-05-11T12:15:51Z</time>
      </trkpt>
      <trkpt lat="46.33126" lon="5.44384">
        <ele>340.2</ele>
        <time>2022-05-11T12:15:54Z</time>
      </trkpt>
      <trkpt lat="46.33115" lon="5.44378">
        <ele>340</ele>
        <time>2022-05-11T12:15:56Z</time>
      </trkpt>
      <trkpt lat="46.33105" lon="5.44375">
        <ele>340</ele>
        <time>2022-05-11T12:15:58Z</time>
      </trkpt>
      <trkpt lat="46.33069" lon="5.44373">
        <ele>340</ele>
        <time>2022-05-11T12:16:05Z</time>
      </trkpt>
      <trkpt lat="46.33046" lon="5.44373">
        <ele>340</ele>
        <time>2022-05-11T12:16:09Z</time>
      </trkpt>
      <trkpt lat="46.33034" lon="5.44377">
        <ele>340</ele>
        <time>2022-05-11T12:16:11Z</time>
      </trkpt>
      <trkpt lat="46.33005" lon="5.44391">
        <ele>340.2</ele>
        <time>2022-05-11T12:16:17Z</time>
      </trkpt>
      <trkpt lat="46.32975" lon="5.44404">
        <ele>340.4</ele>
        <time>2022-05-11T12:16:23Z</time>
      </trkpt>
      <trkpt lat="46.32938" lon="5.44417">
        <ele>340.4</ele>
        <time>2022-05-11T12:16:30Z</time>
      </trkpt>
      <trkpt lat="46.32895" lon="5.44427">
        <ele>340.4</ele>
        <time>2022-05-11T12:16:39Z</time>
      </trkpt>
      <trkpt lat="46.32848" lon="5.4444">
        <ele>339.8</ele>
        <time>2022-05-11T12:16:48Z</time>
      </trkpt>
      <trkpt lat="46.3282" lon="5.44456">
        <ele>339.8</ele>
        <time>2022-05-11T12:16:54Z</time>
      </trkpt>
      <trkpt lat="46.32807" lon="5.44463">
        <ele>340</ele>
        <time>2022-05-11T12:16:57Z</time>
      </trkpt>
      <trkpt lat="46.32793" lon="5.4447">
        <ele>341</ele>
        <time>2022-05-11T12:17:00Z</time>
      </trkpt>
      <trkpt lat="46.32788" lon="5.44473">
        <ele>341.2</ele>
        <time>2022-05-11T12:17:01Z</time>
      </trkpt>
      <trkpt lat="46.32758" lon="5.44484">
        <ele>341.6</ele>
        <time>2022-05-11T12:17:07Z</time>
      </trkpt>
      <trkpt lat="46.32717" lon="5.44497">
        <ele>342.2</ele>
        <time>2022-05-11T12:17:15Z</time>
      </trkpt>
      <trkpt lat="46.32671" lon="5.44502">
        <ele>342</ele>
        <time>2022-05-11T12:17:24Z</time>
      </trkpt>
      <trkpt lat="46.32636" lon="5.44498">
        <ele>342.4</ele>
        <time>2022-05-11T12:17:31Z</time>
      </trkpt>
      <trkpt lat="46.32631" lon="5.44497">
        <ele>342.6</ele>
        <time>2022-05-11T12:17:32Z</time>
      </trkpt>
      <trkpt lat="46.32577" lon="5.44485">
        <ele>343</ele>
        <time>2022-05-11T12:17:43Z</time>
      </trkpt>
      <trkpt lat="46.32535" lon="5.44478">
        <ele>343.2</ele>
        <time>2022-05-11T12:17:51Z</time>
      </trkpt>
      <trkpt lat="46.32479" lon="5.44472">
        <ele>343.4</ele>
        <time>2022-05-11T12:18:01Z</time>
      </trkpt>
      <trkpt lat="46.32424" lon="5.44469">
        <ele>342.6</ele>
        <time>2022-05-11T12:18:11Z</time>
      </trkpt>
      <trkpt lat="46.32419" lon="5.44469">
        <ele>342.6</ele>
        <time>2022-05-11T12:18:12Z</time>
      </trkpt>
      <trkpt lat="46.32377" lon="5.44467">
        <ele>342.6</ele>
        <time>2022-05-11T12:18:20Z</time>
      </trkpt>
      <trkpt lat="46.32352" lon="5.44466">
        <ele>342.2</ele>
        <time>2022-05-11T12:18:25Z</time>
      </trkpt>
      <trkpt lat="46.32336" lon="5.44466">
        <ele>342.2</ele>
        <time>2022-05-11T12:18:28Z</time>
      </trkpt>
      <trkpt lat="46.32315" lon="5.44462">
        <ele>341.6</ele>
        <time>2022-05-11T12:18:32Z</time>
      </trkpt>
      <trkpt lat="46.32299" lon="5.44461">
        <ele>341.4</ele>
        <time>2022-05-11T12:18:35Z</time>
      </trkpt>
      <trkpt lat="46.32283" lon="5.44459">
        <ele>341.4</ele>
        <time>2022-05-11T12:18:38Z</time>
      </trkpt>
      <trkpt lat="46.32244" lon="5.44454">
        <ele>341</ele>
        <time>2022-05-11T12:18:45Z</time>
      </trkpt>
      <trkpt lat="46.3219" lon="5.44451">
        <ele>340.6</ele>
        <time>2022-05-11T12:18:55Z</time>
      </trkpt>
      <trkpt lat="46.32175" lon="5.4445">
        <ele>340.6</ele>
        <time>2022-05-11T12:18:58Z</time>
      </trkpt>
      <trkpt lat="46.32135" lon="5.44449">
        <ele>341</ele>
        <time>2022-05-11T12:19:06Z</time>
      </trkpt>
      <trkpt lat="46.32093" lon="5.44447">
        <ele>340.8</ele>
        <time>2022-05-11T12:19:15Z</time>
      </trkpt>
      <trkpt lat="46.32089" lon="5.44447">
        <ele>340.8</ele>
        <time>2022-05-11T12:19:16Z</time>
      </trkpt>
      <trkpt lat="46.3207" lon="5.44446">
        <ele>341.2</ele>
        <time>2022-05-11T12:19:21Z</time>
      </trkpt>
      <trkpt lat="46.32038" lon="5.44445">
        <ele>341</ele>
        <time>2022-05-11T12:19:29Z</time>
      </trkpt>
      <trkpt lat="46.32004" lon="5.44443">
        <ele>341.4</ele>
        <time>2022-05-11T12:19:37Z</time>
      </trkpt>
      <trkpt lat="46.31966" lon="5.44441">
        <ele>342</ele>
        <time>2022-05-11T12:19:45Z</time>
      </trkpt>
      <trkpt lat="46.31911" lon="5.44438">
        <ele>342.2</ele>
        <time>2022-05-11T12:19:56Z</time>
      </trkpt>
      <trkpt lat="46.31882" lon="5.44438">
        <ele>342</ele>
        <time>2022-05-11T12:20:02Z</time>
      </trkpt>
      <trkpt lat="46.31873" lon="5.44438">
        <ele>342</ele>
        <time>2022-05-11T12:20:04Z</time>
      </trkpt>
      <trkpt lat="46.31858" lon="5.44435">
        <ele>342.2</ele>
        <time>2022-05-11T12:20:07Z</time>
      </trkpt>
      <trkpt lat="46.31838" lon="5.44434">
        <ele>342.2</ele>
        <time>2022-05-11T12:20:11Z</time>
      </trkpt>
      <trkpt lat="46.31798" lon="5.44432">
        <ele>342.4</ele>
        <time>2022-05-11T12:20:19Z</time>
      </trkpt>
      <trkpt lat="46.31783" lon="5.44431">
        <ele>342.8</ele>
        <time>2022-05-11T12:20:22Z</time>
      </trkpt>
      <trkpt lat="46.31761" lon="5.4443">
        <ele>342.4</ele>
        <time>2022-05-11T12:20:27Z</time>
      </trkpt>
      <trkpt lat="46.3175" lon="5.44429">
        <ele>342.6</ele>
        <time>2022-05-11T12:20:31Z</time>
      </trkpt>
      <trkpt lat="46.31748" lon="5.44427">
        <ele>342.6</ele>
        <time>2022-05-11T12:20:33Z</time>
      </trkpt>
      <trkpt lat="46.31747" lon="5.44425">
        <ele>342.6</ele>
        <time>2022-05-11T12:20:35Z</time>
      </trkpt>
      <trkpt lat="46.31747" lon="5.44425">
        <ele>342.6</ele>
        <time>2022-05-11T12:20:37Z</time>
      </trkpt>
      <trkpt lat="46.31743" lon="5.44423">
        <ele>341.8</ele>
        <time>2022-05-11T12:21:36Z</time>
      </trkpt>
      <trkpt lat="46.31742" lon="5.44422">
        <ele>341.8</ele>
        <time>2022-05-11T12:21:37Z</time>
      </trkpt>
      <trkpt lat="46.3173" lon="5.44423">
        <ele>341.8</ele>
        <time>2022-05-11T12:21:41Z</time>
      </trkpt>
      <trkpt lat="46.31706" lon="5.44426">
        <ele>341.8</ele>
        <time>2022-05-11T12:21:47Z</time>
      </trkpt>
      <trkpt lat="46.3167" lon="5.44426">
        <ele>341.4</ele>
        <time>2022-05-11T12:21:55Z</time>
      </trkpt>
      <trkpt lat="46.31625" lon="5.44423">
        <ele>341.8</ele>
        <time>2022-05-11T12:22:03Z</time>
      </trkpt>
      <trkpt lat="46.3162" lon="5.44422">
        <ele>341.8</ele>
        <time>2022-05-11T12:22:04Z</time>
      </trkpt>
      <trkpt lat="46.31593" lon="5.4442">
        <ele>342.2</ele>
        <time>2022-05-11T12:22:09Z</time>
      </trkpt>
      <trkpt lat="46.31557" lon="5.44414">
        <ele>342.6</ele>
        <time>2022-05-11T12:22:16Z</time>
      </trkpt>
      <trkpt lat="46.31515" lon="5.44402">
        <ele>342.8</ele>
        <time>2022-05-11T12:22:24Z</time>
      </trkpt>
      <trkpt lat="46.3151" lon="5.444">
        <ele>342.8</ele>
        <time>2022-05-11T12:22:25Z</time>
      </trkpt>
      <trkpt lat="46.31478" lon="5.44386">
        <ele>342.8</ele>
        <time>2022-05-11T12:22:31Z</time>
      </trkpt>
      <trkpt lat="46.31437" lon="5.44372">
        <ele>342.2</ele>
        <time>2022-05-11T12:22:39Z</time>
      </trkpt>
      <trkpt lat="46.31405" lon="5.44358">
        <ele>342.4</ele>
        <time>2022-05-11T12:22:46Z</time>
      </trkpt>
      <trkpt lat="46.31356" lon="5.44338">
        <ele>342.8</ele>
        <time>2022-05-11T12:22:56Z</time>
      </trkpt>
      <trkpt lat="46.31341" lon="5.44333">
        <ele>343</ele>
        <time>2022-05-11T12:22:59Z</time>
      </trkpt>
      <trkpt lat="46.31335" lon="5.44332">
        <ele>343.2</ele>
        <time>2022-05-11T12:23:00Z</time>
      </trkpt>
      <trkpt lat="46.3132" lon="5.44325">
        <ele>343.4</ele>
        <time>2022-05-11T12:23:03Z</time>
      </trkpt>
      <trkpt lat="46.31289" lon="5.44313">
        <ele>344</ele>
        <time>2022-05-11T12:23:09Z</time>
      </trkpt>
      <trkpt lat="46.31284" lon="5.44311">
        <ele>344.4</ele>
        <time>2022-05-11T12:23:10Z</time>
      </trkpt>
      <trkpt lat="46.31274" lon="5.44305">
        <ele>344.4</ele>
        <time>2022-05-11T12:23:12Z</time>
      </trkpt>
      <trkpt lat="46.31263" lon="5.44301">
        <ele>344.6</ele>
        <time>2022-05-11T12:23:14Z</time>
      </trkpt>
      <trkpt lat="46.31242" lon="5.44293">
        <ele>344.6</ele>
        <time>2022-05-11T12:23:18Z</time>
      </trkpt>
      <trkpt lat="46.31232" lon="5.4429">
        <ele>344.6</ele>
        <time>2022-05-11T12:23:20Z</time>
      </trkpt>
      <trkpt lat="46.31212" lon="5.44279">
        <ele>344.4</ele>
        <time>2022-05-11T12:23:24Z</time>
      </trkpt>
      <trkpt lat="46.31174" lon="5.44256">
        <ele>344.2</ele>
        <time>2022-05-11T12:23:32Z</time>
      </trkpt>
      <trkpt lat="46.31159" lon="5.44242">
        <ele>343.6</ele>
        <time>2022-05-11T12:23:36Z</time>
      </trkpt>
      <trkpt lat="46.31155" lon="5.44239">
        <ele>343.4</ele>
        <time>2022-05-11T12:23:37Z</time>
      </trkpt>
      <trkpt lat="46.31152" lon="5.44235">
        <ele>343</ele>
        <time>2022-05-11T12:23:38Z</time>
      </trkpt>
      <trkpt lat="46.31142" lon="5.44222">
        <ele>342.4</ele>
        <time>2022-05-11T12:23:42Z</time>
      </trkpt>
      <trkpt lat="46.3114" lon="5.44221">
        <ele>342.2</ele>
        <time>2022-05-11T12:23:45Z</time>
      </trkpt>
      <trkpt lat="46.3114" lon="5.44221">
        <ele>342.2</ele>
        <time>2022-05-11T12:23:46Z</time>
      </trkpt>
      <trkpt lat="46.31138" lon="5.44219">
        <ele>340.8</ele>
        <time>2022-05-11T12:24:15Z</time>
      </trkpt>
      <trkpt lat="46.31134" lon="5.44215">
        <ele>340.8</ele>
        <time>2022-05-11T12:24:18Z</time>
      </trkpt>
      <trkpt lat="46.31121" lon="5.44206">
        <ele>340.8</ele>
        <time>2022-05-11T12:24:22Z</time>
      </trkpt>
      <trkpt lat="46.31117" lon="5.44203">
        <ele>340.8</ele>
        <time>2022-05-11T12:24:23Z</time>
      </trkpt>
      <trkpt lat="46.31103" lon="5.4419">
        <ele>340.8</ele>
        <time>2022-05-11T12:24:26Z</time>
      </trkpt>
      <trkpt lat="46.31085" lon="5.44176">
        <ele>340.8</ele>
        <time>2022-05-11T12:24:29Z</time>
      </trkpt>
      <trkpt lat="46.31065" lon="5.44158">
        <ele>340.6</ele>
        <time>2022-05-11T12:24:32Z</time>
      </trkpt>
      <trkpt lat="46.31018" lon="5.44119">
        <ele>340.4</ele>
        <time>2022-05-11T12:24:40Z</time>
      </trkpt>
      <trkpt lat="46.31012" lon="5.44114">
        <ele>340.4</ele>
        <time>2022-05-11T12:24:41Z</time>
      </trkpt>
      <trkpt lat="46.30968" lon="5.44085">
        <ele>340</ele>
        <time>2022-05-11T12:24:48Z</time>
      </trkpt>
      <trkpt lat="46.30955" lon="5.44076">
        <ele>339.6</ele>
        <time>2022-05-11T12:24:50Z</time>
      </trkpt>
      <trkpt lat="46.30921" lon="5.44053">
        <ele>338.2</ele>
        <time>2022-05-11T12:24:55Z</time>
      </trkpt>
      <trkpt lat="46.30914" lon="5.44049">
        <ele>338.2</ele>
        <time>2022-05-11T12:24:56Z</time>
      </trkpt>
      <trkpt lat="46.30872" lon="5.44029">
        <ele>337.6</ele>
        <time>2022-05-11T12:25:02Z</time>
      </trkpt>
      <trkpt lat="46.30824" lon="5.44017">
        <ele>337.6</ele>
        <time>2022-05-11T12:25:09Z</time>
      </trkpt>
      <trkpt lat="46.30805" lon="5.44016">
        <ele>337.8</ele>
        <time>2022-05-11T12:25:12Z</time>
      </trkpt>
      <trkpt lat="46.30793" lon="5.44017">
        <ele>338</ele>
        <time>2022-05-11T12:25:14Z</time>
      </trkpt>
      <trkpt lat="46.30754" lon="5.44032">
        <ele>339</ele>
        <time>2022-05-11T12:25:21Z</time>
      </trkpt>
      <trkpt lat="46.30744" lon="5.44036">
        <ele>339.4</ele>
        <time>2022-05-11T12:25:23Z</time>
      </trkpt>
      <trkpt lat="46.30726" lon="5.44043">
        <ele>340</ele>
        <time>2022-05-11T12:25:26Z</time>
      </trkpt>
      <trkpt lat="46.30717" lon="5.44046">
        <ele>340.4</ele>
        <time>2022-05-11T12:25:28Z</time>
      </trkpt>
      <trkpt lat="46.30684" lon="5.44052">
        <ele>341.8</ele>
        <time>2022-05-11T12:25:34Z</time>
      </trkpt>
      <trkpt lat="46.30647" lon="5.44048">
        <ele>342.8</ele>
        <time>2022-05-11T12:25:41Z</time>
      </trkpt>
      <trkpt lat="46.30618" lon="5.44043">
        <ele>343.4</ele>
        <time>2022-05-11T12:25:46Z</time>
      </trkpt>
      <trkpt lat="46.30602" lon="5.44041">
        <ele>343.4</ele>
        <time>2022-05-11T12:25:49Z</time>
      </trkpt>
      <trkpt lat="46.30589" lon="5.44041">
        <ele>343.4</ele>
        <time>2022-05-11T12:25:51Z</time>
      </trkpt>
      <trkpt lat="46.30565" lon="5.44037">
        <ele>343.2</ele>
        <time>2022-05-11T12:25:55Z</time>
      </trkpt>
      <trkpt lat="46.30522" lon="5.44027">
        <ele>342</ele>
        <time>2022-05-11T12:26:02Z</time>
      </trkpt>
      <trkpt lat="46.3051" lon="5.44024">
        <ele>341.6</ele>
        <time>2022-05-11T12:26:04Z</time>
      </trkpt>
      <trkpt lat="46.30475" lon="5.44015">
        <ele>341</ele>
        <time>2022-05-11T12:26:09Z</time>
      </trkpt>
      <trkpt lat="46.3046" lon="5.44011">
        <ele>340.2</ele>
        <time>2022-05-11T12:26:11Z</time>
      </trkpt>
      <trkpt lat="46.30441" lon="5.44006">
        <ele>339.2</ele>
        <time>2022-05-11T12:26:14Z</time>
      </trkpt>
      <trkpt lat="46.30436" lon="5.44007">
        <ele>339.2</ele>
        <time>2022-05-11T12:26:15Z</time>
      </trkpt>
      <trkpt lat="46.30431" lon="5.44011">
        <ele>339</ele>
        <time>2022-05-11T12:26:16Z</time>
      </trkpt>
      <trkpt lat="46.30427" lon="5.44019">
        <ele>338.8</ele>
        <time>2022-05-11T12:26:17Z</time>
      </trkpt>
      <trkpt lat="46.30425" lon="5.44026">
        <ele>338.8</ele>
        <time>2022-05-11T12:26:18Z</time>
      </trkpt>
      <trkpt lat="46.30422" lon="5.44051">
        <ele>338.2</ele>
        <time>2022-05-11T12:26:21Z</time>
      </trkpt>
      <trkpt lat="46.30421" lon="5.4406">
        <ele>338</ele>
        <time>2022-05-11T12:26:22Z</time>
      </trkpt>
      <trkpt lat="46.3042" lon="5.44068">
        <ele>337.8</ele>
        <time>2022-05-11T12:26:23Z</time>
      </trkpt>
      <trkpt lat="46.30417" lon="5.44091">
        <ele>337.4</ele>
        <time>2022-05-11T12:26:26Z</time>
      </trkpt>
      <trkpt lat="46.30415" lon="5.44098">
        <ele>337.4</ele>
        <time>2022-05-11T12:26:27Z</time>
      </trkpt>
      <trkpt lat="46.30409" lon="5.44135">
        <ele>337</ele>
        <time>2022-05-11T12:26:32Z</time>
      </trkpt>
      <trkpt lat="46.30405" lon="5.44157">
        <ele>337</ele>
        <time>2022-05-11T12:26:35Z</time>
      </trkpt>
      <trkpt lat="46.30398" lon="5.44206">
        <ele>336.8</ele>
        <time>2022-05-11T12:26:42Z</time>
      </trkpt>
      <trkpt lat="46.30396" lon="5.44213">
        <ele>336.8</ele>
        <time>2022-05-11T12:26:43Z</time>
      </trkpt>
      <trkpt lat="46.30395" lon="5.44221">
        <ele>337</ele>
        <time>2022-05-11T12:26:44Z</time>
      </trkpt>
      <trkpt lat="46.30391" lon="5.44248">
        <ele>336.6</ele>
        <time>2022-05-11T12:26:48Z</time>
      </trkpt>
      <trkpt lat="46.30391" lon="5.44255">
        <ele>336.6</ele>
        <time>2022-05-11T12:26:49Z</time>
      </trkpt>
      <trkpt lat="46.30391" lon="5.44262">
        <ele>336.6</ele>
        <time>2022-05-11T12:26:50Z</time>
      </trkpt>
      <trkpt lat="46.30388" lon="5.44275">
        <ele>336.4</ele>
        <time>2022-05-11T12:26:53Z</time>
      </trkpt>
      <trkpt lat="46.30379" lon="5.44282">
        <ele>336.2</ele>
        <time>2022-05-11T12:26:57Z</time>
      </trkpt>
      <trkpt lat="46.30376" lon="5.44283">
        <ele>336</ele>
        <time>2022-05-11T12:26:58Z</time>
      </trkpt>
      <trkpt lat="46.3036" lon="5.44282">
        <ele>335.8</ele>
        <time>2022-05-11T12:27:02Z</time>
      </trkpt>
      <trkpt lat="46.30331" lon="5.4428">
        <ele>335.4</ele>
        <time>2022-05-11T12:27:08Z</time>
      </trkpt>
      <trkpt lat="46.30319" lon="5.44278">
        <ele>335.2</ele>
        <time>2022-05-11T12:27:12Z</time>
      </trkpt>
      <trkpt lat="46.30305" lon="5.44272">
        <ele>335.2</ele>
        <time>2022-05-11T12:27:19Z</time>
      </trkpt>
      <trkpt lat="46.30302" lon="5.44271">
        <ele>335.2</ele>
        <time>2022-05-11T12:27:21Z</time>
      </trkpt>
      <trkpt lat="46.30301" lon="5.44273">
        <ele>335.4</ele>
        <time>2022-05-11T12:27:23Z</time>
      </trkpt>
      <trkpt lat="46.30304" lon="5.44274">
        <ele>335.4</ele>
        <time>2022-05-11T12:27:25Z</time>
      </trkpt>
      <trkpt lat="46.30311" lon="5.44274">
        <ele>335.4</ele>
        <time>2022-05-11T12:27:28Z</time>
      </trkpt>
      <trkpt lat="46.30321" lon="5.44281">
        <ele>335.6</ele>
        <time>2022-05-11T12:27:32Z</time>
      </trkpt>
      <trkpt lat="46.30321" lon="5.44298">
        <ele>335.4</ele>
        <time>2022-05-11T12:27:36Z</time>
      </trkpt>
      <trkpt lat="46.30312" lon="5.44328">
        <ele>335.4</ele>
        <time>2022-05-11T12:27:41Z</time>
      </trkpt>
      <trkpt lat="46.30308" lon="5.44339">
        <ele>335.4</ele>
        <time>2022-05-11T12:27:43Z</time>
      </trkpt>
      <trkpt lat="46.30303" lon="5.44364">
        <ele>335.8</ele>
        <time>2022-05-11T12:27:47Z</time>
      </trkpt>
      <trkpt lat="46.30302" lon="5.4437">
        <ele>335.8</ele>
        <time>2022-05-11T12:27:48Z</time>
      </trkpt>
      <trkpt lat="46.30297" lon="5.44387">
        <ele>336</ele>
        <time>2022-05-11T12:27:51Z</time>
      </trkpt>
      <trkpt lat="46.30294" lon="5.44389">
        <ele>336</ele>
        <time>2022-05-11T12:27:52Z</time>
      </trkpt>
      <trkpt lat="46.30289" lon="5.44389">
        <ele>336</ele>
        <time>2022-05-11T12:27:55Z</time>
      </trkpt>
      <trkpt lat="46.30289" lon="5.4439">
        <ele>336</ele>
        <time>2022-05-11T12:27:56Z</time>
      </trkpt>
      <trkpt lat="46.30291" lon="5.4439">
        <ele>336.2</ele>
        <time>2022-05-11T12:27:58Z</time>
      </trkpt>
      <trkpt lat="46.30299" lon="5.44395">
        <ele>336.2</ele>
        <time>2022-05-11T12:28:01Z</time>
      </trkpt>
      <trkpt lat="46.303" lon="5.44398">
        <ele>336.2</ele>
        <time>2022-05-11T12:28:02Z</time>
      </trkpt>
      <trkpt lat="46.30301" lon="5.44402">
        <ele>336.2</ele>
        <time>2022-05-11T12:28:03Z</time>
      </trkpt>
      <trkpt lat="46.30298" lon="5.44411">
        <ele>336.2</ele>
        <time>2022-05-11T12:28:05Z</time>
      </trkpt>
      <trkpt lat="46.30292" lon="5.44422">
        <ele>336.2</ele>
        <time>2022-05-11T12:28:07Z</time>
      </trkpt>
      <trkpt lat="46.30289" lon="5.4443">
        <ele>336.2</ele>
        <time>2022-05-11T12:28:08Z</time>
      </trkpt>
      <trkpt lat="46.30287" lon="5.44439">
        <ele>336.2</ele>
        <time>2022-05-11T12:28:09Z</time>
      </trkpt>
      <trkpt lat="46.30281" lon="5.44463">
        <ele>336</ele>
        <time>2022-05-11T12:28:12Z</time>
      </trkpt>
      <trkpt lat="46.30279" lon="5.44471">
        <ele>336</ele>
        <time>2022-05-11T12:28:13Z</time>
      </trkpt>
      <trkpt lat="46.30273" lon="5.44488">
        <ele>335.8</ele>
        <time>2022-05-11T12:28:15Z</time>
      </trkpt>
      <trkpt lat="46.30264" lon="5.4451">
        <ele>335</ele>
        <time>2022-05-11T12:28:18Z</time>
      </trkpt>
      <trkpt lat="46.3026" lon="5.44517">
        <ele>335</ele>
        <time>2022-05-11T12:28:19Z</time>
      </trkpt>
      <trkpt lat="46.30253" lon="5.44531">
        <ele>334.8</ele>
        <time>2022-05-11T12:28:21Z</time>
      </trkpt>
      <trkpt lat="46.30241" lon="5.44551">
        <ele>334.8</ele>
        <time>2022-05-11T12:28:24Z</time>
      </trkpt>
      <trkpt lat="46.30223" lon="5.44575">
        <ele>334.2</ele>
        <time>2022-05-11T12:28:28Z</time>
      </trkpt>
      <trkpt lat="46.3022" lon="5.44581">
        <ele>334</ele>
        <time>2022-05-11T12:28:29Z</time>
      </trkpt>
      <trkpt lat="46.30216" lon="5.44586">
        <ele>333.6</ele>
        <time>2022-05-11T12:28:30Z</time>
      </trkpt>
      <trkpt lat="46.30204" lon="5.44602">
        <ele>333.4</ele>
        <time>2022-05-11T12:28:33Z</time>
      </trkpt>
      <trkpt lat="46.302" lon="5.44608">
        <ele>333.2</ele>
        <time>2022-05-11T12:28:34Z</time>
      </trkpt>
      <trkpt lat="46.30197" lon="5.44615">
        <ele>333</ele>
        <time>2022-05-11T12:28:35Z</time>
      </trkpt>
      <trkpt lat="46.30188" lon="5.44635">
        <ele>333</ele>
        <time>2022-05-11T12:28:38Z</time>
      </trkpt>
      <trkpt lat="46.30182" lon="5.44659">
        <ele>333.2</ele>
        <time>2022-05-11T12:28:42Z</time>
      </trkpt>
      <trkpt lat="46.3018" lon="5.44665">
        <ele>333.4</ele>
        <time>2022-05-11T12:28:43Z</time>
      </trkpt>
      <trkpt lat="46.30178" lon="5.44671">
        <ele>333.6</ele>
        <time>2022-05-11T12:28:44Z</time>
      </trkpt>
      <trkpt lat="46.30171" lon="5.44682">
        <ele>333.8</ele>
        <time>2022-05-11T12:28:46Z</time>
      </trkpt>
      <trkpt lat="46.30167" lon="5.44684">
        <ele>333.8</ele>
        <time>2022-05-11T12:28:47Z</time>
      </trkpt>
      <trkpt lat="46.30162" lon="5.44684">
        <ele>333.8</ele>
        <time>2022-05-11T12:28:48Z</time>
      </trkpt>
      <trkpt lat="46.30152" lon="5.44679">
        <ele>333.8</ele>
        <time>2022-05-11T12:28:50Z</time>
      </trkpt>
      <trkpt lat="46.30141" lon="5.44675">
        <ele>333.6</ele>
        <time>2022-05-11T12:28:52Z</time>
      </trkpt>
      <trkpt lat="46.30133" lon="5.44673">
        <ele>333.4</ele>
        <time>2022-05-11T12:28:54Z</time>
      </trkpt>
      <trkpt lat="46.30111" lon="5.44664">
        <ele>333.2</ele>
        <time>2022-05-11T12:28:58Z</time>
      </trkpt>
      <trkpt lat="46.30105" lon="5.4466">
        <ele>333.2</ele>
        <time>2022-05-11T12:28:59Z</time>
      </trkpt>
      <trkpt lat="46.30081" lon="5.44649">
        <ele>333.8</ele>
        <time>2022-05-11T12:29:05Z</time>
      </trkpt>
      <trkpt lat="46.30078" lon="5.44646">
        <ele>333.8</ele>
        <time>2022-05-11T12:29:06Z</time>
      </trkpt>
      <trkpt lat="46.30059" lon="5.4464">
        <ele>335</ele>
        <time>2022-05-11T12:29:11Z</time>
      </trkpt>
      <trkpt lat="46.30056" lon="5.44639">
        <ele>335</ele>
        <time>2022-05-11T12:29:12Z</time>
      </trkpt>
      <trkpt lat="46.30037" lon="5.44634">
        <ele>335.4</ele>
        <time>2022-05-11T12:29:17Z</time>
      </trkpt>
      <trkpt lat="46.30029" lon="5.44627">
        <ele>336</ele>
        <time>2022-05-11T12:29:20Z</time>
      </trkpt>
      <trkpt lat="46.30014" lon="5.44624">
        <ele>336.8</ele>
        <time>2022-05-11T12:29:25Z</time>
      </trkpt>
      <trkpt lat="46.30003" lon="5.44624">
        <ele>337.2</ele>
        <time>2022-05-11T12:29:29Z</time>
      </trkpt>
      <trkpt lat="46.29997" lon="5.44622">
        <ele>337.4</ele>
        <time>2022-05-11T12:29:31Z</time>
      </trkpt>
      <trkpt lat="46.29991" lon="5.44621">
        <ele>338.4</ele>
        <time>2022-05-11T12:29:33Z</time>
      </trkpt>
      <trkpt lat="46.29976" lon="5.44621">
        <ele>339.6</ele>
        <time>2022-05-11T12:29:38Z</time>
      </trkpt>
      <trkpt lat="46.29963" lon="5.44625">
        <ele>341</ele>
        <time>2022-05-11T12:29:42Z</time>
      </trkpt>
      <trkpt lat="46.29952" lon="5.44629">
        <ele>341.8</ele>
        <time>2022-05-11T12:29:45Z</time>
      </trkpt>
      <trkpt lat="46.29949" lon="5.4463">
        <ele>342</ele>
        <time>2022-05-11T12:29:46Z</time>
      </trkpt>
      <trkpt lat="46.29935" lon="5.44639">
        <ele>343.2</ele>
        <time>2022-05-11T12:29:50Z</time>
      </trkpt>
      <trkpt lat="46.29915" lon="5.44638">
        <ele>343.8</ele>
        <time>2022-05-11T12:29:55Z</time>
      </trkpt>
      <trkpt lat="46.29908" lon="5.44629">
        <ele>344.2</ele>
        <time>2022-05-11T12:29:57Z</time>
      </trkpt>
      <trkpt lat="46.29906" lon="5.44624">
        <ele>344.6</ele>
        <time>2022-05-11T12:29:58Z</time>
      </trkpt>
      <trkpt lat="46.29904" lon="5.44619">
        <ele>344.8</ele>
        <time>2022-05-11T12:29:59Z</time>
      </trkpt>
      <trkpt lat="46.29902" lon="5.44613">
        <ele>345.2</ele>
        <time>2022-05-11T12:30:00Z</time>
      </trkpt>
      <trkpt lat="46.29886" lon="5.44581">
        <ele>346</ele>
        <time>2022-05-11T12:30:06Z</time>
      </trkpt>
      <trkpt lat="46.29882" lon="5.44577">
        <ele>346.2</ele>
        <time>2022-05-11T12:30:07Z</time>
      </trkpt>
      <trkpt lat="46.29878" lon="5.44572">
        <ele>346.4</ele>
        <time>2022-05-11T12:30:08Z</time>
      </trkpt>
      <trkpt lat="46.29867" lon="5.44561">
        <ele>346.6</ele>
        <time>2022-05-11T12:30:11Z</time>
      </trkpt>
      <trkpt lat="46.29863" lon="5.44559">
        <ele>346.6</ele>
        <time>2022-05-11T12:30:12Z</time>
      </trkpt>
      <trkpt lat="46.29859" lon="5.44557">
        <ele>346.6</ele>
        <time>2022-05-11T12:30:13Z</time>
      </trkpt>
      <trkpt lat="46.29835" lon="5.44543">
        <ele>347.2</ele>
        <time>2022-05-11T12:30:18Z</time>
      </trkpt>
      <trkpt lat="46.29807" lon="5.44516">
        <ele>346.4</ele>
        <time>2022-05-11T12:30:23Z</time>
      </trkpt>
      <trkpt lat="46.29769" lon="5.44479">
        <ele>345.2</ele>
        <time>2022-05-11T12:30:29Z</time>
      </trkpt>
      <trkpt lat="46.29763" lon="5.44473">
        <ele>345</ele>
        <time>2022-05-11T12:30:30Z</time>
      </trkpt>
      <trkpt lat="46.29728" lon="5.44439">
        <ele>343.8</ele>
        <time>2022-05-11T12:30:36Z</time>
      </trkpt>
      <trkpt lat="46.29723" lon="5.44433">
        <ele>343.6</ele>
        <time>2022-05-11T12:30:37Z</time>
      </trkpt>
      <trkpt lat="46.29704" lon="5.44415">
        <ele>343.2</ele>
        <time>2022-05-11T12:30:41Z</time>
      </trkpt>
      <trkpt lat="46.29695" lon="5.44405">
        <ele>343</ele>
        <time>2022-05-11T12:30:43Z</time>
      </trkpt>
      <trkpt lat="46.29686" lon="5.44396">
        <ele>343</ele>
        <time>2022-05-11T12:30:45Z</time>
      </trkpt>
      <trkpt lat="46.29668" lon="5.44378">
        <ele>343.4</ele>
        <time>2022-05-11T12:30:49Z</time>
      </trkpt>
      <trkpt lat="46.2963" lon="5.44343">
        <ele>344.8</ele>
        <time>2022-05-11T12:30:57Z</time>
      </trkpt>
      <trkpt lat="46.29625" lon="5.44339">
        <ele>345</ele>
        <time>2022-05-11T12:30:58Z</time>
      </trkpt>
      <trkpt lat="46.29607" lon="5.44321">
        <ele>346</ele>
        <time>2022-05-11T12:31:02Z</time>
      </trkpt>
      <trkpt lat="46.29589" lon="5.44304">
        <ele>346.2</ele>
        <time>2022-05-11T12:31:06Z</time>
      </trkpt>
      <trkpt lat="46.29552" lon="5.44268">
        <ele>345.6</ele>
        <time>2022-05-11T12:31:14Z</time>
      </trkpt>
      <trkpt lat="46.29519" lon="5.44243">
        <ele>344.8</ele>
        <time>2022-05-11T12:31:20Z</time>
      </trkpt>
      <trkpt lat="46.29508" lon="5.44235">
        <ele>344.8</ele>
        <time>2022-05-11T12:31:22Z</time>
      </trkpt>
      <trkpt lat="46.29466" lon="5.44201">
        <ele>344.8</ele>
        <time>2022-05-11T12:31:30Z</time>
      </trkpt>
      <trkpt lat="46.2944" lon="5.44177">
        <ele>344.6</ele>
        <time>2022-05-11T12:31:35Z</time>
      </trkpt>
      <trkpt lat="46.29432" lon="5.44164">
        <ele>344.4</ele>
        <time>2022-05-11T12:31:37Z</time>
      </trkpt>
      <trkpt lat="46.29422" lon="5.44131">
        <ele>344</ele>
        <time>2022-05-11T12:31:41Z</time>
      </trkpt>
      <trkpt lat="46.29421" lon="5.44128">
        <ele>344</ele>
        <time>2022-05-11T12:31:42Z</time>
      </trkpt>
      <trkpt lat="46.294" lon="5.44072">
        <ele>343.8</ele>
        <time>2022-05-11T12:31:49Z</time>
      </trkpt>
      <trkpt lat="46.29392" lon="5.44061">
        <ele>343.6</ele>
        <time>2022-05-11T12:31:51Z</time>
      </trkpt>
      <trkpt lat="46.29381" lon="5.44055">
        <ele>343.6</ele>
        <time>2022-05-11T12:31:53Z</time>
      </trkpt>
      <trkpt lat="46.29371" lon="5.4405">
        <ele>343.6</ele>
        <time>2022-05-11T12:31:55Z</time>
      </trkpt>
      <trkpt lat="46.29361" lon="5.44041">
        <ele>343.2</ele>
        <time>2022-05-11T12:31:57Z</time>
      </trkpt>
      <trkpt lat="46.29355" lon="5.44037">
        <ele>343</ele>
        <time>2022-05-11T12:31:58Z</time>
      </trkpt>
      <trkpt lat="46.29316" lon="5.44008">
        <ele>342.2</ele>
        <time>2022-05-11T12:32:05Z</time>
      </trkpt>
      <trkpt lat="46.29305" lon="5.44">
        <ele>341.6</ele>
        <time>2022-05-11T12:32:07Z</time>
      </trkpt>
      <trkpt lat="46.2927" lon="5.43969">
        <ele>341.4</ele>
        <time>2022-05-11T12:32:14Z</time>
      </trkpt>
      <trkpt lat="46.29243" lon="5.43942">
        <ele>341.8</ele>
        <time>2022-05-11T12:32:20Z</time>
      </trkpt>
      <trkpt lat="46.29226" lon="5.43908">
        <ele>342.2</ele>
        <time>2022-05-11T12:32:25Z</time>
      </trkpt>
      <trkpt lat="46.29217" lon="5.43899">
        <ele>342.2</ele>
        <time>2022-05-11T12:32:27Z</time>
      </trkpt>
      <trkpt lat="46.29206" lon="5.43891">
        <ele>342.2</ele>
        <time>2022-05-11T12:32:29Z</time>
      </trkpt>
      <trkpt lat="46.29158" lon="5.4386">
        <ele>341.8</ele>
        <time>2022-05-11T12:32:39Z</time>
      </trkpt>
      <trkpt lat="46.29149" lon="5.43856">
        <ele>342</ele>
        <time>2022-05-11T12:32:41Z</time>
      </trkpt>
      <trkpt lat="46.29137" lon="5.43854">
        <ele>342</ele>
        <time>2022-05-11T12:32:44Z</time>
      </trkpt>
      <trkpt lat="46.29123" lon="5.43852">
        <ele>341.6</ele>
        <time>2022-05-11T12:32:49Z</time>
      </trkpt>
      <trkpt lat="46.29103" lon="5.43849">
        <ele>341.2</ele>
        <time>2022-05-11T12:32:56Z</time>
      </trkpt>
      <trkpt lat="46.29089" lon="5.43852">
        <ele>341.6</ele>
        <time>2022-05-11T12:33:02Z</time>
      </trkpt>
      <trkpt lat="46.29075" lon="5.43861">
        <ele>342</ele>
        <time>2022-05-11T12:33:08Z</time>
      </trkpt>
      <trkpt lat="46.29063" lon="5.43867">
        <ele>342</ele>
        <time>2022-05-11T12:33:11Z</time>
      </trkpt>
      <trkpt lat="46.29062" lon="5.43867">
        <ele>342.2</ele>
        <time>2022-05-11T12:33:12Z</time>
      </trkpt>
      <trkpt lat="46.29033" lon="5.43867">
        <ele>342.6</ele>
        <time>2022-05-11T12:33:18Z</time>
      </trkpt>
      <trkpt lat="46.29019" lon="5.43867">
        <ele>342.6</ele>
        <time>2022-05-11T12:33:21Z</time>
      </trkpt>
      <trkpt lat="46.29011" lon="5.43863">
        <ele>342.8</ele>
        <time>2022-05-11T12:33:23Z</time>
      </trkpt>
      <trkpt lat="46.29007" lon="5.43861">
        <ele>343</ele>
        <time>2022-05-11T12:33:24Z</time>
      </trkpt>
      <trkpt lat="46.28989" lon="5.43849">
        <ele>343.2</ele>
        <time>2022-05-11T12:33:28Z</time>
      </trkpt>
      <trkpt lat="46.2898" lon="5.43845">
        <ele>343.4</ele>
        <time>2022-05-11T12:33:30Z</time>
      </trkpt>
      <trkpt lat="46.28975" lon="5.43844">
        <ele>343.6</ele>
        <time>2022-05-11T12:33:31Z</time>
      </trkpt>
      <trkpt lat="46.28961" lon="5.43839">
        <ele>343.8</ele>
        <time>2022-05-11T12:33:34Z</time>
      </trkpt>
      <trkpt lat="46.28956" lon="5.43836">
        <ele>344</ele>
        <time>2022-05-11T12:33:35Z</time>
      </trkpt>
      <trkpt lat="46.28951" lon="5.43831">
        <ele>344</ele>
        <time>2022-05-11T12:33:36Z</time>
      </trkpt>
      <trkpt lat="46.28945" lon="5.4381">
        <ele>344</ele>
        <time>2022-05-11T12:33:39Z</time>
      </trkpt>
      <trkpt lat="46.28952" lon="5.43778">
        <ele>343.6</ele>
        <time>2022-05-11T12:33:42Z</time>
      </trkpt>
      <trkpt lat="46.28962" lon="5.43744">
        <ele>342.8</ele>
        <time>2022-05-11T12:33:45Z</time>
      </trkpt>
      <trkpt lat="46.28968" lon="5.43721">
        <ele>342</ele>
        <time>2022-05-11T12:33:47Z</time>
      </trkpt>
      <trkpt lat="46.2897" lon="5.4371">
        <ele>341.4</ele>
        <time>2022-05-11T12:33:48Z</time>
      </trkpt>
      <trkpt lat="46.28972" lon="5.43691">
        <ele>340.8</ele>
        <time>2022-05-11T12:33:50Z</time>
      </trkpt>
      <trkpt lat="46.28973" lon="5.43684">
        <ele>340.2</ele>
        <time>2022-05-11T12:33:51Z</time>
      </trkpt>
      <trkpt lat="46.28969" lon="5.43672">
        <ele>339.4</ele>
        <time>2022-05-11T12:33:53Z</time>
      </trkpt>
      <trkpt lat="46.28966" lon="5.43669">
        <ele>339</ele>
        <time>2022-05-11T12:33:54Z</time>
      </trkpt>
      <trkpt lat="46.28963" lon="5.43668">
        <ele>338.2</ele>
        <time>2022-05-11T12:33:55Z</time>
      </trkpt>
      <trkpt lat="46.28954" lon="5.43665">
        <ele>337.8</ele>
        <time>2022-05-11T12:33:57Z</time>
      </trkpt>
      <trkpt lat="46.28945" lon="5.43664">
        <ele>337.4</ele>
        <time>2022-05-11T12:33:59Z</time>
      </trkpt>
      <trkpt lat="46.28915" lon="5.43657">
        <ele>337.2</ele>
        <time>2022-05-11T12:34:06Z</time>
      </trkpt>
      <trkpt lat="46.28892" lon="5.43652">
        <ele>337.4</ele>
        <time>2022-05-11T12:34:11Z</time>
      </trkpt>
      <trkpt lat="46.28886" lon="5.43651">
        <ele>337.6</ele>
        <time>2022-05-11T12:34:13Z</time>
      </trkpt>
      <trkpt lat="46.28849" lon="5.43644">
        <ele>338</ele>
        <time>2022-05-11T12:34:21Z</time>
      </trkpt>
      <trkpt lat="46.28816" lon="5.43637">
        <ele>338.8</ele>
        <time>2022-05-11T12:34:28Z</time>
      </trkpt>
      <trkpt lat="46.28805" lon="5.43635">
        <ele>339</ele>
        <time>2022-05-11T12:34:30Z</time>
      </trkpt>
      <trkpt lat="46.28767" lon="5.43619">
        <ele>339</ele>
        <time>2022-05-11T12:34:38Z</time>
      </trkpt>
      <trkpt lat="46.28722" lon="5.43599">
        <ele>340</ele>
        <time>2022-05-11T12:34:48Z</time>
      </trkpt>
      <trkpt lat="46.28697" lon="5.43592">
        <ele>341.2</ele>
        <time>2022-05-11T12:34:53Z</time>
      </trkpt>
      <trkpt lat="46.28687" lon="5.43589">
        <ele>341.6</ele>
        <time>2022-05-11T12:34:55Z</time>
      </trkpt>
      <trkpt lat="46.28676" lon="5.43587">
        <ele>341.8</ele>
        <time>2022-05-11T12:34:57Z</time>
      </trkpt>
      <trkpt lat="46.28653" lon="5.43582">
        <ele>342</ele>
        <time>2022-05-11T12:35:01Z</time>
      </trkpt>
      <trkpt lat="46.28636" lon="5.4358">
        <ele>341.4</ele>
        <time>2022-05-11T12:35:04Z</time>
      </trkpt>
      <trkpt lat="46.28625" lon="5.43582">
        <ele>341.2</ele>
        <time>2022-05-11T12:35:06Z</time>
      </trkpt>
      <trkpt lat="46.28619" lon="5.43585">
        <ele>341</ele>
        <time>2022-05-11T12:35:07Z</time>
      </trkpt>
      <trkpt lat="46.28586" lon="5.43609">
        <ele>340.4</ele>
        <time>2022-05-11T12:35:14Z</time>
      </trkpt>
      <trkpt lat="46.28569" lon="5.43621">
        <ele>340.2</ele>
        <time>2022-05-11T12:35:17Z</time>
      </trkpt>
      <trkpt lat="46.28564" lon="5.43624">
        <ele>340.2</ele>
        <time>2022-05-11T12:35:18Z</time>
      </trkpt>
      <trkpt lat="46.28559" lon="5.43625">
        <ele>340.2</ele>
        <time>2022-05-11T12:35:19Z</time>
      </trkpt>
      <trkpt lat="46.28554" lon="5.43626">
        <ele>340.2</ele>
        <time>2022-05-11T12:35:20Z</time>
      </trkpt>
      <trkpt lat="46.28549" lon="5.43627">
        <ele>340.2</ele>
        <time>2022-05-11T12:35:21Z</time>
      </trkpt>
      <trkpt lat="46.28523" lon="5.43626">
        <ele>339.8</ele>
        <time>2022-05-11T12:35:26Z</time>
      </trkpt>
      <trkpt lat="46.28475" lon="5.4362">
        <ele>339.4</ele>
        <time>2022-05-11T12:35:35Z</time>
      </trkpt>
      <trkpt lat="46.28464" lon="5.43619">
        <ele>339.2</ele>
        <time>2022-05-11T12:35:37Z</time>
      </trkpt>
      <trkpt lat="46.28453" lon="5.43618">
        <ele>339</ele>
        <time>2022-05-11T12:35:39Z</time>
      </trkpt>
      <trkpt lat="46.28438" lon="5.43615">
        <ele>339</ele>
        <time>2022-05-11T12:35:42Z</time>
      </trkpt>
      <trkpt lat="46.28383" lon="5.43605">
        <ele>340.4</ele>
        <time>2022-05-11T12:35:53Z</time>
      </trkpt>
      <trkpt lat="46.28367" lon="5.43603">
        <ele>340.6</ele>
        <time>2022-05-11T12:35:56Z</time>
      </trkpt>
      <trkpt lat="46.28357" lon="5.436">
        <ele>340.4</ele>
        <time>2022-05-11T12:35:58Z</time>
      </trkpt>
      <trkpt lat="46.28301" lon="5.43593">
        <ele>340</ele>
        <time>2022-05-11T12:36:08Z</time>
      </trkpt>
      <trkpt lat="46.28273" lon="5.43594">
        <ele>339.4</ele>
        <time>2022-05-11T12:36:13Z</time>
      </trkpt>
      <trkpt lat="46.28241" lon="5.43594">
        <ele>339.2</ele>
        <time>2022-05-11T12:36:19Z</time>
      </trkpt>
      <trkpt lat="46.28214" lon="5.43594">
        <ele>338.4</ele>
        <time>2022-05-11T12:36:24Z</time>
      </trkpt>
      <trkpt lat="46.28188" lon="5.43596">
        <ele>337.8</ele>
        <time>2022-05-11T12:36:29Z</time>
      </trkpt>
      <trkpt lat="46.28146" lon="5.43602">
        <ele>337.6</ele>
        <time>2022-05-11T12:36:39Z</time>
      </trkpt>
      <trkpt lat="46.28119" lon="5.43607">
        <ele>337.6</ele>
        <time>2022-05-11T12:36:44Z</time>
      </trkpt>
      <trkpt lat="46.28108" lon="5.43608">
        <ele>337.6</ele>
        <time>2022-05-11T12:36:46Z</time>
      </trkpt>
      <trkpt lat="46.28067" lon="5.43613">
        <ele>338.2</ele>
        <time>2022-05-11T12:36:54Z</time>
      </trkpt>
      <trkpt lat="46.28012" lon="5.43617">
        <ele>338.8</ele>
        <time>2022-05-11T12:37:05Z</time>
      </trkpt>
      <trkpt lat="46.28007" lon="5.43618">
        <ele>339</ele>
        <time>2022-05-11T12:37:06Z</time>
      </trkpt>
      <trkpt lat="46.27984" lon="5.43621">
        <ele>339.4</ele>
        <time>2022-05-11T12:37:11Z</time>
      </trkpt>
      <trkpt lat="46.2798" lon="5.43622">
        <ele>339.6</ele>
        <time>2022-05-11T12:37:12Z</time>
      </trkpt>
      <trkpt lat="46.27962" lon="5.43618">
        <ele>340.6</ele>
        <time>2022-05-11T12:37:16Z</time>
      </trkpt>
      <trkpt lat="46.27957" lon="5.43618">
        <ele>340.8</ele>
        <time>2022-05-11T12:37:17Z</time>
      </trkpt>
      <trkpt lat="46.27924" lon="5.43613">
        <ele>341.2</ele>
        <time>2022-05-11T12:37:23Z</time>
      </trkpt>
      <trkpt lat="46.27868" lon="5.43607">
        <ele>340.6</ele>
        <time>2022-05-11T12:37:33Z</time>
      </trkpt>
      <trkpt lat="46.27851" lon="5.43607">
        <ele>340.8</ele>
        <time>2022-05-11T12:37:36Z</time>
      </trkpt>
      <trkpt lat="46.27819" lon="5.43605">
        <ele>340.6</ele>
        <time>2022-05-11T12:37:42Z</time>
      </trkpt>
      <trkpt lat="46.27766" lon="5.43602">
        <ele>340.2</ele>
        <time>2022-05-11T12:37:51Z</time>
      </trkpt>
      <trkpt lat="46.27747" lon="5.43604">
        <ele>339.4</ele>
        <time>2022-05-11T12:37:54Z</time>
      </trkpt>
      <trkpt lat="46.2774" lon="5.43604">
        <ele>339.2</ele>
        <time>2022-05-11T12:37:55Z</time>
      </trkpt>
      <trkpt lat="46.27727" lon="5.43601">
        <ele>338.6</ele>
        <time>2022-05-11T12:37:57Z</time>
      </trkpt>
      <trkpt lat="46.27721" lon="5.43599">
        <ele>338.4</ele>
        <time>2022-05-11T12:37:58Z</time>
      </trkpt>
      <trkpt lat="46.27696" lon="5.43595">
        <ele>337.8</ele>
        <time>2022-05-11T12:38:02Z</time>
      </trkpt>
      <trkpt lat="46.2768" lon="5.43594">
        <ele>337.4</ele>
        <time>2022-05-11T12:38:05Z</time>
      </trkpt>
      <trkpt lat="46.27669" lon="5.43593">
        <ele>337.2</ele>
        <time>2022-05-11T12:38:07Z</time>
      </trkpt>
      <trkpt lat="46.27633" lon="5.43589">
        <ele>336.8</ele>
        <time>2022-05-11T12:38:14Z</time>
      </trkpt>
      <trkpt lat="46.27628" lon="5.43589">
        <ele>337</ele>
        <time>2022-05-11T12:38:15Z</time>
      </trkpt>
      <trkpt lat="46.27609" lon="5.43589">
        <ele>337.4</ele>
        <time>2022-05-11T12:38:19Z</time>
      </trkpt>
      <trkpt lat="46.27579" lon="5.4359">
        <ele>338.6</ele>
        <time>2022-05-11T12:38:25Z</time>
      </trkpt>
      <trkpt lat="46.27568" lon="5.43591">
        <ele>338.8</ele>
        <time>2022-05-11T12:38:27Z</time>
      </trkpt>
      <trkpt lat="46.27525" lon="5.4359">
        <ele>339</ele>
        <time>2022-05-11T12:38:34Z</time>
      </trkpt>
      <trkpt lat="46.27469" lon="5.4359">
        <ele>337.8</ele>
        <time>2022-05-11T12:38:44Z</time>
      </trkpt>
      <trkpt lat="46.27445" lon="5.43591">
        <ele>337.6</ele>
        <time>2022-05-11T12:38:48Z</time>
      </trkpt>
      <trkpt lat="46.2743" lon="5.4359">
        <ele>337.4</ele>
        <time>2022-05-11T12:38:51Z</time>
      </trkpt>
      <trkpt lat="46.27401" lon="5.43585">
        <ele>337.2</ele>
        <time>2022-05-11T12:38:58Z</time>
      </trkpt>
      <trkpt lat="46.2737" lon="5.43578">
        <ele>337.4</ele>
        <time>2022-05-11T12:39:06Z</time>
      </trkpt>
      <trkpt lat="46.27348" lon="5.4357">
        <ele>338.2</ele>
        <time>2022-05-11T12:39:12Z</time>
      </trkpt>
      <trkpt lat="46.27312" lon="5.43555">
        <ele>338.2</ele>
        <time>2022-05-11T12:39:20Z</time>
      </trkpt>
      <trkpt lat="46.27271" lon="5.43539">
        <ele>338.2</ele>
        <time>2022-05-11T12:39:29Z</time>
      </trkpt>
      <trkpt lat="46.27244" lon="5.43532">
        <ele>338.4</ele>
        <time>2022-05-11T12:39:36Z</time>
      </trkpt>
      <trkpt lat="46.27229" lon="5.43529">
        <ele>339</ele>
        <time>2022-05-11T12:39:40Z</time>
      </trkpt>
      <trkpt lat="46.27218" lon="5.43528">
        <ele>339.2</ele>
        <time>2022-05-11T12:39:43Z</time>
      </trkpt>
      <trkpt lat="46.27186" lon="5.43524">
        <ele>339.8</ele>
        <time>2022-05-11T12:39:52Z</time>
      </trkpt>
      <trkpt lat="46.27156" lon="5.43518">
        <ele>341.2</ele>
        <time>2022-05-11T12:40:00Z</time>
      </trkpt>
      <trkpt lat="46.27148" lon="5.43517">
        <ele>341.4</ele>
        <time>2022-05-11T12:40:02Z</time>
      </trkpt>
      <trkpt lat="46.27122" lon="5.43512">
        <ele>341.6</ele>
        <time>2022-05-11T12:40:08Z</time>
      </trkpt>
      <trkpt lat="46.27109" lon="5.4351">
        <ele>341.6</ele>
        <time>2022-05-11T12:40:11Z</time>
      </trkpt>
      <trkpt lat="46.27076" lon="5.43501">
        <ele>342</ele>
        <time>2022-05-11T12:40:19Z</time>
      </trkpt>
      <trkpt lat="46.27067" lon="5.43499">
        <ele>342</ele>
        <time>2022-05-11T12:40:21Z</time>
      </trkpt>
      <trkpt lat="46.27063" lon="5.43498">
        <ele>342.2</ele>
        <time>2022-05-11T12:40:22Z</time>
      </trkpt>
      <trkpt lat="46.27046" lon="5.43491">
        <ele>342.2</ele>
        <time>2022-05-11T12:40:26Z</time>
      </trkpt>
      <trkpt lat="46.27017" lon="5.43475">
        <ele>342.2</ele>
        <time>2022-05-11T12:40:33Z</time>
      </trkpt>
      <trkpt lat="46.2699" lon="5.43457">
        <ele>341.8</ele>
        <time>2022-05-11T12:40:40Z</time>
      </trkpt>
      <trkpt lat="46.26986" lon="5.43455">
        <ele>341.8</ele>
        <time>2022-05-11T12:40:41Z</time>
      </trkpt>
      <trkpt lat="46.26967" lon="5.4344">
        <ele>342.2</ele>
        <time>2022-05-11T12:40:46Z</time>
      </trkpt>
      <trkpt lat="46.26959" lon="5.43431">
        <ele>342.4</ele>
        <time>2022-05-11T12:40:48Z</time>
      </trkpt>
      <trkpt lat="46.26929" lon="5.43394">
        <ele>342.6</ele>
        <time>2022-05-11T12:40:56Z</time>
      </trkpt>
      <trkpt lat="46.26899" lon="5.43354">
        <ele>343</ele>
        <time>2022-05-11T12:41:05Z</time>
      </trkpt>
      <trkpt lat="46.26896" lon="5.4335">
        <ele>343.2</ele>
        <time>2022-05-11T12:41:06Z</time>
      </trkpt>
      <trkpt lat="46.26875" lon="5.43322">
        <ele>344.4</ele>
        <time>2022-05-11T12:41:13Z</time>
      </trkpt>
      <trkpt lat="46.2686" lon="5.43303">
        <ele>345.2</ele>
        <time>2022-05-11T12:41:17Z</time>
      </trkpt>
      <trkpt lat="46.26853" lon="5.43294">
        <ele>345.4</ele>
        <time>2022-05-11T12:41:19Z</time>
      </trkpt>
      <trkpt lat="46.26832" lon="5.43263">
        <ele>346.4</ele>
        <time>2022-05-11T12:41:26Z</time>
      </trkpt>
      <trkpt lat="46.26812" lon="5.43214">
        <ele>345.8</ele>
        <time>2022-05-11T12:41:34Z</time>
      </trkpt>
      <trkpt lat="46.26808" lon="5.43207">
        <ele>345.8</ele>
        <time>2022-05-11T12:41:35Z</time>
      </trkpt>
      <trkpt lat="46.26796" lon="5.43191">
        <ele>345.2</ele>
        <time>2022-05-11T12:41:38Z</time>
      </trkpt>
      <trkpt lat="46.26791" lon="5.43187">
        <ele>345</ele>
        <time>2022-05-11T12:41:39Z</time>
      </trkpt>
      <trkpt lat="46.26765" lon="5.43166">
        <ele>344.2</ele>
        <time>2022-05-11T12:41:44Z</time>
      </trkpt>
      <trkpt lat="46.26752" lon="5.43156">
        <ele>343.6</ele>
        <time>2022-05-11T12:41:46Z</time>
      </trkpt>
      <trkpt lat="46.26723" lon="5.43133">
        <ele>342.8</ele>
        <time>2022-05-11T12:41:50Z</time>
      </trkpt>
      <trkpt lat="46.26715" lon="5.43127">
        <ele>342.2</ele>
        <time>2022-05-11T12:41:51Z</time>
      </trkpt>
      <trkpt lat="46.26698" lon="5.43114">
        <ele>341</ele>
        <time>2022-05-11T12:41:53Z</time>
      </trkpt>
      <trkpt lat="46.2668" lon="5.43101">
        <ele>339.4</ele>
        <time>2022-05-11T12:41:55Z</time>
      </trkpt>
      <trkpt lat="46.26671" lon="5.43095">
        <ele>338.8</ele>
        <time>2022-05-11T12:41:56Z</time>
      </trkpt>
      <trkpt lat="46.26661" lon="5.43091">
        <ele>337.8</ele>
        <time>2022-05-11T12:41:57Z</time>
      </trkpt>
      <trkpt lat="46.26642" lon="5.43085">
        <ele>336.6</ele>
        <time>2022-05-11T12:41:59Z</time>
      </trkpt>
      <trkpt lat="46.26632" lon="5.43083">
        <ele>335.6</ele>
        <time>2022-05-11T12:42:00Z</time>
      </trkpt>
      <trkpt lat="46.26623" lon="5.43081">
        <ele>335</ele>
        <time>2022-05-11T12:42:01Z</time>
      </trkpt>
      <trkpt lat="46.26604" lon="5.43077">
        <ele>333.6</ele>
        <time>2022-05-11T12:42:03Z</time>
      </trkpt>
      <trkpt lat="46.26586" lon="5.43073">
        <ele>332.4</ele>
        <time>2022-05-11T12:42:05Z</time>
      </trkpt>
      <trkpt lat="46.26578" lon="5.43071">
        <ele>332.2</ele>
        <time>2022-05-11T12:42:06Z</time>
      </trkpt>
      <trkpt lat="46.26562" lon="5.43068">
        <ele>331.4</ele>
        <time>2022-05-11T12:42:08Z</time>
      </trkpt>
      <trkpt lat="46.26546" lon="5.43065">
        <ele>330.2</ele>
        <time>2022-05-11T12:42:10Z</time>
      </trkpt>
      <trkpt lat="46.26531" lon="5.43062">
        <ele>329.8</ele>
        <time>2022-05-11T12:42:12Z</time>
      </trkpt>
      <trkpt lat="46.26503" lon="5.43058">
        <ele>329</ele>
        <time>2022-05-11T12:42:16Z</time>
      </trkpt>
      <trkpt lat="46.2649" lon="5.43055">
        <ele>329</ele>
        <time>2022-05-11T12:42:18Z</time>
      </trkpt>
      <trkpt lat="46.26465" lon="5.43051">
        <ele>329.2</ele>
        <time>2022-05-11T12:42:23Z</time>
      </trkpt>
      <trkpt lat="46.26451" lon="5.43048">
        <ele>329.2</ele>
        <time>2022-05-11T12:42:28Z</time>
      </trkpt>
      <trkpt lat="46.26451" lon="5.43048">
        <ele>329</ele>
        <time>2022-05-11T12:42:31Z</time>
      </trkpt>
      <trkpt lat="46.2645" lon="5.43044">
        <ele>328</ele>
        <time>2022-05-11T12:42:58Z</time>
      </trkpt>
      <trkpt lat="46.26449" lon="5.43033">
        <ele>328</ele>
        <time>2022-05-11T12:43:00Z</time>
      </trkpt>
      <trkpt lat="46.2645" lon="5.43025">
        <ele>328</ele>
        <time>2022-05-11T12:43:01Z</time>
      </trkpt>
      <trkpt lat="46.26449" lon="5.42988">
        <ele>328.2</ele>
        <time>2022-05-11T12:43:05Z</time>
      </trkpt>
      <trkpt lat="46.26449" lon="5.42917">
        <ele>327.2</ele>
        <time>2022-05-11T12:43:12Z</time>
      </trkpt>
      <trkpt lat="46.26449" lon="5.42908">
        <ele>326.6</ele>
        <time>2022-05-11T12:43:13Z</time>
      </trkpt>
      <trkpt lat="46.26449" lon="5.42872">
        <ele>325.4</ele>
        <time>2022-05-11T12:43:17Z</time>
      </trkpt>
      <trkpt lat="46.26448" lon="5.42864">
        <ele>325.4</ele>
        <time>2022-05-11T12:43:18Z</time>
      </trkpt>
      <trkpt lat="46.26442" lon="5.42835">
        <ele>325.2</ele>
        <time>2022-05-11T12:43:22Z</time>
      </trkpt>
      <trkpt lat="46.2644" lon="5.42829">
        <ele>325.2</ele>
        <time>2022-05-11T12:43:23Z</time>
      </trkpt>
      <trkpt lat="46.26435" lon="5.4281">
        <ele>325</ele>
        <time>2022-05-11T12:43:26Z</time>
      </trkpt>
      <trkpt lat="46.26431" lon="5.42797">
        <ele>325.2</ele>
        <time>2022-05-11T12:43:28Z</time>
      </trkpt>
      <trkpt lat="46.26419" lon="5.42762">
        <ele>324.8</ele>
        <time>2022-05-11T12:43:33Z</time>
      </trkpt>
      <trkpt lat="46.26418" lon="5.42755">
        <ele>325</ele>
        <time>2022-05-11T12:43:34Z</time>
      </trkpt>
      <trkpt lat="46.26413" lon="5.42725">
        <ele>324.8</ele>
        <time>2022-05-11T12:43:38Z</time>
      </trkpt>
      <trkpt lat="46.26412" lon="5.42692">
        <ele>324.8</ele>
        <time>2022-05-11T12:43:43Z</time>
      </trkpt>
      <trkpt lat="46.26412" lon="5.42687">
        <ele>324.8</ele>
        <time>2022-05-11T12:43:44Z</time>
      </trkpt>
      <trkpt lat="46.26415" lon="5.4266">
        <ele>325</ele>
        <time>2022-05-11T12:43:49Z</time>
      </trkpt>
      <trkpt lat="46.26417" lon="5.42616">
        <ele>325.2</ele>
        <time>2022-05-11T12:43:57Z</time>
      </trkpt>
      <trkpt lat="46.26416" lon="5.42614">
        <ele>325.2</ele>
        <time>2022-05-11T12:43:58Z</time>
      </trkpt>
      <trkpt lat="46.26414" lon="5.4261">
        <ele>325.4</ele>
        <time>2022-05-11T12:44:00Z</time>
      </trkpt>
      <trkpt lat="46.26414" lon="5.42609">
        <ele>326</ele>
        <time>2022-05-11T12:44:03Z</time>
      </trkpt>
      <trkpt lat="46.26407" lon="5.42597">
        <ele>325.6</ele>
        <time>2022-05-11T12:47:30Z</time>
      </trkpt>
      <trkpt lat="46.26405" lon="5.42597">
        <ele>325.4</ele>
        <time>2022-05-11T12:47:31Z</time>
      </trkpt>
      <trkpt lat="46.26387" lon="5.4259">
        <ele>325.4</ele>
        <time>2022-05-11T12:47:37Z</time>
      </trkpt>
      <trkpt lat="46.26365" lon="5.42585">
        <ele>325.4</ele>
        <time>2022-05-11T12:47:44Z</time>
      </trkpt>
      <trkpt lat="46.2634" lon="5.42581">
        <ele>325.4</ele>
        <time>2022-05-11T12:47:50Z</time>
      </trkpt>
      <trkpt lat="46.26334" lon="5.4258">
        <ele>325.4</ele>
        <time>2022-05-11T12:47:51Z</time>
      </trkpt>
      <trkpt lat="46.26318" lon="5.42579">
        <ele>325.4</ele>
        <time>2022-05-11T12:47:54Z</time>
      </trkpt>
      <trkpt lat="46.26275" lon="5.42572">
        <ele>325.6</ele>
        <time>2022-05-11T12:48:02Z</time>
      </trkpt>
      <trkpt lat="46.26231" lon="5.42566">
        <ele>325.6</ele>
        <time>2022-05-11T12:48:10Z</time>
      </trkpt>
      <trkpt lat="46.26191" lon="5.42561">
        <ele>325</ele>
        <time>2022-05-11T12:48:18Z</time>
      </trkpt>
      <trkpt lat="46.26153" lon="5.42554">
        <ele>325.2</ele>
        <time>2022-05-11T12:48:26Z</time>
      </trkpt>
      <trkpt lat="46.26117" lon="5.42548">
        <ele>325.4</ele>
        <time>2022-05-11T12:48:34Z</time>
      </trkpt>
      <trkpt lat="46.26087" lon="5.42544">
        <ele>325.4</ele>
        <time>2022-05-11T12:48:42Z</time>
      </trkpt>
      <trkpt lat="46.26045" lon="5.42537">
        <ele>325</ele>
        <time>2022-05-11T12:48:50Z</time>
      </trkpt>
      <trkpt lat="46.26037" lon="5.42536">
        <ele>325</ele>
        <time>2022-05-11T12:48:52Z</time>
      </trkpt>
      <trkpt lat="46.25994" lon="5.42529">
        <ele>325.4</ele>
        <time>2022-05-11T12:49:02Z</time>
      </trkpt>
      <trkpt lat="46.2599" lon="5.42529">
        <ele>325.4</ele>
        <time>2022-05-11T12:49:03Z</time>
      </trkpt>
      <trkpt lat="46.25954" lon="5.42523">
        <ele>325.4</ele>
        <time>2022-05-11T12:49:11Z</time>
      </trkpt>
      <trkpt lat="46.25908" lon="5.42515">
        <ele>325.6</ele>
        <time>2022-05-11T12:49:21Z</time>
      </trkpt>
      <trkpt lat="46.25864" lon="5.42509">
        <ele>325.6</ele>
        <time>2022-05-11T12:49:30Z</time>
      </trkpt>
      <trkpt lat="46.25817" lon="5.42502">
        <ele>325</ele>
        <time>2022-05-11T12:49:39Z</time>
      </trkpt>
      <trkpt lat="46.25765" lon="5.42494">
        <ele>325</ele>
        <time>2022-05-11T12:49:49Z</time>
      </trkpt>
      <trkpt lat="46.25714" lon="5.42486">
        <ele>325</ele>
        <time>2022-05-11T12:50:00Z</time>
      </trkpt>
      <trkpt lat="46.25662" lon="5.42477">
        <ele>324.8</ele>
        <time>2022-05-11T12:50:11Z</time>
      </trkpt>
      <trkpt lat="46.25614" lon="5.42469">
        <ele>325</ele>
        <time>2022-05-11T12:50:21Z</time>
      </trkpt>
      <trkpt lat="46.25556" lon="5.42461">
        <ele>324.6</ele>
        <time>2022-05-11T12:50:33Z</time>
      </trkpt>
      <trkpt lat="46.25509" lon="5.42454">
        <ele>325</ele>
        <time>2022-05-11T12:50:43Z</time>
      </trkpt>
      <trkpt lat="46.25461" lon="5.42445">
        <ele>324.6</ele>
        <time>2022-05-11T12:50:53Z</time>
      </trkpt>
      <trkpt lat="46.25419" lon="5.42438">
        <ele>324.2</ele>
        <time>2022-05-11T12:51:02Z</time>
      </trkpt>
      <trkpt lat="46.25409" lon="5.42437">
        <ele>324.2</ele>
        <time>2022-05-11T12:51:04Z</time>
      </trkpt>
      <trkpt lat="46.25355" lon="5.42427">
        <ele>324.6</ele>
        <time>2022-05-11T12:51:15Z</time>
      </trkpt>
      <trkpt lat="46.253" lon="5.42419">
        <ele>324.8</ele>
        <time>2022-05-11T12:51:26Z</time>
      </trkpt>
      <trkpt lat="46.25297" lon="5.42419">
        <ele>324.8</ele>
        <time>2022-05-11T12:51:27Z</time>
      </trkpt>
      <trkpt lat="46.2525" lon="5.42411">
        <ele>325</ele>
        <time>2022-05-11T12:51:37Z</time>
      </trkpt>
      <trkpt lat="46.25194" lon="5.42402">
        <ele>325</ele>
        <time>2022-05-11T12:51:49Z</time>
      </trkpt>
      <trkpt lat="46.25137" lon="5.42395">
        <ele>325</ele>
        <time>2022-05-11T12:52:01Z</time>
      </trkpt>
      <trkpt lat="46.25087" lon="5.42389">
        <ele>325</ele>
        <time>2022-05-11T12:52:12Z</time>
      </trkpt>
      <trkpt lat="46.25044" lon="5.42384">
        <ele>324.2</ele>
        <time>2022-05-11T12:52:21Z</time>
      </trkpt>
      <trkpt lat="46.24987" lon="5.42377">
        <ele>324</ele>
        <time>2022-05-11T12:52:33Z</time>
      </trkpt>
      <trkpt lat="46.24943" lon="5.42371">
        <ele>324.2</ele>
        <time>2022-05-11T12:52:42Z</time>
      </trkpt>
      <trkpt lat="46.249" lon="5.42366">
        <ele>324.2</ele>
        <time>2022-05-11T12:52:51Z</time>
      </trkpt>
      <trkpt lat="46.24853" lon="5.42359">
        <ele>323.8</ele>
        <time>2022-05-11T12:53:00Z</time>
      </trkpt>
      <trkpt lat="46.24813" lon="5.42355">
        <ele>324</ele>
        <time>2022-05-11T12:53:08Z</time>
      </trkpt>
      <trkpt lat="46.24762" lon="5.42348">
        <ele>324</ele>
        <time>2022-05-11T12:53:18Z</time>
      </trkpt>
      <trkpt lat="46.24752" lon="5.42347">
        <ele>324</ele>
        <time>2022-05-11T12:53:20Z</time>
      </trkpt>
      <trkpt lat="46.2471" lon="5.42341">
        <ele>324</ele>
        <time>2022-05-11T12:53:28Z</time>
      </trkpt>
      <trkpt lat="46.24668" lon="5.42333">
        <ele>324</ele>
        <time>2022-05-11T12:53:36Z</time>
      </trkpt>
      <trkpt lat="46.24651" lon="5.42325">
        <ele>324</ele>
        <time>2022-05-11T12:53:41Z</time>
      </trkpt>
      <trkpt lat="46.24647" lon="5.42325">
        <ele>324</ele>
        <time>2022-05-11T12:53:43Z</time>
      </trkpt>
      <trkpt lat="46.24641" lon="5.42331">
        <ele>324</ele>
        <time>2022-05-11T12:53:45Z</time>
      </trkpt>
      <trkpt lat="46.24639" lon="5.42347">
        <ele>324</ele>
        <time>2022-05-11T12:53:48Z</time>
      </trkpt>
      <trkpt lat="46.2464" lon="5.42386">
        <ele>324</ele>
        <time>2022-05-11T12:53:53Z</time>
      </trkpt>
      <trkpt lat="46.24641" lon="5.42415">
        <ele>323.4</ele>
        <time>2022-05-11T12:53:56Z</time>
      </trkpt>
      <trkpt lat="46.24641" lon="5.42444">
        <ele>323</ele>
        <time>2022-05-11T12:53:59Z</time>
      </trkpt>
      <trkpt lat="46.24634" lon="5.42506">
        <ele>322.6</ele>
        <time>2022-05-11T12:54:06Z</time>
      </trkpt>
      <trkpt lat="46.24623" lon="5.42564">
        <ele>322.6</ele>
        <time>2022-05-11T12:54:14Z</time>
      </trkpt>
      <trkpt lat="46.24614" lon="5.4262">
        <ele>322.8</ele>
        <time>2022-05-11T12:54:22Z</time>
      </trkpt>
      <trkpt lat="46.24611" lon="5.4264">
        <ele>322.8</ele>
        <time>2022-05-11T12:54:25Z</time>
      </trkpt>
      <trkpt lat="46.24607" lon="5.42665">
        <ele>323.2</ele>
        <time>2022-05-11T12:54:29Z</time>
      </trkpt>
      <trkpt lat="46.24601" lon="5.42704">
        <ele>324.4</ele>
        <time>2022-05-11T12:54:36Z</time>
      </trkpt>
      <trkpt lat="46.246" lon="5.42709">
        <ele>324.6</ele>
        <time>2022-05-11T12:54:37Z</time>
      </trkpt>
      <trkpt lat="46.24596" lon="5.42736">
        <ele>326</ele>
        <time>2022-05-11T12:54:42Z</time>
      </trkpt>
      <trkpt lat="46.24592" lon="5.4276">
        <ele>327</ele>
        <time>2022-05-11T12:54:46Z</time>
      </trkpt>
      <trkpt lat="46.24588" lon="5.42782">
        <ele>327.6</ele>
        <time>2022-05-11T12:54:50Z</time>
      </trkpt>
      <trkpt lat="46.24587" lon="5.42793">
        <ele>328</ele>
        <time>2022-05-11T12:54:52Z</time>
      </trkpt>
      <trkpt lat="46.24582" lon="5.42823">
        <ele>328.6</ele>
        <time>2022-05-11T12:54:57Z</time>
      </trkpt>
      <trkpt lat="46.24578" lon="5.42852">
        <ele>329</ele>
        <time>2022-05-11T12:55:02Z</time>
      </trkpt>
      <trkpt lat="46.24575" lon="5.42868">
        <ele>329.4</ele>
        <time>2022-05-11T12:55:05Z</time>
      </trkpt>
      <trkpt lat="46.2457" lon="5.42905">
        <ele>330.2</ele>
        <time>2022-05-11T12:55:11Z</time>
      </trkpt>
      <trkpt lat="46.24567" lon="5.42923">
        <ele>330.6</ele>
        <time>2022-05-11T12:55:14Z</time>
      </trkpt>
      <trkpt lat="46.24562" lon="5.42949">
        <ele>331.2</ele>
        <time>2022-05-11T12:55:18Z</time>
      </trkpt>
      <trkpt lat="46.24556" lon="5.42992">
        <ele>331.8</ele>
        <time>2022-05-11T12:55:25Z</time>
      </trkpt>
      <trkpt lat="46.24548" lon="5.43046">
        <ele>332.2</ele>
        <time>2022-05-11T12:55:34Z</time>
      </trkpt>
      <trkpt lat="46.24548" lon="5.43051">
        <ele>332.4</ele>
        <time>2022-05-11T12:55:35Z</time>
      </trkpt>
      <trkpt lat="46.24543" lon="5.43078">
        <ele>332.6</ele>
        <time>2022-05-11T12:55:40Z</time>
      </trkpt>
      <trkpt lat="46.24537" lon="5.43115">
        <ele>333.6</ele>
        <time>2022-05-11T12:55:46Z</time>
      </trkpt>
      <trkpt lat="46.24535" lon="5.43133">
        <ele>334</ele>
        <time>2022-05-11T12:55:49Z</time>
      </trkpt>
      <trkpt lat="46.24529" lon="5.43168">
        <ele>334.8</ele>
        <time>2022-05-11T12:55:55Z</time>
      </trkpt>
      <trkpt lat="46.24525" lon="5.43194">
        <ele>334.8</ele>
        <time>2022-05-11T12:55:59Z</time>
      </trkpt>
      <trkpt lat="46.24517" lon="5.43247">
        <ele>334.4</ele>
        <time>2022-05-11T12:56:07Z</time>
      </trkpt>
      <trkpt lat="46.24508" lon="5.4331">
        <ele>335</ele>
        <time>2022-05-11T12:56:16Z</time>
      </trkpt>
      <trkpt lat="46.24507" lon="5.43317">
        <ele>335.2</ele>
        <time>2022-05-11T12:56:17Z</time>
      </trkpt>
      <trkpt lat="46.24502" lon="5.43344">
        <ele>335.8</ele>
        <time>2022-05-11T12:56:21Z</time>
      </trkpt>
      <trkpt lat="46.24498" lon="5.43373">
        <ele>336.4</ele>
        <time>2022-05-11T12:56:25Z</time>
      </trkpt>
      <trkpt lat="46.24492" lon="5.43413">
        <ele>337</ele>
        <time>2022-05-11T12:56:31Z</time>
      </trkpt>
      <trkpt lat="46.24489" lon="5.43431">
        <ele>337.6</ele>
        <time>2022-05-11T12:56:34Z</time>
      </trkpt>
      <trkpt lat="46.24483" lon="5.43466">
        <ele>338.2</ele>
        <time>2022-05-11T12:56:40Z</time>
      </trkpt>
      <trkpt lat="46.2448" lon="5.43483">
        <ele>338.6</ele>
        <time>2022-05-11T12:56:43Z</time>
      </trkpt>
      <trkpt lat="46.2447" lon="5.43543">
        <ele>339.2</ele>
        <time>2022-05-11T12:56:53Z</time>
      </trkpt>
      <trkpt lat="46.24468" lon="5.43555">
        <ele>339.2</ele>
        <time>2022-05-11T12:56:55Z</time>
      </trkpt>
      <trkpt lat="46.2446" lon="5.43613">
        <ele>339.6</ele>
        <time>2022-05-11T12:57:04Z</time>
      </trkpt>
      <trkpt lat="46.24459" lon="5.4362">
        <ele>339.8</ele>
        <time>2022-05-11T12:57:05Z</time>
      </trkpt>
      <trkpt lat="46.2445" lon="5.43668">
        <ele>340.4</ele>
        <time>2022-05-11T12:57:13Z</time>
      </trkpt>
      <trkpt lat="46.24448" lon="5.4368">
        <ele>340.4</ele>
        <time>2022-05-11T12:57:15Z</time>
      </trkpt>
      <trkpt lat="46.24437" lon="5.43752">
        <ele>341.2</ele>
        <time>2022-05-11T12:57:26Z</time>
      </trkpt>
      <trkpt lat="46.24434" lon="5.43765">
        <ele>341.2</ele>
        <time>2022-05-11T12:57:28Z</time>
      </trkpt>
      <trkpt lat="46.24423" lon="5.43797">
        <ele>342.4</ele>
        <time>2022-05-11T12:57:34Z</time>
      </trkpt>
      <trkpt lat="46.24418" lon="5.43808">
        <ele>342.8</ele>
        <time>2022-05-11T12:57:36Z</time>
      </trkpt>
      <trkpt lat="46.24412" lon="5.43823">
        <ele>343.8</ele>
        <time>2022-05-11T12:57:39Z</time>
      </trkpt>
      <trkpt lat="46.2441" lon="5.43828">
        <ele>344</ele>
        <time>2022-05-11T12:57:40Z</time>
      </trkpt>
      <trkpt lat="46.24408" lon="5.43834">
        <ele>344.2</ele>
        <time>2022-05-11T12:57:41Z</time>
      </trkpt>
      <trkpt lat="46.24406" lon="5.43844">
        <ele>344.8</ele>
        <time>2022-05-11T12:57:43Z</time>
      </trkpt>
      <trkpt lat="46.24403" lon="5.4386">
        <ele>346</ele>
        <time>2022-05-11T12:57:46Z</time>
      </trkpt>
      <trkpt lat="46.24404" lon="5.43883">
        <ele>347.2</ele>
        <time>2022-05-11T12:57:50Z</time>
      </trkpt>
      <trkpt lat="46.24404" lon="5.43896">
        <ele>347.6</ele>
        <time>2022-05-11T12:57:52Z</time>
      </trkpt>
      <trkpt lat="46.24405" lon="5.43901">
        <ele>348</ele>
        <time>2022-05-11T12:57:53Z</time>
      </trkpt>
      <trkpt lat="46.24405" lon="5.43914">
        <ele>348.8</ele>
        <time>2022-05-11T12:57:55Z</time>
      </trkpt>
      <trkpt lat="46.24406" lon="5.43926">
        <ele>349.4</ele>
        <time>2022-05-11T12:57:57Z</time>
      </trkpt>
      <trkpt lat="46.24406" lon="5.43946">
        <ele>350</ele>
        <time>2022-05-11T12:58:00Z</time>
      </trkpt>
      <trkpt lat="46.24407" lon="5.43957">
        <ele>350.6</ele>
        <time>2022-05-11T12:58:02Z</time>
      </trkpt>
      <trkpt lat="46.24408" lon="5.43982">
        <ele>351.4</ele>
        <time>2022-05-11T12:58:06Z</time>
      </trkpt>
      <trkpt lat="46.24408" lon="5.43988">
        <ele>351.6</ele>
        <time>2022-05-11T12:58:07Z</time>
      </trkpt>
      <trkpt lat="46.24406" lon="5.44018">
        <ele>352.8</ele>
        <time>2022-05-11T12:58:12Z</time>
      </trkpt>
      <trkpt lat="46.24405" lon="5.44023">
        <ele>353</ele>
        <time>2022-05-11T12:58:13Z</time>
      </trkpt>
      <trkpt lat="46.24401" lon="5.44042">
        <ele>354</ele>
        <time>2022-05-11T12:58:16Z</time>
      </trkpt>
      <trkpt lat="46.24396" lon="5.44064">
        <ele>355.2</ele>
        <time>2022-05-11T12:58:20Z</time>
      </trkpt>
      <trkpt lat="46.24391" lon="5.44086">
        <ele>356</ele>
        <time>2022-05-11T12:58:24Z</time>
      </trkpt>
      <trkpt lat="46.24389" lon="5.44099">
        <ele>356.4</ele>
        <time>2022-05-11T12:58:26Z</time>
      </trkpt>
      <trkpt lat="46.24384" lon="5.44123">
        <ele>357.4</ele>
        <time>2022-05-11T12:58:30Z</time>
      </trkpt>
      <trkpt lat="46.24383" lon="5.44129">
        <ele>357.4</ele>
        <time>2022-05-11T12:58:31Z</time>
      </trkpt>
      <trkpt lat="46.24381" lon="5.44147">
        <ele>358</ele>
        <time>2022-05-11T12:58:34Z</time>
      </trkpt>
      <trkpt lat="46.24381" lon="5.44153">
        <ele>358.2</ele>
        <time>2022-05-11T12:58:35Z</time>
      </trkpt>
      <trkpt lat="46.24379" lon="5.44169">
        <ele>358.6</ele>
        <time>2022-05-11T12:58:38Z</time>
      </trkpt>
      <trkpt lat="46.24379" lon="5.44175">
        <ele>358.8</ele>
        <time>2022-05-11T12:58:39Z</time>
      </trkpt>
      <trkpt lat="46.24378" lon="5.44193">
        <ele>359.4</ele>
        <time>2022-05-11T12:58:42Z</time>
      </trkpt>
      <trkpt lat="46.24378" lon="5.44196">
        <ele>359.4</ele>
        <time>2022-05-11T12:58:43Z</time>
      </trkpt>
      <trkpt lat="46.24377" lon="5.44215">
        <ele>360.2</ele>
        <time>2022-05-11T12:58:46Z</time>
      </trkpt>
      <trkpt lat="46.24377" lon="5.44221">
        <ele>360.4</ele>
        <time>2022-05-11T12:58:47Z</time>
      </trkpt>
      <trkpt lat="46.24376" lon="5.44227">
        <ele>361</ele>
        <time>2022-05-11T12:58:48Z</time>
      </trkpt>
      <trkpt lat="46.24374" lon="5.44243">
        <ele>361.4</ele>
        <time>2022-05-11T12:58:51Z</time>
      </trkpt>
      <trkpt lat="46.24371" lon="5.44256">
        <ele>361.8</ele>
        <time>2022-05-11T12:58:53Z</time>
      </trkpt>
      <trkpt lat="46.24366" lon="5.44272">
        <ele>362.8</ele>
        <time>2022-05-11T12:58:56Z</time>
      </trkpt>
      <trkpt lat="46.2436" lon="5.44302">
        <ele>364</ele>
        <time>2022-05-11T12:59:01Z</time>
      </trkpt>
      <trkpt lat="46.24359" lon="5.44314">
        <ele>364.4</ele>
        <time>2022-05-11T12:59:03Z</time>
      </trkpt>
      <trkpt lat="46.24361" lon="5.44333">
        <ele>365</ele>
        <time>2022-05-11T12:59:06Z</time>
      </trkpt>
      <trkpt lat="46.24366" lon="5.44359">
        <ele>365.2</ele>
        <time>2022-05-11T12:59:10Z</time>
      </trkpt>
      <trkpt lat="46.24379" lon="5.44413">
        <ele>366</ele>
        <time>2022-05-11T12:59:19Z</time>
      </trkpt>
      <trkpt lat="46.24381" lon="5.44419">
        <ele>366</ele>
        <time>2022-05-11T12:59:20Z</time>
      </trkpt>
      <trkpt lat="46.24389" lon="5.44454">
        <ele>367.2</ele>
        <time>2022-05-11T12:59:26Z</time>
      </trkpt>
      <trkpt lat="46.24392" lon="5.44466">
        <ele>367.6</ele>
        <time>2022-05-11T12:59:28Z</time>
      </trkpt>
      <trkpt lat="46.24393" lon="5.44473">
        <ele>367.8</ele>
        <time>2022-05-11T12:59:29Z</time>
      </trkpt>
      <trkpt lat="46.24395" lon="5.44488">
        <ele>368</ele>
        <time>2022-05-11T12:59:32Z</time>
      </trkpt>
      <trkpt lat="46.24395" lon="5.44494">
        <ele>368.2</ele>
        <time>2022-05-11T12:59:33Z</time>
      </trkpt>
      <trkpt lat="46.24397" lon="5.44527">
        <ele>369</ele>
        <time>2022-05-11T12:59:38Z</time>
      </trkpt>
      <trkpt lat="46.24397" lon="5.4454">
        <ele>369.4</ele>
        <time>2022-05-11T12:59:40Z</time>
      </trkpt>
      <trkpt lat="46.24398" lon="5.44547">
        <ele>369.4</ele>
        <time>2022-05-11T12:59:41Z</time>
      </trkpt>
      <trkpt lat="46.24401" lon="5.44564">
        <ele>369.8</ele>
        <time>2022-05-11T12:59:44Z</time>
      </trkpt>
      <trkpt lat="46.24405" lon="5.44579">
        <ele>370</ele>
        <time>2022-05-11T12:59:46Z</time>
      </trkpt>
      <trkpt lat="46.2441" lon="5.44598">
        <ele>370.2</ele>
        <time>2022-05-11T12:59:49Z</time>
      </trkpt>
      <trkpt lat="46.24412" lon="5.44606">
        <ele>370.4</ele>
        <time>2022-05-11T12:59:50Z</time>
      </trkpt>
      <trkpt lat="46.24417" lon="5.44619">
        <ele>370.4</ele>
        <time>2022-05-11T12:59:52Z</time>
      </trkpt>
      <trkpt lat="46.24421" lon="5.44639">
        <ele>370.6</ele>
        <time>2022-05-11T12:59:55Z</time>
      </trkpt>
      <trkpt lat="46.24424" lon="5.44657">
        <ele>370.8</ele>
        <time>2022-05-11T12:59:58Z</time>
      </trkpt>
      <trkpt lat="46.24429" lon="5.44679">
        <ele>371.2</ele>
        <time>2022-05-11T13:00:01Z</time>
      </trkpt>
      <trkpt lat="46.2443" lon="5.44685">
        <ele>371.2</ele>
        <time>2022-05-11T13:00:02Z</time>
      </trkpt>
      <trkpt lat="46.24438" lon="5.44708">
        <ele>371.6</ele>
        <time>2022-05-11T13:00:06Z</time>
      </trkpt>
      <trkpt lat="46.24443" lon="5.44724">
        <ele>372</ele>
        <time>2022-05-11T13:00:09Z</time>
      </trkpt>
      <trkpt lat="46.24447" lon="5.44735">
        <ele>372.4</ele>
        <time>2022-05-11T13:00:11Z</time>
      </trkpt>
      <trkpt lat="46.24453" lon="5.44758">
        <ele>373</ele>
        <time>2022-05-11T13:00:15Z</time>
      </trkpt>
      <trkpt lat="46.24456" lon="5.44767">
        <ele>373.4</ele>
        <time>2022-05-11T13:00:17Z</time>
      </trkpt>
      <trkpt lat="46.24458" lon="5.44772">
        <ele>373.8</ele>
        <time>2022-05-11T13:00:18Z</time>
      </trkpt>
      <trkpt lat="46.24462" lon="5.44793">
        <ele>374.2</ele>
        <time>2022-05-11T13:00:22Z</time>
      </trkpt>
      <trkpt lat="46.24462" lon="5.44799">
        <ele>374.4</ele>
        <time>2022-05-11T13:00:23Z</time>
      </trkpt>
      <trkpt lat="46.24465" lon="5.44821">
        <ele>375.6</ele>
        <time>2022-05-11T13:00:27Z</time>
      </trkpt>
      <trkpt lat="46.24467" lon="5.44837">
        <ele>376.4</ele>
        <time>2022-05-11T13:00:30Z</time>
      </trkpt>
      <trkpt lat="46.24467" lon="5.44842">
        <ele>376.6</ele>
        <time>2022-05-11T13:00:31Z</time>
      </trkpt>
      <trkpt lat="46.24471" lon="5.44868">
        <ele>378</ele>
        <time>2022-05-11T13:00:36Z</time>
      </trkpt>
      <trkpt lat="46.24472" lon="5.44878">
        <ele>378.2</ele>
        <time>2022-05-11T13:00:38Z</time>
      </trkpt>
      <trkpt lat="46.24476" lon="5.44895">
        <ele>379.2</ele>
        <time>2022-05-11T13:00:41Z</time>
      </trkpt>
      <trkpt lat="46.24485" lon="5.4492">
        <ele>380</ele>
        <time>2022-05-11T13:00:46Z</time>
      </trkpt>
      <trkpt lat="46.24486" lon="5.44925">
        <ele>380</ele>
        <time>2022-05-11T13:00:47Z</time>
      </trkpt>
      <trkpt lat="46.24492" lon="5.44946">
        <ele>381</ele>
        <time>2022-05-11T13:00:51Z</time>
      </trkpt>
      <trkpt lat="46.24498" lon="5.44968">
        <ele>381.6</ele>
        <time>2022-05-11T13:00:55Z</time>
      </trkpt>
      <trkpt lat="46.24501" lon="5.44989">
        <ele>382.4</ele>
        <time>2022-05-11T13:00:59Z</time>
      </trkpt>
      <trkpt lat="46.24504" lon="5.45006">
        <ele>383.4</ele>
        <time>2022-05-11T13:01:02Z</time>
      </trkpt>
      <trkpt lat="46.24507" lon="5.45016">
        <ele>384</ele>
        <time>2022-05-11T13:01:04Z</time>
      </trkpt>
      <trkpt lat="46.24511" lon="5.45026">
        <ele>384.4</ele>
        <time>2022-05-11T13:01:06Z</time>
      </trkpt>
      <trkpt lat="46.24522" lon="5.45041">
        <ele>385.4</ele>
        <time>2022-05-11T13:01:10Z</time>
      </trkpt>
      <trkpt lat="46.24525" lon="5.45045">
        <ele>385.8</ele>
        <time>2022-05-11T13:01:11Z</time>
      </trkpt>
      <trkpt lat="46.24541" lon="5.45063">
        <ele>387.2</ele>
        <time>2022-05-11T13:01:16Z</time>
      </trkpt>
      <trkpt lat="46.24554" lon="5.45075">
        <ele>388</ele>
        <time>2022-05-11T13:01:20Z</time>
      </trkpt>
      <trkpt lat="46.24558" lon="5.45079">
        <ele>388.2</ele>
        <time>2022-05-11T13:01:21Z</time>
      </trkpt>
      <trkpt lat="46.24573" lon="5.45096">
        <ele>389.2</ele>
        <time>2022-05-11T13:01:26Z</time>
      </trkpt>
      <trkpt lat="46.24578" lon="5.45103">
        <ele>389.6</ele>
        <time>2022-05-11T13:01:28Z</time>
      </trkpt>
      <trkpt lat="46.24589" lon="5.45117">
        <ele>390.2</ele>
        <time>2022-05-11T13:01:32Z</time>
      </trkpt>
      <trkpt lat="46.24594" lon="5.45123">
        <ele>390.4</ele>
        <time>2022-05-11T13:01:34Z</time>
      </trkpt>
      <trkpt lat="46.246" lon="5.45134">
        <ele>391.2</ele>
        <time>2022-05-11T13:01:37Z</time>
      </trkpt>
      <trkpt lat="46.24607" lon="5.45146">
        <ele>392</ele>
        <time>2022-05-11T13:01:40Z</time>
      </trkpt>
      <trkpt lat="46.24611" lon="5.45154">
        <ele>392.4</ele>
        <time>2022-05-11T13:01:42Z</time>
      </trkpt>
      <trkpt lat="46.24622" lon="5.45177">
        <ele>393.4</ele>
        <time>2022-05-11T13:01:48Z</time>
      </trkpt>
      <trkpt lat="46.24624" lon="5.45183">
        <ele>393.6</ele>
        <time>2022-05-11T13:01:49Z</time>
      </trkpt>
      <trkpt lat="46.24629" lon="5.45199">
        <ele>394.2</ele>
        <time>2022-05-11T13:01:53Z</time>
      </trkpt>
      <trkpt lat="46.2463" lon="5.45204">
        <ele>394.4</ele>
        <time>2022-05-11T13:01:54Z</time>
      </trkpt>
      <trkpt lat="46.24633" lon="5.45218">
        <ele>394.8</ele>
        <time>2022-05-11T13:01:57Z</time>
      </trkpt>
      <trkpt lat="46.24635" lon="5.45235">
        <ele>395.6</ele>
        <time>2022-05-11T13:02:01Z</time>
      </trkpt>
      <trkpt lat="46.24637" lon="5.45261">
        <ele>396.6</ele>
        <time>2022-05-11T13:02:07Z</time>
      </trkpt>
      <trkpt lat="46.24638" lon="5.45266">
        <ele>396.8</ele>
        <time>2022-05-11T13:02:08Z</time>
      </trkpt>
      <trkpt lat="46.24642" lon="5.45293">
        <ele>397.8</ele>
        <time>2022-05-11T13:02:14Z</time>
      </trkpt>
      <trkpt lat="46.24647" lon="5.45315">
        <ele>399</ele>
        <time>2022-05-11T13:02:19Z</time>
      </trkpt>
      <trkpt lat="46.24649" lon="5.45329">
        <ele>399.8</ele>
        <time>2022-05-11T13:02:22Z</time>
      </trkpt>
      <trkpt lat="46.2465" lon="5.45334">
        <ele>399.8</ele>
        <time>2022-05-11T13:02:23Z</time>
      </trkpt>
      <trkpt lat="46.24653" lon="5.45361">
        <ele>400.8</ele>
        <time>2022-05-11T13:02:29Z</time>
      </trkpt>
      <trkpt lat="46.24657" lon="5.4539">
        <ele>402</ele>
        <time>2022-05-11T13:02:35Z</time>
      </trkpt>
      <trkpt lat="46.24659" lon="5.45399">
        <ele>402.2</ele>
        <time>2022-05-11T13:02:37Z</time>
      </trkpt>
      <trkpt lat="46.24666" lon="5.45416">
        <ele>403</ele>
        <time>2022-05-11T13:02:41Z</time>
      </trkpt>
      <trkpt lat="46.24666" lon="5.45416">
        <ele>403.4</ele>
        <time>2022-05-11T13:02:42Z</time>
      </trkpt>
      <trkpt lat="46.24672" lon="5.4543">
        <ele>403.8</ele>
        <time>2022-05-11T13:02:45Z</time>
      </trkpt>
      <trkpt lat="46.2468" lon="5.45443">
        <ele>404.4</ele>
        <time>2022-05-11T13:02:48Z</time>
      </trkpt>
      <trkpt lat="46.24688" lon="5.45455">
        <ele>405</ele>
        <time>2022-05-11T13:02:51Z</time>
      </trkpt>
      <trkpt lat="46.24692" lon="5.45468">
        <ele>406</ele>
        <time>2022-05-11T13:02:54Z</time>
      </trkpt>
      <trkpt lat="46.24694" lon="5.45473">
        <ele>406.2</ele>
        <time>2022-05-11T13:02:55Z</time>
      </trkpt>
      <trkpt lat="46.24698" lon="5.45488">
        <ele>406.8</ele>
        <time>2022-05-11T13:02:58Z</time>
      </trkpt>
      <trkpt lat="46.247" lon="5.45494">
        <ele>407.2</ele>
        <time>2022-05-11T13:02:59Z</time>
      </trkpt>
      <trkpt lat="46.24698" lon="5.4551">
        <ele>408</ele>
        <time>2022-05-11T13:03:02Z</time>
      </trkpt>
      <trkpt lat="46.24695" lon="5.45521">
        <ele>408.6</ele>
        <time>2022-05-11T13:03:04Z</time>
      </trkpt>
      <trkpt lat="46.24693" lon="5.45535">
        <ele>409.2</ele>
        <time>2022-05-11T13:03:07Z</time>
      </trkpt>
      <trkpt lat="46.24692" lon="5.45551">
        <ele>410</ele>
        <time>2022-05-11T13:03:10Z</time>
      </trkpt>
      <trkpt lat="46.24693" lon="5.45565">
        <ele>410.8</ele>
        <time>2022-05-11T13:03:13Z</time>
      </trkpt>
      <trkpt lat="46.24693" lon="5.45575">
        <ele>411.2</ele>
        <time>2022-05-11T13:03:15Z</time>
      </trkpt>
      <trkpt lat="46.24692" lon="5.45588">
        <ele>411.8</ele>
        <time>2022-05-11T13:03:18Z</time>
      </trkpt>
      <trkpt lat="46.24693" lon="5.45597">
        <ele>412.2</ele>
        <time>2022-05-11T13:03:20Z</time>
      </trkpt>
      <trkpt lat="46.24694" lon="5.45612">
        <ele>412.8</ele>
        <time>2022-05-11T13:03:23Z</time>
      </trkpt>
      <trkpt lat="46.24696" lon="5.45624">
        <ele>413.4</ele>
        <time>2022-05-11T13:03:25Z</time>
      </trkpt>
      <trkpt lat="46.24698" lon="5.45637">
        <ele>413.8</ele>
        <time>2022-05-11T13:03:27Z</time>
      </trkpt>
      <trkpt lat="46.247" lon="5.45648">
        <ele>414.2</ele>
        <time>2022-05-11T13:03:29Z</time>
      </trkpt>
      <trkpt lat="46.24702" lon="5.45653">
        <ele>414.4</ele>
        <time>2022-05-11T13:03:30Z</time>
      </trkpt>
      <trkpt lat="46.24704" lon="5.4566">
        <ele>414.8</ele>
        <time>2022-05-11T13:03:31Z</time>
      </trkpt>
      <trkpt lat="46.24703" lon="5.45666">
        <ele>415</ele>
        <time>2022-05-11T13:03:32Z</time>
      </trkpt>
      <trkpt lat="46.24705" lon="5.45675">
        <ele>415.2</ele>
        <time>2022-05-11T13:03:34Z</time>
      </trkpt>
      <trkpt lat="46.24705" lon="5.45686">
        <ele>415.6</ele>
        <time>2022-05-11T13:03:36Z</time>
      </trkpt>
      <trkpt lat="46.24711" lon="5.45702">
        <ele>416.6</ele>
        <time>2022-05-11T13:03:39Z</time>
      </trkpt>
      <trkpt lat="46.24719" lon="5.45712">
        <ele>417</ele>
        <time>2022-05-11T13:03:41Z</time>
      </trkpt>
      <trkpt lat="46.24727" lon="5.45718">
        <ele>417.4</ele>
        <time>2022-05-11T13:03:43Z</time>
      </trkpt>
      <trkpt lat="46.2473" lon="5.45728">
        <ele>417.6</ele>
        <time>2022-05-11T13:03:46Z</time>
      </trkpt>
      <trkpt lat="46.24745" lon="5.45737">
        <ele>417.6</ele>
        <time>2022-05-11T13:03:49Z</time>
      </trkpt>
      <trkpt lat="46.2475" lon="5.45741">
        <ele>417.6</ele>
        <time>2022-05-11T13:03:50Z</time>
      </trkpt>
      <trkpt lat="46.24759" lon="5.4575">
        <ele>417.6</ele>
        <time>2022-05-11T13:03:52Z</time>
      </trkpt>
      <trkpt lat="46.24763" lon="5.45757">
        <ele>417.6</ele>
        <time>2022-05-11T13:03:53Z</time>
      </trkpt>
      <trkpt lat="46.24765" lon="5.45763">
        <ele>417.6</ele>
        <time>2022-05-11T13:03:54Z</time>
      </trkpt>
      <trkpt lat="46.24769" lon="5.45776">
        <ele>417.6</ele>
        <time>2022-05-11T13:03:56Z</time>
      </trkpt>
      <trkpt lat="46.24769" lon="5.45782">
        <ele>417.6</ele>
        <time>2022-05-11T13:03:57Z</time>
      </trkpt>
      <trkpt lat="46.24769" lon="5.4579">
        <ele>417.6</ele>
        <time>2022-05-11T13:03:58Z</time>
      </trkpt>
      <trkpt lat="46.24769" lon="5.45802">
        <ele>418</ele>
        <time>2022-05-11T13:04:00Z</time>
      </trkpt>
      <trkpt lat="46.24768" lon="5.45809">
        <ele>417.8</ele>
        <time>2022-05-11T13:04:01Z</time>
      </trkpt>
      <trkpt lat="46.24767" lon="5.45826">
        <ele>418.6</ele>
        <time>2022-05-11T13:04:04Z</time>
      </trkpt>
      <trkpt lat="46.24768" lon="5.45838">
        <ele>419.2</ele>
        <time>2022-05-11T13:04:06Z</time>
      </trkpt>
      <trkpt lat="46.24769" lon="5.45843">
        <ele>419.6</ele>
        <time>2022-05-11T13:04:07Z</time>
      </trkpt>
      <trkpt lat="46.2477" lon="5.45847">
        <ele>419.6</ele>
        <time>2022-05-11T13:04:08Z</time>
      </trkpt>
      <trkpt lat="46.24777" lon="5.45867">
        <ele>420.8</ele>
        <time>2022-05-11T13:04:12Z</time>
      </trkpt>
      <trkpt lat="46.24787" lon="5.45885">
        <ele>422</ele>
        <time>2022-05-11T13:04:16Z</time>
      </trkpt>
      <trkpt lat="46.2479" lon="5.4589">
        <ele>422.2</ele>
        <time>2022-05-11T13:04:17Z</time>
      </trkpt>
      <trkpt lat="46.24803" lon="5.45906">
        <ele>423.2</ele>
        <time>2022-05-11T13:04:21Z</time>
      </trkpt>
      <trkpt lat="46.24822" lon="5.45924">
        <ele>424.4</ele>
        <time>2022-05-11T13:04:26Z</time>
      </trkpt>
      <trkpt lat="46.24842" lon="5.45946">
        <ele>425.4</ele>
        <time>2022-05-11T13:04:31Z</time>
      </trkpt>
      <trkpt lat="46.24851" lon="5.45951">
        <ele>426</ele>
        <time>2022-05-11T13:04:33Z</time>
      </trkpt>
      <trkpt lat="46.24861" lon="5.45959">
        <ele>426.6</ele>
        <time>2022-05-11T13:04:35Z</time>
      </trkpt>
      <trkpt lat="46.24887" lon="5.45974">
        <ele>427.8</ele>
        <time>2022-05-11T13:04:41Z</time>
      </trkpt>
      <trkpt lat="46.24893" lon="5.45979">
        <ele>428.2</ele>
        <time>2022-05-11T13:04:42Z</time>
      </trkpt>
      <trkpt lat="46.24909" lon="5.45991">
        <ele>429</ele>
        <time>2022-05-11T13:04:46Z</time>
      </trkpt>
      <trkpt lat="46.24919" lon="5.46002">
        <ele>429.4</ele>
        <time>2022-05-11T13:04:49Z</time>
      </trkpt>
      <trkpt lat="46.24926" lon="5.4601">
        <ele>430.2</ele>
        <time>2022-05-11T13:04:51Z</time>
      </trkpt>
      <trkpt lat="46.2494" lon="5.4603">
        <ele>431.4</ele>
        <time>2022-05-11T13:04:56Z</time>
      </trkpt>
      <trkpt lat="46.24943" lon="5.46034">
        <ele>431.6</ele>
        <time>2022-05-11T13:04:57Z</time>
      </trkpt>
      <trkpt lat="46.24952" lon="5.46046">
        <ele>432.6</ele>
        <time>2022-05-11T13:05:00Z</time>
      </trkpt>
      <trkpt lat="46.24968" lon="5.46064">
        <ele>433.4</ele>
        <time>2022-05-11T13:05:05Z</time>
      </trkpt>
      <trkpt lat="46.24975" lon="5.46072">
        <ele>434</ele>
        <time>2022-05-11T13:05:07Z</time>
      </trkpt>
      <trkpt lat="46.24988" lon="5.46088">
        <ele>435</ele>
        <time>2022-05-11T13:05:11Z</time>
      </trkpt>
      <trkpt lat="46.24992" lon="5.46092">
        <ele>435.4</ele>
        <time>2022-05-11T13:05:12Z</time>
      </trkpt>
      <trkpt lat="46.24999" lon="5.46101">
        <ele>436.4</ele>
        <time>2022-05-11T13:05:14Z</time>
      </trkpt>
      <trkpt lat="46.2502" lon="5.46123">
        <ele>437.6</ele>
        <time>2022-05-11T13:05:20Z</time>
      </trkpt>
      <trkpt lat="46.25024" lon="5.46128">
        <ele>438</ele>
        <time>2022-05-11T13:05:21Z</time>
      </trkpt>
      <trkpt lat="46.25035" lon="5.46136">
        <ele>438.8</ele>
        <time>2022-05-11T13:05:24Z</time>
      </trkpt>
      <trkpt lat="46.2505" lon="5.46144">
        <ele>439.4</ele>
        <time>2022-05-11T13:05:28Z</time>
      </trkpt>
      <trkpt lat="46.25055" lon="5.46145">
        <ele>439.8</ele>
        <time>2022-05-11T13:05:29Z</time>
      </trkpt>
      <trkpt lat="46.25083" lon="5.46152">
        <ele>440.6</ele>
        <time>2022-05-11T13:05:35Z</time>
      </trkpt>
      <trkpt lat="46.25087" lon="5.46154">
        <ele>441</ele>
        <time>2022-05-11T13:05:36Z</time>
      </trkpt>
      <trkpt lat="46.25111" lon="5.46161">
        <ele>442</ele>
        <time>2022-05-11T13:05:42Z</time>
      </trkpt>
      <trkpt lat="46.25116" lon="5.46162">
        <ele>442.2</ele>
        <time>2022-05-11T13:05:43Z</time>
      </trkpt>
      <trkpt lat="46.2514" lon="5.46166">
        <ele>443.4</ele>
        <time>2022-05-11T13:05:47Z</time>
      </trkpt>
      <trkpt lat="46.25145" lon="5.46167">
        <ele>443.6</ele>
        <time>2022-05-11T13:05:48Z</time>
      </trkpt>
      <trkpt lat="46.2516" lon="5.4617">
        <ele>444.6</ele>
        <time>2022-05-11T13:05:51Z</time>
      </trkpt>
      <trkpt lat="46.2518" lon="5.46174">
        <ele>445.6</ele>
        <time>2022-05-11T13:05:55Z</time>
      </trkpt>
      <trkpt lat="46.25194" lon="5.46177">
        <ele>446.4</ele>
        <time>2022-05-11T13:05:58Z</time>
      </trkpt>
      <trkpt lat="46.252" lon="5.46177">
        <ele>446.6</ele>
        <time>2022-05-11T13:05:59Z</time>
      </trkpt>
      <trkpt lat="46.25214" lon="5.46177">
        <ele>447.4</ele>
        <time>2022-05-11T13:06:02Z</time>
      </trkpt>
      <trkpt lat="46.25219" lon="5.46177">
        <ele>447.8</ele>
        <time>2022-05-11T13:06:03Z</time>
      </trkpt>
      <trkpt lat="46.25228" lon="5.46178">
        <ele>448</ele>
        <time>2022-05-11T13:06:05Z</time>
      </trkpt>
      <trkpt lat="46.25243" lon="5.46178">
        <ele>448.8</ele>
        <time>2022-05-11T13:06:08Z</time>
      </trkpt>
      <trkpt lat="46.25262" lon="5.46177">
        <ele>449.8</ele>
        <time>2022-05-11T13:06:12Z</time>
      </trkpt>
      <trkpt lat="46.25281" lon="5.46175">
        <ele>451</ele>
        <time>2022-05-11T13:06:16Z</time>
      </trkpt>
      <trkpt lat="46.25296" lon="5.46175">
        <ele>452</ele>
        <time>2022-05-11T13:06:19Z</time>
      </trkpt>
      <trkpt lat="46.2531" lon="5.46176">
        <ele>452.8</ele>
        <time>2022-05-11T13:06:22Z</time>
      </trkpt>
      <trkpt lat="46.25319" lon="5.46177">
        <ele>453.2</ele>
        <time>2022-05-11T13:06:24Z</time>
      </trkpt>
      <trkpt lat="46.25343" lon="5.46185">
        <ele>454.4</ele>
        <time>2022-05-11T13:06:29Z</time>
      </trkpt>
      <trkpt lat="46.25347" lon="5.46186">
        <ele>454.4</ele>
        <time>2022-05-11T13:06:30Z</time>
      </trkpt>
      <trkpt lat="46.25365" lon="5.46192">
        <ele>455.4</ele>
        <time>2022-05-11T13:06:34Z</time>
      </trkpt>
      <trkpt lat="46.25373" lon="5.46194">
        <ele>455.8</ele>
        <time>2022-05-11T13:06:36Z</time>
      </trkpt>
      <trkpt lat="46.25381" lon="5.46196">
        <ele>456.4</ele>
        <time>2022-05-11T13:06:38Z</time>
      </trkpt>
      <trkpt lat="46.25387" lon="5.46196">
        <ele>456.6</ele>
        <time>2022-05-11T13:06:39Z</time>
      </trkpt>
      <trkpt lat="46.25401" lon="5.46197">
        <ele>457.4</ele>
        <time>2022-05-11T13:06:42Z</time>
      </trkpt>
      <trkpt lat="46.25403" lon="5.46196">
        <ele>457.8</ele>
        <time>2022-05-11T13:06:43Z</time>
      </trkpt>
      <trkpt lat="46.25425" lon="5.46195">
        <ele>458.8</ele>
        <time>2022-05-11T13:06:47Z</time>
      </trkpt>
      <trkpt lat="46.2543" lon="5.46194">
        <ele>459</ele>
        <time>2022-05-11T13:06:48Z</time>
      </trkpt>
      <trkpt lat="46.2544" lon="5.46192">
        <ele>459.4</ele>
        <time>2022-05-11T13:06:50Z</time>
      </trkpt>
      <trkpt lat="46.25448" lon="5.46191">
        <ele>459.8</ele>
        <time>2022-05-11T13:06:52Z</time>
      </trkpt>
      <trkpt lat="46.25458" lon="5.4619">
        <ele>460.6</ele>
        <time>2022-05-11T13:06:54Z</time>
      </trkpt>
      <trkpt lat="46.25462" lon="5.46189">
        <ele>461</ele>
        <time>2022-05-11T13:06:55Z</time>
      </trkpt>
      <trkpt lat="46.25476" lon="5.46186">
        <ele>461.8</ele>
        <time>2022-05-11T13:06:58Z</time>
      </trkpt>
      <trkpt lat="46.25481" lon="5.46185">
        <ele>462.2</ele>
        <time>2022-05-11T13:06:59Z</time>
      </trkpt>
      <trkpt lat="46.255" lon="5.46183">
        <ele>463.2</ele>
        <time>2022-05-11T13:07:03Z</time>
      </trkpt>
      <trkpt lat="46.25504" lon="5.46183">
        <ele>463.4</ele>
        <time>2022-05-11T13:07:04Z</time>
      </trkpt>
      <trkpt lat="46.25513" lon="5.46182">
        <ele>463.8</ele>
        <time>2022-05-11T13:07:06Z</time>
      </trkpt>
      <trkpt lat="46.25517" lon="5.46181">
        <ele>464.2</ele>
        <time>2022-05-11T13:07:07Z</time>
      </trkpt>
      <trkpt lat="46.25536" lon="5.4618">
        <ele>465.2</ele>
        <time>2022-05-11T13:07:11Z</time>
      </trkpt>
      <trkpt lat="46.2554" lon="5.46179">
        <ele>465.2</ele>
        <time>2022-05-11T13:07:12Z</time>
      </trkpt>
      <trkpt lat="46.2556" lon="5.46174">
        <ele>466.2</ele>
        <time>2022-05-11T13:07:16Z</time>
      </trkpt>
      <trkpt lat="46.25574" lon="5.46172">
        <ele>466.6</ele>
        <time>2022-05-11T13:07:19Z</time>
      </trkpt>
      <trkpt lat="46.25592" lon="5.4617">
        <ele>467.8</ele>
        <time>2022-05-11T13:07:23Z</time>
      </trkpt>
      <trkpt lat="46.25601" lon="5.46168">
        <ele>468.2</ele>
        <time>2022-05-11T13:07:25Z</time>
      </trkpt>
      <trkpt lat="46.2561" lon="5.46167">
        <ele>468.8</ele>
        <time>2022-05-11T13:07:27Z</time>
      </trkpt>
      <trkpt lat="46.25624" lon="5.46164">
        <ele>469.8</ele>
        <time>2022-05-11T13:07:30Z</time>
      </trkpt>
      <trkpt lat="46.25647" lon="5.46161">
        <ele>471</ele>
        <time>2022-05-11T13:07:35Z</time>
      </trkpt>
      <trkpt lat="46.25661" lon="5.4616">
        <ele>471.4</ele>
        <time>2022-05-11T13:07:38Z</time>
      </trkpt>
      <trkpt lat="46.25666" lon="5.4616">
        <ele>471.8</ele>
        <time>2022-05-11T13:07:39Z</time>
      </trkpt>
      <trkpt lat="46.25671" lon="5.46161">
        <ele>471.8</ele>
        <time>2022-05-11T13:07:40Z</time>
      </trkpt>
      <trkpt lat="46.25681" lon="5.46164">
        <ele>472.8</ele>
        <time>2022-05-11T13:07:42Z</time>
      </trkpt>
      <trkpt lat="46.2569" lon="5.46168">
        <ele>473</ele>
        <time>2022-05-11T13:07:44Z</time>
      </trkpt>
      <trkpt lat="46.2571" lon="5.46181">
        <ele>474</ele>
        <time>2022-05-11T13:07:49Z</time>
      </trkpt>
      <trkpt lat="46.25718" lon="5.46187">
        <ele>474.4</ele>
        <time>2022-05-11T13:07:51Z</time>
      </trkpt>
      <trkpt lat="46.25729" lon="5.46197">
        <ele>475.2</ele>
        <time>2022-05-11T13:07:54Z</time>
      </trkpt>
      <trkpt lat="46.25742" lon="5.46207">
        <ele>475.6</ele>
        <time>2022-05-11T13:07:57Z</time>
      </trkpt>
      <trkpt lat="46.2575" lon="5.46213">
        <ele>476.4</ele>
        <time>2022-05-11T13:07:59Z</time>
      </trkpt>
      <trkpt lat="46.25754" lon="5.46216">
        <ele>476.8</ele>
        <time>2022-05-11T13:08:00Z</time>
      </trkpt>
      <trkpt lat="46.2577" lon="5.46226">
        <ele>477.6</ele>
        <time>2022-05-11T13:08:04Z</time>
      </trkpt>
      <trkpt lat="46.25781" lon="5.46232">
        <ele>478.6</ele>
        <time>2022-05-11T13:08:07Z</time>
      </trkpt>
      <trkpt lat="46.25784" lon="5.46235">
        <ele>479.2</ele>
        <time>2022-05-11T13:08:08Z</time>
      </trkpt>
      <trkpt lat="46.25789" lon="5.46246">
        <ele>479.8</ele>
        <time>2022-05-11T13:08:10Z</time>
      </trkpt>
      <trkpt lat="46.25789" lon="5.46253">
        <ele>480</ele>
        <time>2022-05-11T13:08:11Z</time>
      </trkpt>
      <trkpt lat="46.25784" lon="5.46263">
        <ele>480.8</ele>
        <time>2022-05-11T13:08:14Z</time>
      </trkpt>
      <trkpt lat="46.2578" lon="5.46265">
        <ele>480.8</ele>
        <time>2022-05-11T13:08:15Z</time>
      </trkpt>
      <trkpt lat="46.25761" lon="5.46265">
        <ele>481.8</ele>
        <time>2022-05-11T13:08:19Z</time>
      </trkpt>
      <trkpt lat="46.25756" lon="5.46264">
        <ele>481.8</ele>
        <time>2022-05-11T13:08:20Z</time>
      </trkpt>
      <trkpt lat="46.25741" lon="5.46262">
        <ele>482.8</ele>
        <time>2022-05-11T13:08:23Z</time>
      </trkpt>
      <trkpt lat="46.25721" lon="5.46259">
        <ele>484</ele>
        <time>2022-05-11T13:08:27Z</time>
      </trkpt>
      <trkpt lat="46.25706" lon="5.4626">
        <ele>485</ele>
        <time>2022-05-11T13:08:30Z</time>
      </trkpt>
      <trkpt lat="46.25697" lon="5.46263">
        <ele>485.4</ele>
        <time>2022-05-11T13:08:32Z</time>
      </trkpt>
      <trkpt lat="46.25688" lon="5.46266">
        <ele>486</ele>
        <time>2022-05-11T13:08:34Z</time>
      </trkpt>
      <trkpt lat="46.2568" lon="5.46274">
        <ele>487</ele>
        <time>2022-05-11T13:08:36Z</time>
      </trkpt>
      <trkpt lat="46.25675" lon="5.46278">
        <ele>487.4</ele>
        <time>2022-05-11T13:08:37Z</time>
      </trkpt>
      <trkpt lat="46.25658" lon="5.46286">
        <ele>488.4</ele>
        <time>2022-05-11T13:08:41Z</time>
      </trkpt>
      <trkpt lat="46.25649" lon="5.46289">
        <ele>489</ele>
        <time>2022-05-11T13:08:43Z</time>
      </trkpt>
      <trkpt lat="46.25639" lon="5.4629">
        <ele>489.6</ele>
        <time>2022-05-11T13:08:45Z</time>
      </trkpt>
      <trkpt lat="46.2562" lon="5.46289">
        <ele>490.6</ele>
        <time>2022-05-11T13:08:49Z</time>
      </trkpt>
      <trkpt lat="46.25615" lon="5.4629">
        <ele>490.8</ele>
        <time>2022-05-11T13:08:50Z</time>
      </trkpt>
      <trkpt lat="46.2561" lon="5.46292">
        <ele>491.2</ele>
        <time>2022-05-11T13:08:51Z</time>
      </trkpt>
      <trkpt lat="46.256" lon="5.46293">
        <ele>491.8</ele>
        <time>2022-05-11T13:08:53Z</time>
      </trkpt>
      <trkpt lat="46.25586" lon="5.46294">
        <ele>492.6</ele>
        <time>2022-05-11T13:08:56Z</time>
      </trkpt>
      <trkpt lat="46.25581" lon="5.46295">
        <ele>492.8</ele>
        <time>2022-05-11T13:08:57Z</time>
      </trkpt>
      <trkpt lat="46.25577" lon="5.46296">
        <ele>493.2</ele>
        <time>2022-05-11T13:08:58Z</time>
      </trkpt>
      <trkpt lat="46.25572" lon="5.46297">
        <ele>493.8</ele>
        <time>2022-05-11T13:08:59Z</time>
      </trkpt>
      <trkpt lat="46.25556" lon="5.46305">
        <ele>494.8</ele>
        <time>2022-05-11T13:09:03Z</time>
      </trkpt>
      <trkpt lat="46.25549" lon="5.46307">
        <ele>495</ele>
        <time>2022-05-11T13:09:05Z</time>
      </trkpt>
      <trkpt lat="46.25537" lon="5.46309">
        <ele>496</ele>
        <time>2022-05-11T13:09:08Z</time>
      </trkpt>
      <trkpt lat="46.25533" lon="5.4631">
        <ele>496.2</ele>
        <time>2022-05-11T13:09:09Z</time>
      </trkpt>
      <trkpt lat="46.25501" lon="5.46322">
        <ele>497.2</ele>
        <time>2022-05-11T13:09:17Z</time>
      </trkpt>
      <trkpt lat="46.25497" lon="5.46323">
        <ele>497.2</ele>
        <time>2022-05-11T13:09:18Z</time>
      </trkpt>
      <trkpt lat="46.25482" lon="5.4633">
        <ele>498.2</ele>
        <time>2022-05-11T13:09:22Z</time>
      </trkpt>
      <trkpt lat="46.25462" lon="5.46337">
        <ele>499.4</ele>
        <time>2022-05-11T13:09:27Z</time>
      </trkpt>
      <trkpt lat="46.25434" lon="5.46346">
        <ele>500.8</ele>
        <time>2022-05-11T13:09:34Z</time>
      </trkpt>
      <trkpt lat="46.25426" lon="5.46349">
        <ele>501.2</ele>
        <time>2022-05-11T13:09:36Z</time>
      </trkpt>
      <trkpt lat="46.25406" lon="5.46359">
        <ele>502.2</ele>
        <time>2022-05-11T13:09:41Z</time>
      </trkpt>
      <trkpt lat="46.25396" lon="5.46365">
        <ele>503</ele>
        <time>2022-05-11T13:09:44Z</time>
      </trkpt>
      <trkpt lat="46.25392" lon="5.46368">
        <ele>503.2</ele>
        <time>2022-05-11T13:09:45Z</time>
      </trkpt>
      <trkpt lat="46.25379" lon="5.46378">
        <ele>504.4</ele>
        <time>2022-05-11T13:09:48Z</time>
      </trkpt>
      <trkpt lat="46.25368" lon="5.46387">
        <ele>505.2</ele>
        <time>2022-05-11T13:09:51Z</time>
      </trkpt>
      <trkpt lat="46.25365" lon="5.4639">
        <ele>505.4</ele>
        <time>2022-05-11T13:09:52Z</time>
      </trkpt>
      <trkpt lat="46.25348" lon="5.46395">
        <ele>506.6</ele>
        <time>2022-05-11T13:09:56Z</time>
      </trkpt>
      <trkpt lat="46.25344" lon="5.46395">
        <ele>506.8</ele>
        <time>2022-05-11T13:09:57Z</time>
      </trkpt>
      <trkpt lat="46.25316" lon="5.4639">
        <ele>507.4</ele>
        <time>2022-05-11T13:10:04Z</time>
      </trkpt>
      <trkpt lat="46.25301" lon="5.46386">
        <ele>508.6</ele>
        <time>2022-05-11T13:10:08Z</time>
      </trkpt>
      <trkpt lat="46.25296" lon="5.46385">
        <ele>509</ele>
        <time>2022-05-11T13:10:09Z</time>
      </trkpt>
      <trkpt lat="46.25288" lon="5.46387">
        <ele>509.6</ele>
        <time>2022-05-11T13:10:11Z</time>
      </trkpt>
      <trkpt lat="46.25269" lon="5.46388">
        <ele>510.8</ele>
        <time>2022-05-11T13:10:15Z</time>
      </trkpt>
      <trkpt lat="46.25265" lon="5.46388">
        <ele>511</ele>
        <time>2022-05-11T13:10:16Z</time>
      </trkpt>
      <trkpt lat="46.25237" lon="5.46395">
        <ele>511.8</ele>
        <time>2022-05-11T13:10:22Z</time>
      </trkpt>
      <trkpt lat="46.25232" lon="5.46396">
        <ele>512</ele>
        <time>2022-05-11T13:10:23Z</time>
      </trkpt>
      <trkpt lat="46.25212" lon="5.46402">
        <ele>513</ele>
        <time>2022-05-11T13:10:28Z</time>
      </trkpt>
      <trkpt lat="46.252" lon="5.46404">
        <ele>513.6</ele>
        <time>2022-05-11T13:10:31Z</time>
      </trkpt>
      <trkpt lat="46.25186" lon="5.46408">
        <ele>514.2</ele>
        <time>2022-05-11T13:10:34Z</time>
      </trkpt>
      <trkpt lat="46.25173" lon="5.46409">
        <ele>514.8</ele>
        <time>2022-05-11T13:10:37Z</time>
      </trkpt>
      <trkpt lat="46.25168" lon="5.46409">
        <ele>515</ele>
        <time>2022-05-11T13:10:38Z</time>
      </trkpt>
      <trkpt lat="46.25147" lon="5.46407">
        <ele>516.2</ele>
        <time>2022-05-11T13:10:43Z</time>
      </trkpt>
      <trkpt lat="46.25127" lon="5.46407">
        <ele>517.4</ele>
        <time>2022-05-11T13:10:48Z</time>
      </trkpt>
      <trkpt lat="46.25118" lon="5.46407">
        <ele>517.6</ele>
        <time>2022-05-11T13:10:50Z</time>
      </trkpt>
      <trkpt lat="46.25105" lon="5.46407">
        <ele>518.6</ele>
        <time>2022-05-11T13:10:53Z</time>
      </trkpt>
      <trkpt lat="46.25088" lon="5.46406">
        <ele>519.8</ele>
        <time>2022-05-11T13:10:57Z</time>
      </trkpt>
      <trkpt lat="46.25079" lon="5.46406">
        <ele>520</ele>
        <time>2022-05-11T13:10:59Z</time>
      </trkpt>
      <trkpt lat="46.25075" lon="5.46405">
        <ele>520.2</ele>
        <time>2022-05-11T13:11:00Z</time>
      </trkpt>
      <trkpt lat="46.25067" lon="5.46402">
        <ele>520.4</ele>
        <time>2022-05-11T13:11:02Z</time>
      </trkpt>
      <trkpt lat="46.25063" lon="5.464">
        <ele>520.8</ele>
        <time>2022-05-11T13:11:03Z</time>
      </trkpt>
      <trkpt lat="46.25059" lon="5.464">
        <ele>521.2</ele>
        <time>2022-05-11T13:11:04Z</time>
      </trkpt>
      <trkpt lat="46.25049" lon="5.464">
        <ele>521.8</ele>
        <time>2022-05-11T13:11:06Z</time>
      </trkpt>
      <trkpt lat="46.25045" lon="5.46398">
        <ele>522.2</ele>
        <time>2022-05-11T13:11:07Z</time>
      </trkpt>
      <trkpt lat="46.25036" lon="5.46397">
        <ele>522.6</ele>
        <time>2022-05-11T13:11:09Z</time>
      </trkpt>
      <trkpt lat="46.25032" lon="5.46395">
        <ele>522.6</ele>
        <time>2022-05-11T13:11:10Z</time>
      </trkpt>
      <trkpt lat="46.25017" lon="5.46393">
        <ele>523.2</ele>
        <time>2022-05-11T13:11:14Z</time>
      </trkpt>
      <trkpt lat="46.25007" lon="5.46393">
        <ele>523.8</ele>
        <time>2022-05-11T13:11:16Z</time>
      </trkpt>
      <trkpt lat="46.24995" lon="5.46391">
        <ele>524.4</ele>
        <time>2022-05-11T13:11:19Z</time>
      </trkpt>
      <trkpt lat="46.24971" lon="5.46387">
        <ele>525.6</ele>
        <time>2022-05-11T13:11:25Z</time>
      </trkpt>
      <trkpt lat="46.24951" lon="5.46379">
        <ele>526.6</ele>
        <time>2022-05-11T13:11:30Z</time>
      </trkpt>
      <trkpt lat="46.24947" lon="5.46377">
        <ele>526.8</ele>
        <time>2022-05-11T13:11:31Z</time>
      </trkpt>
      <trkpt lat="46.24943" lon="5.46375">
        <ele>527</ele>
        <time>2022-05-11T13:11:32Z</time>
      </trkpt>
      <trkpt lat="46.24931" lon="5.46372">
        <ele>527.6</ele>
        <time>2022-05-11T13:11:35Z</time>
      </trkpt>
      <trkpt lat="46.24918" lon="5.46368">
        <ele>528</ele>
        <time>2022-05-11T13:11:38Z</time>
      </trkpt>
      <trkpt lat="46.24906" lon="5.46364">
        <ele>528.4</ele>
        <time>2022-05-11T13:11:41Z</time>
      </trkpt>
      <trkpt lat="46.24886" lon="5.46361">
        <ele>529.6</ele>
        <time>2022-05-11T13:11:46Z</time>
      </trkpt>
      <trkpt lat="46.24861" lon="5.46357">
        <ele>530.6</ele>
        <time>2022-05-11T13:11:52Z</time>
      </trkpt>
      <trkpt lat="46.24845" lon="5.46357">
        <ele>531.4</ele>
        <time>2022-05-11T13:11:56Z</time>
      </trkpt>
      <trkpt lat="46.24841" lon="5.46357">
        <ele>531.6</ele>
        <time>2022-05-11T13:11:57Z</time>
      </trkpt>
      <trkpt lat="46.24828" lon="5.46356">
        <ele>532.6</ele>
        <time>2022-05-11T13:12:00Z</time>
      </trkpt>
      <trkpt lat="46.24819" lon="5.46358">
        <ele>533.4</ele>
        <time>2022-05-11T13:12:02Z</time>
      </trkpt>
      <trkpt lat="46.24809" lon="5.46361">
        <ele>533.6</ele>
        <time>2022-05-11T13:12:04Z</time>
      </trkpt>
      <trkpt lat="46.24787" lon="5.46377">
        <ele>534.6</ele>
        <time>2022-05-11T13:12:09Z</time>
      </trkpt>
      <trkpt lat="46.24783" lon="5.46381">
        <ele>534.8</ele>
        <time>2022-05-11T13:12:10Z</time>
      </trkpt>
      <trkpt lat="46.24771" lon="5.46391">
        <ele>535</ele>
        <time>2022-05-11T13:12:13Z</time>
      </trkpt>
      <trkpt lat="46.24764" lon="5.46393">
        <ele>535</ele>
        <time>2022-05-11T13:12:15Z</time>
      </trkpt>
      <trkpt lat="46.24755" lon="5.46389">
        <ele>535</ele>
        <time>2022-05-11T13:12:19Z</time>
      </trkpt>
      <trkpt lat="46.24752" lon="5.46388">
        <ele>535</ele>
        <time>2022-05-11T13:12:24Z</time>
      </trkpt>
      <trkpt lat="46.24758" lon="5.46395">
        <ele>535.6</ele>
        <time>2022-05-11T13:13:15Z</time>
      </trkpt>
      <trkpt lat="46.24763" lon="5.46398">
        <ele>535.8</ele>
        <time>2022-05-11T13:13:17Z</time>
      </trkpt>
      <trkpt lat="46.24766" lon="5.46398">
        <ele>535.8</ele>
        <time>2022-05-11T13:13:18Z</time>
      </trkpt>
      <trkpt lat="46.24773" lon="5.46394">
        <ele>535.8</ele>
        <time>2022-05-11T13:13:20Z</time>
      </trkpt>
      <trkpt lat="46.2479" lon="5.46381">
        <ele>536</ele>
        <time>2022-05-11T13:13:24Z</time>
      </trkpt>
      <trkpt lat="46.24815" lon="5.46365">
        <ele>536</ele>
        <time>2022-05-11T13:13:29Z</time>
      </trkpt>
      <trkpt lat="46.2482" lon="5.46364">
        <ele>536</ele>
        <time>2022-05-11T13:13:30Z</time>
      </trkpt>
      <trkpt lat="46.24837" lon="5.46363">
        <ele>536</ele>
        <time>2022-05-11T13:13:33Z</time>
      </trkpt>
      <trkpt lat="46.24853" lon="5.46365">
        <ele>535.4</ele>
        <time>2022-05-11T13:13:36Z</time>
      </trkpt>
      <trkpt lat="46.24885" lon="5.46372">
        <ele>534.4</ele>
        <time>2022-05-11T13:13:41Z</time>
      </trkpt>
      <trkpt lat="46.24895" lon="5.46374">
        <ele>534.2</ele>
        <time>2022-05-11T13:13:42Z</time>
      </trkpt>
      <trkpt lat="46.24901" lon="5.46375">
        <ele>533.2</ele>
        <time>2022-05-11T13:13:44Z</time>
      </trkpt>
      <trkpt lat="46.24922" lon="5.46381">
        <ele>532.2</ele>
        <time>2022-05-11T13:13:47Z</time>
      </trkpt>
      <trkpt lat="46.24948" lon="5.46385">
        <ele>531.2</ele>
        <time>2022-05-11T13:13:51Z</time>
      </trkpt>
      <trkpt lat="46.24971" lon="5.46392">
        <ele>530</ele>
        <time>2022-05-11T13:13:55Z</time>
      </trkpt>
      <trkpt lat="46.24975" lon="5.46394">
        <ele>529.8</ele>
        <time>2022-05-11T13:13:56Z</time>
      </trkpt>
      <trkpt lat="46.24982" lon="5.46396">
        <ele>528.8</ele>
        <time>2022-05-11T13:13:58Z</time>
      </trkpt>
      <trkpt lat="46.2498" lon="5.46394">
        <ele>528.4</ele>
        <time>2022-05-11T13:14:00Z</time>
      </trkpt>
      <trkpt lat="46.24977" lon="5.46393">
        <ele>528.2</ele>
        <time>2022-05-11T13:14:01Z</time>
      </trkpt>
      <trkpt lat="46.24969" lon="5.4639">
        <ele>527.8</ele>
        <time>2022-05-11T13:14:04Z</time>
      </trkpt>
      <trkpt lat="46.24965" lon="5.46389">
        <ele>527.8</ele>
        <time>2022-05-11T13:14:05Z</time>
      </trkpt>
      <trkpt lat="46.24961" lon="5.46387">
        <ele>527.8</ele>
        <time>2022-05-11T13:14:06Z</time>
      </trkpt>
      <trkpt lat="46.24934" lon="5.46376">
        <ele>528.2</ele>
        <time>2022-05-11T13:14:12Z</time>
      </trkpt>
      <trkpt lat="46.24919" lon="5.46367">
        <ele>528.6</ele>
        <time>2022-05-11T13:14:15Z</time>
      </trkpt>
      <trkpt lat="46.24914" lon="5.46366">
        <ele>528.8</ele>
        <time>2022-05-11T13:14:16Z</time>
      </trkpt>
      <trkpt lat="46.2491" lon="5.46365">
        <ele>529</ele>
        <time>2022-05-11T13:14:17Z</time>
      </trkpt>
      <trkpt lat="46.24889" lon="5.46363">
        <ele>529.6</ele>
        <time>2022-05-11T13:14:22Z</time>
      </trkpt>
      <trkpt lat="46.24884" lon="5.46362">
        <ele>530</ele>
        <time>2022-05-11T13:14:23Z</time>
      </trkpt>
      <trkpt lat="46.24862" lon="5.4636">
        <ele>531</ele>
        <time>2022-05-11T13:14:29Z</time>
      </trkpt>
      <trkpt lat="46.24858" lon="5.46359">
        <ele>531.2</ele>
        <time>2022-05-11T13:14:30Z</time>
      </trkpt>
      <trkpt lat="46.24845" lon="5.46356">
        <ele>532.2</ele>
        <time>2022-05-11T13:14:34Z</time>
      </trkpt>
      <trkpt lat="46.24828" lon="5.46355">
        <ele>533.4</ele>
        <time>2022-05-11T13:14:39Z</time>
      </trkpt>
      <trkpt lat="46.24814" lon="5.46358">
        <ele>534.4</ele>
        <time>2022-05-11T13:14:44Z</time>
      </trkpt>
      <trkpt lat="46.24811" lon="5.4636">
        <ele>534.4</ele>
        <time>2022-05-11T13:14:45Z</time>
      </trkpt>
      <trkpt lat="46.24793" lon="5.46374">
        <ele>534.8</ele>
        <time>2022-05-11T13:14:50Z</time>
      </trkpt>
      <trkpt lat="46.24769" lon="5.46394">
        <ele>535.2</ele>
        <time>2022-05-11T13:14:58Z</time>
      </trkpt>
      <trkpt lat="46.24763" lon="5.46396">
        <ele>535.2</ele>
        <time>2022-05-11T13:15:00Z</time>
      </trkpt>
      <trkpt lat="46.24759" lon="5.464">
        <ele>535.2</ele>
        <time>2022-05-11T13:15:02Z</time>
      </trkpt>
      <trkpt lat="46.24746" lon="5.4641">
        <ele>535.2</ele>
        <time>2022-05-11T13:15:07Z</time>
      </trkpt>
      <trkpt lat="46.24745" lon="5.46411">
        <ele>535</ele>
        <time>2022-05-11T13:15:08Z</time>
      </trkpt>
      <trkpt lat="46.24745" lon="5.46413">
        <ele>535</ele>
        <time>2022-05-11T13:15:11Z</time>
      </trkpt>
      <trkpt lat="46.24747" lon="5.46416">
        <ele>534.8</ele>
        <time>2022-05-11T13:15:40Z</time>
      </trkpt>
      <trkpt lat="46.2475" lon="5.46414">
        <ele>534.8</ele>
        <time>2022-05-11T13:15:42Z</time>
      </trkpt>
      <trkpt lat="46.24751" lon="5.46412">
        <ele>534.8</ele>
        <time>2022-05-11T13:15:43Z</time>
      </trkpt>
      <trkpt lat="46.24753" lon="5.46408">
        <ele>534.8</ele>
        <time>2022-05-11T13:15:47Z</time>
      </trkpt>
      <trkpt lat="46.2475" lon="5.46408">
        <ele>535</ele>
        <time>2022-05-11T13:15:51Z</time>
      </trkpt>
      <trkpt lat="46.2475" lon="5.46408">
        <ele>535</ele>
        <time>2022-05-11T13:15:54Z</time>
      </trkpt>
      <trkpt lat="46.24743" lon="5.46417">
        <ele>536.6</ele>
        <time>2022-05-11T13:18:23Z</time>
      </trkpt>
      <trkpt lat="46.2474" lon="5.4642">
        <ele>536.6</ele>
        <time>2022-05-11T13:18:24Z</time>
      </trkpt>
      <trkpt lat="46.2472" lon="5.46439">
        <ele>536.2</ele>
        <time>2022-05-11T13:18:30Z</time>
      </trkpt>
      <trkpt lat="46.24699" lon="5.46457">
        <ele>536.2</ele>
        <time>2022-05-11T13:18:36Z</time>
      </trkpt>
      <trkpt lat="46.24696" lon="5.4646">
        <ele>536.2</ele>
        <time>2022-05-11T13:18:37Z</time>
      </trkpt>
      <trkpt lat="46.24681" lon="5.46468">
        <ele>536.2</ele>
        <time>2022-05-11T13:18:41Z</time>
      </trkpt>
      <trkpt lat="46.24658" lon="5.4648">
        <ele>535.6</ele>
        <time>2022-05-11T13:18:48Z</time>
      </trkpt>
      <trkpt lat="46.24656" lon="5.46482">
        <ele>535.6</ele>
        <time>2022-05-11T13:18:49Z</time>
      </trkpt>
      <trkpt lat="46.24635" lon="5.46498">
        <ele>535.2</ele>
        <time>2022-05-11T13:18:55Z</time>
      </trkpt>
      <trkpt lat="46.24621" lon="5.46516">
        <ele>535</ele>
        <time>2022-05-11T13:18:58Z</time>
      </trkpt>
      <trkpt lat="46.24617" lon="5.46523">
        <ele>534.8</ele>
        <time>2022-05-11T13:18:59Z</time>
      </trkpt>
      <trkpt lat="46.24603" lon="5.46541">
        <ele>534.4</ele>
        <time>2022-05-11T13:19:02Z</time>
      </trkpt>
      <trkpt lat="46.24576" lon="5.46573">
        <ele>533.4</ele>
        <time>2022-05-11T13:19:07Z</time>
      </trkpt>
      <trkpt lat="46.2457" lon="5.4658">
        <ele>533</ele>
        <time>2022-05-11T13:19:08Z</time>
      </trkpt>
      <trkpt lat="46.24563" lon="5.46587">
        <ele>532.4</ele>
        <time>2022-05-11T13:19:09Z</time>
      </trkpt>
      <trkpt lat="46.24547" lon="5.46596">
        <ele>531.6</ele>
        <time>2022-05-11T13:19:11Z</time>
      </trkpt>
      <trkpt lat="46.24512" lon="5.46608">
        <ele>529.8</ele>
        <time>2022-05-11T13:19:15Z</time>
      </trkpt>
      <trkpt lat="46.24504" lon="5.46612">
        <ele>529.2</ele>
        <time>2022-05-11T13:19:16Z</time>
      </trkpt>
      <trkpt lat="46.24486" lon="5.46624">
        <ele>528.4</ele>
        <time>2022-05-11T13:19:18Z</time>
      </trkpt>
      <trkpt lat="46.2447" lon="5.46638">
        <ele>527.6</ele>
        <time>2022-05-11T13:19:20Z</time>
      </trkpt>
      <trkpt lat="46.24453" lon="5.46654">
        <ele>527</ele>
        <time>2022-05-11T13:19:22Z</time>
      </trkpt>
      <trkpt lat="46.24419" lon="5.46686">
        <ele>525.4</ele>
        <time>2022-05-11T13:19:26Z</time>
      </trkpt>
      <trkpt lat="46.24411" lon="5.46695">
        <ele>524.8</ele>
        <time>2022-05-11T13:19:27Z</time>
      </trkpt>
      <trkpt lat="46.24395" lon="5.46712">
        <ele>524</ele>
        <time>2022-05-11T13:19:29Z</time>
      </trkpt>
      <trkpt lat="46.24368" lon="5.4674">
        <ele>522.4</ele>
        <time>2022-05-11T13:19:32Z</time>
      </trkpt>
      <trkpt lat="46.24361" lon="5.46747">
        <ele>521.8</ele>
        <time>2022-05-11T13:19:33Z</time>
      </trkpt>
      <trkpt lat="46.24351" lon="5.46755">
        <ele>520.8</ele>
        <time>2022-05-11T13:19:34Z</time>
      </trkpt>
      <trkpt lat="46.24332" lon="5.46774">
        <ele>519.8</ele>
        <time>2022-05-11T13:19:36Z</time>
      </trkpt>
      <trkpt lat="46.24313" lon="5.46793">
        <ele>518.8</ele>
        <time>2022-05-11T13:19:38Z</time>
      </trkpt>
      <trkpt lat="46.24285" lon="5.46816">
        <ele>517.4</ele>
        <time>2022-05-11T13:19:41Z</time>
      </trkpt>
      <trkpt lat="46.24275" lon="5.46822">
        <ele>517</ele>
        <time>2022-05-11T13:19:42Z</time>
      </trkpt>
      <trkpt lat="46.24265" lon="5.46826">
        <ele>516.4</ele>
        <time>2022-05-11T13:19:43Z</time>
      </trkpt>
      <trkpt lat="46.24243" lon="5.46831">
        <ele>515.2</ele>
        <time>2022-05-11T13:19:45Z</time>
      </trkpt>
      <trkpt lat="46.24219" lon="5.4683">
        <ele>514.2</ele>
        <time>2022-05-11T13:19:47Z</time>
      </trkpt>
      <trkpt lat="46.24186" lon="5.46829">
        <ele>512.6</ele>
        <time>2022-05-11T13:19:50Z</time>
      </trkpt>
      <trkpt lat="46.24164" lon="5.46826">
        <ele>511.2</ele>
        <time>2022-05-11T13:19:52Z</time>
      </trkpt>
      <trkpt lat="46.24142" lon="5.46825">
        <ele>510</ele>
        <time>2022-05-11T13:19:54Z</time>
      </trkpt>
      <trkpt lat="46.2413" lon="5.46823">
        <ele>509.4</ele>
        <time>2022-05-11T13:19:55Z</time>
      </trkpt>
      <trkpt lat="46.24119" lon="5.46822">
        <ele>508.8</ele>
        <time>2022-05-11T13:19:56Z</time>
      </trkpt>
      <trkpt lat="46.24097" lon="5.46821">
        <ele>506.8</ele>
        <time>2022-05-11T13:19:58Z</time>
      </trkpt>
      <trkpt lat="46.24074" lon="5.46825">
        <ele>505.6</ele>
        <time>2022-05-11T13:20:00Z</time>
      </trkpt>
      <trkpt lat="46.24052" lon="5.46834">
        <ele>504.8</ele>
        <time>2022-05-11T13:20:02Z</time>
      </trkpt>
      <trkpt lat="46.24042" lon="5.46841">
        <ele>504.6</ele>
        <time>2022-05-11T13:20:03Z</time>
      </trkpt>
      <trkpt lat="46.24032" lon="5.46849">
        <ele>504.2</ele>
        <time>2022-05-11T13:20:04Z</time>
      </trkpt>
      <trkpt lat="46.24023" lon="5.46859">
        <ele>503.6</ele>
        <time>2022-05-11T13:20:05Z</time>
      </trkpt>
      <trkpt lat="46.24006" lon="5.46877">
        <ele>502.6</ele>
        <time>2022-05-11T13:20:07Z</time>
      </trkpt>
      <trkpt lat="46.23993" lon="5.4689">
        <ele>502.2</ele>
        <time>2022-05-11T13:20:08Z</time>
      </trkpt>
      <trkpt lat="46.23985" lon="5.46897">
        <ele>501.6</ele>
        <time>2022-05-11T13:20:09Z</time>
      </trkpt>
      <trkpt lat="46.23985" lon="5.46897">
        <ele>501.2</ele>
        <time>2022-05-11T13:20:10Z</time>
      </trkpt>
      <trkpt lat="46.23976" lon="5.46902">
        <ele>500.4</ele>
        <time>2022-05-11T13:20:11Z</time>
      </trkpt>
      <trkpt lat="46.23964" lon="5.46908">
        <ele>500</ele>
        <time>2022-05-11T13:20:12Z</time>
      </trkpt>
      <trkpt lat="46.23945" lon="5.46913">
        <ele>498.2</ele>
        <time>2022-05-11T13:20:14Z</time>
      </trkpt>
      <trkpt lat="46.23925" lon="5.46916">
        <ele>497.6</ele>
        <time>2022-05-11T13:20:16Z</time>
      </trkpt>
      <trkpt lat="46.23915" lon="5.46919">
        <ele>497</ele>
        <time>2022-05-11T13:20:17Z</time>
      </trkpt>
      <trkpt lat="46.23905" lon="5.46923">
        <ele>496.4</ele>
        <time>2022-05-11T13:20:18Z</time>
      </trkpt>
      <trkpt lat="46.23895" lon="5.46929">
        <ele>495.8</ele>
        <time>2022-05-11T13:20:19Z</time>
      </trkpt>
      <trkpt lat="46.23877" lon="5.46943">
        <ele>494.6</ele>
        <time>2022-05-11T13:20:21Z</time>
      </trkpt>
      <trkpt lat="46.23868" lon="5.46952">
        <ele>494.2</ele>
        <time>2022-05-11T13:20:22Z</time>
      </trkpt>
      <trkpt lat="46.23859" lon="5.4696">
        <ele>493.4</ele>
        <time>2022-05-11T13:20:23Z</time>
      </trkpt>
      <trkpt lat="46.23842" lon="5.46978">
        <ele>492.2</ele>
        <time>2022-05-11T13:20:25Z</time>
      </trkpt>
      <trkpt lat="46.23824" lon="5.46995">
        <ele>491.2</ele>
        <time>2022-05-11T13:20:27Z</time>
      </trkpt>
      <trkpt lat="46.23798" lon="5.47022">
        <ele>489.4</ele>
        <time>2022-05-11T13:20:30Z</time>
      </trkpt>
      <trkpt lat="46.23792" lon="5.4703">
        <ele>489.2</ele>
        <time>2022-05-11T13:20:31Z</time>
      </trkpt>
      <trkpt lat="46.23785" lon="5.47041">
        <ele>488</ele>
        <time>2022-05-11T13:20:32Z</time>
      </trkpt>
      <trkpt lat="46.23779" lon="5.47053">
        <ele>487.2</ele>
        <time>2022-05-11T13:20:33Z</time>
      </trkpt>
      <trkpt lat="46.23773" lon="5.4707">
        <ele>486.8</ele>
        <time>2022-05-11T13:20:34Z</time>
      </trkpt>
      <trkpt lat="46.23769" lon="5.47099">
        <ele>485.8</ele>
        <time>2022-05-11T13:20:36Z</time>
      </trkpt>
      <trkpt lat="46.2377" lon="5.47129">
        <ele>485</ele>
        <time>2022-05-11T13:20:38Z</time>
      </trkpt>
      <trkpt lat="46.23773" lon="5.47143">
        <ele>484.2</ele>
        <time>2022-05-11T13:20:39Z</time>
      </trkpt>
      <trkpt lat="46.23778" lon="5.47159">
        <ele>483.4</ele>
        <time>2022-05-11T13:20:40Z</time>
      </trkpt>
      <trkpt lat="46.23783" lon="5.47169">
        <ele>483.2</ele>
        <time>2022-05-11T13:20:41Z</time>
      </trkpt>
      <trkpt lat="46.2379" lon="5.4718">
        <ele>482.2</ele>
        <time>2022-05-11T13:20:42Z</time>
      </trkpt>
      <trkpt lat="46.23797" lon="5.47192">
        <ele>481.8</ele>
        <time>2022-05-11T13:20:43Z</time>
      </trkpt>
      <trkpt lat="46.23811" lon="5.47215">
        <ele>480.4</ele>
        <time>2022-05-11T13:20:45Z</time>
      </trkpt>
      <trkpt lat="46.23825" lon="5.4724">
        <ele>479.2</ele>
        <time>2022-05-11T13:20:47Z</time>
      </trkpt>
      <trkpt lat="46.23837" lon="5.47267">
        <ele>478.2</ele>
        <time>2022-05-11T13:20:49Z</time>
      </trkpt>
      <trkpt lat="46.23845" lon="5.47294">
        <ele>476.8</ele>
        <time>2022-05-11T13:20:51Z</time>
      </trkpt>
      <trkpt lat="46.23853" lon="5.47321">
        <ele>475.6</ele>
        <time>2022-05-11T13:20:53Z</time>
      </trkpt>
      <trkpt lat="46.23857" lon="5.47334">
        <ele>474.6</ele>
        <time>2022-05-11T13:20:54Z</time>
      </trkpt>
      <trkpt lat="46.23861" lon="5.47347">
        <ele>474.2</ele>
        <time>2022-05-11T13:20:55Z</time>
      </trkpt>
      <trkpt lat="46.23868" lon="5.47372">
        <ele>473.2</ele>
        <time>2022-05-11T13:20:57Z</time>
      </trkpt>
      <trkpt lat="46.23876" lon="5.474">
        <ele>472</ele>
        <time>2022-05-11T13:20:59Z</time>
      </trkpt>
      <trkpt lat="46.23887" lon="5.47438">
        <ele>471.2</ele>
        <time>2022-05-11T13:21:02Z</time>
      </trkpt>
      <trkpt lat="46.23891" lon="5.47451">
        <ele>470.6</ele>
        <time>2022-05-11T13:21:03Z</time>
      </trkpt>
      <trkpt lat="46.23902" lon="5.47489">
        <ele>469.6</ele>
        <time>2022-05-11T13:21:06Z</time>
      </trkpt>
      <trkpt lat="46.23908" lon="5.47514">
        <ele>468.6</ele>
        <time>2022-05-11T13:21:08Z</time>
      </trkpt>
      <trkpt lat="46.23927" lon="5.47579">
        <ele>468</ele>
        <time>2022-05-11T13:21:13Z</time>
      </trkpt>
      <trkpt lat="46.23937" lon="5.47615">
        <ele>467.2</ele>
        <time>2022-05-11T13:21:17Z</time>
      </trkpt>
      <trkpt lat="46.23949" lon="5.4766">
        <ele>466.2</ele>
        <time>2022-05-11T13:21:21Z</time>
      </trkpt>
      <trkpt lat="46.23952" lon="5.47671">
        <ele>466</ele>
        <time>2022-05-11T13:21:22Z</time>
      </trkpt>
      <trkpt lat="46.23974" lon="5.47748">
        <ele>464.8</ele>
        <time>2022-05-11T13:21:29Z</time>
      </trkpt>
      <trkpt lat="46.23983" lon="5.47782">
        <ele>463.8</ele>
        <time>2022-05-11T13:21:33Z</time>
      </trkpt>
      <trkpt lat="46.23986" lon="5.4779">
        <ele>463.4</ele>
        <time>2022-05-11T13:21:34Z</time>
      </trkpt>
      <trkpt lat="46.23989" lon="5.47798">
        <ele>463.2</ele>
        <time>2022-05-11T13:21:35Z</time>
      </trkpt>
      <trkpt lat="46.23996" lon="5.47824">
        <ele>462.2</ele>
        <time>2022-05-11T13:21:38Z</time>
      </trkpt>
      <trkpt lat="46.24" lon="5.47841">
        <ele>461.6</ele>
        <time>2022-05-11T13:21:40Z</time>
      </trkpt>
      <trkpt lat="46.24006" lon="5.47859">
        <ele>461.2</ele>
        <time>2022-05-11T13:21:42Z</time>
      </trkpt>
      <trkpt lat="46.24019" lon="5.47893">
        <ele>460.6</ele>
        <time>2022-05-11T13:21:46Z</time>
      </trkpt>
      <trkpt lat="46.24037" lon="5.47924">
        <ele>460.2</ele>
        <time>2022-05-11T13:21:50Z</time>
      </trkpt>
      <trkpt lat="46.24047" lon="5.47939">
        <ele>459.6</ele>
        <time>2022-05-11T13:21:52Z</time>
      </trkpt>
      <trkpt lat="46.24062" lon="5.47961">
        <ele>459</ele>
        <time>2022-05-11T13:21:55Z</time>
      </trkpt>
      <trkpt lat="46.24084" lon="5.47989">
        <ele>458</ele>
        <time>2022-05-11T13:21:59Z</time>
      </trkpt>
      <trkpt lat="46.24123" lon="5.48038">
        <ele>457</ele>
        <time>2022-05-11T13:22:06Z</time>
      </trkpt>
      <trkpt lat="46.24133" lon="5.4805">
        <ele>456.4</ele>
        <time>2022-05-11T13:22:08Z</time>
      </trkpt>
      <trkpt lat="46.24145" lon="5.48066">
        <ele>456</ele>
        <time>2022-05-11T13:22:11Z</time>
      </trkpt>
      <trkpt lat="46.24153" lon="5.4808">
        <ele>455.6</ele>
        <time>2022-05-11T13:22:13Z</time>
      </trkpt>
      <trkpt lat="46.24161" lon="5.48096">
        <ele>454.8</ele>
        <time>2022-05-11T13:22:16Z</time>
      </trkpt>
      <trkpt lat="46.24172" lon="5.48117">
        <ele>454.6</ele>
        <time>2022-05-11T13:22:19Z</time>
      </trkpt>
      <trkpt lat="46.24183" lon="5.48129">
        <ele>454</ele>
        <time>2022-05-11T13:22:21Z</time>
      </trkpt>
      <trkpt lat="46.24189" lon="5.48134">
        <ele>453.6</ele>
        <time>2022-05-11T13:22:22Z</time>
      </trkpt>
      <trkpt lat="46.24195" lon="5.4814">
        <ele>453.2</ele>
        <time>2022-05-11T13:22:23Z</time>
      </trkpt>
      <trkpt lat="46.24221" lon="5.48161">
        <ele>452.2</ele>
        <time>2022-05-11T13:22:27Z</time>
      </trkpt>
      <trkpt lat="46.24235" lon="5.4817">
        <ele>451.8</ele>
        <time>2022-05-11T13:22:29Z</time>
      </trkpt>
      <trkpt lat="46.24254" lon="5.48182">
        <ele>451.2</ele>
        <time>2022-05-11T13:22:32Z</time>
      </trkpt>
      <trkpt lat="46.24265" lon="5.4819">
        <ele>451</ele>
        <time>2022-05-11T13:22:34Z</time>
      </trkpt>
      <trkpt lat="46.24269" lon="5.48194">
        <ele>451.2</ele>
        <time>2022-05-11T13:22:35Z</time>
      </trkpt>
      <trkpt lat="46.24287" lon="5.48203">
        <ele>451.2</ele>
        <time>2022-05-11T13:22:39Z</time>
      </trkpt>
      <trkpt lat="46.24315" lon="5.4821">
        <ele>452.6</ele>
        <time>2022-05-11T13:22:46Z</time>
      </trkpt>
      <trkpt lat="46.24334" lon="5.48216">
        <ele>454</ele>
        <time>2022-05-11T13:22:51Z</time>
      </trkpt>
      <trkpt lat="46.24341" lon="5.48217">
        <ele>454.4</ele>
        <time>2022-05-11T13:22:53Z</time>
      </trkpt>
      <trkpt lat="46.24346" lon="5.48219">
        <ele>455</ele>
        <time>2022-05-11T13:22:55Z</time>
      </trkpt>
      <trkpt lat="46.24358" lon="5.48227">
        <ele>455.6</ele>
        <time>2022-05-11T13:22:59Z</time>
      </trkpt>
      <trkpt lat="46.24365" lon="5.4823">
        <ele>456</ele>
        <time>2022-05-11T13:23:02Z</time>
      </trkpt>
      <trkpt lat="46.24369" lon="5.48228">
        <ele>456</ele>
        <time>2022-05-11T13:23:04Z</time>
      </trkpt>
      <trkpt lat="46.24371" lon="5.48227">
        <ele>456</ele>
        <time>2022-05-11T13:23:05Z</time>
      </trkpt>
      <trkpt lat="46.24374" lon="5.48227">
        <ele>456.2</ele>
        <time>2022-05-11T13:23:07Z</time>
      </trkpt>
      <trkpt lat="46.24377" lon="5.48228">
        <ele>456.2</ele>
        <time>2022-05-11T13:23:09Z</time>
      </trkpt>
      <trkpt lat="46.24378" lon="5.48228">
        <ele>456.2</ele>
        <time>2022-05-11T13:23:10Z</time>
      </trkpt>
      <trkpt lat="46.24382" lon="5.48227">
        <ele>456.2</ele>
        <time>2022-05-11T13:23:13Z</time>
      </trkpt>
      <trkpt lat="46.24383" lon="5.48226">
        <ele>456.2</ele>
        <time>2022-05-11T13:23:15Z</time>
      </trkpt>
      <trkpt lat="46.24384" lon="5.4822">
        <ele>456</ele>
        <time>2022-05-11T13:23:18Z</time>
      </trkpt>
      <trkpt lat="46.24384" lon="5.48216">
        <ele>455.4</ele>
        <time>2022-05-11T13:23:22Z</time>
      </trkpt>
      <trkpt lat="46.24383" lon="5.48227">
        <ele>455</ele>
        <time>2022-05-11T13:23:56Z</time>
      </trkpt>
      <trkpt lat="46.2438" lon="5.48233">
        <ele>455.2</ele>
        <time>2022-05-11T13:23:58Z</time>
      </trkpt>
      <trkpt lat="46.24379" lon="5.4824">
        <ele>455.2</ele>
        <time>2022-05-11T13:24:00Z</time>
      </trkpt>
      <trkpt lat="46.2438" lon="5.48243">
        <ele>455.2</ele>
        <time>2022-05-11T13:24:01Z</time>
      </trkpt>
      <trkpt lat="46.24386" lon="5.48248">
        <ele>455.4</ele>
        <time>2022-05-11T13:24:04Z</time>
      </trkpt>
      <trkpt lat="46.24402" lon="5.48251">
        <ele>455.4</ele>
        <time>2022-05-11T13:24:10Z</time>
      </trkpt>
      <trkpt lat="46.24404" lon="5.48252">
        <ele>455.4</ele>
        <time>2022-05-11T13:24:11Z</time>
      </trkpt>
      <trkpt lat="46.2441" lon="5.48252">
        <ele>455.4</ele>
        <time>2022-05-11T13:24:13Z</time>
      </trkpt>
      <trkpt lat="46.24422" lon="5.48246">
        <ele>455.4</ele>
        <time>2022-05-11T13:24:20Z</time>
      </trkpt>
      <trkpt lat="46.24422" lon="5.48242">
        <ele>455.6</ele>
        <time>2022-05-11T13:24:22Z</time>
      </trkpt>
      <trkpt lat="46.24421" lon="5.48238">
        <ele>455.6</ele>
        <time>2022-05-11T13:24:24Z</time>
      </trkpt>
      <trkpt lat="46.24421" lon="5.48237">
        <ele>455.6</ele>
        <time>2022-05-11T13:24:29Z</time>
      </trkpt>
      <trkpt lat="46.2442" lon="5.48241">
        <ele>457.2</ele>
        <time>2022-05-11T13:29:47Z</time>
      </trkpt>
      <trkpt lat="46.24422" lon="5.48245">
        <ele>457.4</ele>
        <time>2022-05-11T13:29:49Z</time>
      </trkpt>
      <trkpt lat="46.24425" lon="5.48248">
        <ele>457.4</ele>
        <time>2022-05-11T13:29:51Z</time>
      </trkpt>
      <trkpt lat="46.24426" lon="5.48252">
        <ele>457.4</ele>
        <time>2022-05-11T13:29:53Z</time>
      </trkpt>
      <trkpt lat="46.24435" lon="5.48254">
        <ele>457.2</ele>
        <time>2022-05-11T13:29:58Z</time>
      </trkpt>
      <trkpt lat="46.24454" lon="5.48252">
        <ele>457</ele>
        <time>2022-05-11T13:30:05Z</time>
      </trkpt>
      <trkpt lat="46.24471" lon="5.4825">
        <ele>456.8</ele>
        <time>2022-05-11T13:30:10Z</time>
      </trkpt>
      <trkpt lat="46.24502" lon="5.48248">
        <ele>456.8</ele>
        <time>2022-05-11T13:30:18Z</time>
      </trkpt>
      <trkpt lat="46.24518" lon="5.48251">
        <ele>456.8</ele>
        <time>2022-05-11T13:30:22Z</time>
      </trkpt>
      <trkpt lat="46.24549" lon="5.48258">
        <ele>456.8</ele>
        <time>2022-05-11T13:30:29Z</time>
      </trkpt>
      <trkpt lat="46.24556" lon="5.48261">
        <ele>456.8</ele>
        <time>2022-05-11T13:30:31Z</time>
      </trkpt>
      <trkpt lat="46.24567" lon="5.48263">
        <ele>456.8</ele>
        <time>2022-05-11T13:30:33Z</time>
      </trkpt>
      <trkpt lat="46.24572" lon="5.48263">
        <ele>456.6</ele>
        <time>2022-05-11T13:30:34Z</time>
      </trkpt>
      <trkpt lat="46.24578" lon="5.48262">
        <ele>456.6</ele>
        <time>2022-05-11T13:30:35Z</time>
      </trkpt>
      <trkpt lat="46.24603" lon="5.48252">
        <ele>456.4</ele>
        <time>2022-05-11T13:30:39Z</time>
      </trkpt>
      <trkpt lat="46.24603" lon="5.48252">
        <ele>456.2</ele>
        <time>2022-05-11T13:30:40Z</time>
      </trkpt>
      <trkpt lat="46.2461" lon="5.4825">
        <ele>456.2</ele>
        <time>2022-05-11T13:30:41Z</time>
      </trkpt>
      <trkpt lat="46.24627" lon="5.48249">
        <ele>455.6</ele>
        <time>2022-05-11T13:30:44Z</time>
      </trkpt>
      <trkpt lat="46.24643" lon="5.48252">
        <ele>455.2</ele>
        <time>2022-05-11T13:30:47Z</time>
      </trkpt>
      <trkpt lat="46.24659" lon="5.48255">
        <ele>455</ele>
        <time>2022-05-11T13:30:50Z</time>
      </trkpt>
      <trkpt lat="46.24712" lon="5.48273">
        <ele>455</ele>
        <time>2022-05-11T13:31:00Z</time>
      </trkpt>
      <trkpt lat="46.24723" lon="5.48276">
        <ele>455</ele>
        <time>2022-05-11T13:31:02Z</time>
      </trkpt>
      <trkpt lat="46.24767" lon="5.48284">
        <ele>455.2</ele>
        <time>2022-05-11T13:31:10Z</time>
      </trkpt>
      <trkpt lat="46.24777" lon="5.48287">
        <ele>455.2</ele>
        <time>2022-05-11T13:31:12Z</time>
      </trkpt>
      <trkpt lat="46.24788" lon="5.48288">
        <ele>455.2</ele>
        <time>2022-05-11T13:31:14Z</time>
      </trkpt>
      <trkpt lat="46.24798" lon="5.48291">
        <ele>455.2</ele>
        <time>2022-05-11T13:31:16Z</time>
      </trkpt>
      <trkpt lat="46.24853" lon="5.48305">
        <ele>455.2</ele>
        <time>2022-05-11T13:31:26Z</time>
      </trkpt>
      <trkpt lat="46.24864" lon="5.48307">
        <ele>455.2</ele>
        <time>2022-05-11T13:31:28Z</time>
      </trkpt>
      <trkpt lat="46.24893" lon="5.48315">
        <ele>455.4</ele>
        <time>2022-05-11T13:31:33Z</time>
      </trkpt>
      <trkpt lat="46.24899" lon="5.48316">
        <ele>455.4</ele>
        <time>2022-05-11T13:31:34Z</time>
      </trkpt>
      <trkpt lat="46.24914" lon="5.48323">
        <ele>455.4</ele>
        <time>2022-05-11T13:31:37Z</time>
      </trkpt>
      <trkpt lat="46.2497" lon="5.48341">
        <ele>455.4</ele>
        <time>2022-05-11T13:31:47Z</time>
      </trkpt>
      <trkpt lat="46.24975" lon="5.48343">
        <ele>455.6</ele>
        <time>2022-05-11T13:31:48Z</time>
      </trkpt>
      <trkpt lat="46.25026" lon="5.48359">
        <ele>455.8</ele>
        <time>2022-05-11T13:31:57Z</time>
      </trkpt>
      <trkpt lat="46.25075" lon="5.48373">
        <ele>456.2</ele>
        <time>2022-05-11T13:32:06Z</time>
      </trkpt>
      <trkpt lat="46.25086" lon="5.48376">
        <ele>456.4</ele>
        <time>2022-05-11T13:32:08Z</time>
      </trkpt>
      <trkpt lat="46.25097" lon="5.48379">
        <ele>456.6</ele>
        <time>2022-05-11T13:32:10Z</time>
      </trkpt>
      <trkpt lat="46.25123" lon="5.48385">
        <ele>456.8</ele>
        <time>2022-05-11T13:32:15Z</time>
      </trkpt>
      <trkpt lat="46.25128" lon="5.48386">
        <ele>457</ele>
        <time>2022-05-11T13:32:16Z</time>
      </trkpt>
      <trkpt lat="46.25153" lon="5.48394">
        <ele>457</ele>
        <time>2022-05-11T13:32:21Z</time>
      </trkpt>
      <trkpt lat="46.25168" lon="5.48398">
        <ele>457.4</ele>
        <time>2022-05-11T13:32:24Z</time>
      </trkpt>
      <trkpt lat="46.25197" lon="5.48412">
        <ele>457.8</ele>
        <time>2022-05-11T13:32:30Z</time>
      </trkpt>
      <trkpt lat="46.25239" lon="5.48438">
        <ele>457.8</ele>
        <time>2022-05-11T13:32:39Z</time>
      </trkpt>
      <trkpt lat="46.25243" lon="5.48441">
        <ele>458</ele>
        <time>2022-05-11T13:32:40Z</time>
      </trkpt>
      <trkpt lat="46.2527" lon="5.48461">
        <ele>458.8</ele>
        <time>2022-05-11T13:32:46Z</time>
      </trkpt>
      <trkpt lat="46.25296" lon="5.48486">
        <ele>459</ele>
        <time>2022-05-11T13:32:52Z</time>
      </trkpt>
      <trkpt lat="46.25325" lon="5.48518">
        <ele>459.8</ele>
        <time>2022-05-11T13:32:59Z</time>
      </trkpt>
      <trkpt lat="46.25329" lon="5.48522">
        <ele>459.8</ele>
        <time>2022-05-11T13:33:00Z</time>
      </trkpt>
      <trkpt lat="46.25354" lon="5.48549">
        <ele>460.8</ele>
        <time>2022-05-11T13:33:06Z</time>
      </trkpt>
      <trkpt lat="46.25372" lon="5.48565">
        <ele>461.6</ele>
        <time>2022-05-11T13:33:10Z</time>
      </trkpt>
      <trkpt lat="46.25386" lon="5.48577">
        <ele>462</ele>
        <time>2022-05-11T13:33:13Z</time>
      </trkpt>
      <trkpt lat="46.25396" lon="5.48584">
        <ele>462.4</ele>
        <time>2022-05-11T13:33:15Z</time>
      </trkpt>
      <trkpt lat="46.25416" lon="5.48597">
        <ele>463</ele>
        <time>2022-05-11T13:33:19Z</time>
      </trkpt>
      <trkpt lat="46.25422" lon="5.48601">
        <ele>463</ele>
        <time>2022-05-11T13:33:20Z</time>
      </trkpt>
      <trkpt lat="46.25469" lon="5.48631">
        <ele>464</ele>
        <time>2022-05-11T13:33:29Z</time>
      </trkpt>
      <trkpt lat="46.25473" lon="5.48635">
        <ele>464</ele>
        <time>2022-05-11T13:33:30Z</time>
      </trkpt>
      <trkpt lat="46.25513" lon="5.48656">
        <ele>465.2</ele>
        <time>2022-05-11T13:33:38Z</time>
      </trkpt>
      <trkpt lat="46.25518" lon="5.48659">
        <ele>465.2</ele>
        <time>2022-05-11T13:33:39Z</time>
      </trkpt>
      <trkpt lat="46.2554" lon="5.48671">
        <ele>466.4</ele>
        <time>2022-05-11T13:33:43Z</time>
      </trkpt>
      <trkpt lat="46.25553" lon="5.48677">
        <ele>467.4</ele>
        <time>2022-05-11T13:33:46Z</time>
      </trkpt>
      <trkpt lat="46.25558" lon="5.4868">
        <ele>467.8</ele>
        <time>2022-05-11T13:33:47Z</time>
      </trkpt>
      <trkpt lat="46.25579" lon="5.48694">
        <ele>468.6</ele>
        <time>2022-05-11T13:33:51Z</time>
      </trkpt>
      <trkpt lat="46.25589" lon="5.48702">
        <ele>469.2</ele>
        <time>2022-05-11T13:33:53Z</time>
      </trkpt>
      <trkpt lat="46.25604" lon="5.48715">
        <ele>469.6</ele>
        <time>2022-05-11T13:33:56Z</time>
      </trkpt>
      <trkpt lat="46.25628" lon="5.48737">
        <ele>470</ele>
        <time>2022-05-11T13:34:01Z</time>
      </trkpt>
      <trkpt lat="46.2567" lon="5.48777">
        <ele>470.2</ele>
        <time>2022-05-11T13:34:10Z</time>
      </trkpt>
      <trkpt lat="46.2571" lon="5.48805">
        <ele>470.4</ele>
        <time>2022-05-11T13:34:17Z</time>
      </trkpt>
      <trkpt lat="46.25732" lon="5.48815">
        <ele>470</ele>
        <time>2022-05-11T13:34:20Z</time>
      </trkpt>
      <trkpt lat="46.2574" lon="5.48816">
        <ele>470</ele>
        <time>2022-05-11T13:34:21Z</time>
      </trkpt>
      <trkpt lat="46.25748" lon="5.48815">
        <ele>470</ele>
        <time>2022-05-11T13:34:22Z</time>
      </trkpt>
      <trkpt lat="46.25764" lon="5.48809">
        <ele>469.4</ele>
        <time>2022-05-11T13:34:24Z</time>
      </trkpt>
      <trkpt lat="46.25788" lon="5.48795">
        <ele>468.2</ele>
        <time>2022-05-11T13:34:27Z</time>
      </trkpt>
      <trkpt lat="46.25805" lon="5.48788">
        <ele>467.4</ele>
        <time>2022-05-11T13:34:29Z</time>
      </trkpt>
      <trkpt lat="46.25821" lon="5.48784">
        <ele>466.6</ele>
        <time>2022-05-11T13:34:31Z</time>
      </trkpt>
      <trkpt lat="46.25829" lon="5.48783">
        <ele>466.4</ele>
        <time>2022-05-11T13:34:32Z</time>
      </trkpt>
      <trkpt lat="46.25837" lon="5.48784">
        <ele>466</ele>
        <time>2022-05-11T13:34:33Z</time>
      </trkpt>
      <trkpt lat="46.25844" lon="5.48786">
        <ele>466</ele>
        <time>2022-05-11T13:34:34Z</time>
      </trkpt>
      <trkpt lat="46.25865" lon="5.48798">
        <ele>465.6</ele>
        <time>2022-05-11T13:34:37Z</time>
      </trkpt>
      <trkpt lat="46.25871" lon="5.48802">
        <ele>465.6</ele>
        <time>2022-05-11T13:34:38Z</time>
      </trkpt>
      <trkpt lat="46.25894" lon="5.48824">
        <ele>465.6</ele>
        <time>2022-05-11T13:34:42Z</time>
      </trkpt>
      <trkpt lat="46.25938" lon="5.48869">
        <ele>465.4</ele>
        <time>2022-05-11T13:34:50Z</time>
      </trkpt>
      <trkpt lat="46.25948" lon="5.4888">
        <ele>465.6</ele>
        <time>2022-05-11T13:34:52Z</time>
      </trkpt>
      <trkpt lat="46.25974" lon="5.48907">
        <ele>465.4</ele>
        <time>2022-05-11T13:34:57Z</time>
      </trkpt>
      <trkpt lat="46.2602" lon="5.48956">
        <ele>465.8</ele>
        <time>2022-05-11T13:35:06Z</time>
      </trkpt>
      <trkpt lat="46.26025" lon="5.48962">
        <ele>465.8</ele>
        <time>2022-05-11T13:35:07Z</time>
      </trkpt>
      <trkpt lat="46.26057" lon="5.48996">
        <ele>465.8</ele>
        <time>2022-05-11T13:35:13Z</time>
      </trkpt>
      <trkpt lat="46.26057" lon="5.48996">
        <ele>465.8</ele>
        <time>2022-05-11T13:35:14Z</time>
      </trkpt>
      <trkpt lat="46.26065" lon="5.49">
        <ele>465.8</ele>
        <time>2022-05-11T13:35:15Z</time>
      </trkpt>
      <trkpt lat="46.26081" lon="5.49002">
        <ele>466.4</ele>
        <time>2022-05-11T13:35:18Z</time>
      </trkpt>
      <trkpt lat="46.26086" lon="5.49002">
        <ele>466.6</ele>
        <time>2022-05-11T13:35:19Z</time>
      </trkpt>
      <trkpt lat="46.26106" lon="5.48996">
        <ele>467.8</ele>
        <time>2022-05-11T13:35:23Z</time>
      </trkpt>
      <trkpt lat="46.2611" lon="5.48995">
        <ele>468</ele>
        <time>2022-05-11T13:35:24Z</time>
      </trkpt>
      <trkpt lat="46.26127" lon="5.48995">
        <ele>468.8</ele>
        <time>2022-05-11T13:35:28Z</time>
      </trkpt>
      <trkpt lat="46.26131" lon="5.48994">
        <ele>469.2</ele>
        <time>2022-05-11T13:35:29Z</time>
      </trkpt>
      <trkpt lat="46.26144" lon="5.48992">
        <ele>469.6</ele>
        <time>2022-05-11T13:35:32Z</time>
      </trkpt>
      <trkpt lat="46.26153" lon="5.48991">
        <ele>470</ele>
        <time>2022-05-11T13:35:34Z</time>
      </trkpt>
      <trkpt lat="46.26157" lon="5.48992">
        <ele>470</ele>
        <time>2022-05-11T13:35:35Z</time>
      </trkpt>
      <trkpt lat="46.26161" lon="5.48992">
        <ele>470.2</ele>
        <time>2022-05-11T13:35:36Z</time>
      </trkpt>
      <trkpt lat="46.26179" lon="5.48994">
        <ele>470.4</ele>
        <time>2022-05-11T13:35:40Z</time>
      </trkpt>
      <trkpt lat="46.26215" lon="5.4901">
        <ele>470.6</ele>
        <time>2022-05-11T13:35:48Z</time>
      </trkpt>
      <trkpt lat="46.26244" lon="5.49024">
        <ele>470.6</ele>
        <time>2022-05-11T13:35:54Z</time>
      </trkpt>
      <trkpt lat="46.26283" lon="5.4904">
        <ele>471</ele>
        <time>2022-05-11T13:36:01Z</time>
      </trkpt>
      <trkpt lat="46.263" lon="5.49045">
        <ele>471.2</ele>
        <time>2022-05-11T13:36:04Z</time>
      </trkpt>
      <trkpt lat="46.26336" lon="5.49057">
        <ele>471.4</ele>
        <time>2022-05-11T13:36:10Z</time>
      </trkpt>
      <trkpt lat="46.26379" lon="5.49066">
        <ele>471.2</ele>
        <time>2022-05-11T13:36:17Z</time>
      </trkpt>
      <trkpt lat="46.26435" lon="5.49059">
        <ele>471.2</ele>
        <time>2022-05-11T13:36:26Z</time>
      </trkpt>
      <trkpt lat="46.2648" lon="5.49045">
        <ele>470.6</ele>
        <time>2022-05-11T13:36:34Z</time>
      </trkpt>
      <trkpt lat="46.26524" lon="5.49027">
        <ele>470.8</ele>
        <time>2022-05-11T13:36:42Z</time>
      </trkpt>
      <trkpt lat="46.26559" lon="5.49025">
        <ele>470.6</ele>
        <time>2022-05-11T13:36:48Z</time>
      </trkpt>
      <trkpt lat="46.26613" lon="5.49034">
        <ele>470.8</ele>
        <time>2022-05-11T13:36:57Z</time>
      </trkpt>
      <trkpt lat="46.26668" lon="5.49048">
        <ele>471</ele>
        <time>2022-05-11T13:37:06Z</time>
      </trkpt>
      <trkpt lat="46.26681" lon="5.49051">
        <ele>471</ele>
        <time>2022-05-11T13:37:08Z</time>
      </trkpt>
      <trkpt lat="46.26735" lon="5.49062">
        <ele>471.6</ele>
        <time>2022-05-11T13:37:17Z</time>
      </trkpt>
      <trkpt lat="46.26747" lon="5.49065">
        <ele>471.6</ele>
        <time>2022-05-11T13:37:19Z</time>
      </trkpt>
      <trkpt lat="46.26786" lon="5.49084">
        <ele>471.8</ele>
        <time>2022-05-11T13:37:26Z</time>
      </trkpt>
      <trkpt lat="46.2682" lon="5.49106">
        <ele>472.4</ele>
        <time>2022-05-11T13:37:32Z</time>
      </trkpt>
      <trkpt lat="46.26838" lon="5.49114">
        <ele>472.6</ele>
        <time>2022-05-11T13:37:35Z</time>
      </trkpt>
      <trkpt lat="46.26874" lon="5.49117">
        <ele>473</ele>
        <time>2022-05-11T13:37:41Z</time>
      </trkpt>
      <trkpt lat="46.26891" lon="5.49115">
        <ele>473.4</ele>
        <time>2022-05-11T13:37:44Z</time>
      </trkpt>
      <trkpt lat="46.26928" lon="5.49113">
        <ele>474.2</ele>
        <time>2022-05-11T13:37:50Z</time>
      </trkpt>
      <trkpt lat="46.26986" lon="5.49103">
        <ele>473.6</ele>
        <time>2022-05-11T13:37:59Z</time>
      </trkpt>
      <trkpt lat="46.26993" lon="5.49101">
        <ele>473.6</ele>
        <time>2022-05-11T13:38:00Z</time>
      </trkpt>
      <trkpt lat="46.27051" lon="5.49083">
        <ele>474</ele>
        <time>2022-05-11T13:38:09Z</time>
      </trkpt>
      <trkpt lat="46.27082" lon="5.49068">
        <ele>473.8</ele>
        <time>2022-05-11T13:38:14Z</time>
      </trkpt>
      <trkpt lat="46.27108" lon="5.49059">
        <ele>474</ele>
        <time>2022-05-11T13:38:18Z</time>
      </trkpt>
      <trkpt lat="46.27133" lon="5.49052">
        <ele>474.4</ele>
        <time>2022-05-11T13:38:22Z</time>
      </trkpt>
      <trkpt lat="46.27162" lon="5.49046">
        <ele>474.8</ele>
        <time>2022-05-11T13:38:27Z</time>
      </trkpt>
      <trkpt lat="46.27219" lon="5.49043">
        <ele>475</ele>
        <time>2022-05-11T13:38:36Z</time>
      </trkpt>
      <trkpt lat="46.27226" lon="5.49043">
        <ele>474.8</ele>
        <time>2022-05-11T13:38:37Z</time>
      </trkpt>
      <trkpt lat="46.27283" lon="5.49041">
        <ele>473.8</ele>
        <time>2022-05-11T13:38:45Z</time>
      </trkpt>
      <trkpt lat="46.2729" lon="5.49041">
        <ele>473.6</ele>
        <time>2022-05-11T13:38:46Z</time>
      </trkpt>
      <trkpt lat="46.27345" lon="5.49034">
        <ele>473.4</ele>
        <time>2022-05-11T13:38:54Z</time>
      </trkpt>
      <trkpt lat="46.2739" lon="5.49023">
        <ele>473.4</ele>
        <time>2022-05-11T13:39:00Z</time>
      </trkpt>
      <trkpt lat="46.27398" lon="5.49018">
        <ele>473.2</ele>
        <time>2022-05-11T13:39:01Z</time>
      </trkpt>
      <trkpt lat="46.2742" lon="5.48998">
        <ele>472.6</ele>
        <time>2022-05-11T13:39:04Z</time>
      </trkpt>
      <trkpt lat="46.27428" lon="5.4899">
        <ele>472.2</ele>
        <time>2022-05-11T13:39:05Z</time>
      </trkpt>
      <trkpt lat="46.27436" lon="5.48984">
        <ele>471.8</ele>
        <time>2022-05-11T13:39:06Z</time>
      </trkpt>
      <trkpt lat="46.27453" lon="5.48974">
        <ele>471.2</ele>
        <time>2022-05-11T13:39:08Z</time>
      </trkpt>
      <trkpt lat="46.27462" lon="5.4897">
        <ele>471</ele>
        <time>2022-05-11T13:39:09Z</time>
      </trkpt>
      <trkpt lat="46.27512" lon="5.48954">
        <ele>470</ele>
        <time>2022-05-11T13:39:15Z</time>
      </trkpt>
      <trkpt lat="46.27556" lon="5.48949">
        <ele>469.6</ele>
        <time>2022-05-11T13:39:21Z</time>
      </trkpt>
      <trkpt lat="46.27592" lon="5.48943">
        <ele>469.8</ele>
        <time>2022-05-11T13:39:27Z</time>
      </trkpt>
      <trkpt lat="46.27619" lon="5.48934">
        <ele>470.2</ele>
        <time>2022-05-11T13:39:32Z</time>
      </trkpt>
      <trkpt lat="46.2763" lon="5.4893">
        <ele>470.4</ele>
        <time>2022-05-11T13:39:34Z</time>
      </trkpt>
      <trkpt lat="46.27647" lon="5.48928">
        <ele>470.4</ele>
        <time>2022-05-11T13:39:37Z</time>
      </trkpt>
      <trkpt lat="46.27675" lon="5.48928">
        <ele>470.8</ele>
        <time>2022-05-11T13:39:43Z</time>
      </trkpt>
      <trkpt lat="46.2768" lon="5.48923">
        <ele>471.2</ele>
        <time>2022-05-11T13:39:45Z</time>
      </trkpt>
      <trkpt lat="46.27681" lon="5.4892">
        <ele>471.4</ele>
        <time>2022-05-11T13:39:46Z</time>
      </trkpt>
      <trkpt lat="46.27676" lon="5.48902">
        <ele>471.6</ele>
        <time>2022-05-11T13:39:50Z</time>
      </trkpt>
      <trkpt lat="46.27676" lon="5.48874">
        <ele>471.2</ele>
        <time>2022-05-11T13:39:55Z</time>
      </trkpt>
      <trkpt lat="46.2768" lon="5.48864">
        <ele>471</ele>
        <time>2022-05-11T13:39:57Z</time>
      </trkpt>
      <trkpt lat="46.2769" lon="5.48847">
        <ele>471</ele>
        <time>2022-05-11T13:40:00Z</time>
      </trkpt>
      <trkpt lat="46.27711" lon="5.48811">
        <ele>471.2</ele>
        <time>2022-05-11T13:40:06Z</time>
      </trkpt>
      <trkpt lat="46.27717" lon="5.48795">
        <ele>471.4</ele>
        <time>2022-05-11T13:40:08Z</time>
      </trkpt>
      <trkpt lat="46.27721" lon="5.48777">
        <ele>471.4</ele>
        <time>2022-05-11T13:40:10Z</time>
      </trkpt>
      <trkpt lat="46.27724" lon="5.48727">
        <ele>471.6</ele>
        <time>2022-05-11T13:40:15Z</time>
      </trkpt>
      <trkpt lat="46.27726" lon="5.48641">
        <ele>471.6</ele>
        <time>2022-05-11T13:40:24Z</time>
      </trkpt>
      <trkpt lat="46.27732" lon="5.48575">
        <ele>471.8</ele>
        <time>2022-05-11T13:40:32Z</time>
      </trkpt>
      <trkpt lat="46.27733" lon="5.48536">
        <ele>472</ele>
        <time>2022-05-11T13:40:37Z</time>
      </trkpt>
      <trkpt lat="46.27732" lon="5.48529">
        <ele>472</ele>
        <time>2022-05-11T13:40:38Z</time>
      </trkpt>
      <trkpt lat="46.2773" lon="5.48515">
        <ele>472</ele>
        <time>2022-05-11T13:40:40Z</time>
      </trkpt>
      <trkpt lat="46.27725" lon="5.48495">
        <ele>472.2</ele>
        <time>2022-05-11T13:40:43Z</time>
      </trkpt>
      <trkpt lat="46.2772" lon="5.48483">
        <ele>472.6</ele>
        <time>2022-05-11T13:40:45Z</time>
      </trkpt>
      <trkpt lat="46.27714" lon="5.48466">
        <ele>473</ele>
        <time>2022-05-11T13:40:48Z</time>
      </trkpt>
      <trkpt lat="46.27712" lon="5.48453">
        <ele>473.4</ele>
        <time>2022-05-11T13:40:50Z</time>
      </trkpt>
      <trkpt lat="46.27711" lon="5.48446">
        <ele>473.4</ele>
        <time>2022-05-11T13:40:51Z</time>
      </trkpt>
      <trkpt lat="46.27712" lon="5.48432">
        <ele>473.6</ele>
        <time>2022-05-11T13:40:53Z</time>
      </trkpt>
      <trkpt lat="46.27717" lon="5.48397">
        <ele>474</ele>
        <time>2022-05-11T13:40:58Z</time>
      </trkpt>
      <trkpt lat="46.27723" lon="5.48349">
        <ele>474.2</ele>
        <time>2022-05-11T13:41:06Z</time>
      </trkpt>
      <trkpt lat="46.27736" lon="5.48317">
        <ele>474.6</ele>
        <time>2022-05-11T13:41:12Z</time>
      </trkpt>
      <trkpt lat="46.27739" lon="5.48313">
        <ele>474.6</ele>
        <time>2022-05-11T13:41:14Z</time>
      </trkpt>
      <trkpt lat="46.27744" lon="5.48309">
        <ele>474.6</ele>
        <time>2022-05-11T13:41:15Z</time>
      </trkpt>
      <trkpt lat="46.27749" lon="5.48307">
        <ele>474.8</ele>
        <time>2022-05-11T13:41:16Z</time>
      </trkpt>
      <trkpt lat="46.27753" lon="5.48307">
        <ele>474.8</ele>
        <time>2022-05-11T13:41:17Z</time>
      </trkpt>
      <trkpt lat="46.27769" lon="5.48309">
        <ele>474.8</ele>
        <time>2022-05-11T13:41:20Z</time>
      </trkpt>
      <trkpt lat="46.27805" lon="5.4832">
        <ele>474.6</ele>
        <time>2022-05-11T13:41:26Z</time>
      </trkpt>
      <trkpt lat="46.27846" lon="5.48333">
        <ele>473.2</ele>
        <time>2022-05-11T13:41:32Z</time>
      </trkpt>
      <trkpt lat="46.27853" lon="5.48335">
        <ele>473</ele>
        <time>2022-05-11T13:41:33Z</time>
      </trkpt>
      <trkpt lat="46.2789" lon="5.48346">
        <ele>472.8</ele>
        <time>2022-05-11T13:41:39Z</time>
      </trkpt>
      <trkpt lat="46.27921" lon="5.48349">
        <ele>473</ele>
        <time>2022-05-11T13:41:45Z</time>
      </trkpt>
      <trkpt lat="46.27961" lon="5.48354">
        <ele>473.8</ele>
        <time>2022-05-11T13:41:52Z</time>
      </trkpt>
      <trkpt lat="46.2799" lon="5.48365">
        <ele>474.2</ele>
        <time>2022-05-11T13:41:57Z</time>
      </trkpt>
      <trkpt lat="46.28027" lon="5.48392">
        <ele>474.2</ele>
        <time>2022-05-11T13:42:04Z</time>
      </trkpt>
      <trkpt lat="46.28065" lon="5.48407">
        <ele>474.2</ele>
        <time>2022-05-11T13:42:11Z</time>
      </trkpt>
      <trkpt lat="46.28107" lon="5.48417">
        <ele>474.6</ele>
        <time>2022-05-11T13:42:19Z</time>
      </trkpt>
      <trkpt lat="46.28122" lon="5.4842">
        <ele>474.6</ele>
        <time>2022-05-11T13:42:21Z</time>
      </trkpt>
      <trkpt lat="46.28174" lon="5.4842">
        <ele>474.8</ele>
        <time>2022-05-11T13:42:30Z</time>
      </trkpt>
      <trkpt lat="46.28221" lon="5.48416">
        <ele>474.8</ele>
        <time>2022-05-11T13:42:37Z</time>
      </trkpt>
      <trkpt lat="46.2828" lon="5.48411">
        <ele>473.6</ele>
        <time>2022-05-11T13:42:46Z</time>
      </trkpt>
      <trkpt lat="46.28286" lon="5.48411">
        <ele>473.6</ele>
        <time>2022-05-11T13:42:47Z</time>
      </trkpt>
      <trkpt lat="46.28293" lon="5.48411">
        <ele>473.6</ele>
        <time>2022-05-11T13:42:48Z</time>
      </trkpt>
      <trkpt lat="46.28348" lon="5.48414">
        <ele>472.8</ele>
        <time>2022-05-11T13:42:56Z</time>
      </trkpt>
      <trkpt lat="46.28384" lon="5.48422">
        <ele>472.4</ele>
        <time>2022-05-11T13:43:01Z</time>
      </trkpt>
      <trkpt lat="46.28392" lon="5.48424">
        <ele>472.4</ele>
        <time>2022-05-11T13:43:02Z</time>
      </trkpt>
      <trkpt lat="46.28438" lon="5.48427">
        <ele>471.2</ele>
        <time>2022-05-11T13:43:08Z</time>
      </trkpt>
      <trkpt lat="46.28446" lon="5.48427">
        <ele>471.2</ele>
        <time>2022-05-11T13:43:09Z</time>
      </trkpt>
      <trkpt lat="46.28504" lon="5.48422">
        <ele>471</ele>
        <time>2022-05-11T13:43:17Z</time>
      </trkpt>
      <trkpt lat="46.28549" lon="5.48413">
        <ele>471</ele>
        <time>2022-05-11T13:43:23Z</time>
      </trkpt>
      <trkpt lat="46.28556" lon="5.48412">
        <ele>471</ele>
        <time>2022-05-11T13:43:24Z</time>
      </trkpt>
      <trkpt lat="46.28606" lon="5.48399">
        <ele>471.2</ele>
        <time>2022-05-11T13:43:31Z</time>
      </trkpt>
      <trkpt lat="46.28652" lon="5.48387">
        <ele>471.4</ele>
        <time>2022-05-11T13:43:38Z</time>
      </trkpt>
      <trkpt lat="46.28692" lon="5.48378">
        <ele>471.4</ele>
        <time>2022-05-11T13:43:45Z</time>
      </trkpt>
      <trkpt lat="46.28701" lon="5.48376">
        <ele>471.4</ele>
        <time>2022-05-11T13:43:46Z</time>
      </trkpt>
      <trkpt lat="46.28743" lon="5.48369">
        <ele>471.6</ele>
        <time>2022-05-11T13:43:53Z</time>
      </trkpt>
      <trkpt lat="46.28794" lon="5.48365">
        <ele>471.4</ele>
        <time>2022-05-11T13:44:01Z</time>
      </trkpt>
      <trkpt lat="46.2885" lon="5.48365">
        <ele>471.4</ele>
        <time>2022-05-11T13:44:10Z</time>
      </trkpt>
      <trkpt lat="46.28894" lon="5.48366">
        <ele>471.4</ele>
        <time>2022-05-11T13:44:17Z</time>
      </trkpt>
      <trkpt lat="46.28945" lon="5.48374">
        <ele>471.2</ele>
        <time>2022-05-11T13:44:25Z</time>
      </trkpt>
      <trkpt lat="46.28994" lon="5.48397">
        <ele>471.2</ele>
        <time>2022-05-11T13:44:33Z</time>
      </trkpt>
      <trkpt lat="46.29043" lon="5.48416">
        <ele>471.4</ele>
        <time>2022-05-11T13:44:41Z</time>
      </trkpt>
      <trkpt lat="46.29052" lon="5.48414">
        <ele>471.4</ele>
        <time>2022-05-11T13:44:42Z</time>
      </trkpt>
      <trkpt lat="46.29057" lon="5.48411">
        <ele>471.4</ele>
        <time>2022-05-11T13:44:43Z</time>
      </trkpt>
      <trkpt lat="46.29062" lon="5.48405">
        <ele>471.4</ele>
        <time>2022-05-11T13:44:45Z</time>
      </trkpt>
      <trkpt lat="46.29066" lon="5.48396">
        <ele>471.4</ele>
        <time>2022-05-11T13:44:46Z</time>
      </trkpt>
      <trkpt lat="46.29068" lon="5.48387">
        <ele>471.4</ele>
        <time>2022-05-11T13:44:47Z</time>
      </trkpt>
      <trkpt lat="46.29073" lon="5.48353">
        <ele>472</ele>
        <time>2022-05-11T13:44:51Z</time>
      </trkpt>
      <trkpt lat="46.29079" lon="5.48311">
        <ele>472.8</ele>
        <time>2022-05-11T13:44:56Z</time>
      </trkpt>
      <trkpt lat="46.29086" lon="5.48271">
        <ele>473</ele>
        <time>2022-05-11T13:45:01Z</time>
      </trkpt>
      <trkpt lat="46.291" lon="5.4822">
        <ele>473.2</ele>
        <time>2022-05-11T13:45:08Z</time>
      </trkpt>
      <trkpt lat="46.29112" lon="5.48204">
        <ele>473.2</ele>
        <time>2022-05-11T13:45:11Z</time>
      </trkpt>
      <trkpt lat="46.29116" lon="5.48201">
        <ele>473.2</ele>
        <time>2022-05-11T13:45:12Z</time>
      </trkpt>
      <trkpt lat="46.29142" lon="5.48188">
        <ele>473.8</ele>
        <time>2022-05-11T13:45:17Z</time>
      </trkpt>
      <trkpt lat="46.29156" lon="5.4818">
        <ele>473.8</ele>
        <time>2022-05-11T13:45:20Z</time>
      </trkpt>
      <trkpt lat="46.29177" lon="5.48168">
        <ele>474.6</ele>
        <time>2022-05-11T13:45:25Z</time>
      </trkpt>
      <trkpt lat="46.29181" lon="5.48165">
        <ele>474.8</ele>
        <time>2022-05-11T13:45:26Z</time>
      </trkpt>
      <trkpt lat="46.292" lon="5.48151">
        <ele>476.2</ele>
        <time>2022-05-11T13:45:31Z</time>
      </trkpt>
      <trkpt lat="46.29204" lon="5.48148">
        <ele>476.4</ele>
        <time>2022-05-11T13:45:32Z</time>
      </trkpt>
      <trkpt lat="46.29211" lon="5.48141">
        <ele>477</ele>
        <time>2022-05-11T13:45:34Z</time>
      </trkpt>
      <trkpt lat="46.29214" lon="5.48138">
        <ele>477.4</ele>
        <time>2022-05-11T13:45:35Z</time>
      </trkpt>
      <trkpt lat="46.29216" lon="5.48134">
        <ele>477.4</ele>
        <time>2022-05-11T13:45:36Z</time>
      </trkpt>
      <trkpt lat="46.29221" lon="5.48125">
        <ele>478</ele>
        <time>2022-05-11T13:45:38Z</time>
      </trkpt>
      <trkpt lat="46.29223" lon="5.4812">
        <ele>478.4</ele>
        <time>2022-05-11T13:45:39Z</time>
      </trkpt>
      <trkpt lat="46.29227" lon="5.4811">
        <ele>479.8</ele>
        <time>2022-05-11T13:45:42Z</time>
      </trkpt>
      <trkpt lat="46.29229" lon="5.48108">
        <ele>480</ele>
        <time>2022-05-11T13:45:43Z</time>
      </trkpt>
      <trkpt lat="46.2924" lon="5.48101">
        <ele>480.8</ele>
        <time>2022-05-11T13:45:47Z</time>
      </trkpt>
      <trkpt lat="46.29243" lon="5.48101">
        <ele>480.8</ele>
        <time>2022-05-11T13:45:48Z</time>
      </trkpt>
      <trkpt lat="46.29266" lon="5.48095">
        <ele>480.8</ele>
        <time>2022-05-11T13:45:53Z</time>
      </trkpt>
      <trkpt lat="46.29284" lon="5.48088">
        <ele>480.4</ele>
        <time>2022-05-11T13:45:56Z</time>
      </trkpt>
      <trkpt lat="46.29296" lon="5.48089">
        <ele>479.6</ele>
        <time>2022-05-11T13:45:58Z</time>
      </trkpt>
      <trkpt lat="46.29308" lon="5.48095">
        <ele>479.2</ele>
        <time>2022-05-11T13:46:00Z</time>
      </trkpt>
      <trkpt lat="46.29317" lon="5.48107">
        <ele>478.8</ele>
        <time>2022-05-11T13:46:02Z</time>
      </trkpt>
      <trkpt lat="46.29331" lon="5.48127">
        <ele>478.6</ele>
        <time>2022-05-11T13:46:05Z</time>
      </trkpt>
      <trkpt lat="46.2934" lon="5.48142">
        <ele>478.4</ele>
        <time>2022-05-11T13:46:07Z</time>
      </trkpt>
      <trkpt lat="46.2935" lon="5.48156">
        <ele>478.2</ele>
        <time>2022-05-11T13:46:09Z</time>
      </trkpt>
      <trkpt lat="46.29369" lon="5.48183">
        <ele>477.8</ele>
        <time>2022-05-11T13:46:13Z</time>
      </trkpt>
      <trkpt lat="46.29398" lon="5.48222">
        <ele>477.6</ele>
        <time>2022-05-11T13:46:19Z</time>
      </trkpt>
      <trkpt lat="46.29426" lon="5.48249">
        <ele>477.4</ele>
        <time>2022-05-11T13:46:24Z</time>
      </trkpt>
      <trkpt lat="46.29438" lon="5.48259">
        <ele>477.2</ele>
        <time>2022-05-11T13:46:26Z</time>
      </trkpt>
      <trkpt lat="46.29489" lon="5.48293">
        <ele>477</ele>
        <time>2022-05-11T13:46:34Z</time>
      </trkpt>
      <trkpt lat="46.29528" lon="5.48312">
        <ele>476.4</ele>
        <time>2022-05-11T13:46:40Z</time>
      </trkpt>
      <trkpt lat="46.29551" lon="5.48323">
        <ele>476.2</ele>
        <time>2022-05-11T13:46:44Z</time>
      </trkpt>
      <trkpt lat="46.29607" lon="5.48354">
        <ele>476.6</ele>
        <time>2022-05-11T13:46:53Z</time>
      </trkpt>
      <trkpt lat="46.29646" lon="5.48372">
        <ele>477.6</ele>
        <time>2022-05-11T13:47:00Z</time>
      </trkpt>
      <trkpt lat="46.29657" lon="5.48378">
        <ele>477.8</ele>
        <time>2022-05-11T13:47:02Z</time>
      </trkpt>
      <trkpt lat="46.29699" lon="5.48403">
        <ele>478.4</ele>
        <time>2022-05-11T13:47:10Z</time>
      </trkpt>
      <trkpt lat="46.29732" lon="5.48425">
        <ele>478.4</ele>
        <time>2022-05-11T13:47:16Z</time>
      </trkpt>
      <trkpt lat="46.29737" lon="5.48431">
        <ele>478.4</ele>
        <time>2022-05-11T13:47:17Z</time>
      </trkpt>
      <trkpt lat="46.29761" lon="5.48468">
        <ele>478.6</ele>
        <time>2022-05-11T13:47:23Z</time>
      </trkpt>
      <trkpt lat="46.29765" lon="5.48474">
        <ele>478.6</ele>
        <time>2022-05-11T13:47:24Z</time>
      </trkpt>
      <trkpt lat="46.2977" lon="5.48479">
        <ele>478.6</ele>
        <time>2022-05-11T13:47:25Z</time>
      </trkpt>
      <trkpt lat="46.29791" lon="5.48497">
        <ele>478.8</ele>
        <time>2022-05-11T13:47:29Z</time>
      </trkpt>
      <trkpt lat="46.29842" lon="5.48526">
        <ele>478.4</ele>
        <time>2022-05-11T13:47:38Z</time>
      </trkpt>
      <trkpt lat="46.29848" lon="5.48527">
        <ele>478.2</ele>
        <time>2022-05-11T13:47:39Z</time>
      </trkpt>
      <trkpt lat="46.29861" lon="5.48528">
        <ele>478</ele>
        <time>2022-05-11T13:47:41Z</time>
      </trkpt>
      <trkpt lat="46.29877" lon="5.48524">
        <ele>478</ele>
        <time>2022-05-11T13:47:43Z</time>
      </trkpt>
      <trkpt lat="46.29926" lon="5.48503">
        <ele>478.2</ele>
        <time>2022-05-11T13:47:52Z</time>
      </trkpt>
      <trkpt lat="46.29964" lon="5.48477">
        <ele>478.8</ele>
        <time>2022-05-11T13:47:59Z</time>
      </trkpt>
      <trkpt lat="46.30009" lon="5.48433">
        <ele>479.4</ele>
        <time>2022-05-11T13:48:08Z</time>
      </trkpt>
      <trkpt lat="46.30041" lon="5.48412">
        <ele>479.6</ele>
        <time>2022-05-11T13:48:14Z</time>
      </trkpt>
      <trkpt lat="46.30047" lon="5.4841">
        <ele>479.8</ele>
        <time>2022-05-11T13:48:15Z</time>
      </trkpt>
      <trkpt lat="46.30073" lon="5.48407">
        <ele>480.4</ele>
        <time>2022-05-11T13:48:20Z</time>
      </trkpt>
      <trkpt lat="46.30078" lon="5.48407">
        <ele>480.8</ele>
        <time>2022-05-11T13:48:21Z</time>
      </trkpt>
      <trkpt lat="46.30108" lon="5.48409">
        <ele>481.8</ele>
        <time>2022-05-11T13:48:26Z</time>
      </trkpt>
      <trkpt lat="46.30114" lon="5.4841">
        <ele>482</ele>
        <time>2022-05-11T13:48:27Z</time>
      </trkpt>
      <trkpt lat="46.30165" lon="5.48408">
        <ele>481.8</ele>
        <time>2022-05-11T13:48:35Z</time>
      </trkpt>
      <trkpt lat="46.30221" lon="5.48404">
        <ele>481.8</ele>
        <time>2022-05-11T13:48:44Z</time>
      </trkpt>
      <trkpt lat="46.30233" lon="5.48408">
        <ele>481.8</ele>
        <time>2022-05-11T13:48:46Z</time>
      </trkpt>
      <trkpt lat="46.30244" lon="5.48415">
        <ele>482</ele>
        <time>2022-05-11T13:48:48Z</time>
      </trkpt>
      <trkpt lat="46.30262" lon="5.4843">
        <ele>483</ele>
        <time>2022-05-11T13:48:52Z</time>
      </trkpt>
      <trkpt lat="46.30267" lon="5.48433">
        <ele>483.4</ele>
        <time>2022-05-11T13:48:53Z</time>
      </trkpt>
      <trkpt lat="46.30282" lon="5.4844">
        <ele>484.4</ele>
        <time>2022-05-11T13:48:56Z</time>
      </trkpt>
      <trkpt lat="46.30298" lon="5.48444">
        <ele>485.2</ele>
        <time>2022-05-11T13:48:59Z</time>
      </trkpt>
      <trkpt lat="46.30328" lon="5.48455">
        <ele>485.6</ele>
        <time>2022-05-11T13:49:04Z</time>
      </trkpt>
      <trkpt lat="46.30357" lon="5.48478">
        <ele>485.4</ele>
        <time>2022-05-11T13:49:09Z</time>
      </trkpt>
      <trkpt lat="46.3038" lon="5.48505">
        <ele>485.8</ele>
        <time>2022-05-11T13:49:13Z</time>
      </trkpt>
      <trkpt lat="46.30399" lon="5.48521">
        <ele>485.8</ele>
        <time>2022-05-11T13:49:17Z</time>
      </trkpt>
      <trkpt lat="46.30443" lon="5.48543">
        <ele>485.2</ele>
        <time>2022-05-11T13:49:24Z</time>
      </trkpt>
      <trkpt lat="46.30489" lon="5.48553">
        <ele>484.8</ele>
        <time>2022-05-11T13:49:31Z</time>
      </trkpt>
      <trkpt lat="46.30511" lon="5.48555">
        <ele>484.4</ele>
        <time>2022-05-11T13:49:34Z</time>
      </trkpt>
      <trkpt lat="46.3054" lon="5.48556">
        <ele>484</ele>
        <time>2022-05-11T13:49:38Z</time>
      </trkpt>
      <trkpt lat="46.30594" lon="5.48549">
        <ele>484</ele>
        <time>2022-05-11T13:49:46Z</time>
      </trkpt>
      <trkpt lat="46.30651" lon="5.48531">
        <ele>484.2</ele>
        <time>2022-05-11T13:49:55Z</time>
      </trkpt>
      <trkpt lat="46.30683" lon="5.48524">
        <ele>484.4</ele>
        <time>2022-05-11T13:50:00Z</time>
      </trkpt>
      <trkpt lat="46.30697" lon="5.48525">
        <ele>484.4</ele>
        <time>2022-05-11T13:50:02Z</time>
      </trkpt>
      <trkpt lat="46.30732" lon="5.48534">
        <ele>484.6</ele>
        <time>2022-05-11T13:50:07Z</time>
      </trkpt>
      <trkpt lat="46.30777" lon="5.4855">
        <ele>484.6</ele>
        <time>2022-05-11T13:50:14Z</time>
      </trkpt>
      <trkpt lat="46.30819" lon="5.48557">
        <ele>485</ele>
        <time>2022-05-11T13:50:20Z</time>
      </trkpt>
      <trkpt lat="46.30852" lon="5.48559">
        <ele>484.6</ele>
        <time>2022-05-11T13:50:25Z</time>
      </trkpt>
      <trkpt lat="46.3086" lon="5.48557">
        <ele>484.6</ele>
        <time>2022-05-11T13:50:26Z</time>
      </trkpt>
      <trkpt lat="46.30865" lon="5.48554">
        <ele>484.6</ele>
        <time>2022-05-11T13:50:27Z</time>
      </trkpt>
      <trkpt lat="46.30876" lon="5.48543">
        <ele>484.6</ele>
        <time>2022-05-11T13:50:29Z</time>
      </trkpt>
      <trkpt lat="46.30883" lon="5.48526">
        <ele>484.2</ele>
        <time>2022-05-11T13:50:31Z</time>
      </trkpt>
      <trkpt lat="46.30885" lon="5.48517">
        <ele>484.2</ele>
        <time>2022-05-11T13:50:32Z</time>
      </trkpt>
      <trkpt lat="46.30908" lon="5.48442">
        <ele>484.2</ele>
        <time>2022-05-11T13:50:40Z</time>
      </trkpt>
      <trkpt lat="46.30912" lon="5.48434">
        <ele>484.2</ele>
        <time>2022-05-11T13:50:41Z</time>
      </trkpt>
      <trkpt lat="46.3094" lon="5.48372">
        <ele>484.4</ele>
        <time>2022-05-11T13:50:49Z</time>
      </trkpt>
      <trkpt lat="46.3096" lon="5.48317">
        <ele>485</ele>
        <time>2022-05-11T13:50:56Z</time>
      </trkpt>
      <trkpt lat="46.30979" lon="5.48283">
        <ele>485.4</ele>
        <time>2022-05-11T13:51:01Z</time>
      </trkpt>
      <trkpt lat="46.30989" lon="5.48274">
        <ele>485.4</ele>
        <time>2022-05-11T13:51:03Z</time>
      </trkpt>
      <trkpt lat="46.31001" lon="5.48268">
        <ele>485.6</ele>
        <time>2022-05-11T13:51:05Z</time>
      </trkpt>
      <trkpt lat="46.3102" lon="5.48266">
        <ele>486</ele>
        <time>2022-05-11T13:51:08Z</time>
      </trkpt>
      <trkpt lat="46.31026" lon="5.48267">
        <ele>486</ele>
        <time>2022-05-11T13:51:09Z</time>
      </trkpt>
      <trkpt lat="46.31046" lon="5.48275">
        <ele>486.6</ele>
        <time>2022-05-11T13:51:12Z</time>
      </trkpt>
      <trkpt lat="46.31051" lon="5.48276">
        <ele>486.6</ele>
        <time>2022-05-11T13:51:13Z</time>
      </trkpt>
      <trkpt lat="46.31051" lon="5.48276">
        <ele>486.8</ele>
        <time>2022-05-11T13:51:14Z</time>
      </trkpt>
      <trkpt lat="46.31076" lon="5.48282">
        <ele>487.4</ele>
        <time>2022-05-11T13:51:18Z</time>
      </trkpt>
      <trkpt lat="46.31082" lon="5.48282">
        <ele>487.6</ele>
        <time>2022-05-11T13:51:19Z</time>
      </trkpt>
      <trkpt lat="46.31088" lon="5.48281">
        <ele>487.6</ele>
        <time>2022-05-11T13:51:20Z</time>
      </trkpt>
      <trkpt lat="46.31122" lon="5.48264">
        <ele>488</ele>
        <time>2022-05-11T13:51:26Z</time>
      </trkpt>
      <trkpt lat="46.31161" lon="5.48234">
        <ele>487.8</ele>
        <time>2022-05-11T13:51:33Z</time>
      </trkpt>
      <trkpt lat="46.31191" lon="5.48219">
        <ele>487.8</ele>
        <time>2022-05-11T13:51:38Z</time>
      </trkpt>
      <trkpt lat="46.31218" lon="5.48221">
        <ele>487.8</ele>
        <time>2022-05-11T13:51:42Z</time>
      </trkpt>
      <trkpt lat="46.31267" lon="5.4824">
        <ele>488.2</ele>
        <time>2022-05-11T13:51:50Z</time>
      </trkpt>
      <trkpt lat="46.31312" lon="5.48264">
        <ele>488.4</ele>
        <time>2022-05-11T13:51:58Z</time>
      </trkpt>
      <trkpt lat="46.31322" lon="5.48272">
        <ele>488.6</ele>
        <time>2022-05-11T13:52:00Z</time>
      </trkpt>
      <trkpt lat="46.31327" lon="5.48278">
        <ele>489</ele>
        <time>2022-05-11T13:52:01Z</time>
      </trkpt>
      <trkpt lat="46.31336" lon="5.4829">
        <ele>489.2</ele>
        <time>2022-05-11T13:52:03Z</time>
      </trkpt>
      <trkpt lat="46.31364" lon="5.4834">
        <ele>489.4</ele>
        <time>2022-05-11T13:52:10Z</time>
      </trkpt>
      <trkpt lat="46.3139" lon="5.48389">
        <ele>490</ele>
        <time>2022-05-11T13:52:17Z</time>
      </trkpt>
      <trkpt lat="46.31394" lon="5.48396">
        <ele>490</ele>
        <time>2022-05-11T13:52:18Z</time>
      </trkpt>
      <trkpt lat="46.31423" lon="5.48449">
        <ele>490.6</ele>
        <time>2022-05-11T13:52:26Z</time>
      </trkpt>
      <trkpt lat="46.31456" lon="5.48509">
        <ele>491</ele>
        <time>2022-05-11T13:52:35Z</time>
      </trkpt>
      <trkpt lat="46.31469" lon="5.48526">
        <ele>491.6</ele>
        <time>2022-05-11T13:52:38Z</time>
      </trkpt>
      <trkpt lat="46.31484" lon="5.48539">
        <ele>492.2</ele>
        <time>2022-05-11T13:52:41Z</time>
      </trkpt>
      <trkpt lat="46.31521" lon="5.48559">
        <ele>492.6</ele>
        <time>2022-05-11T13:52:48Z</time>
      </trkpt>
      <trkpt lat="46.31572" lon="5.48577">
        <ele>492.4</ele>
        <time>2022-05-11T13:52:57Z</time>
      </trkpt>
      <trkpt lat="46.31629" lon="5.486">
        <ele>492.4</ele>
        <time>2022-05-11T13:53:07Z</time>
      </trkpt>
      <trkpt lat="46.31644" lon="5.48603">
        <ele>492.6</ele>
        <time>2022-05-11T13:53:09Z</time>
      </trkpt>
      <trkpt lat="46.31669" lon="5.48603">
        <ele>493.2</ele>
        <time>2022-05-11T13:53:14Z</time>
      </trkpt>
      <trkpt lat="46.31675" lon="5.48603">
        <ele>493.4</ele>
        <time>2022-05-11T13:53:15Z</time>
      </trkpt>
      <trkpt lat="46.31708" lon="5.48605">
        <ele>494.4</ele>
        <time>2022-05-11T13:53:21Z</time>
      </trkpt>
      <trkpt lat="46.31725" lon="5.48607">
        <ele>494.8</ele>
        <time>2022-05-11T13:53:24Z</time>
      </trkpt>
      <trkpt lat="46.31747" lon="5.4861">
        <ele>495</ele>
        <time>2022-05-11T13:53:28Z</time>
      </trkpt>
      <trkpt lat="46.31769" lon="5.48615">
        <ele>495.4</ele>
        <time>2022-05-11T13:53:32Z</time>
      </trkpt>
      <trkpt lat="46.31774" lon="5.48617">
        <ele>495.6</ele>
        <time>2022-05-11T13:53:33Z</time>
      </trkpt>
      <trkpt lat="46.31804" lon="5.48632">
        <ele>496.6</ele>
        <time>2022-05-11T13:53:39Z</time>
      </trkpt>
      <trkpt lat="46.31814" lon="5.48637">
        <ele>496.6</ele>
        <time>2022-05-11T13:53:41Z</time>
      </trkpt>
      <trkpt lat="46.31845" lon="5.48655">
        <ele>496.6</ele>
        <time>2022-05-11T13:53:46Z</time>
      </trkpt>
      <trkpt lat="46.31893" lon="5.48666">
        <ele>496</ele>
        <time>2022-05-11T13:53:53Z</time>
      </trkpt>
      <trkpt lat="46.3192" lon="5.48671">
        <ele>495.4</ele>
        <time>2022-05-11T13:53:57Z</time>
      </trkpt>
      <trkpt lat="46.31946" lon="5.48676">
        <ele>495.4</ele>
        <time>2022-05-11T13:54:01Z</time>
      </trkpt>
      <trkpt lat="46.32003" lon="5.48674">
        <ele>495.2</ele>
        <time>2022-05-11T13:54:09Z</time>
      </trkpt>
      <trkpt lat="46.32057" lon="5.48671">
        <ele>496</ele>
        <time>2022-05-11T13:54:18Z</time>
      </trkpt>
      <trkpt lat="46.32076" lon="5.48669">
        <ele>496.2</ele>
        <time>2022-05-11T13:54:21Z</time>
      </trkpt>
      <trkpt lat="46.32096" lon="5.48669">
        <ele>496.4</ele>
        <time>2022-05-11T13:54:24Z</time>
      </trkpt>
      <trkpt lat="46.32115" lon="5.48669">
        <ele>496.6</ele>
        <time>2022-05-11T13:54:27Z</time>
      </trkpt>
      <trkpt lat="46.32137" lon="5.48669">
        <ele>496.8</ele>
        <time>2022-05-11T13:54:31Z</time>
      </trkpt>
      <trkpt lat="46.32143" lon="5.48669">
        <ele>496.8</ele>
        <time>2022-05-11T13:54:32Z</time>
      </trkpt>
      <trkpt lat="46.32148" lon="5.48669">
        <ele>496.8</ele>
        <time>2022-05-11T13:54:33Z</time>
      </trkpt>
      <trkpt lat="46.32178" lon="5.48671">
        <ele>497.4</ele>
        <time>2022-05-11T13:54:38Z</time>
      </trkpt>
      <trkpt lat="46.32202" lon="5.48672">
        <ele>497.8</ele>
        <time>2022-05-11T13:54:42Z</time>
      </trkpt>
      <trkpt lat="46.32231" lon="5.48671">
        <ele>497.8</ele>
        <time>2022-05-11T13:54:47Z</time>
      </trkpt>
      <trkpt lat="46.32267" lon="5.48678">
        <ele>498</ele>
        <time>2022-05-11T13:54:53Z</time>
      </trkpt>
      <trkpt lat="46.32314" lon="5.48689">
        <ele>498</ele>
        <time>2022-05-11T13:55:01Z</time>
      </trkpt>
      <trkpt lat="46.32361" lon="5.48693">
        <ele>498.8</ele>
        <time>2022-05-11T13:55:09Z</time>
      </trkpt>
      <trkpt lat="46.32394" lon="5.48697">
        <ele>499</ele>
        <time>2022-05-11T13:55:14Z</time>
      </trkpt>
      <trkpt lat="46.32446" lon="5.48703">
        <ele>499</ele>
        <time>2022-05-11T13:55:23Z</time>
      </trkpt>
      <trkpt lat="46.32501" lon="5.48711">
        <ele>499.2</ele>
        <time>2022-05-11T13:55:32Z</time>
      </trkpt>
      <trkpt lat="46.32543" lon="5.48721">
        <ele>500</ele>
        <time>2022-05-11T13:55:39Z</time>
      </trkpt>
      <trkpt lat="46.32567" lon="5.48728">
        <ele>500.4</ele>
        <time>2022-05-11T13:55:43Z</time>
      </trkpt>
      <trkpt lat="46.3262" lon="5.48743">
        <ele>500.8</ele>
        <time>2022-05-11T13:55:52Z</time>
      </trkpt>
      <trkpt lat="46.32632" lon="5.48747">
        <ele>501.2</ele>
        <time>2022-05-11T13:55:54Z</time>
      </trkpt>
      <trkpt lat="46.32644" lon="5.4875">
        <ele>501.2</ele>
        <time>2022-05-11T13:55:56Z</time>
      </trkpt>
      <trkpt lat="46.32691" lon="5.48764">
        <ele>501.6</ele>
        <time>2022-05-11T13:56:04Z</time>
      </trkpt>
      <trkpt lat="46.3272" lon="5.48772">
        <ele>502.4</ele>
        <time>2022-05-11T13:56:09Z</time>
      </trkpt>
      <trkpt lat="46.32732" lon="5.48776">
        <ele>502.6</ele>
        <time>2022-05-11T13:56:11Z</time>
      </trkpt>
      <trkpt lat="46.32744" lon="5.48779">
        <ele>502.8</ele>
        <time>2022-05-11T13:56:13Z</time>
      </trkpt>
      <trkpt lat="46.32765" lon="5.48787">
        <ele>503.2</ele>
        <time>2022-05-11T13:56:17Z</time>
      </trkpt>
      <trkpt lat="46.3277" lon="5.48789">
        <ele>503.2</ele>
        <time>2022-05-11T13:56:18Z</time>
      </trkpt>
      <trkpt lat="46.32782" lon="5.48794">
        <ele>503.4</ele>
        <time>2022-05-11T13:56:20Z</time>
      </trkpt>
      <trkpt lat="46.32794" lon="5.48799">
        <ele>503.4</ele>
        <time>2022-05-11T13:56:22Z</time>
      </trkpt>
      <trkpt lat="46.32848" lon="5.48817">
        <ele>504.2</ele>
        <time>2022-05-11T13:56:31Z</time>
      </trkpt>
      <trkpt lat="46.3287" lon="5.48824">
        <ele>504.4</ele>
        <time>2022-05-11T13:56:35Z</time>
      </trkpt>
      <trkpt lat="46.32898" lon="5.48834">
        <ele>505</ele>
        <time>2022-05-11T13:56:40Z</time>
      </trkpt>
      <trkpt lat="46.32918" lon="5.48841">
        <ele>505.4</ele>
        <time>2022-05-11T13:56:44Z</time>
      </trkpt>
      <trkpt lat="46.32948" lon="5.48853">
        <ele>505.6</ele>
        <time>2022-05-11T13:56:49Z</time>
      </trkpt>
      <trkpt lat="46.33001" lon="5.48874">
        <ele>506.4</ele>
        <time>2022-05-11T13:56:59Z</time>
      </trkpt>
      <trkpt lat="46.33037" lon="5.48896">
        <ele>507</ele>
        <time>2022-05-11T13:57:06Z</time>
      </trkpt>
      <trkpt lat="46.33057" lon="5.48913">
        <ele>507.4</ele>
        <time>2022-05-11T13:57:10Z</time>
      </trkpt>
      <trkpt lat="46.33074" lon="5.48925">
        <ele>507.6</ele>
        <time>2022-05-11T13:57:13Z</time>
      </trkpt>
      <trkpt lat="46.33118" lon="5.48944">
        <ele>508.4</ele>
        <time>2022-05-11T13:57:21Z</time>
      </trkpt>
      <trkpt lat="46.33124" lon="5.48946">
        <ele>508.6</ele>
        <time>2022-05-11T13:57:22Z</time>
      </trkpt>
      <trkpt lat="46.33167" lon="5.48963">
        <ele>509.6</ele>
        <time>2022-05-11T13:57:30Z</time>
      </trkpt>
      <trkpt lat="46.33172" lon="5.48966">
        <ele>509.6</ele>
        <time>2022-05-11T13:57:31Z</time>
      </trkpt>
      <trkpt lat="46.33203" lon="5.48982">
        <ele>510.2</ele>
        <time>2022-05-11T13:57:38Z</time>
      </trkpt>
      <trkpt lat="46.33207" lon="5.48984">
        <ele>510.2</ele>
        <time>2022-05-11T13:57:39Z</time>
      </trkpt>
      <trkpt lat="46.33224" lon="5.48988">
        <ele>510.4</ele>
        <time>2022-05-11T13:57:43Z</time>
      </trkpt>
      <trkpt lat="46.33227" lon="5.48987">
        <ele>510.8</ele>
        <time>2022-05-11T13:57:45Z</time>
      </trkpt>
      <trkpt lat="46.33234" lon="5.48989">
        <ele>511</ele>
        <time>2022-05-11T13:57:47Z</time>
      </trkpt>
      <trkpt lat="46.33244" lon="5.48989">
        <ele>511.4</ele>
        <time>2022-05-11T13:57:52Z</time>
      </trkpt>
      <trkpt lat="46.33247" lon="5.48989">
        <ele>511.6</ele>
        <time>2022-05-11T13:57:54Z</time>
      </trkpt>
      <trkpt lat="46.33248" lon="5.48988">
        <ele>511.8</ele>
        <time>2022-05-11T13:57:55Z</time>
      </trkpt>
      <trkpt lat="46.33249" lon="5.48987">
        <ele>511.8</ele>
        <time>2022-05-11T13:57:56Z</time>
      </trkpt>
      <trkpt lat="46.33249" lon="5.48985">
        <ele>511.8</ele>
        <time>2022-05-11T13:57:57Z</time>
      </trkpt>
      <trkpt lat="46.33248" lon="5.48984">
        <ele>511.8</ele>
        <time>2022-05-11T13:57:58Z</time>
      </trkpt>
      <trkpt lat="46.33246" lon="5.48985">
        <ele>512</ele>
        <time>2022-05-11T13:58:00Z</time>
      </trkpt>
      <trkpt lat="46.33243" lon="5.48987">
        <ele>511.8</ele>
        <time>2022-05-11T13:58:02Z</time>
      </trkpt>
      <trkpt lat="46.33238" lon="5.48988">
        <ele>511.6</ele>
        <time>2022-05-11T13:58:05Z</time>
      </trkpt>
      <trkpt lat="46.33226" lon="5.48987">
        <ele>511.4</ele>
        <time>2022-05-11T13:58:11Z</time>
      </trkpt>
      <trkpt lat="46.33224" lon="5.48986">
        <ele>511.4</ele>
        <time>2022-05-11T13:58:12Z</time>
      </trkpt>
      <trkpt lat="46.33222" lon="5.48985">
        <ele>511.2</ele>
        <time>2022-05-11T13:58:13Z</time>
      </trkpt>
      <trkpt lat="46.33214" lon="5.48985">
        <ele>511.2</ele>
        <time>2022-05-11T13:58:17Z</time>
      </trkpt>
      <trkpt lat="46.33212" lon="5.48989">
        <ele>511.2</ele>
        <time>2022-05-11T13:58:20Z</time>
      </trkpt>
      <trkpt lat="46.33213" lon="5.4899">
        <ele>511.2</ele>
        <time>2022-05-11T13:58:21Z</time>
      </trkpt>
      <trkpt lat="46.33214" lon="5.48991">
        <ele>511.2</ele>
        <time>2022-05-11T13:58:22Z</time>
      </trkpt>
      <trkpt lat="46.33215" lon="5.48991">
        <ele>511</ele>
        <time>2022-05-11T13:58:25Z</time>
      </trkpt>
      <trkpt lat="46.33221" lon="5.48988">
        <ele>511.2</ele>
        <time>2022-05-11T13:58:29Z</time>
      </trkpt>
      <trkpt lat="46.33225" lon="5.48986">
        <ele>511</ele>
        <time>2022-05-11T13:58:31Z</time>
      </trkpt>
      <trkpt lat="46.33239" lon="5.48984">
        <ele>511.6</ele>
        <time>2022-05-11T13:58:38Z</time>
      </trkpt>
      <trkpt lat="46.33242" lon="5.48982">
        <ele>513</ele>
        <time>2022-05-11T13:58:43Z</time>
      </trkpt>
      <trkpt lat="46.33242" lon="5.48982">
        <ele>513</ele>
        <time>2022-05-11T13:58:44Z</time>
      </trkpt>
      <trkpt lat="46.3325" lon="5.4897">
        <ele>513</ele>
        <time>2022-05-11T13:58:56Z</time>
      </trkpt>
      <trkpt lat="46.33252" lon="5.48961">
        <ele>513</ele>
        <time>2022-05-11T13:58:58Z</time>
      </trkpt>
      <trkpt lat="46.33257" lon="5.48921">
        <ele>513</ele>
        <time>2022-05-11T13:59:05Z</time>
      </trkpt>
      <trkpt lat="46.33258" lon="5.48914">
        <ele>513</ele>
        <time>2022-05-11T13:59:06Z</time>
      </trkpt>
      <trkpt lat="46.33259" lon="5.48887">
        <ele>512.4</ele>
        <time>2022-05-11T13:59:10Z</time>
      </trkpt>
      <trkpt lat="46.33261" lon="5.48843">
        <ele>511.8</ele>
        <time>2022-05-11T13:59:16Z</time>
      </trkpt>
      <trkpt lat="46.33261" lon="5.48836">
        <ele>511.8</ele>
        <time>2022-05-11T13:59:17Z</time>
      </trkpt>
      <trkpt lat="46.33268" lon="5.48765">
        <ele>511</ele>
        <time>2022-05-11T13:59:26Z</time>
      </trkpt>
      <trkpt lat="46.3327" lon="5.48748">
        <ele>510.8</ele>
        <time>2022-05-11T13:59:28Z</time>
      </trkpt>
      <trkpt lat="46.33275" lon="5.48714">
        <ele>510.2</ele>
        <time>2022-05-11T13:59:32Z</time>
      </trkpt>
      <trkpt lat="46.33286" lon="5.48645">
        <ele>509.6</ele>
        <time>2022-05-11T13:59:40Z</time>
      </trkpt>
      <trkpt lat="46.33299" lon="5.48587">
        <ele>509</ele>
        <time>2022-05-11T13:59:47Z</time>
      </trkpt>
      <trkpt lat="46.33307" lon="5.48572">
        <ele>509</ele>
        <time>2022-05-11T13:59:49Z</time>
      </trkpt>
      <trkpt lat="46.33317" lon="5.4856">
        <ele>508.8</ele>
        <time>2022-05-11T13:59:51Z</time>
      </trkpt>
      <trkpt lat="46.33323" lon="5.48556">
        <ele>508.6</ele>
        <time>2022-05-11T13:59:52Z</time>
      </trkpt>
      <trkpt lat="46.33341" lon="5.48543">
        <ele>508</ele>
        <time>2022-05-11T13:59:55Z</time>
      </trkpt>
      <trkpt lat="46.33347" lon="5.48537">
        <ele>507.8</ele>
        <time>2022-05-11T13:59:56Z</time>
      </trkpt>
      <trkpt lat="46.33352" lon="5.4853">
        <ele>507.6</ele>
        <time>2022-05-11T13:59:57Z</time>
      </trkpt>
      <trkpt lat="46.33356" lon="5.48523">
        <ele>507.4</ele>
        <time>2022-05-11T13:59:58Z</time>
      </trkpt>
      <trkpt lat="46.3336" lon="5.48513">
        <ele>507</ele>
        <time>2022-05-11T13:59:59Z</time>
      </trkpt>
      <trkpt lat="46.3337" lon="5.48468">
        <ele>506.4</ele>
        <time>2022-05-11T14:00:04Z</time>
      </trkpt>
      <trkpt lat="46.33382" lon="5.48387">
        <ele>507.4</ele>
        <time>2022-05-11T14:00:13Z</time>
      </trkpt>
      <trkpt lat="46.3339" lon="5.48335">
        <ele>508.6</ele>
        <time>2022-05-11T14:00:20Z</time>
      </trkpt>
      <trkpt lat="46.33397" lon="5.48291">
        <ele>509</ele>
        <time>2022-05-11T14:00:25Z</time>
      </trkpt>
      <trkpt lat="46.33405" lon="5.48247">
        <ele>509</ele>
        <time>2022-05-11T14:00:30Z</time>
      </trkpt>
      <trkpt lat="46.33411" lon="5.48231">
        <ele>508.8</ele>
        <time>2022-05-11T14:00:32Z</time>
      </trkpt>
      <trkpt lat="46.33419" lon="5.48217">
        <ele>508.6</ele>
        <time>2022-05-11T14:00:34Z</time>
      </trkpt>
      <trkpt lat="46.33434" lon="5.48198">
        <ele>508.4</ele>
        <time>2022-05-11T14:00:37Z</time>
      </trkpt>
      <trkpt lat="46.33473" lon="5.48147">
        <ele>508</ele>
        <time>2022-05-11T14:00:45Z</time>
      </trkpt>
      <trkpt lat="46.33512" lon="5.48102">
        <ele>508.4</ele>
        <time>2022-05-11T14:00:53Z</time>
      </trkpt>
      <trkpt lat="46.33547" lon="5.48076">
        <ele>509.4</ele>
        <time>2022-05-11T14:01:00Z</time>
      </trkpt>
      <trkpt lat="46.33556" lon="5.4807">
        <ele>510</ele>
        <time>2022-05-11T14:01:02Z</time>
      </trkpt>
      <trkpt lat="46.33588" lon="5.48045">
        <ele>511.2</ele>
        <time>2022-05-11T14:01:09Z</time>
      </trkpt>
      <trkpt lat="46.33607" lon="5.48027">
        <ele>512.2</ele>
        <time>2022-05-11T14:01:15Z</time>
      </trkpt>
      <trkpt lat="46.33621" lon="5.48014">
        <ele>513</ele>
        <time>2022-05-11T14:01:18Z</time>
      </trkpt>
      <trkpt lat="46.33625" lon="5.4801">
        <ele>513.6</ele>
        <time>2022-05-11T14:01:19Z</time>
      </trkpt>
      <trkpt lat="46.33649" lon="5.47988">
        <ele>514.8</ele>
        <time>2022-05-11T14:01:25Z</time>
      </trkpt>
      <trkpt lat="46.33652" lon="5.47985">
        <ele>515</ele>
        <time>2022-05-11T14:01:26Z</time>
      </trkpt>
      <trkpt lat="46.33659" lon="5.47977">
        <ele>515.4</ele>
        <time>2022-05-11T14:01:28Z</time>
      </trkpt>
      <trkpt lat="46.33666" lon="5.47969">
        <ele>515.8</ele>
        <time>2022-05-11T14:01:30Z</time>
      </trkpt>
      <trkpt lat="46.33669" lon="5.47965">
        <ele>515.8</ele>
        <time>2022-05-11T14:01:31Z</time>
      </trkpt>
      <trkpt lat="46.33673" lon="5.47955">
        <ele>516</ele>
        <time>2022-05-11T14:01:33Z</time>
      </trkpt>
      <trkpt lat="46.33675" lon="5.4795">
        <ele>516</ele>
        <time>2022-05-11T14:01:34Z</time>
      </trkpt>
      <trkpt lat="46.33676" lon="5.47944">
        <ele>516.2</ele>
        <time>2022-05-11T14:01:35Z</time>
      </trkpt>
      <trkpt lat="46.33679" lon="5.4792">
        <ele>516.4</ele>
        <time>2022-05-11T14:01:39Z</time>
      </trkpt>
      <trkpt lat="46.3368" lon="5.47915">
        <ele>516.6</ele>
        <time>2022-05-11T14:01:40Z</time>
      </trkpt>
      <trkpt lat="46.33682" lon="5.47903">
        <ele>517.2</ele>
        <time>2022-05-11T14:01:42Z</time>
      </trkpt>
      <trkpt lat="46.33685" lon="5.47891">
        <ele>517.6</ele>
        <time>2022-05-11T14:01:44Z</time>
      </trkpt>
      <trkpt lat="46.3369" lon="5.47882">
        <ele>517.8</ele>
        <time>2022-05-11T14:01:46Z</time>
      </trkpt>
      <trkpt lat="46.33701" lon="5.47876">
        <ele>518.2</ele>
        <time>2022-05-11T14:01:49Z</time>
      </trkpt>
      <trkpt lat="46.33704" lon="5.47876">
        <ele>518.6</ele>
        <time>2022-05-11T14:01:50Z</time>
      </trkpt>
      <trkpt lat="46.3373" lon="5.47884">
        <ele>519</ele>
        <time>2022-05-11T14:01:56Z</time>
      </trkpt>
      <trkpt lat="46.33766" lon="5.47895">
        <ele>519</ele>
        <time>2022-05-11T14:02:03Z</time>
      </trkpt>
      <trkpt lat="46.33823" lon="5.47916">
        <ele>518.8</ele>
        <time>2022-05-11T14:02:14Z</time>
      </trkpt>
      <trkpt lat="46.3385" lon="5.47919">
        <ele>518.8</ele>
        <time>2022-05-11T14:02:19Z</time>
      </trkpt>
      <trkpt lat="46.3386" lon="5.47918">
        <ele>519</ele>
        <time>2022-05-11T14:02:21Z</time>
      </trkpt>
      <trkpt lat="46.33889" lon="5.47916">
        <ele>519.4</ele>
        <time>2022-05-11T14:02:27Z</time>
      </trkpt>
      <trkpt lat="46.33899" lon="5.47915">
        <ele>519.6</ele>
        <time>2022-05-11T14:02:29Z</time>
      </trkpt>
      <trkpt lat="46.33919" lon="5.47914">
        <ele>520.2</ele>
        <time>2022-05-11T14:02:33Z</time>
      </trkpt>
      <trkpt lat="46.33925" lon="5.47912">
        <ele>520.4</ele>
        <time>2022-05-11T14:02:34Z</time>
      </trkpt>
      <trkpt lat="46.3394" lon="5.47907">
        <ele>520.8</ele>
        <time>2022-05-11T14:02:37Z</time>
      </trkpt>
      <trkpt lat="46.33976" lon="5.47887">
        <ele>521.2</ele>
        <time>2022-05-11T14:02:45Z</time>
      </trkpt>
      <trkpt lat="46.33981" lon="5.47883">
        <ele>521.2</ele>
        <time>2022-05-11T14:02:46Z</time>
      </trkpt>
      <trkpt lat="46.34004" lon="5.47865">
        <ele>521.2</ele>
        <time>2022-05-11T14:02:50Z</time>
      </trkpt>
      <trkpt lat="46.34034" lon="5.47831">
        <ele>520.8</ele>
        <time>2022-05-11T14:02:56Z</time>
      </trkpt>
      <trkpt lat="46.34078" lon="5.47774">
        <ele>520.4</ele>
        <time>2022-05-11T14:03:06Z</time>
      </trkpt>
      <trkpt lat="46.34092" lon="5.47762">
        <ele>520.4</ele>
        <time>2022-05-11T14:03:09Z</time>
      </trkpt>
      <trkpt lat="46.34101" lon="5.47757">
        <ele>520.6</ele>
        <time>2022-05-11T14:03:11Z</time>
      </trkpt>
      <trkpt lat="46.34111" lon="5.47754">
        <ele>520.6</ele>
        <time>2022-05-11T14:03:13Z</time>
      </trkpt>
      <trkpt lat="46.34124" lon="5.47753">
        <ele>521</ele>
        <time>2022-05-11T14:03:16Z</time>
      </trkpt>
      <trkpt lat="46.34164" lon="5.4776">
        <ele>521</ele>
        <time>2022-05-11T14:03:24Z</time>
      </trkpt>
      <trkpt lat="46.34191" lon="5.47767">
        <ele>520.4</ele>
        <time>2022-05-11T14:03:28Z</time>
      </trkpt>
      <trkpt lat="46.34206" lon="5.47771">
        <ele>520</ele>
        <time>2022-05-11T14:03:30Z</time>
      </trkpt>
      <trkpt lat="46.34232" lon="5.47777">
        <ele>519</ele>
        <time>2022-05-11T14:03:33Z</time>
      </trkpt>
      <trkpt lat="46.34252" lon="5.47783">
        <ele>518.6</ele>
        <time>2022-05-11T14:03:35Z</time>
      </trkpt>
      <trkpt lat="46.34273" lon="5.4779">
        <ele>517.4</ele>
        <time>2022-05-11T14:03:37Z</time>
      </trkpt>
      <trkpt lat="46.34296" lon="5.47795">
        <ele>516.6</ele>
        <time>2022-05-11T14:03:39Z</time>
      </trkpt>
      <trkpt lat="46.34307" lon="5.47797">
        <ele>515.6</ele>
        <time>2022-05-11T14:03:40Z</time>
      </trkpt>
      <trkpt lat="46.34329" lon="5.47799">
        <ele>514.6</ele>
        <time>2022-05-11T14:03:42Z</time>
      </trkpt>
      <trkpt lat="46.34352" lon="5.47799">
        <ele>513.4</ele>
        <time>2022-05-11T14:03:44Z</time>
      </trkpt>
      <trkpt lat="46.34364" lon="5.47797">
        <ele>512</ele>
        <time>2022-05-11T14:03:45Z</time>
      </trkpt>
      <trkpt lat="46.34375" lon="5.47794">
        <ele>511.6</ele>
        <time>2022-05-11T14:03:46Z</time>
      </trkpt>
      <trkpt lat="46.34387" lon="5.4779">
        <ele>510.4</ele>
        <time>2022-05-11T14:03:47Z</time>
      </trkpt>
      <trkpt lat="46.34399" lon="5.47784">
        <ele>510</ele>
        <time>2022-05-11T14:03:48Z</time>
      </trkpt>
      <trkpt lat="46.3441" lon="5.47777">
        <ele>509</ele>
        <time>2022-05-11T14:03:49Z</time>
      </trkpt>
      <trkpt lat="46.34429" lon="5.47755">
        <ele>507.6</ele>
        <time>2022-05-11T14:03:51Z</time>
      </trkpt>
      <trkpt lat="46.34438" lon="5.47741">
        <ele>506</ele>
        <time>2022-05-11T14:03:52Z</time>
      </trkpt>
      <trkpt lat="46.34454" lon="5.47711">
        <ele>504.6</ele>
        <time>2022-05-11T14:03:54Z</time>
      </trkpt>
      <trkpt lat="46.34469" lon="5.47683">
        <ele>503.2</ele>
        <time>2022-05-11T14:03:56Z</time>
      </trkpt>
      <trkpt lat="46.34483" lon="5.47656">
        <ele>502.2</ele>
        <time>2022-05-11T14:03:58Z</time>
      </trkpt>
      <trkpt lat="46.34505" lon="5.47619">
        <ele>501</ele>
        <time>2022-05-11T14:04:01Z</time>
      </trkpt>
      <trkpt lat="46.34511" lon="5.47607">
        <ele>500.8</ele>
        <time>2022-05-11T14:04:02Z</time>
      </trkpt>
      <trkpt lat="46.34532" lon="5.47573">
        <ele>499.8</ele>
        <time>2022-05-11T14:04:05Z</time>
      </trkpt>
      <trkpt lat="46.34547" lon="5.47549">
        <ele>499.4</ele>
        <time>2022-05-11T14:04:07Z</time>
      </trkpt>
      <trkpt lat="46.34564" lon="5.47527">
        <ele>498.8</ele>
        <time>2022-05-11T14:04:09Z</time>
      </trkpt>
      <trkpt lat="46.34583" lon="5.47506">
        <ele>497.8</ele>
        <time>2022-05-11T14:04:11Z</time>
      </trkpt>
      <trkpt lat="46.34608" lon="5.47479">
        <ele>496.2</ele>
        <time>2022-05-11T14:04:13Z</time>
      </trkpt>
      <trkpt lat="46.34616" lon="5.47467">
        <ele>494.6</ele>
        <time>2022-05-11T14:04:15Z</time>
      </trkpt>
      <trkpt lat="46.34624" lon="5.47453">
        <ele>494</ele>
        <time>2022-05-11T14:04:16Z</time>
      </trkpt>
      <trkpt lat="46.34632" lon="5.4743">
        <ele>492.4</ele>
        <time>2022-05-11T14:04:17Z</time>
      </trkpt>
      <trkpt lat="46.34639" lon="5.47395">
        <ele>490.6</ele>
        <time>2022-05-11T14:04:19Z</time>
      </trkpt>
      <trkpt lat="46.34643" lon="5.47378">
        <ele>489</ele>
        <time>2022-05-11T14:04:20Z</time>
      </trkpt>
      <trkpt lat="46.3465" lon="5.47346">
        <ele>487.8</ele>
        <time>2022-05-11T14:04:22Z</time>
      </trkpt>
      <trkpt lat="46.34653" lon="5.47331">
        <ele>487.6</ele>
        <time>2022-05-11T14:04:23Z</time>
      </trkpt>
      <trkpt lat="46.34655" lon="5.47317">
        <ele>487.2</ele>
        <time>2022-05-11T14:04:24Z</time>
      </trkpt>
      <trkpt lat="46.34658" lon="5.47288">
        <ele>486.6</ele>
        <time>2022-05-11T14:04:26Z</time>
      </trkpt>
      <trkpt lat="46.34657" lon="5.47273">
        <ele>486.4</ele>
        <time>2022-05-11T14:04:27Z</time>
      </trkpt>
      <trkpt lat="46.34654" lon="5.47258">
        <ele>486.2</ele>
        <time>2022-05-11T14:04:28Z</time>
      </trkpt>
      <trkpt lat="46.34644" lon="5.47233">
        <ele>485.8</ele>
        <time>2022-05-11T14:04:30Z</time>
      </trkpt>
      <trkpt lat="46.34636" lon="5.47217">
        <ele>485.2</ele>
        <time>2022-05-11T14:04:31Z</time>
      </trkpt>
      <trkpt lat="46.34615" lon="5.47186">
        <ele>484</ele>
        <time>2022-05-11T14:04:34Z</time>
      </trkpt>
      <trkpt lat="46.34597" lon="5.47167">
        <ele>482.6</ele>
        <time>2022-05-11T14:04:36Z</time>
      </trkpt>
      <trkpt lat="46.34579" lon="5.47152">
        <ele>480.8</ele>
        <time>2022-05-11T14:04:38Z</time>
      </trkpt>
      <trkpt lat="46.3456" lon="5.47141">
        <ele>479.6</ele>
        <time>2022-05-11T14:04:40Z</time>
      </trkpt>
      <trkpt lat="46.34541" lon="5.47129">
        <ele>478.8</ele>
        <time>2022-05-11T14:04:42Z</time>
      </trkpt>
      <trkpt lat="46.34531" lon="5.47123">
        <ele>478.2</ele>
        <time>2022-05-11T14:04:43Z</time>
      </trkpt>
      <trkpt lat="46.34513" lon="5.47109">
        <ele>477.6</ele>
        <time>2022-05-11T14:04:45Z</time>
      </trkpt>
      <trkpt lat="46.34505" lon="5.471">
        <ele>477</ele>
        <time>2022-05-11T14:04:46Z</time>
      </trkpt>
      <trkpt lat="46.34497" lon="5.47091">
        <ele>476.6</ele>
        <time>2022-05-11T14:04:47Z</time>
      </trkpt>
      <trkpt lat="46.3449" lon="5.4708">
        <ele>476</ele>
        <time>2022-05-11T14:04:48Z</time>
      </trkpt>
      <trkpt lat="46.34478" lon="5.47057">
        <ele>475.2</ele>
        <time>2022-05-11T14:04:50Z</time>
      </trkpt>
      <trkpt lat="46.34473" lon="5.47044">
        <ele>474.8</ele>
        <time>2022-05-11T14:04:51Z</time>
      </trkpt>
      <trkpt lat="46.34469" lon="5.4703">
        <ele>474.6</ele>
        <time>2022-05-11T14:04:52Z</time>
      </trkpt>
      <trkpt lat="46.34465" lon="5.47015">
        <ele>474</ele>
        <time>2022-05-11T14:04:53Z</time>
      </trkpt>
      <trkpt lat="46.34463" lon="5.47">
        <ele>473.6</ele>
        <time>2022-05-11T14:04:54Z</time>
      </trkpt>
      <trkpt lat="46.3446" lon="5.46985">
        <ele>473</ele>
        <time>2022-05-11T14:04:55Z</time>
      </trkpt>
      <trkpt lat="46.34449" lon="5.4696">
        <ele>472.2</ele>
        <time>2022-05-11T14:04:57Z</time>
      </trkpt>
      <trkpt lat="46.34433" lon="5.4694">
        <ele>470.4</ele>
        <time>2022-05-11T14:04:59Z</time>
      </trkpt>
      <trkpt lat="46.34423" lon="5.46932">
        <ele>469.4</ele>
        <time>2022-05-11T14:05:00Z</time>
      </trkpt>
      <trkpt lat="46.34403" lon="5.46919">
        <ele>467.8</ele>
        <time>2022-05-11T14:05:02Z</time>
      </trkpt>
      <trkpt lat="46.34382" lon="5.46909">
        <ele>466.4</ele>
        <time>2022-05-11T14:05:04Z</time>
      </trkpt>
      <trkpt lat="46.34372" lon="5.46905">
        <ele>465.4</ele>
        <time>2022-05-11T14:05:05Z</time>
      </trkpt>
      <trkpt lat="46.34361" lon="5.46902">
        <ele>465</ele>
        <time>2022-05-11T14:05:06Z</time>
      </trkpt>
      <trkpt lat="46.34351" lon="5.46899">
        <ele>464.2</ele>
        <time>2022-05-11T14:05:07Z</time>
      </trkpt>
      <trkpt lat="46.34335" lon="5.46885">
        <ele>463.2</ele>
        <time>2022-05-11T14:05:09Z</time>
      </trkpt>
      <trkpt lat="46.34327" lon="5.4686">
        <ele>462.8</ele>
        <time>2022-05-11T14:05:11Z</time>
      </trkpt>
      <trkpt lat="46.34328" lon="5.46846">
        <ele>461.8</ele>
        <time>2022-05-11T14:05:12Z</time>
      </trkpt>
      <trkpt lat="46.34331" lon="5.46833">
        <ele>461.6</ele>
        <time>2022-05-11T14:05:13Z</time>
      </trkpt>
      <trkpt lat="46.34334" lon="5.46819">
        <ele>461.2</ele>
        <time>2022-05-11T14:05:14Z</time>
      </trkpt>
      <trkpt lat="46.34334" lon="5.46804">
        <ele>460.8</ele>
        <time>2022-05-11T14:05:15Z</time>
      </trkpt>
      <trkpt lat="46.34333" lon="5.46789">
        <ele>460.2</ele>
        <time>2022-05-11T14:05:16Z</time>
      </trkpt>
      <trkpt lat="46.34329" lon="5.46775">
        <ele>460</ele>
        <time>2022-05-11T14:05:17Z</time>
      </trkpt>
      <trkpt lat="46.34323" lon="5.46765">
        <ele>459.6</ele>
        <time>2022-05-11T14:05:18Z</time>
      </trkpt>
      <trkpt lat="46.34317" lon="5.46756">
        <ele>458.6</ele>
        <time>2022-05-11T14:05:19Z</time>
      </trkpt>
      <trkpt lat="46.34293" lon="5.46733">
        <ele>457.8</ele>
        <time>2022-05-11T14:05:22Z</time>
      </trkpt>
      <trkpt lat="46.34285" lon="5.46725">
        <ele>457.4</ele>
        <time>2022-05-11T14:05:23Z</time>
      </trkpt>
      <trkpt lat="46.34254" lon="5.46698">
        <ele>456.8</ele>
        <time>2022-05-11T14:05:27Z</time>
      </trkpt>
      <trkpt lat="46.34238" lon="5.46685">
        <ele>456.4</ele>
        <time>2022-05-11T14:05:29Z</time>
      </trkpt>
      <trkpt lat="46.34213" lon="5.46663">
        <ele>455.8</ele>
        <time>2022-05-11T14:05:32Z</time>
      </trkpt>
      <trkpt lat="46.34203" lon="5.46641">
        <ele>455.4</ele>
        <time>2022-05-11T14:05:34Z</time>
      </trkpt>
      <trkpt lat="46.34201" lon="5.46628">
        <ele>455</ele>
        <time>2022-05-11T14:05:35Z</time>
      </trkpt>
      <trkpt lat="46.342" lon="5.46616">
        <ele>455</ele>
        <time>2022-05-11T14:05:36Z</time>
      </trkpt>
      <trkpt lat="46.34204" lon="5.46592">
        <ele>454.6</ele>
        <time>2022-05-11T14:05:38Z</time>
      </trkpt>
      <trkpt lat="46.34206" lon="5.46582">
        <ele>454.2</ele>
        <time>2022-05-11T14:05:39Z</time>
      </trkpt>
      <trkpt lat="46.34211" lon="5.46562">
        <ele>453.6</ele>
        <time>2022-05-11T14:05:41Z</time>
      </trkpt>
      <trkpt lat="46.34216" lon="5.46555">
        <ele>453.4</ele>
        <time>2022-05-11T14:05:42Z</time>
      </trkpt>
      <trkpt lat="46.34221" lon="5.46551">
        <ele>453.4</ele>
        <time>2022-05-11T14:05:43Z</time>
      </trkpt>
      <trkpt lat="46.34226" lon="5.46548">
        <ele>453.4</ele>
        <time>2022-05-11T14:05:44Z</time>
      </trkpt>
      <trkpt lat="46.34241" lon="5.4654">
        <ele>453.6</ele>
        <time>2022-05-11T14:05:46Z</time>
      </trkpt>
      <trkpt lat="46.34253" lon="5.4653">
        <ele>453.8</ele>
        <time>2022-05-11T14:05:48Z</time>
      </trkpt>
      <trkpt lat="46.34265" lon="5.46516">
        <ele>453.8</ele>
        <time>2022-05-11T14:05:50Z</time>
      </trkpt>
      <trkpt lat="46.34271" lon="5.46508">
        <ele>454</ele>
        <time>2022-05-11T14:05:51Z</time>
      </trkpt>
      <trkpt lat="46.34282" lon="5.46495">
        <ele>454</ele>
        <time>2022-05-11T14:05:53Z</time>
      </trkpt>
      <trkpt lat="46.34297" lon="5.46473">
        <ele>454</ele>
        <time>2022-05-11T14:05:56Z</time>
      </trkpt>
      <trkpt lat="46.34294" lon="5.46451">
        <ele>454</ele>
        <time>2022-05-11T14:05:58Z</time>
      </trkpt>
      <trkpt lat="46.34292" lon="5.46436">
        <ele>454</ele>
        <time>2022-05-11T14:05:59Z</time>
      </trkpt>
      <trkpt lat="46.3429" lon="5.46422">
        <ele>453.8</ele>
        <time>2022-05-11T14:06:00Z</time>
      </trkpt>
      <trkpt lat="46.3429" lon="5.4641">
        <ele>453.8</ele>
        <time>2022-05-11T14:06:01Z</time>
      </trkpt>
      <trkpt lat="46.34291" lon="5.46396">
        <ele>453.8</ele>
        <time>2022-05-11T14:06:02Z</time>
      </trkpt>
      <trkpt lat="46.34298" lon="5.46339">
        <ele>453.8</ele>
        <time>2022-05-11T14:06:07Z</time>
      </trkpt>
      <trkpt lat="46.34307" lon="5.46305">
        <ele>454</ele>
        <time>2022-05-11T14:06:10Z</time>
      </trkpt>
      <trkpt lat="46.34309" lon="5.46286">
        <ele>454.2</ele>
        <time>2022-05-11T14:06:11Z</time>
      </trkpt>
      <trkpt lat="46.34311" lon="5.46268">
        <ele>454.4</ele>
        <time>2022-05-11T14:06:13Z</time>
      </trkpt>
      <trkpt lat="46.34316" lon="5.46245">
        <ele>454.4</ele>
        <time>2022-05-11T14:06:15Z</time>
      </trkpt>
      <trkpt lat="46.3433" lon="5.46227">
        <ele>454.6</ele>
        <time>2022-05-11T14:06:18Z</time>
      </trkpt>
      <trkpt lat="46.34341" lon="5.46214">
        <ele>454.6</ele>
        <time>2022-05-11T14:06:20Z</time>
      </trkpt>
      <trkpt lat="46.34384" lon="5.46163">
        <ele>454.4</ele>
        <time>2022-05-11T14:06:28Z</time>
      </trkpt>
      <trkpt lat="46.3439" lon="5.46158">
        <ele>454.4</ele>
        <time>2022-05-11T14:06:29Z</time>
      </trkpt>
      <trkpt lat="46.34409" lon="5.46147">
        <ele>454.4</ele>
        <time>2022-05-11T14:06:32Z</time>
      </trkpt>
      <trkpt lat="46.34415" lon="5.46146">
        <ele>454.4</ele>
        <time>2022-05-11T14:06:33Z</time>
      </trkpt>
      <trkpt lat="46.34426" lon="5.46149">
        <ele>454.2</ele>
        <time>2022-05-11T14:06:35Z</time>
      </trkpt>
      <trkpt lat="46.34437" lon="5.46155">
        <ele>454</ele>
        <time>2022-05-11T14:06:37Z</time>
      </trkpt>
      <trkpt lat="46.34441" lon="5.46159">
        <ele>453.8</ele>
        <time>2022-05-11T14:06:38Z</time>
      </trkpt>
      <trkpt lat="46.34452" lon="5.46171">
        <ele>453.4</ele>
        <time>2022-05-11T14:06:41Z</time>
      </trkpt>
      <trkpt lat="46.34456" lon="5.46175">
        <ele>453.4</ele>
        <time>2022-05-11T14:06:42Z</time>
      </trkpt>
      <trkpt lat="46.34466" lon="5.46182">
        <ele>453.2</ele>
        <time>2022-05-11T14:06:44Z</time>
      </trkpt>
      <trkpt lat="46.34476" lon="5.46183">
        <ele>453</ele>
        <time>2022-05-11T14:06:46Z</time>
      </trkpt>
      <trkpt lat="46.34485" lon="5.46177">
        <ele>452.4</ele>
        <time>2022-05-11T14:06:48Z</time>
      </trkpt>
      <trkpt lat="46.34489" lon="5.46173">
        <ele>452.2</ele>
        <time>2022-05-11T14:06:49Z</time>
      </trkpt>
      <trkpt lat="46.34493" lon="5.46169">
        <ele>452</ele>
        <time>2022-05-11T14:06:50Z</time>
      </trkpt>
      <trkpt lat="46.34497" lon="5.46163">
        <ele>452</ele>
        <time>2022-05-11T14:06:51Z</time>
      </trkpt>
      <trkpt lat="46.345" lon="5.46158">
        <ele>451.8</ele>
        <time>2022-05-11T14:06:52Z</time>
      </trkpt>
      <trkpt lat="46.34502" lon="5.4615">
        <ele>451.8</ele>
        <time>2022-05-11T14:06:53Z</time>
      </trkpt>
      <trkpt lat="46.34505" lon="5.4613">
        <ele>451.2</ele>
        <time>2022-05-11T14:06:55Z</time>
      </trkpt>
      <trkpt lat="46.34507" lon="5.46115">
        <ele>450.8</ele>
        <time>2022-05-11T14:06:57Z</time>
      </trkpt>
      <trkpt lat="46.34517" lon="5.46069">
        <ele>449.6</ele>
        <time>2022-05-11T14:07:01Z</time>
      </trkpt>
      <trkpt lat="46.3452" lon="5.46055">
        <ele>448.8</ele>
        <time>2022-05-11T14:07:03Z</time>
      </trkpt>
      <trkpt lat="46.34521" lon="5.4605">
        <ele>448</ele>
        <time>2022-05-11T14:07:04Z</time>
      </trkpt>
      <trkpt lat="46.34522" lon="5.46046">
        <ele>447.8</ele>
        <time>2022-05-11T14:07:05Z</time>
      </trkpt>
      <trkpt lat="46.34523" lon="5.46042">
        <ele>447</ele>
        <time>2022-05-11T14:07:07Z</time>
      </trkpt>
      <trkpt lat="46.34524" lon="5.46036">
        <ele>446.4</ele>
        <time>2022-05-11T14:07:08Z</time>
      </trkpt>
      <trkpt lat="46.34525" lon="5.46036">
        <ele>445.8</ele>
        <time>2022-05-11T14:07:09Z</time>
      </trkpt>
      <trkpt lat="46.34528" lon="5.46034">
        <ele>444.8</ele>
        <time>2022-05-11T14:07:12Z</time>
      </trkpt>
      <trkpt lat="46.3453" lon="5.46034">
        <ele>444.2</ele>
        <time>2022-05-11T14:07:15Z</time>
      </trkpt>
      <trkpt lat="46.3453" lon="5.46034">
        <ele>444</ele>
        <time>2022-05-11T14:07:17Z</time>
      </trkpt>
      <trkpt lat="46.34541" lon="5.46037">
        <ele>443.6</ele>
        <time>2022-05-11T14:07:26Z</time>
      </trkpt>
      <trkpt lat="46.34545" lon="5.46039">
        <ele>443.4</ele>
        <time>2022-05-11T14:07:27Z</time>
      </trkpt>
      <trkpt lat="46.3455" lon="5.4604">
        <ele>443.4</ele>
        <time>2022-05-11T14:07:28Z</time>
      </trkpt>
      <trkpt lat="46.34569" lon="5.4604">
        <ele>443.2</ele>
        <time>2022-05-11T14:07:31Z</time>
      </trkpt>
      <trkpt lat="46.34609" lon="5.46037">
        <ele>442.6</ele>
        <time>2022-05-11T14:07:36Z</time>
      </trkpt>
      <trkpt lat="46.34609" lon="5.46037">
        <ele>442.2</ele>
        <time>2022-05-11T14:07:37Z</time>
      </trkpt>
      <trkpt lat="46.34636" lon="5.46035">
        <ele>441</ele>
        <time>2022-05-11T14:07:39Z</time>
      </trkpt>
      <trkpt lat="46.34665" lon="5.46031">
        <ele>440</ele>
        <time>2022-05-11T14:07:42Z</time>
      </trkpt>
      <trkpt lat="46.34675" lon="5.46029">
        <ele>439.6</ele>
        <time>2022-05-11T14:07:43Z</time>
      </trkpt>
      <trkpt lat="46.34685" lon="5.46027">
        <ele>438.8</ele>
        <time>2022-05-11T14:07:44Z</time>
      </trkpt>
      <trkpt lat="46.34696" lon="5.46025">
        <ele>437.4</ele>
        <time>2022-05-11T14:07:46Z</time>
      </trkpt>
      <trkpt lat="46.3473" lon="5.46019">
        <ele>436</ele>
        <time>2022-05-11T14:07:48Z</time>
      </trkpt>
      <trkpt lat="46.34742" lon="5.46017">
        <ele>435.2</ele>
        <time>2022-05-11T14:07:49Z</time>
      </trkpt>
      <trkpt lat="46.34766" lon="5.46012">
        <ele>434.4</ele>
        <time>2022-05-11T14:07:51Z</time>
      </trkpt>
      <trkpt lat="46.34795" lon="5.46006">
        <ele>433</ele>
        <time>2022-05-11T14:07:53Z</time>
      </trkpt>
      <trkpt lat="46.34805" lon="5.46004">
        <ele>432.8</ele>
        <time>2022-05-11T14:07:54Z</time>
      </trkpt>
      <trkpt lat="46.34819" lon="5.46002">
        <ele>431.6</ele>
        <time>2022-05-11T14:07:55Z</time>
      </trkpt>
      <trkpt lat="46.34832" lon="5.46">
        <ele>430.2</ele>
        <time>2022-05-11T14:07:56Z</time>
      </trkpt>
      <trkpt lat="46.3486" lon="5.45997">
        <ele>428.2</ele>
        <time>2022-05-11T14:07:58Z</time>
      </trkpt>
      <trkpt lat="46.34888" lon="5.45996">
        <ele>426.4</ele>
        <time>2022-05-11T14:08:00Z</time>
      </trkpt>
      <trkpt lat="46.34917" lon="5.45994">
        <ele>425.2</ele>
        <time>2022-05-11T14:08:02Z</time>
      </trkpt>
      <trkpt lat="46.34945" lon="5.45992">
        <ele>424</ele>
        <time>2022-05-11T14:08:04Z</time>
      </trkpt>
      <trkpt lat="46.34959" lon="5.4599">
        <ele>422.6</ele>
        <time>2022-05-11T14:08:05Z</time>
      </trkpt>
      <trkpt lat="46.34974" lon="5.45989">
        <ele>420.8</ele>
        <time>2022-05-11T14:08:07Z</time>
      </trkpt>
      <trkpt lat="46.35018" lon="5.45986">
        <ele>419.2</ele>
        <time>2022-05-11T14:08:09Z</time>
      </trkpt>
      <trkpt lat="46.35018" lon="5.45986">
        <ele>417.8</ele>
        <time>2022-05-11T14:08:10Z</time>
      </trkpt>
      <trkpt lat="46.35065" lon="5.45981">
        <ele>416</ele>
        <time>2022-05-11T14:08:12Z</time>
      </trkpt>
      <trkpt lat="46.35087" lon="5.45979">
        <ele>414.6</ele>
        <time>2022-05-11T14:08:14Z</time>
      </trkpt>
      <trkpt lat="46.35124" lon="5.45974">
        <ele>412.6</ele>
        <time>2022-05-11T14:08:16Z</time>
      </trkpt>
      <trkpt lat="46.3514" lon="5.45973">
        <ele>411.4</ele>
        <time>2022-05-11T14:08:17Z</time>
      </trkpt>
      <trkpt lat="46.35155" lon="5.45972">
        <ele>410.6</ele>
        <time>2022-05-11T14:08:18Z</time>
      </trkpt>
      <trkpt lat="46.35155" lon="5.45972">
        <ele>409.6</ele>
        <time>2022-05-11T14:08:19Z</time>
      </trkpt>
      <trkpt lat="46.35186" lon="5.4597">
        <ele>407.4</ele>
        <time>2022-05-11T14:08:21Z</time>
      </trkpt>
      <trkpt lat="46.35217" lon="5.4597">
        <ele>405.4</ele>
        <time>2022-05-11T14:08:23Z</time>
      </trkpt>
      <trkpt lat="46.35249" lon="5.45971">
        <ele>404.2</ele>
        <time>2022-05-11T14:08:24Z</time>
      </trkpt>
      <trkpt lat="46.3528" lon="5.45972">
        <ele>402.4</ele>
        <time>2022-05-11T14:08:26Z</time>
      </trkpt>
      <trkpt lat="46.35312" lon="5.45973">
        <ele>400.2</ele>
        <time>2022-05-11T14:08:28Z</time>
      </trkpt>
      <trkpt lat="46.35345" lon="5.45976">
        <ele>398.4</ele>
        <time>2022-05-11T14:08:30Z</time>
      </trkpt>
      <trkpt lat="46.35361" lon="5.45977">
        <ele>396</ele>
        <time>2022-05-11T14:08:31Z</time>
      </trkpt>
      <trkpt lat="46.35376" lon="5.45978">
        <ele>395</ele>
        <time>2022-05-11T14:08:32Z</time>
      </trkpt>
      <trkpt lat="46.35392" lon="5.45977">
        <ele>393</ele>
        <time>2022-05-11T14:08:33Z</time>
      </trkpt>
      <trkpt lat="46.35422" lon="5.45974">
        <ele>391.2</ele>
        <time>2022-05-11T14:08:35Z</time>
      </trkpt>
      <trkpt lat="46.35451" lon="5.4597">
        <ele>390.2</ele>
        <time>2022-05-11T14:08:37Z</time>
      </trkpt>
      <trkpt lat="46.35465" lon="5.45968">
        <ele>389.2</ele>
        <time>2022-05-11T14:08:38Z</time>
      </trkpt>
      <trkpt lat="46.35493" lon="5.45965">
        <ele>386.4</ele>
        <time>2022-05-11T14:08:40Z</time>
      </trkpt>
      <trkpt lat="46.35505" lon="5.45964">
        <ele>385.8</ele>
        <time>2022-05-11T14:08:41Z</time>
      </trkpt>
      <trkpt lat="46.35518" lon="5.45963">
        <ele>384.8</ele>
        <time>2022-05-11T14:08:42Z</time>
      </trkpt>
      <trkpt lat="46.35544" lon="5.45965">
        <ele>383</ele>
        <time>2022-05-11T14:08:44Z</time>
      </trkpt>
      <trkpt lat="46.35544" lon="5.45965">
        <ele>381.2</ele>
        <time>2022-05-11T14:08:45Z</time>
      </trkpt>
      <trkpt lat="46.35577" lon="5.45974">
        <ele>379.8</ele>
        <time>2022-05-11T14:08:47Z</time>
      </trkpt>
      <trkpt lat="46.35587" lon="5.45978">
        <ele>379.2</ele>
        <time>2022-05-11T14:08:48Z</time>
      </trkpt>
      <trkpt lat="46.35596" lon="5.45982">
        <ele>377.8</ele>
        <time>2022-05-11T14:08:49Z</time>
      </trkpt>
      <trkpt lat="46.35604" lon="5.45986">
        <ele>376.8</ele>
        <time>2022-05-11T14:08:50Z</time>
      </trkpt>
      <trkpt lat="46.35619" lon="5.45992">
        <ele>375</ele>
        <time>2022-05-11T14:08:52Z</time>
      </trkpt>
      <trkpt lat="46.3563" lon="5.45991">
        <ele>374</ele>
        <time>2022-05-11T14:08:54Z</time>
      </trkpt>
      <trkpt lat="46.35642" lon="5.45988">
        <ele>372.6</ele>
        <time>2022-05-11T14:08:56Z</time>
      </trkpt>
      <trkpt lat="46.35653" lon="5.45983">
        <ele>371.2</ele>
        <time>2022-05-11T14:08:58Z</time>
      </trkpt>
      <trkpt lat="46.35665" lon="5.4598">
        <ele>370</ele>
        <time>2022-05-11T14:09:00Z</time>
      </trkpt>
      <trkpt lat="46.35676" lon="5.45979">
        <ele>369.2</ele>
        <time>2022-05-11T14:09:02Z</time>
      </trkpt>
      <trkpt lat="46.35682" lon="5.45978">
        <ele>368.6</ele>
        <time>2022-05-11T14:09:03Z</time>
      </trkpt>
      <trkpt lat="46.35704" lon="5.45977">
        <ele>367.8</ele>
        <time>2022-05-11T14:09:08Z</time>
      </trkpt>
      <trkpt lat="46.35733" lon="5.45984">
        <ele>367.6</ele>
        <time>2022-05-11T14:09:15Z</time>
      </trkpt>
      <trkpt lat="46.35738" lon="5.45985">
        <ele>367.6</ele>
        <time>2022-05-11T14:09:16Z</time>
      </trkpt>
      <trkpt lat="46.35745" lon="5.45987">
        <ele>367.4</ele>
        <time>2022-05-11T14:09:18Z</time>
      </trkpt>
      <trkpt lat="46.35751" lon="5.45989">
        <ele>367.4</ele>
        <time>2022-05-11T14:09:21Z</time>
      </trkpt>
      <trkpt lat="46.35751" lon="5.45989">
        <ele>367.2</ele>
        <time>2022-05-11T14:09:24Z</time>
      </trkpt>
      <trkpt lat="46.35759" lon="5.46016">
        <ele>367</ele>
        <time>2022-05-11T14:11:39Z</time>
      </trkpt>
      <trkpt lat="46.35759" lon="5.4602">
        <ele>367</ele>
        <time>2022-05-11T14:11:40Z</time>
      </trkpt>
      <trkpt lat="46.3576" lon="5.46056">
        <ele>367.2</ele>
        <time>2022-05-11T14:11:48Z</time>
      </trkpt>
      <trkpt lat="46.35762" lon="5.46101">
        <ele>367.8</ele>
        <time>2022-05-11T14:11:56Z</time>
      </trkpt>
      <trkpt lat="46.35771" lon="5.46139">
        <ele>368.4</ele>
        <time>2022-05-11T14:12:03Z</time>
      </trkpt>
      <trkpt lat="46.35772" lon="5.46155">
        <ele>369</ele>
        <time>2022-05-11T14:12:06Z</time>
      </trkpt>
      <trkpt lat="46.35773" lon="5.46172">
        <ele>369.8</ele>
        <time>2022-05-11T14:12:09Z</time>
      </trkpt>
      <trkpt lat="46.35774" lon="5.46177">
        <ele>370</ele>
        <time>2022-05-11T14:12:11Z</time>
      </trkpt>
      <trkpt lat="46.35778" lon="5.46212">
        <ele>371</ele>
        <time>2022-05-11T14:12:16Z</time>
      </trkpt>
      <trkpt lat="46.3578" lon="5.46223">
        <ele>371.4</ele>
        <time>2022-05-11T14:12:18Z</time>
      </trkpt>
      <trkpt lat="46.35784" lon="5.46233">
        <ele>371.6</ele>
        <time>2022-05-11T14:12:20Z</time>
      </trkpt>
      <trkpt lat="46.35789" lon="5.46243">
        <ele>372</ele>
        <time>2022-05-11T14:12:22Z</time>
      </trkpt>
      <trkpt lat="46.35793" lon="5.46247">
        <ele>372.2</ele>
        <time>2022-05-11T14:12:23Z</time>
      </trkpt>
      <trkpt lat="46.35798" lon="5.46251">
        <ele>372.2</ele>
        <time>2022-05-11T14:12:24Z</time>
      </trkpt>
      <trkpt lat="46.35815" lon="5.46262">
        <ele>372.4</ele>
        <time>2022-05-11T14:12:28Z</time>
      </trkpt>
      <trkpt lat="46.35828" lon="5.4627">
        <ele>372.4</ele>
        <time>2022-05-11T14:12:31Z</time>
      </trkpt>
      <trkpt lat="46.35835" lon="5.46278">
        <ele>372.2</ele>
        <time>2022-05-11T14:12:33Z</time>
      </trkpt>
      <trkpt lat="46.35841" lon="5.46289">
        <ele>372.2</ele>
        <time>2022-05-11T14:12:35Z</time>
      </trkpt>
      <trkpt lat="46.35848" lon="5.46308">
        <ele>372.2</ele>
        <time>2022-05-11T14:12:38Z</time>
      </trkpt>
      <trkpt lat="46.3585" lon="5.46317">
        <ele>372.2</ele>
        <time>2022-05-11T14:12:39Z</time>
      </trkpt>
      <trkpt lat="46.35854" lon="5.4634">
        <ele>372.2</ele>
        <time>2022-05-11T14:12:42Z</time>
      </trkpt>
      <trkpt lat="46.35855" lon="5.46356">
        <ele>372.4</ele>
        <time>2022-05-11T14:12:44Z</time>
      </trkpt>
      <trkpt lat="46.35852" lon="5.46401">
        <ele>372.8</ele>
        <time>2022-05-11T14:12:50Z</time>
      </trkpt>
      <trkpt lat="46.35847" lon="5.46437">
        <ele>372.8</ele>
        <time>2022-05-11T14:12:55Z</time>
      </trkpt>
      <trkpt lat="46.35843" lon="5.46452">
        <ele>372.8</ele>
        <time>2022-05-11T14:12:57Z</time>
      </trkpt>
      <trkpt lat="46.35837" lon="5.46474">
        <ele>372.8</ele>
        <time>2022-05-11T14:13:00Z</time>
      </trkpt>
      <trkpt lat="46.35836" lon="5.46489">
        <ele>372.8</ele>
        <time>2022-05-11T14:13:02Z</time>
      </trkpt>
      <trkpt lat="46.3584" lon="5.46502">
        <ele>373</ele>
        <time>2022-05-11T14:13:04Z</time>
      </trkpt>
      <trkpt lat="46.35844" lon="5.46507">
        <ele>373</ele>
        <time>2022-05-11T14:13:05Z</time>
      </trkpt>
      <trkpt lat="46.35853" lon="5.46515">
        <ele>373</ele>
        <time>2022-05-11T14:13:07Z</time>
      </trkpt>
      <trkpt lat="46.35863" lon="5.46521">
        <ele>373.2</ele>
        <time>2022-05-11T14:13:09Z</time>
      </trkpt>
      <trkpt lat="46.35868" lon="5.46524">
        <ele>373.2</ele>
        <time>2022-05-11T14:13:10Z</time>
      </trkpt>
      <trkpt lat="46.35877" lon="5.46531">
        <ele>373.4</ele>
        <time>2022-05-11T14:13:12Z</time>
      </trkpt>
      <trkpt lat="46.35891" lon="5.46542">
        <ele>373.4</ele>
        <time>2022-05-11T14:13:15Z</time>
      </trkpt>
      <trkpt lat="46.35895" lon="5.46547">
        <ele>373.6</ele>
        <time>2022-05-11T14:13:16Z</time>
      </trkpt>
      <trkpt lat="46.35901" lon="5.4656">
        <ele>373.6</ele>
        <time>2022-05-11T14:13:18Z</time>
      </trkpt>
      <trkpt lat="46.35908" lon="5.46571">
        <ele>373.8</ele>
        <time>2022-05-11T14:13:20Z</time>
      </trkpt>
      <trkpt lat="46.35911" lon="5.46577">
        <ele>373.8</ele>
        <time>2022-05-11T14:13:21Z</time>
      </trkpt>
      <trkpt lat="46.35914" lon="5.46584">
        <ele>373.8</ele>
        <time>2022-05-11T14:13:22Z</time>
      </trkpt>
      <trkpt lat="46.3592" lon="5.46596">
        <ele>374.4</ele>
        <time>2022-05-11T14:13:24Z</time>
      </trkpt>
      <trkpt lat="46.35928" lon="5.46608">
        <ele>374.6</ele>
        <time>2022-05-11T14:13:26Z</time>
      </trkpt>
      <trkpt lat="46.35932" lon="5.46613">
        <ele>374.8</ele>
        <time>2022-05-11T14:13:27Z</time>
      </trkpt>
      <trkpt lat="46.35959" lon="5.46649">
        <ele>375.2</ele>
        <time>2022-05-11T14:13:34Z</time>
      </trkpt>
      <trkpt lat="46.35968" lon="5.46657">
        <ele>375.4</ele>
        <time>2022-05-11T14:13:36Z</time>
      </trkpt>
      <trkpt lat="46.35991" lon="5.46673">
        <ele>375.8</ele>
        <time>2022-05-11T14:13:41Z</time>
      </trkpt>
      <trkpt lat="46.36022" lon="5.46692">
        <ele>376.4</ele>
        <time>2022-05-11T14:13:48Z</time>
      </trkpt>
      <trkpt lat="46.36035" lon="5.46701">
        <ele>376.6</ele>
        <time>2022-05-11T14:13:51Z</time>
      </trkpt>
      <trkpt lat="46.36056" lon="5.46716">
        <ele>377.4</ele>
        <time>2022-05-11T14:13:56Z</time>
      </trkpt>
      <trkpt lat="46.3606" lon="5.4672">
        <ele>377.6</ele>
        <time>2022-05-11T14:13:57Z</time>
      </trkpt>
      <trkpt lat="46.36077" lon="5.46735">
        <ele>378.4</ele>
        <time>2022-05-11T14:14:01Z</time>
      </trkpt>
      <trkpt lat="46.36081" lon="5.46739">
        <ele>378.6</ele>
        <time>2022-05-11T14:14:02Z</time>
      </trkpt>
      <trkpt lat="46.36096" lon="5.46756">
        <ele>379.6</ele>
        <time>2022-05-11T14:14:06Z</time>
      </trkpt>
      <trkpt lat="46.36099" lon="5.4676">
        <ele>379.8</ele>
        <time>2022-05-11T14:14:07Z</time>
      </trkpt>
      <trkpt lat="46.36106" lon="5.46768">
        <ele>380</ele>
        <time>2022-05-11T14:14:09Z</time>
      </trkpt>
      <trkpt lat="46.36119" lon="5.46787">
        <ele>380.6</ele>
        <time>2022-05-11T14:14:13Z</time>
      </trkpt>
      <trkpt lat="46.36123" lon="5.46792">
        <ele>380.8</ele>
        <time>2022-05-11T14:14:14Z</time>
      </trkpt>
      <trkpt lat="46.36132" lon="5.46803">
        <ele>381.4</ele>
        <time>2022-05-11T14:14:17Z</time>
      </trkpt>
      <trkpt lat="46.36138" lon="5.46811">
        <ele>381.8</ele>
        <time>2022-05-11T14:14:19Z</time>
      </trkpt>
      <trkpt lat="46.36146" lon="5.46821">
        <ele>382.6</ele>
        <time>2022-05-11T14:14:22Z</time>
      </trkpt>
      <trkpt lat="46.36148" lon="5.46824">
        <ele>382.8</ele>
        <time>2022-05-11T14:14:23Z</time>
      </trkpt>
      <trkpt lat="46.36157" lon="5.46835">
        <ele>384.2</ele>
        <time>2022-05-11T14:14:27Z</time>
      </trkpt>
      <trkpt lat="46.3616" lon="5.46838">
        <ele>384.6</ele>
        <time>2022-05-11T14:14:28Z</time>
      </trkpt>
      <trkpt lat="46.36167" lon="5.46846">
        <ele>385.4</ele>
        <time>2022-05-11T14:14:30Z</time>
      </trkpt>
      <trkpt lat="46.36182" lon="5.46861">
        <ele>386.6</ele>
        <time>2022-05-11T14:14:34Z</time>
      </trkpt>
      <trkpt lat="46.36186" lon="5.46865">
        <ele>386.8</ele>
        <time>2022-05-11T14:14:35Z</time>
      </trkpt>
      <trkpt lat="46.36201" lon="5.46881">
        <ele>387.8</ele>
        <time>2022-05-11T14:14:39Z</time>
      </trkpt>
      <trkpt lat="46.36209" lon="5.46886">
        <ele>388</ele>
        <time>2022-05-11T14:14:41Z</time>
      </trkpt>
      <trkpt lat="46.36217" lon="5.46892">
        <ele>388.4</ele>
        <time>2022-05-11T14:14:43Z</time>
      </trkpt>
      <trkpt lat="46.36227" lon="5.46898">
        <ele>388.8</ele>
        <time>2022-05-11T14:14:45Z</time>
      </trkpt>
      <trkpt lat="46.36232" lon="5.46901">
        <ele>388.8</ele>
        <time>2022-05-11T14:14:46Z</time>
      </trkpt>
      <trkpt lat="46.36266" lon="5.46918">
        <ele>390</ele>
        <time>2022-05-11T14:14:53Z</time>
      </trkpt>
      <trkpt lat="46.36275" lon="5.46923">
        <ele>390.4</ele>
        <time>2022-05-11T14:14:55Z</time>
      </trkpt>
      <trkpt lat="46.36288" lon="5.46931">
        <ele>390.6</ele>
        <time>2022-05-11T14:14:58Z</time>
      </trkpt>
      <trkpt lat="46.36316" lon="5.46946">
        <ele>391</ele>
        <time>2022-05-11T14:15:03Z</time>
      </trkpt>
      <trkpt lat="46.36327" lon="5.4695">
        <ele>391</ele>
        <time>2022-05-11T14:15:05Z</time>
      </trkpt>
      <trkpt lat="46.36349" lon="5.46959">
        <ele>391</ele>
        <time>2022-05-11T14:15:09Z</time>
      </trkpt>
      <trkpt lat="46.36399" lon="5.46978">
        <ele>390.6</ele>
        <time>2022-05-11T14:15:17Z</time>
      </trkpt>
      <trkpt lat="46.36444" lon="5.47002">
        <ele>390</ele>
        <time>2022-05-11T14:15:24Z</time>
      </trkpt>
      <trkpt lat="46.36451" lon="5.47006">
        <ele>390</ele>
        <time>2022-05-11T14:15:25Z</time>
      </trkpt>
      <trkpt lat="46.36501" lon="5.47038">
        <ele>389.4</ele>
        <time>2022-05-11T14:15:33Z</time>
      </trkpt>
      <trkpt lat="46.36527" lon="5.47055">
        <ele>389.2</ele>
        <time>2022-05-11T14:15:38Z</time>
      </trkpt>
      <trkpt lat="46.36561" lon="5.47074">
        <ele>390.6</ele>
        <time>2022-05-11T14:15:45Z</time>
      </trkpt>
      <trkpt lat="46.3657" lon="5.47081">
        <ele>391</ele>
        <time>2022-05-11T14:15:47Z</time>
      </trkpt>
      <trkpt lat="46.36585" lon="5.47088">
        <ele>391.4</ele>
        <time>2022-05-11T14:15:50Z</time>
      </trkpt>
      <trkpt lat="46.36591" lon="5.47091">
        <ele>391.6</ele>
        <time>2022-05-11T14:15:51Z</time>
      </trkpt>
      <trkpt lat="46.36621" lon="5.47106">
        <ele>392</ele>
        <time>2022-05-11T14:15:57Z</time>
      </trkpt>
      <trkpt lat="46.36635" lon="5.47114">
        <ele>392.4</ele>
        <time>2022-05-11T14:16:00Z</time>
      </trkpt>
      <trkpt lat="46.36661" lon="5.4713">
        <ele>393.2</ele>
        <time>2022-05-11T14:16:05Z</time>
      </trkpt>
      <trkpt lat="46.36677" lon="5.47139">
        <ele>393.2</ele>
        <time>2022-05-11T14:16:08Z</time>
      </trkpt>
      <trkpt lat="46.36727" lon="5.47174">
        <ele>394</ele>
        <time>2022-05-11T14:16:18Z</time>
      </trkpt>
      <trkpt lat="46.36732" lon="5.47178">
        <ele>394.2</ele>
        <time>2022-05-11T14:16:20Z</time>
      </trkpt>
      <trkpt lat="46.3674" lon="5.47184">
        <ele>394.2</ele>
        <time>2022-05-11T14:16:21Z</time>
      </trkpt>
      <trkpt lat="46.36775" lon="5.47215">
        <ele>395</ele>
        <time>2022-05-11T14:16:28Z</time>
      </trkpt>
      <trkpt lat="46.36797" lon="5.47233">
        <ele>395.6</ele>
        <time>2022-05-11T14:16:33Z</time>
      </trkpt>
      <trkpt lat="46.36811" lon="5.47242">
        <ele>395.8</ele>
        <time>2022-05-11T14:16:36Z</time>
      </trkpt>
      <trkpt lat="46.36861" lon="5.47266">
        <ele>396.6</ele>
        <time>2022-05-11T14:16:46Z</time>
      </trkpt>
      <trkpt lat="46.36873" lon="5.47276">
        <ele>397</ele>
        <time>2022-05-11T14:16:49Z</time>
      </trkpt>
      <trkpt lat="46.3688" lon="5.47284">
        <ele>397</ele>
        <time>2022-05-11T14:16:51Z</time>
      </trkpt>
      <trkpt lat="46.36883" lon="5.47288">
        <ele>397.2</ele>
        <time>2022-05-11T14:16:52Z</time>
      </trkpt>
      <trkpt lat="46.369" lon="5.47305">
        <ele>397.6</ele>
        <time>2022-05-11T14:16:56Z</time>
      </trkpt>
      <trkpt lat="46.36907" lon="5.47313">
        <ele>398</ele>
        <time>2022-05-11T14:16:58Z</time>
      </trkpt>
      <trkpt lat="46.36918" lon="5.47324">
        <ele>398.6</ele>
        <time>2022-05-11T14:17:01Z</time>
      </trkpt>
      <trkpt lat="46.36923" lon="5.47327">
        <ele>398.6</ele>
        <time>2022-05-11T14:17:02Z</time>
      </trkpt>
      <trkpt lat="46.36933" lon="5.47332">
        <ele>399</ele>
        <time>2022-05-11T14:17:04Z</time>
      </trkpt>
      <trkpt lat="46.36942" lon="5.47338">
        <ele>399.4</ele>
        <time>2022-05-11T14:17:06Z</time>
      </trkpt>
      <trkpt lat="46.36946" lon="5.47341">
        <ele>399.4</ele>
        <time>2022-05-11T14:17:07Z</time>
      </trkpt>
      <trkpt lat="46.36951" lon="5.47343">
        <ele>399.6</ele>
        <time>2022-05-11T14:17:08Z</time>
      </trkpt>
      <trkpt lat="46.36962" lon="5.47349">
        <ele>400</ele>
        <time>2022-05-11T14:17:11Z</time>
      </trkpt>
      <trkpt lat="46.36972" lon="5.47353">
        <ele>400.6</ele>
        <time>2022-05-11T14:17:14Z</time>
      </trkpt>
      <trkpt lat="46.36988" lon="5.47362">
        <ele>401.6</ele>
        <time>2022-05-11T14:17:18Z</time>
      </trkpt>
      <trkpt lat="46.36992" lon="5.47364">
        <ele>401.8</ele>
        <time>2022-05-11T14:17:19Z</time>
      </trkpt>
      <trkpt lat="46.37004" lon="5.47371">
        <ele>402.8</ele>
        <time>2022-05-11T14:17:23Z</time>
      </trkpt>
      <trkpt lat="46.37007" lon="5.47374">
        <ele>403.2</ele>
        <time>2022-05-11T14:17:24Z</time>
      </trkpt>
      <trkpt lat="46.37023" lon="5.47382">
        <ele>404.2</ele>
        <time>2022-05-11T14:17:29Z</time>
      </trkpt>
      <trkpt lat="46.37035" lon="5.47387">
        <ele>405.6</ele>
        <time>2022-05-11T14:17:33Z</time>
      </trkpt>
      <trkpt lat="46.37048" lon="5.47392">
        <ele>406.6</ele>
        <time>2022-05-11T14:17:37Z</time>
      </trkpt>
      <trkpt lat="46.37052" lon="5.47395">
        <ele>406.8</ele>
        <time>2022-05-11T14:17:38Z</time>
      </trkpt>
      <trkpt lat="46.37073" lon="5.47405">
        <ele>407.8</ele>
        <time>2022-05-11T14:17:42Z</time>
      </trkpt>
      <trkpt lat="46.37095" lon="5.47414">
        <ele>408.8</ele>
        <time>2022-05-11T14:17:47Z</time>
      </trkpt>
      <trkpt lat="46.37108" lon="5.47421">
        <ele>409.6</ele>
        <time>2022-05-11T14:17:51Z</time>
      </trkpt>
      <trkpt lat="46.37113" lon="5.47424">
        <ele>409.8</ele>
        <time>2022-05-11T14:17:52Z</time>
      </trkpt>
      <trkpt lat="46.3713" lon="5.47434">
        <ele>410.6</ele>
        <time>2022-05-11T14:17:56Z</time>
      </trkpt>
      <trkpt lat="46.37134" lon="5.47435">
        <ele>410.8</ele>
        <time>2022-05-11T14:17:57Z</time>
      </trkpt>
      <trkpt lat="46.37138" lon="5.47438">
        <ele>411</ele>
        <time>2022-05-11T14:17:58Z</time>
      </trkpt>
      <trkpt lat="46.37147" lon="5.47446">
        <ele>411.6</ele>
        <time>2022-05-11T14:18:00Z</time>
      </trkpt>
      <trkpt lat="46.37156" lon="5.47453">
        <ele>412.4</ele>
        <time>2022-05-11T14:18:02Z</time>
      </trkpt>
      <trkpt lat="46.37164" lon="5.47466">
        <ele>412.8</ele>
        <time>2022-05-11T14:18:05Z</time>
      </trkpt>
      <trkpt lat="46.37166" lon="5.47478">
        <ele>413.6</ele>
        <time>2022-05-11T14:18:07Z</time>
      </trkpt>
      <trkpt lat="46.37175" lon="5.47506">
        <ele>414</ele>
        <time>2022-05-11T14:18:12Z</time>
      </trkpt>
      <trkpt lat="46.37184" lon="5.47524">
        <ele>414.4</ele>
        <time>2022-05-11T14:18:16Z</time>
      </trkpt>
      <trkpt lat="46.37188" lon="5.47533">
        <ele>414.6</ele>
        <time>2022-05-11T14:18:18Z</time>
      </trkpt>
      <trkpt lat="46.37196" lon="5.47553">
        <ele>415.4</ele>
        <time>2022-05-11T14:18:22Z</time>
      </trkpt>
      <trkpt lat="46.37197" lon="5.47558">
        <ele>415.8</ele>
        <time>2022-05-11T14:18:23Z</time>
      </trkpt>
      <trkpt lat="46.37204" lon="5.47576">
        <ele>416.4</ele>
        <time>2022-05-11T14:18:27Z</time>
      </trkpt>
      <trkpt lat="46.37205" lon="5.47581">
        <ele>416.8</ele>
        <time>2022-05-11T14:18:28Z</time>
      </trkpt>
      <trkpt lat="46.37201" lon="5.476">
        <ele>417.8</ele>
        <time>2022-05-11T14:18:31Z</time>
      </trkpt>
      <trkpt lat="46.37205" lon="5.47609">
        <ele>418.4</ele>
        <time>2022-05-11T14:18:33Z</time>
      </trkpt>
      <trkpt lat="46.37209" lon="5.47619">
        <ele>419</ele>
        <time>2022-05-11T14:18:35Z</time>
      </trkpt>
      <trkpt lat="46.37224" lon="5.47639">
        <ele>420</ele>
        <time>2022-05-11T14:18:40Z</time>
      </trkpt>
      <trkpt lat="46.37241" lon="5.47663">
        <ele>421</ele>
        <time>2022-05-11T14:18:46Z</time>
      </trkpt>
      <trkpt lat="46.37245" lon="5.47667">
        <ele>421.2</ele>
        <time>2022-05-11T14:18:47Z</time>
      </trkpt>
      <trkpt lat="46.37251" lon="5.47675">
        <ele>422.2</ele>
        <time>2022-05-11T14:18:49Z</time>
      </trkpt>
      <trkpt lat="46.37259" lon="5.47687">
        <ele>422.6</ele>
        <time>2022-05-11T14:18:52Z</time>
      </trkpt>
      <trkpt lat="46.37266" lon="5.47694">
        <ele>423.2</ele>
        <time>2022-05-11T14:18:54Z</time>
      </trkpt>
      <trkpt lat="46.37275" lon="5.47705">
        <ele>424</ele>
        <time>2022-05-11T14:18:57Z</time>
      </trkpt>
      <trkpt lat="46.37278" lon="5.47707">
        <ele>424.2</ele>
        <time>2022-05-11T14:18:58Z</time>
      </trkpt>
      <trkpt lat="46.37295" lon="5.47722">
        <ele>425.4</ele>
        <time>2022-05-11T14:19:03Z</time>
      </trkpt>
      <trkpt lat="46.37301" lon="5.47726">
        <ele>425.8</ele>
        <time>2022-05-11T14:19:05Z</time>
      </trkpt>
      <trkpt lat="46.37311" lon="5.47734">
        <ele>426.6</ele>
        <time>2022-05-11T14:19:08Z</time>
      </trkpt>
      <trkpt lat="46.37324" lon="5.47743">
        <ele>427.8</ele>
        <time>2022-05-11T14:19:12Z</time>
      </trkpt>
      <trkpt lat="46.37339" lon="5.47754">
        <ele>428.8</ele>
        <time>2022-05-11T14:19:17Z</time>
      </trkpt>
      <trkpt lat="46.37351" lon="5.47764">
        <ele>429.8</ele>
        <time>2022-05-11T14:19:21Z</time>
      </trkpt>
      <trkpt lat="46.3737" lon="5.47779">
        <ele>431</ele>
        <time>2022-05-11T14:19:26Z</time>
      </trkpt>
      <trkpt lat="46.37375" lon="5.47783">
        <ele>431.4</ele>
        <time>2022-05-11T14:19:28Z</time>
      </trkpt>
      <trkpt lat="46.37387" lon="5.47789">
        <ele>432.2</ele>
        <time>2022-05-11T14:19:31Z</time>
      </trkpt>
      <trkpt lat="46.37395" lon="5.47792">
        <ele>432.6</ele>
        <time>2022-05-11T14:19:33Z</time>
      </trkpt>
      <trkpt lat="46.37405" lon="5.47793">
        <ele>433.2</ele>
        <time>2022-05-11T14:19:35Z</time>
      </trkpt>
      <trkpt lat="46.37415" lon="5.47793">
        <ele>434</ele>
        <time>2022-05-11T14:19:38Z</time>
      </trkpt>
      <trkpt lat="46.37418" lon="5.47793">
        <ele>434.4</ele>
        <time>2022-05-11T14:19:39Z</time>
      </trkpt>
      <trkpt lat="46.3743" lon="5.47793">
        <ele>435.2</ele>
        <time>2022-05-11T14:19:42Z</time>
      </trkpt>
      <trkpt lat="46.3744" lon="5.47795">
        <ele>435.4</ele>
        <time>2022-05-11T14:19:44Z</time>
      </trkpt>
      <trkpt lat="46.37456" lon="5.47801">
        <ele>436.4</ele>
        <time>2022-05-11T14:19:48Z</time>
      </trkpt>
      <trkpt lat="46.37461" lon="5.47803">
        <ele>436.8</ele>
        <time>2022-05-11T14:19:49Z</time>
      </trkpt>
      <trkpt lat="46.37484" lon="5.4781">
        <ele>438</ele>
        <time>2022-05-11T14:19:54Z</time>
      </trkpt>
      <trkpt lat="46.37506" lon="5.47817">
        <ele>439</ele>
        <time>2022-05-11T14:19:58Z</time>
      </trkpt>
      <trkpt lat="46.37511" lon="5.47818">
        <ele>439</ele>
        <time>2022-05-11T14:19:59Z</time>
      </trkpt>
      <trkpt lat="46.37538" lon="5.47824">
        <ele>439.6</ele>
        <time>2022-05-11T14:20:04Z</time>
      </trkpt>
      <trkpt lat="46.37559" lon="5.4783">
        <ele>440.2</ele>
        <time>2022-05-11T14:20:08Z</time>
      </trkpt>
      <trkpt lat="46.37565" lon="5.47831">
        <ele>440.4</ele>
        <time>2022-05-11T14:20:09Z</time>
      </trkpt>
      <trkpt lat="46.37591" lon="5.47842">
        <ele>441.4</ele>
        <time>2022-05-11T14:20:15Z</time>
      </trkpt>
      <trkpt lat="46.37606" lon="5.47851">
        <ele>442</ele>
        <time>2022-05-11T14:20:19Z</time>
      </trkpt>
      <trkpt lat="46.3761" lon="5.47853">
        <ele>442.2</ele>
        <time>2022-05-11T14:20:20Z</time>
      </trkpt>
      <trkpt lat="46.3763" lon="5.47859">
        <ele>442.4</ele>
        <time>2022-05-11T14:20:24Z</time>
      </trkpt>
      <trkpt lat="46.37644" lon="5.47866">
        <ele>443</ele>
        <time>2022-05-11T14:20:27Z</time>
      </trkpt>
      <trkpt lat="46.37654" lon="5.47871">
        <ele>443.4</ele>
        <time>2022-05-11T14:20:29Z</time>
      </trkpt>
      <trkpt lat="46.37674" lon="5.47881">
        <ele>444</ele>
        <time>2022-05-11T14:20:33Z</time>
      </trkpt>
      <trkpt lat="46.37684" lon="5.47886">
        <ele>444.4</ele>
        <time>2022-05-11T14:20:35Z</time>
      </trkpt>
      <trkpt lat="46.37697" lon="5.47897">
        <ele>444.8</ele>
        <time>2022-05-11T14:20:38Z</time>
      </trkpt>
      <trkpt lat="46.37707" lon="5.47903">
        <ele>445</ele>
        <time>2022-05-11T14:20:40Z</time>
      </trkpt>
      <trkpt lat="46.37725" lon="5.47914">
        <ele>445.4</ele>
        <time>2022-05-11T14:20:44Z</time>
      </trkpt>
      <trkpt lat="46.37733" lon="5.47919">
        <ele>445.8</ele>
        <time>2022-05-11T14:20:46Z</time>
      </trkpt>
      <trkpt lat="46.3774" lon="5.47925">
        <ele>446.4</ele>
        <time>2022-05-11T14:20:48Z</time>
      </trkpt>
      <trkpt lat="46.37762" lon="5.47943">
        <ele>447.4</ele>
        <time>2022-05-11T14:20:53Z</time>
      </trkpt>
      <trkpt lat="46.3777" lon="5.47951">
        <ele>448.2</ele>
        <time>2022-05-11T14:20:55Z</time>
      </trkpt>
      <trkpt lat="46.37779" lon="5.47959">
        <ele>448.6</ele>
        <time>2022-05-11T14:20:57Z</time>
      </trkpt>
      <trkpt lat="46.3779" lon="5.47972">
        <ele>449</ele>
        <time>2022-05-11T14:21:00Z</time>
      </trkpt>
      <trkpt lat="46.37798" lon="5.47981">
        <ele>449.6</ele>
        <time>2022-05-11T14:21:02Z</time>
      </trkpt>
      <trkpt lat="46.37826" lon="5.4801">
        <ele>450.6</ele>
        <time>2022-05-11T14:21:09Z</time>
      </trkpt>
      <trkpt lat="46.37847" lon="5.48032">
        <ele>451.8</ele>
        <time>2022-05-11T14:21:15Z</time>
      </trkpt>
      <trkpt lat="46.37852" lon="5.48038">
        <ele>452</ele>
        <time>2022-05-11T14:21:16Z</time>
      </trkpt>
      <trkpt lat="46.37858" lon="5.48047">
        <ele>452.4</ele>
        <time>2022-05-11T14:21:18Z</time>
      </trkpt>
      <trkpt lat="46.37864" lon="5.48057">
        <ele>452.8</ele>
        <time>2022-05-11T14:21:20Z</time>
      </trkpt>
      <trkpt lat="46.3787" lon="5.48068">
        <ele>453.2</ele>
        <time>2022-05-11T14:21:22Z</time>
      </trkpt>
      <trkpt lat="46.37873" lon="5.48073">
        <ele>453.2</ele>
        <time>2022-05-11T14:21:23Z</time>
      </trkpt>
      <trkpt lat="46.37879" lon="5.48086">
        <ele>453.8</ele>
        <time>2022-05-11T14:21:25Z</time>
      </trkpt>
      <trkpt lat="46.37881" lon="5.48093">
        <ele>454</ele>
        <time>2022-05-11T14:21:26Z</time>
      </trkpt>
      <trkpt lat="46.3789" lon="5.48124">
        <ele>454.8</ele>
        <time>2022-05-11T14:21:30Z</time>
      </trkpt>
      <trkpt lat="46.37897" lon="5.48136">
        <ele>455.2</ele>
        <time>2022-05-11T14:21:32Z</time>
      </trkpt>
      <trkpt lat="46.3791" lon="5.48154">
        <ele>456</ele>
        <time>2022-05-11T14:21:35Z</time>
      </trkpt>
      <trkpt lat="46.37919" lon="5.48164">
        <ele>457.2</ele>
        <time>2022-05-11T14:21:37Z</time>
      </trkpt>
      <trkpt lat="46.37923" lon="5.4817">
        <ele>457.6</ele>
        <time>2022-05-11T14:21:38Z</time>
      </trkpt>
      <trkpt lat="46.37933" lon="5.48182">
        <ele>458.2</ele>
        <time>2022-05-11T14:21:40Z</time>
      </trkpt>
      <trkpt lat="46.37948" lon="5.48201">
        <ele>459.2</ele>
        <time>2022-05-11T14:21:43Z</time>
      </trkpt>
      <trkpt lat="46.37954" lon="5.48207">
        <ele>459.6</ele>
        <time>2022-05-11T14:21:44Z</time>
      </trkpt>
      <trkpt lat="46.37963" lon="5.48219">
        <ele>460.2</ele>
        <time>2022-05-11T14:21:46Z</time>
      </trkpt>
      <trkpt lat="46.37974" lon="5.48227">
        <ele>460.6</ele>
        <time>2022-05-11T14:21:48Z</time>
      </trkpt>
      <trkpt lat="46.3798" lon="5.48232">
        <ele>460.8</ele>
        <time>2022-05-11T14:21:49Z</time>
      </trkpt>
      <trkpt lat="46.38" lon="5.48242">
        <ele>461.8</ele>
        <time>2022-05-11T14:21:52Z</time>
      </trkpt>
      <trkpt lat="46.38034" lon="5.48256">
        <ele>463</ele>
        <time>2022-05-11T14:21:57Z</time>
      </trkpt>
      <trkpt lat="46.38041" lon="5.48259">
        <ele>463.4</ele>
        <time>2022-05-11T14:21:58Z</time>
      </trkpt>
      <trkpt lat="46.38083" lon="5.48276">
        <ele>464.2</ele>
        <time>2022-05-11T14:22:04Z</time>
      </trkpt>
      <trkpt lat="46.38089" lon="5.48278">
        <ele>464.2</ele>
        <time>2022-05-11T14:22:05Z</time>
      </trkpt>
      <trkpt lat="46.38117" lon="5.48284">
        <ele>465.4</ele>
        <time>2022-05-11T14:22:10Z</time>
      </trkpt>
      <trkpt lat="46.38123" lon="5.48285">
        <ele>465.8</ele>
        <time>2022-05-11T14:22:11Z</time>
      </trkpt>
      <trkpt lat="46.38139" lon="5.48286">
        <ele>466.6</ele>
        <time>2022-05-11T14:22:14Z</time>
      </trkpt>
      <trkpt lat="46.38147" lon="5.48291">
        <ele>467.2</ele>
        <time>2022-05-11T14:22:16Z</time>
      </trkpt>
      <trkpt lat="46.3816" lon="5.48297">
        <ele>467.6</ele>
        <time>2022-05-11T14:22:19Z</time>
      </trkpt>
      <trkpt lat="46.38165" lon="5.48298">
        <ele>467.8</ele>
        <time>2022-05-11T14:22:20Z</time>
      </trkpt>
      <trkpt lat="46.3817" lon="5.483">
        <ele>468</ele>
        <time>2022-05-11T14:22:21Z</time>
      </trkpt>
      <trkpt lat="46.38193" lon="5.48306">
        <ele>468.8</ele>
        <time>2022-05-11T14:22:25Z</time>
      </trkpt>
      <trkpt lat="46.38198" lon="5.48308">
        <ele>469.2</ele>
        <time>2022-05-11T14:22:26Z</time>
      </trkpt>
      <trkpt lat="46.38203" lon="5.48309">
        <ele>469.4</ele>
        <time>2022-05-11T14:22:27Z</time>
      </trkpt>
      <trkpt lat="46.38217" lon="5.48315">
        <ele>470.2</ele>
        <time>2022-05-11T14:22:30Z</time>
      </trkpt>
      <trkpt lat="46.38246" lon="5.48315">
        <ele>471.4</ele>
        <time>2022-05-11T14:22:35Z</time>
      </trkpt>
      <trkpt lat="46.38281" lon="5.48315">
        <ele>472</ele>
        <time>2022-05-11T14:22:40Z</time>
      </trkpt>
      <trkpt lat="46.38323" lon="5.4832">
        <ele>472.4</ele>
        <time>2022-05-11T14:22:46Z</time>
      </trkpt>
      <trkpt lat="46.38365" lon="5.48329">
        <ele>472.2</ele>
        <time>2022-05-11T14:22:50Z</time>
      </trkpt>
      <trkpt lat="46.38415" lon="5.48342">
        <ele>471.2</ele>
        <time>2022-05-11T14:22:55Z</time>
      </trkpt>
      <trkpt lat="46.38436" lon="5.48343">
        <ele>470.2</ele>
        <time>2022-05-11T14:22:57Z</time>
      </trkpt>
      <trkpt lat="46.38468" lon="5.48343">
        <ele>469.2</ele>
        <time>2022-05-11T14:23:00Z</time>
      </trkpt>
      <trkpt lat="46.38479" lon="5.48343">
        <ele>468.2</ele>
        <time>2022-05-11T14:23:01Z</time>
      </trkpt>
      <trkpt lat="46.38489" lon="5.48343">
        <ele>467.8</ele>
        <time>2022-05-11T14:23:02Z</time>
      </trkpt>
      <trkpt lat="46.3851" lon="5.48349">
        <ele>467</ele>
        <time>2022-05-11T14:23:04Z</time>
      </trkpt>
      <trkpt lat="46.38527" lon="5.48363">
        <ele>466.8</ele>
        <time>2022-05-11T14:23:06Z</time>
      </trkpt>
      <trkpt lat="46.38534" lon="5.48371">
        <ele>466.6</ele>
        <time>2022-05-11T14:23:07Z</time>
      </trkpt>
      <trkpt lat="46.38559" lon="5.48394">
        <ele>466.6</ele>
        <time>2022-05-11T14:23:10Z</time>
      </trkpt>
      <trkpt lat="46.38578" lon="5.48405">
        <ele>466.6</ele>
        <time>2022-05-11T14:23:12Z</time>
      </trkpt>
      <trkpt lat="46.38631" lon="5.48439">
        <ele>467.2</ele>
        <time>2022-05-11T14:23:18Z</time>
      </trkpt>
      <trkpt lat="46.38655" lon="5.48455">
        <ele>468</ele>
        <time>2022-05-11T14:23:21Z</time>
      </trkpt>
      <trkpt lat="46.38688" lon="5.48474">
        <ele>469.4</ele>
        <time>2022-05-11T14:23:25Z</time>
      </trkpt>
      <trkpt lat="46.38728" lon="5.48495">
        <ele>470.4</ele>
        <time>2022-05-11T14:23:30Z</time>
      </trkpt>
      <trkpt lat="46.38735" lon="5.48499">
        <ele>470.4</ele>
        <time>2022-05-11T14:23:31Z</time>
      </trkpt>
      <trkpt lat="46.3876" lon="5.4851">
        <ele>471.6</ele>
        <time>2022-05-11T14:23:35Z</time>
      </trkpt>
      <trkpt lat="46.38766" lon="5.48513">
        <ele>472</ele>
        <time>2022-05-11T14:23:36Z</time>
      </trkpt>
      <trkpt lat="46.38777" lon="5.48517">
        <ele>472.6</ele>
        <time>2022-05-11T14:23:38Z</time>
      </trkpt>
      <trkpt lat="46.38797" lon="5.48525">
        <ele>474</ele>
        <time>2022-05-11T14:23:42Z</time>
      </trkpt>
      <trkpt lat="46.38801" lon="5.48527">
        <ele>474.8</ele>
        <time>2022-05-11T14:23:43Z</time>
      </trkpt>
      <trkpt lat="46.38806" lon="5.48529">
        <ele>475.2</ele>
        <time>2022-05-11T14:23:44Z</time>
      </trkpt>
      <trkpt lat="46.38819" lon="5.48536">
        <ele>476.8</ele>
        <time>2022-05-11T14:23:47Z</time>
      </trkpt>
      <trkpt lat="46.38835" lon="5.48545">
        <ele>478</ele>
        <time>2022-05-11T14:23:51Z</time>
      </trkpt>
      <trkpt lat="46.38848" lon="5.48552">
        <ele>478.6</ele>
        <time>2022-05-11T14:23:54Z</time>
      </trkpt>
      <trkpt lat="46.3886" lon="5.48558">
        <ele>479.2</ele>
        <time>2022-05-11T14:23:57Z</time>
      </trkpt>
      <trkpt lat="46.38882" lon="5.4857">
        <ele>480.4</ele>
        <time>2022-05-11T14:24:03Z</time>
      </trkpt>
      <trkpt lat="46.38897" lon="5.48578">
        <ele>481.6</ele>
        <time>2022-05-11T14:24:07Z</time>
      </trkpt>
      <trkpt lat="46.38913" lon="5.4859">
        <ele>483</ele>
        <time>2022-05-11T14:24:11Z</time>
      </trkpt>
      <trkpt lat="46.3892" lon="5.48598">
        <ele>483.6</ele>
        <time>2022-05-11T14:24:13Z</time>
      </trkpt>
      <trkpt lat="46.38932" lon="5.48616">
        <ele>484</ele>
        <time>2022-05-11T14:24:17Z</time>
      </trkpt>
      <trkpt lat="46.38942" lon="5.48632">
        <ele>484.8</ele>
        <time>2022-05-11T14:24:21Z</time>
      </trkpt>
      <trkpt lat="46.38944" lon="5.48635">
        <ele>485.4</ele>
        <time>2022-05-11T14:24:22Z</time>
      </trkpt>
      <trkpt lat="46.38951" lon="5.48646">
        <ele>486.6</ele>
        <time>2022-05-11T14:24:25Z</time>
      </trkpt>
      <trkpt lat="46.38954" lon="5.4865">
        <ele>486.8</ele>
        <time>2022-05-11T14:24:26Z</time>
      </trkpt>
      <trkpt lat="46.38965" lon="5.48663">
        <ele>488.2</ele>
        <time>2022-05-11T14:24:30Z</time>
      </trkpt>
      <trkpt lat="46.38981" lon="5.48679">
        <ele>489</ele>
        <time>2022-05-11T14:24:35Z</time>
      </trkpt>
      <trkpt lat="46.3899" lon="5.48685">
        <ele>489.2</ele>
        <time>2022-05-11T14:24:38Z</time>
      </trkpt>
      <trkpt lat="46.38996" lon="5.48689">
        <ele>489.4</ele>
        <time>2022-05-11T14:24:40Z</time>
      </trkpt>
      <trkpt lat="46.39019" lon="5.48699">
        <ele>489.4</ele>
        <time>2022-05-11T14:24:47Z</time>
      </trkpt>
      <trkpt lat="46.39042" lon="5.4871">
        <ele>488.8</ele>
        <time>2022-05-11T14:24:53Z</time>
      </trkpt>
      <trkpt lat="46.39049" lon="5.48714">
        <ele>488</ele>
        <time>2022-05-11T14:24:56Z</time>
      </trkpt>
      <trkpt lat="46.39053" lon="5.48716">
        <ele>487</ele>
        <time>2022-05-11T14:24:58Z</time>
      </trkpt>
      <trkpt lat="46.39055" lon="5.48716">
        <ele>486.8</ele>
        <time>2022-05-11T14:24:59Z</time>
      </trkpt>
      <trkpt lat="46.39055" lon="5.48717">
        <ele>486.2</ele>
        <time>2022-05-11T14:25:02Z</time>
      </trkpt>
      <trkpt lat="46.39058" lon="5.48719">
        <ele>485.8</ele>
        <time>2022-05-11T14:26:18Z</time>
      </trkpt>
      <trkpt lat="46.39063" lon="5.48721">
        <ele>485.6</ele>
        <time>2022-05-11T14:26:20Z</time>
      </trkpt>
      <trkpt lat="46.39069" lon="5.48725">
        <ele>485.6</ele>
        <time>2022-05-11T14:26:22Z</time>
      </trkpt>
      <trkpt lat="46.39074" lon="5.48726">
        <ele>485.6</ele>
        <time>2022-05-11T14:26:24Z</time>
      </trkpt>
      <trkpt lat="46.39094" lon="5.48726">
        <ele>485</ele>
        <time>2022-05-11T14:26:29Z</time>
      </trkpt>
      <trkpt lat="46.3911" lon="5.48724">
        <ele>484.8</ele>
        <time>2022-05-11T14:26:32Z</time>
      </trkpt>
      <trkpt lat="46.39116" lon="5.48722">
        <ele>484.6</ele>
        <time>2022-05-11T14:26:33Z</time>
      </trkpt>
      <trkpt lat="46.39122" lon="5.48719">
        <ele>484.6</ele>
        <time>2022-05-11T14:26:34Z</time>
      </trkpt>
      <trkpt lat="46.39135" lon="5.48712">
        <ele>484.2</ele>
        <time>2022-05-11T14:26:36Z</time>
      </trkpt>
      <trkpt lat="46.39147" lon="5.48699">
        <ele>483.8</ele>
        <time>2022-05-11T14:26:38Z</time>
      </trkpt>
      <trkpt lat="46.39157" lon="5.48681">
        <ele>483.6</ele>
        <time>2022-05-11T14:26:40Z</time>
      </trkpt>
      <trkpt lat="46.3917" lon="5.48651">
        <ele>483</ele>
        <time>2022-05-11T14:26:43Z</time>
      </trkpt>
      <trkpt lat="46.39181" lon="5.4863">
        <ele>482.4</ele>
        <time>2022-05-11T14:26:45Z</time>
      </trkpt>
      <trkpt lat="46.39193" lon="5.48609">
        <ele>481.2</ele>
        <time>2022-05-11T14:26:47Z</time>
      </trkpt>
      <trkpt lat="46.39205" lon="5.48588">
        <ele>479.8</ele>
        <time>2022-05-11T14:26:49Z</time>
      </trkpt>
      <trkpt lat="46.3921" lon="5.48576">
        <ele>479.6</ele>
        <time>2022-05-11T14:26:50Z</time>
      </trkpt>
      <trkpt lat="46.39235" lon="5.48529">
        <ele>478.4</ele>
        <time>2022-05-11T14:26:54Z</time>
      </trkpt>
      <trkpt lat="46.39253" lon="5.48492">
        <ele>476.8</ele>
        <time>2022-05-11T14:26:57Z</time>
      </trkpt>
      <trkpt lat="46.39278" lon="5.48444">
        <ele>475.2</ele>
        <time>2022-05-11T14:27:01Z</time>
      </trkpt>
      <trkpt lat="46.39297" lon="5.4841">
        <ele>474</ele>
        <time>2022-05-11T14:27:04Z</time>
      </trkpt>
      <trkpt lat="46.39304" lon="5.484">
        <ele>473.8</ele>
        <time>2022-05-11T14:27:05Z</time>
      </trkpt>
      <trkpt lat="46.39331" lon="5.48367">
        <ele>473.2</ele>
        <time>2022-05-11T14:27:09Z</time>
      </trkpt>
      <trkpt lat="46.39359" lon="5.48342">
        <ele>473.4</ele>
        <time>2022-05-11T14:27:14Z</time>
      </trkpt>
      <trkpt lat="46.39371" lon="5.48331">
        <ele>473.6</ele>
        <time>2022-05-11T14:27:16Z</time>
      </trkpt>
      <trkpt lat="46.39385" lon="5.4832">
        <ele>474.2</ele>
        <time>2022-05-11T14:27:19Z</time>
      </trkpt>
      <trkpt lat="46.39405" lon="5.48303">
        <ele>475.4</ele>
        <time>2022-05-11T14:27:24Z</time>
      </trkpt>
      <trkpt lat="46.39413" lon="5.48296">
        <ele>475.8</ele>
        <time>2022-05-11T14:27:26Z</time>
      </trkpt>
      <trkpt lat="46.39425" lon="5.48287">
        <ele>476.4</ele>
        <time>2022-05-11T14:27:29Z</time>
      </trkpt>
      <trkpt lat="46.39448" lon="5.48266">
        <ele>477.4</ele>
        <time>2022-05-11T14:27:35Z</time>
      </trkpt>
      <trkpt lat="46.39452" lon="5.48263">
        <ele>477.8</ele>
        <time>2022-05-11T14:27:36Z</time>
      </trkpt>
      <trkpt lat="46.39457" lon="5.48259">
        <ele>478</ele>
        <time>2022-05-11T14:27:37Z</time>
      </trkpt>
      <trkpt lat="46.39461" lon="5.48256">
        <ele>478.2</ele>
        <time>2022-05-11T14:27:38Z</time>
      </trkpt>
      <trkpt lat="46.39473" lon="5.48248">
        <ele>478.8</ele>
        <time>2022-05-11T14:27:41Z</time>
      </trkpt>
      <trkpt lat="46.39488" lon="5.48236">
        <ele>480</ele>
        <time>2022-05-11T14:27:45Z</time>
      </trkpt>
      <trkpt lat="46.39492" lon="5.48233">
        <ele>480.4</ele>
        <time>2022-05-11T14:27:46Z</time>
      </trkpt>
      <trkpt lat="46.39499" lon="5.48225">
        <ele>481</ele>
        <time>2022-05-11T14:27:48Z</time>
      </trkpt>
      <trkpt lat="46.39502" lon="5.48221">
        <ele>481</ele>
        <time>2022-05-11T14:27:49Z</time>
      </trkpt>
      <trkpt lat="46.3952" lon="5.48199">
        <ele>482</ele>
        <time>2022-05-11T14:27:54Z</time>
      </trkpt>
      <trkpt lat="46.39523" lon="5.48194">
        <ele>482.4</ele>
        <time>2022-05-11T14:27:55Z</time>
      </trkpt>
      <trkpt lat="46.39532" lon="5.48178">
        <ele>483.2</ele>
        <time>2022-05-11T14:27:58Z</time>
      </trkpt>
      <trkpt lat="46.3954" lon="5.48164">
        <ele>483.4</ele>
        <time>2022-05-11T14:28:01Z</time>
      </trkpt>
      <trkpt lat="46.39546" lon="5.48149">
        <ele>484.4</ele>
        <time>2022-05-11T14:28:04Z</time>
      </trkpt>
      <trkpt lat="46.39547" lon="5.48143">
        <ele>484.8</ele>
        <time>2022-05-11T14:28:05Z</time>
      </trkpt>
      <trkpt lat="46.39551" lon="5.48125">
        <ele>485.4</ele>
        <time>2022-05-11T14:28:08Z</time>
      </trkpt>
      <trkpt lat="46.39554" lon="5.48106">
        <ele>486.4</ele>
        <time>2022-05-11T14:28:11Z</time>
      </trkpt>
      <trkpt lat="46.39556" lon="5.48092">
        <ele>487</ele>
        <time>2022-05-11T14:28:13Z</time>
      </trkpt>
      <trkpt lat="46.39557" lon="5.48085">
        <ele>487.6</ele>
        <time>2022-05-11T14:28:14Z</time>
      </trkpt>
      <trkpt lat="46.39562" lon="5.48051">
        <ele>488.6</ele>
        <time>2022-05-11T14:28:19Z</time>
      </trkpt>
      <trkpt lat="46.39564" lon="5.48037">
        <ele>489.4</ele>
        <time>2022-05-11T14:28:21Z</time>
      </trkpt>
      <trkpt lat="46.39566" lon="5.48024">
        <ele>489.6</ele>
        <time>2022-05-11T14:28:23Z</time>
      </trkpt>
      <trkpt lat="46.39567" lon="5.48012">
        <ele>490.2</ele>
        <time>2022-05-11T14:28:25Z</time>
      </trkpt>
      <trkpt lat="46.39568" lon="5.48006">
        <ele>490.4</ele>
        <time>2022-05-11T14:28:26Z</time>
      </trkpt>
      <trkpt lat="46.39569" lon="5.47992">
        <ele>490.6</ele>
        <time>2022-05-11T14:28:28Z</time>
      </trkpt>
      <trkpt lat="46.3957" lon="5.47986">
        <ele>490.8</ele>
        <time>2022-05-11T14:28:29Z</time>
      </trkpt>
      <trkpt lat="46.39571" lon="5.47946">
        <ele>491.6</ele>
        <time>2022-05-11T14:28:35Z</time>
      </trkpt>
      <trkpt lat="46.39572" lon="5.47934">
        <ele>492.2</ele>
        <time>2022-05-11T14:28:37Z</time>
      </trkpt>
      <trkpt lat="46.39574" lon="5.4792">
        <ele>492.6</ele>
        <time>2022-05-11T14:28:39Z</time>
      </trkpt>
      <trkpt lat="46.39577" lon="5.47906">
        <ele>493</ele>
        <time>2022-05-11T14:28:41Z</time>
      </trkpt>
      <trkpt lat="46.39582" lon="5.47896">
        <ele>493.4</ele>
        <time>2022-05-11T14:28:43Z</time>
      </trkpt>
      <trkpt lat="46.39592" lon="5.47886">
        <ele>493.6</ele>
        <time>2022-05-11T14:28:45Z</time>
      </trkpt>
      <trkpt lat="46.39617" lon="5.47879">
        <ele>493.8</ele>
        <time>2022-05-11T14:28:50Z</time>
      </trkpt>
      <trkpt lat="46.39638" lon="5.47878">
        <ele>494.4</ele>
        <time>2022-05-11T14:28:54Z</time>
      </trkpt>
      <trkpt lat="46.39671" lon="5.47875">
        <ele>495</ele>
        <time>2022-05-11T14:29:00Z</time>
      </trkpt>
      <trkpt lat="46.39708" lon="5.47874">
        <ele>495.2</ele>
        <time>2022-05-11T14:29:06Z</time>
      </trkpt>
      <trkpt lat="46.39735" lon="5.47873">
        <ele>495.4</ele>
        <time>2022-05-11T14:29:10Z</time>
      </trkpt>
      <trkpt lat="46.3975" lon="5.4787">
        <ele>495.6</ele>
        <time>2022-05-11T14:29:12Z</time>
      </trkpt>
      <trkpt lat="46.39765" lon="5.47862">
        <ele>495.4</ele>
        <time>2022-05-11T14:29:14Z</time>
      </trkpt>
      <trkpt lat="46.39779" lon="5.47848">
        <ele>495.2</ele>
        <time>2022-05-11T14:29:16Z</time>
      </trkpt>
      <trkpt lat="46.39814" lon="5.47802">
        <ele>494</ele>
        <time>2022-05-11T14:29:21Z</time>
      </trkpt>
      <trkpt lat="46.39821" lon="5.47793">
        <ele>493.6</ele>
        <time>2022-05-11T14:29:22Z</time>
      </trkpt>
      <trkpt lat="46.39857" lon="5.47747">
        <ele>492.6</ele>
        <time>2022-05-11T14:29:27Z</time>
      </trkpt>
      <trkpt lat="46.39872" lon="5.47728">
        <ele>491.8</ele>
        <time>2022-05-11T14:29:29Z</time>
      </trkpt>
      <trkpt lat="46.39889" lon="5.47711">
        <ele>491.2</ele>
        <time>2022-05-11T14:29:31Z</time>
      </trkpt>
      <trkpt lat="46.39898" lon="5.47704">
        <ele>491</ele>
        <time>2022-05-11T14:29:32Z</time>
      </trkpt>
      <trkpt lat="46.39908" lon="5.477">
        <ele>490.4</ele>
        <time>2022-05-11T14:29:33Z</time>
      </trkpt>
      <trkpt lat="46.39919" lon="5.47698">
        <ele>490.2</ele>
        <time>2022-05-11T14:29:34Z</time>
      </trkpt>
      <trkpt lat="46.39941" lon="5.47702">
        <ele>489</ele>
        <time>2022-05-11T14:29:36Z</time>
      </trkpt>
      <trkpt lat="46.39964" lon="5.47707">
        <ele>487.6</ele>
        <time>2022-05-11T14:29:38Z</time>
      </trkpt>
      <trkpt lat="46.39987" lon="5.47713">
        <ele>486.6</ele>
        <time>2022-05-11T14:29:40Z</time>
      </trkpt>
      <trkpt lat="46.39998" lon="5.47715">
        <ele>486.2</ele>
        <time>2022-05-11T14:29:41Z</time>
      </trkpt>
      <trkpt lat="46.39998" lon="5.47715">
        <ele>485.4</ele>
        <time>2022-05-11T14:29:42Z</time>
      </trkpt>
      <trkpt lat="46.40012" lon="5.47715">
        <ele>484.2</ele>
        <time>2022-05-11T14:29:43Z</time>
      </trkpt>
      <trkpt lat="46.4002" lon="5.4771">
        <ele>484</ele>
        <time>2022-05-11T14:29:44Z</time>
      </trkpt>
      <trkpt lat="46.40027" lon="5.47699">
        <ele>483.4</ele>
        <time>2022-05-11T14:29:45Z</time>
      </trkpt>
      <trkpt lat="46.4003" lon="5.47676">
        <ele>482.6</ele>
        <time>2022-05-11T14:29:46Z</time>
      </trkpt>
      <trkpt lat="46.40025" lon="5.4766">
        <ele>481.6</ele>
        <time>2022-05-11T14:29:47Z</time>
      </trkpt>
      <trkpt lat="46.4002" lon="5.47646">
        <ele>481</ele>
        <time>2022-05-11T14:29:48Z</time>
      </trkpt>
      <trkpt lat="46.40011" lon="5.47633">
        <ele>480.2</ele>
        <time>2022-05-11T14:29:49Z</time>
      </trkpt>
      <trkpt lat="46.40001" lon="5.47621">
        <ele>478.8</ele>
        <time>2022-05-11T14:29:50Z</time>
      </trkpt>
      <trkpt lat="46.39981" lon="5.47598">
        <ele>477.6</ele>
        <time>2022-05-11T14:29:52Z</time>
      </trkpt>
      <trkpt lat="46.39972" lon="5.47587">
        <ele>477</ele>
        <time>2022-05-11T14:29:53Z</time>
      </trkpt>
      <trkpt lat="46.39962" lon="5.47575">
        <ele>476.2</ele>
        <time>2022-05-11T14:29:54Z</time>
      </trkpt>
      <trkpt lat="46.39943" lon="5.47548">
        <ele>475.4</ele>
        <time>2022-05-11T14:29:56Z</time>
      </trkpt>
      <trkpt lat="46.39935" lon="5.47532">
        <ele>474.4</ele>
        <time>2022-05-11T14:29:57Z</time>
      </trkpt>
      <trkpt lat="46.39922" lon="5.47501">
        <ele>473.2</ele>
        <time>2022-05-11T14:29:59Z</time>
      </trkpt>
      <trkpt lat="46.39909" lon="5.47469">
        <ele>471.8</ele>
        <time>2022-05-11T14:30:01Z</time>
      </trkpt>
      <trkpt lat="46.39903" lon="5.47453">
        <ele>471.4</ele>
        <time>2022-05-11T14:30:02Z</time>
      </trkpt>
      <trkpt lat="46.39898" lon="5.47437">
        <ele>470.6</ele>
        <time>2022-05-11T14:30:03Z</time>
      </trkpt>
      <trkpt lat="46.39892" lon="5.47421">
        <ele>469.8</ele>
        <time>2022-05-11T14:30:04Z</time>
      </trkpt>
      <trkpt lat="46.39886" lon="5.47405">
        <ele>469.4</ele>
        <time>2022-05-11T14:30:05Z</time>
      </trkpt>
      <trkpt lat="46.39867" lon="5.47356">
        <ele>467.6</ele>
        <time>2022-05-11T14:30:08Z</time>
      </trkpt>
      <trkpt lat="46.39855" lon="5.47323">
        <ele>466.2</ele>
        <time>2022-05-11T14:30:10Z</time>
      </trkpt>
      <trkpt lat="46.39843" lon="5.47289">
        <ele>465.2</ele>
        <time>2022-05-11T14:30:12Z</time>
      </trkpt>
      <trkpt lat="46.39831" lon="5.47256">
        <ele>464</ele>
        <time>2022-05-11T14:30:14Z</time>
      </trkpt>
      <trkpt lat="46.39826" lon="5.47239">
        <ele>463</ele>
        <time>2022-05-11T14:30:15Z</time>
      </trkpt>
      <trkpt lat="46.39816" lon="5.47205">
        <ele>461.4</ele>
        <time>2022-05-11T14:30:17Z</time>
      </trkpt>
      <trkpt lat="46.39811" lon="5.47188">
        <ele>460.2</ele>
        <time>2022-05-11T14:30:18Z</time>
      </trkpt>
      <trkpt lat="46.39803" lon="5.47154">
        <ele>458.4</ele>
        <time>2022-05-11T14:30:20Z</time>
      </trkpt>
      <trkpt lat="46.39794" lon="5.47119">
        <ele>457.2</ele>
        <time>2022-05-11T14:30:22Z</time>
      </trkpt>
      <trkpt lat="46.39785" lon="5.47084">
        <ele>454.8</ele>
        <time>2022-05-11T14:30:24Z</time>
      </trkpt>
      <trkpt lat="46.3978" lon="5.47066">
        <ele>453.8</ele>
        <time>2022-05-11T14:30:25Z</time>
      </trkpt>
      <trkpt lat="46.39772" lon="5.47031">
        <ele>452.4</ele>
        <time>2022-05-11T14:30:27Z</time>
      </trkpt>
      <trkpt lat="46.39763" lon="5.46997">
        <ele>450.8</ele>
        <time>2022-05-11T14:30:29Z</time>
      </trkpt>
      <trkpt lat="46.39754" lon="5.46963">
        <ele>449.6</ele>
        <time>2022-05-11T14:30:31Z</time>
      </trkpt>
      <trkpt lat="46.39746" lon="5.46929">
        <ele>448.4</ele>
        <time>2022-05-11T14:30:33Z</time>
      </trkpt>
      <trkpt lat="46.39738" lon="5.46896">
        <ele>447.2</ele>
        <time>2022-05-11T14:30:35Z</time>
      </trkpt>
      <trkpt lat="46.39734" lon="5.46879">
        <ele>445.8</ele>
        <time>2022-05-11T14:30:36Z</time>
      </trkpt>
      <trkpt lat="46.39723" lon="5.46829">
        <ele>443.8</ele>
        <time>2022-05-11T14:30:39Z</time>
      </trkpt>
      <trkpt lat="46.3971" lon="5.46771">
        <ele>442.6</ele>
        <time>2022-05-11T14:30:43Z</time>
      </trkpt>
      <trkpt lat="46.39706" lon="5.46754">
        <ele>442.2</ele>
        <time>2022-05-11T14:30:44Z</time>
      </trkpt>
      <trkpt lat="46.397" lon="5.46732">
        <ele>441.8</ele>
        <time>2022-05-11T14:30:45Z</time>
      </trkpt>
      <trkpt lat="46.39695" lon="5.46717">
        <ele>441</ele>
        <time>2022-05-11T14:30:46Z</time>
      </trkpt>
      <trkpt lat="46.39684" lon="5.46688">
        <ele>440</ele>
        <time>2022-05-11T14:30:48Z</time>
      </trkpt>
      <trkpt lat="46.39667" lon="5.46647">
        <ele>438.8</ele>
        <time>2022-05-11T14:30:51Z</time>
      </trkpt>
      <trkpt lat="46.39648" lon="5.46608">
        <ele>438</ele>
        <time>2022-05-11T14:30:54Z</time>
      </trkpt>
      <trkpt lat="46.3964" lon="5.46597">
        <ele>437.2</ele>
        <time>2022-05-11T14:30:55Z</time>
      </trkpt>
      <trkpt lat="46.39614" lon="5.46568">
        <ele>436.2</ele>
        <time>2022-05-11T14:30:58Z</time>
      </trkpt>
      <trkpt lat="46.39596" lon="5.46549">
        <ele>434.8</ele>
        <time>2022-05-11T14:31:00Z</time>
      </trkpt>
      <trkpt lat="46.39578" lon="5.46529">
        <ele>434</ele>
        <time>2022-05-11T14:31:02Z</time>
      </trkpt>
      <trkpt lat="46.39569" lon="5.46519">
        <ele>433.6</ele>
        <time>2022-05-11T14:31:03Z</time>
      </trkpt>
      <trkpt lat="46.3956" lon="5.46509">
        <ele>432.4</ele>
        <time>2022-05-11T14:31:04Z</time>
      </trkpt>
      <trkpt lat="46.39543" lon="5.46489">
        <ele>430.8</ele>
        <time>2022-05-11T14:31:06Z</time>
      </trkpt>
      <trkpt lat="46.39534" lon="5.46479">
        <ele>429.6</ele>
        <time>2022-05-11T14:31:07Z</time>
      </trkpt>
      <trkpt lat="46.39518" lon="5.4646">
        <ele>428.4</ele>
        <time>2022-05-11T14:31:09Z</time>
      </trkpt>
      <trkpt lat="46.39501" lon="5.46439">
        <ele>427</ele>
        <time>2022-05-11T14:31:11Z</time>
      </trkpt>
      <trkpt lat="46.39481" lon="5.46404">
        <ele>425</ele>
        <time>2022-05-11T14:31:14Z</time>
      </trkpt>
      <trkpt lat="46.39468" lon="5.46379">
        <ele>423.8</ele>
        <time>2022-05-11T14:31:16Z</time>
      </trkpt>
      <trkpt lat="46.39456" lon="5.46354">
        <ele>422.8</ele>
        <time>2022-05-11T14:31:18Z</time>
      </trkpt>
      <trkpt lat="46.39445" lon="5.46326">
        <ele>422.2</ele>
        <time>2022-05-11T14:31:20Z</time>
      </trkpt>
      <trkpt lat="46.39441" lon="5.46312">
        <ele>421.6</ele>
        <time>2022-05-11T14:31:21Z</time>
      </trkpt>
      <trkpt lat="46.39439" lon="5.46296">
        <ele>421.4</ele>
        <time>2022-05-11T14:31:22Z</time>
      </trkpt>
      <trkpt lat="46.39438" lon="5.46264">
        <ele>420.4</ele>
        <time>2022-05-11T14:31:24Z</time>
      </trkpt>
      <trkpt lat="46.39443" lon="5.46214">
        <ele>419</ele>
        <time>2022-05-11T14:31:27Z</time>
      </trkpt>
      <trkpt lat="46.39448" lon="5.4618">
        <ele>418.6</ele>
        <time>2022-05-11T14:31:29Z</time>
      </trkpt>
      <trkpt lat="46.3945" lon="5.46163">
        <ele>417.6</ele>
        <time>2022-05-11T14:31:30Z</time>
      </trkpt>
      <trkpt lat="46.39455" lon="5.46128">
        <ele>416.6</ele>
        <time>2022-05-11T14:31:32Z</time>
      </trkpt>
      <trkpt lat="46.3946" lon="5.46092">
        <ele>415.4</ele>
        <time>2022-05-11T14:31:34Z</time>
      </trkpt>
      <trkpt lat="46.39465" lon="5.46056">
        <ele>414.4</ele>
        <time>2022-05-11T14:31:36Z</time>
      </trkpt>
      <trkpt lat="46.39466" lon="5.46038">
        <ele>413.8</ele>
        <time>2022-05-11T14:31:37Z</time>
      </trkpt>
      <trkpt lat="46.39465" lon="5.46002">
        <ele>412.8</ele>
        <time>2022-05-11T14:31:39Z</time>
      </trkpt>
      <trkpt lat="46.39464" lon="5.45984">
        <ele>412.2</ele>
        <time>2022-05-11T14:31:40Z</time>
      </trkpt>
      <trkpt lat="46.39463" lon="5.45967">
        <ele>411.4</ele>
        <time>2022-05-11T14:31:41Z</time>
      </trkpt>
      <trkpt lat="46.39461" lon="5.45949">
        <ele>410.2</ele>
        <time>2022-05-11T14:31:42Z</time>
      </trkpt>
      <trkpt lat="46.39458" lon="5.45932">
        <ele>410</ele>
        <time>2022-05-11T14:31:43Z</time>
      </trkpt>
      <trkpt lat="46.39453" lon="5.45916">
        <ele>409.4</ele>
        <time>2022-05-11T14:31:44Z</time>
      </trkpt>
      <trkpt lat="46.39448" lon="5.459">
        <ele>409</ele>
        <time>2022-05-11T14:31:45Z</time>
      </trkpt>
      <trkpt lat="46.39434" lon="5.45871">
        <ele>407.8</ele>
        <time>2022-05-11T14:31:47Z</time>
      </trkpt>
      <trkpt lat="46.39426" lon="5.45858">
        <ele>406.4</ele>
        <time>2022-05-11T14:31:48Z</time>
      </trkpt>
      <trkpt lat="46.39408" lon="5.45834">
        <ele>405.4</ele>
        <time>2022-05-11T14:31:50Z</time>
      </trkpt>
      <trkpt lat="46.3939" lon="5.4581">
        <ele>404</ele>
        <time>2022-05-11T14:31:52Z</time>
      </trkpt>
      <trkpt lat="46.39366" lon="5.45779">
        <ele>402</ele>
        <time>2022-05-11T14:31:55Z</time>
      </trkpt>
      <trkpt lat="46.39354" lon="5.45762">
        <ele>400.8</ele>
        <time>2022-05-11T14:31:57Z</time>
      </trkpt>
      <trkpt lat="46.39346" lon="5.4575">
        <ele>399.8</ele>
        <time>2022-05-11T14:31:59Z</time>
      </trkpt>
      <trkpt lat="46.39344" lon="5.45744">
        <ele>399</ele>
        <time>2022-05-11T14:32:00Z</time>
      </trkpt>
      <trkpt lat="46.39344" lon="5.45737">
        <ele>397.6</ele>
        <time>2022-05-11T14:32:02Z</time>
      </trkpt>
      <trkpt lat="46.39345" lon="5.45735">
        <ele>396.8</ele>
        <time>2022-05-11T14:32:03Z</time>
      </trkpt>
      <trkpt lat="46.39346" lon="5.45734">
        <ele>396.4</ele>
        <time>2022-05-11T14:32:05Z</time>
      </trkpt>
      <trkpt lat="46.39346" lon="5.45734">
        <ele>395.4</ele>
        <time>2022-05-11T14:32:07Z</time>
      </trkpt>
      <trkpt lat="46.39356" lon="5.45734">
        <ele>394.2</ele>
        <time>2022-05-11T14:32:27Z</time>
      </trkpt>
      <trkpt lat="46.39378" lon="5.45738">
        <ele>393.8</ele>
        <time>2022-05-11T14:32:32Z</time>
      </trkpt>
      <trkpt lat="46.39414" lon="5.45746">
        <ele>393.6</ele>
        <time>2022-05-11T14:32:38Z</time>
      </trkpt>
      <trkpt lat="46.39461" lon="5.45756">
        <ele>393.2</ele>
        <time>2022-05-11T14:32:45Z</time>
      </trkpt>
      <trkpt lat="46.39515" lon="5.45772">
        <ele>393.8</ele>
        <time>2022-05-11T14:32:53Z</time>
      </trkpt>
      <trkpt lat="46.39563" lon="5.45791">
        <ele>394.8</ele>
        <time>2022-05-11T14:33:01Z</time>
      </trkpt>
      <trkpt lat="46.3957" lon="5.45792">
        <ele>394.8</ele>
        <time>2022-05-11T14:33:02Z</time>
      </trkpt>
      <trkpt lat="46.39593" lon="5.45792">
        <ele>395</ele>
        <time>2022-05-11T14:33:05Z</time>
      </trkpt>
      <trkpt lat="46.39645" lon="5.45791">
        <ele>393.6</ele>
        <time>2022-05-11T14:33:11Z</time>
      </trkpt>
      <trkpt lat="46.39663" lon="5.45786">
        <ele>393.2</ele>
        <time>2022-05-11T14:33:13Z</time>
      </trkpt>
      <trkpt lat="46.39699" lon="5.45776">
        <ele>391.8</ele>
        <time>2022-05-11T14:33:17Z</time>
      </trkpt>
      <trkpt lat="46.39734" lon="5.45766">
        <ele>390.8</ele>
        <time>2022-05-11T14:33:21Z</time>
      </trkpt>
      <trkpt lat="46.3976" lon="5.45757">
        <ele>389.8</ele>
        <time>2022-05-11T14:33:24Z</time>
      </trkpt>
      <trkpt lat="46.39769" lon="5.45753">
        <ele>389.4</ele>
        <time>2022-05-11T14:33:25Z</time>
      </trkpt>
      <trkpt lat="46.39809" lon="5.45734">
        <ele>388.4</ele>
        <time>2022-05-11T14:33:29Z</time>
      </trkpt>
      <trkpt lat="46.39819" lon="5.4573">
        <ele>388.2</ele>
        <time>2022-05-11T14:33:30Z</time>
      </trkpt>
      <trkpt lat="46.3984" lon="5.45723">
        <ele>386.6</ele>
        <time>2022-05-11T14:33:32Z</time>
      </trkpt>
      <trkpt lat="46.39862" lon="5.4572">
        <ele>385.6</ele>
        <time>2022-05-11T14:33:34Z</time>
      </trkpt>
      <trkpt lat="46.39872" lon="5.4572">
        <ele>385.4</ele>
        <time>2022-05-11T14:33:35Z</time>
      </trkpt>
      <trkpt lat="46.39902" lon="5.45721">
        <ele>384.2</ele>
        <time>2022-05-11T14:33:38Z</time>
      </trkpt>
      <trkpt lat="46.39943" lon="5.45724">
        <ele>383.2</ele>
        <time>2022-05-11T14:33:42Z</time>
      </trkpt>
      <trkpt lat="46.39947" lon="5.45724">
        <ele>382.8</ele>
        <time>2022-05-11T14:33:43Z</time>
      </trkpt>
      <trkpt lat="46.39995" lon="5.45726">
        <ele>382.2</ele>
        <time>2022-05-11T14:33:48Z</time>
      </trkpt>
      <trkpt lat="46.40041" lon="5.4571">
        <ele>382</ele>
        <time>2022-05-11T14:33:53Z</time>
      </trkpt>
      <trkpt lat="46.4006" lon="5.45708">
        <ele>382</ele>
        <time>2022-05-11T14:33:55Z</time>
      </trkpt>
      <trkpt lat="46.40069" lon="5.45709">
        <ele>381.8</ele>
        <time>2022-05-11T14:33:56Z</time>
      </trkpt>
      <trkpt lat="46.40079" lon="5.45711">
        <ele>381.2</ele>
        <time>2022-05-11T14:33:57Z</time>
      </trkpt>
      <trkpt lat="46.40098" lon="5.45719">
        <ele>380.4</ele>
        <time>2022-05-11T14:33:59Z</time>
      </trkpt>
      <trkpt lat="46.40128" lon="5.4573">
        <ele>378.8</ele>
        <time>2022-05-11T14:34:02Z</time>
      </trkpt>
      <trkpt lat="46.40138" lon="5.45733">
        <ele>378.4</ele>
        <time>2022-05-11T14:34:03Z</time>
      </trkpt>
      <trkpt lat="46.40148" lon="5.45734">
        <ele>377.8</ele>
        <time>2022-05-11T14:34:04Z</time>
      </trkpt>
      <trkpt lat="46.40157" lon="5.45728">
        <ele>377.4</ele>
        <time>2022-05-11T14:34:05Z</time>
      </trkpt>
      <trkpt lat="46.40163" lon="5.45717">
        <ele>376.8</ele>
        <time>2022-05-11T14:34:06Z</time>
      </trkpt>
      <trkpt lat="46.40166" lon="5.45705">
        <ele>376.6</ele>
        <time>2022-05-11T14:34:07Z</time>
      </trkpt>
      <trkpt lat="46.40167" lon="5.45692">
        <ele>375.8</ele>
        <time>2022-05-11T14:34:08Z</time>
      </trkpt>
      <trkpt lat="46.40167" lon="5.45679">
        <ele>375</ele>
        <time>2022-05-11T14:34:09Z</time>
      </trkpt>
      <trkpt lat="46.40165" lon="5.45627">
        <ele>373.8</ele>
        <time>2022-05-11T14:34:13Z</time>
      </trkpt>
      <trkpt lat="46.40161" lon="5.45555">
        <ele>373.4</ele>
        <time>2022-05-11T14:34:19Z</time>
      </trkpt>
      <trkpt lat="46.40161" lon="5.45531">
        <ele>373</ele>
        <time>2022-05-11T14:34:21Z</time>
      </trkpt>
      <trkpt lat="46.40165" lon="5.45509">
        <ele>373</ele>
        <time>2022-05-11T14:34:23Z</time>
      </trkpt>
      <trkpt lat="46.40168" lon="5.45499">
        <ele>372.6</ele>
        <time>2022-05-11T14:34:24Z</time>
      </trkpt>
      <trkpt lat="46.40177" lon="5.4548">
        <ele>372.6</ele>
        <time>2022-05-11T14:34:26Z</time>
      </trkpt>
      <trkpt lat="46.40195" lon="5.45447">
        <ele>372.4</ele>
        <time>2022-05-11T14:34:30Z</time>
      </trkpt>
      <trkpt lat="46.40201" lon="5.45442">
        <ele>372.4</ele>
        <time>2022-05-11T14:34:31Z</time>
      </trkpt>
      <trkpt lat="46.40206" lon="5.45441">
        <ele>372.4</ele>
        <time>2022-05-11T14:34:32Z</time>
      </trkpt>
      <trkpt lat="46.40211" lon="5.45444">
        <ele>372.4</ele>
        <time>2022-05-11T14:34:33Z</time>
      </trkpt>
      <trkpt lat="46.40223" lon="5.45452">
        <ele>372.2</ele>
        <time>2022-05-11T14:34:35Z</time>
      </trkpt>
      <trkpt lat="46.40242" lon="5.4546">
        <ele>372</ele>
        <time>2022-05-11T14:34:38Z</time>
      </trkpt>
      <trkpt lat="46.40262" lon="5.45468">
        <ele>371.8</ele>
        <time>2022-05-11T14:34:41Z</time>
      </trkpt>
      <trkpt lat="46.4029" lon="5.45481">
        <ele>371.2</ele>
        <time>2022-05-11T14:34:45Z</time>
      </trkpt>
      <trkpt lat="46.40347" lon="5.45507">
        <ele>370.8</ele>
        <time>2022-05-11T14:34:53Z</time>
      </trkpt>
      <trkpt lat="46.40369" lon="5.45515">
        <ele>370.6</ele>
        <time>2022-05-11T14:34:56Z</time>
      </trkpt>
      <trkpt lat="46.40406" lon="5.45528">
        <ele>370.6</ele>
        <time>2022-05-11T14:35:01Z</time>
      </trkpt>
      <trkpt lat="46.40449" lon="5.45546">
        <ele>370.6</ele>
        <time>2022-05-11T14:35:07Z</time>
      </trkpt>
      <trkpt lat="46.40456" lon="5.45549">
        <ele>370.6</ele>
        <time>2022-05-11T14:35:08Z</time>
      </trkpt>
      <trkpt lat="46.40478" lon="5.45558">
        <ele>371.4</ele>
        <time>2022-05-11T14:35:12Z</time>
      </trkpt>
      <trkpt lat="46.40537" lon="5.45583">
        <ele>371.6</ele>
        <time>2022-05-11T14:35:19Z</time>
      </trkpt>
      <trkpt lat="46.40595" lon="5.45608">
        <ele>371</ele>
        <time>2022-05-11T14:35:27Z</time>
      </trkpt>
      <trkpt lat="46.40616" lon="5.45618">
        <ele>371</ele>
        <time>2022-05-11T14:35:30Z</time>
      </trkpt>
      <trkpt lat="46.40674" lon="5.45638">
        <ele>371.8</ele>
        <time>2022-05-11T14:35:38Z</time>
      </trkpt>
      <trkpt lat="46.40681" lon="5.45641">
        <ele>371.8</ele>
        <time>2022-05-11T14:35:39Z</time>
      </trkpt>
      <trkpt lat="46.40694" lon="5.45649">
        <ele>371.8</ele>
        <time>2022-05-11T14:35:41Z</time>
      </trkpt>
      <trkpt lat="46.40706" lon="5.4566">
        <ele>371.6</ele>
        <time>2022-05-11T14:35:43Z</time>
      </trkpt>
      <trkpt lat="46.40736" lon="5.45701">
        <ele>371.6</ele>
        <time>2022-05-11T14:35:49Z</time>
      </trkpt>
      <trkpt lat="46.40758" lon="5.45736">
        <ele>372.2</ele>
        <time>2022-05-11T14:35:54Z</time>
      </trkpt>
      <trkpt lat="46.40766" lon="5.4575">
        <ele>372.4</ele>
        <time>2022-05-11T14:35:56Z</time>
      </trkpt>
      <trkpt lat="46.40775" lon="5.45763">
        <ele>372.6</ele>
        <time>2022-05-11T14:35:58Z</time>
      </trkpt>
      <trkpt lat="46.40787" lon="5.45772">
        <ele>372.8</ele>
        <time>2022-05-11T14:36:00Z</time>
      </trkpt>
      <trkpt lat="46.408" lon="5.45776">
        <ele>373</ele>
        <time>2022-05-11T14:36:02Z</time>
      </trkpt>
      <trkpt lat="46.40806" lon="5.45778">
        <ele>373.2</ele>
        <time>2022-05-11T14:36:03Z</time>
      </trkpt>
      <trkpt lat="46.40812" lon="5.45779">
        <ele>373.6</ele>
        <time>2022-05-11T14:36:04Z</time>
      </trkpt>
      <trkpt lat="46.40842" lon="5.45791">
        <ele>374.2</ele>
        <time>2022-05-11T14:36:09Z</time>
      </trkpt>
      <trkpt lat="46.40847" lon="5.45794">
        <ele>374.4</ele>
        <time>2022-05-11T14:36:10Z</time>
      </trkpt>
      <trkpt lat="46.40898" lon="5.45828">
        <ele>375.2</ele>
        <time>2022-05-11T14:36:19Z</time>
      </trkpt>
      <trkpt lat="46.40909" lon="5.45836">
        <ele>375.6</ele>
        <time>2022-05-11T14:36:21Z</time>
      </trkpt>
      <trkpt lat="46.40942" lon="5.45856">
        <ele>376.8</ele>
        <time>2022-05-11T14:36:27Z</time>
      </trkpt>
      <trkpt lat="46.40948" lon="5.45859">
        <ele>376.8</ele>
        <time>2022-05-11T14:36:28Z</time>
      </trkpt>
      <trkpt lat="46.40994" lon="5.4588">
        <ele>378</ele>
        <time>2022-05-11T14:36:36Z</time>
      </trkpt>
      <trkpt lat="46.40999" lon="5.45883">
        <ele>378</ele>
        <time>2022-05-11T14:36:37Z</time>
      </trkpt>
      <trkpt lat="46.41051" lon="5.45903">
        <ele>378.6</ele>
        <time>2022-05-11T14:36:46Z</time>
      </trkpt>
      <trkpt lat="46.41086" lon="5.45917">
        <ele>379</ele>
        <time>2022-05-11T14:36:52Z</time>
      </trkpt>
      <trkpt lat="46.41098" lon="5.45923">
        <ele>379.2</ele>
        <time>2022-05-11T14:36:54Z</time>
      </trkpt>
      <trkpt lat="46.41152" lon="5.45945">
        <ele>379.8</ele>
        <time>2022-05-11T14:37:03Z</time>
      </trkpt>
      <trkpt lat="46.41158" lon="5.45947">
        <ele>380</ele>
        <time>2022-05-11T14:37:04Z</time>
      </trkpt>
      <trkpt lat="46.41164" lon="5.4595">
        <ele>380.2</ele>
        <time>2022-05-11T14:37:05Z</time>
      </trkpt>
      <trkpt lat="46.41203" lon="5.4596">
        <ele>380.6</ele>
        <time>2022-05-11T14:37:12Z</time>
      </trkpt>
      <trkpt lat="46.41213" lon="5.45963">
        <ele>380.6</ele>
        <time>2022-05-11T14:37:13Z</time>
      </trkpt>
      <trkpt lat="46.4126" lon="5.4598">
        <ele>380.6</ele>
        <time>2022-05-11T14:37:20Z</time>
      </trkpt>
      <trkpt lat="46.41318" lon="5.46006">
        <ele>380.6</ele>
        <time>2022-05-11T14:37:29Z</time>
      </trkpt>
      <trkpt lat="46.41331" lon="5.46014">
        <ele>380.6</ele>
        <time>2022-05-11T14:37:31Z</time>
      </trkpt>
      <trkpt lat="46.41364" lon="5.46041">
        <ele>380.4</ele>
        <time>2022-05-11T14:37:36Z</time>
      </trkpt>
      <trkpt lat="46.41387" lon="5.46081">
        <ele>380.4</ele>
        <time>2022-05-11T14:37:41Z</time>
      </trkpt>
      <trkpt lat="46.41406" lon="5.46118">
        <ele>380.6</ele>
        <time>2022-05-11T14:37:46Z</time>
      </trkpt>
      <trkpt lat="46.41421" lon="5.46134">
        <ele>381.2</ele>
        <time>2022-05-11T14:37:49Z</time>
      </trkpt>
      <trkpt lat="46.41427" lon="5.46139">
        <ele>381.4</ele>
        <time>2022-05-11T14:37:50Z</time>
      </trkpt>
      <trkpt lat="46.41433" lon="5.46142">
        <ele>381.6</ele>
        <time>2022-05-11T14:37:51Z</time>
      </trkpt>
      <trkpt lat="46.41458" lon="5.46152">
        <ele>381.8</ele>
        <time>2022-05-11T14:37:55Z</time>
      </trkpt>
      <trkpt lat="46.41511" lon="5.46169">
        <ele>382</ele>
        <time>2022-05-11T14:38:03Z</time>
      </trkpt>
      <trkpt lat="46.41525" lon="5.46173">
        <ele>382</ele>
        <time>2022-05-11T14:38:05Z</time>
      </trkpt>
      <trkpt lat="46.41579" lon="5.4619">
        <ele>381.6</ele>
        <time>2022-05-11T14:38:13Z</time>
      </trkpt>
      <trkpt lat="46.41586" lon="5.46192">
        <ele>381.6</ele>
        <time>2022-05-11T14:38:14Z</time>
      </trkpt>
      <trkpt lat="46.41616" lon="5.46203">
        <ele>381.2</ele>
        <time>2022-05-11T14:38:18Z</time>
      </trkpt>
      <trkpt lat="46.41622" lon="5.46208">
        <ele>381.2</ele>
        <time>2022-05-11T14:38:19Z</time>
      </trkpt>
      <trkpt lat="46.41634" lon="5.46219">
        <ele>381.2</ele>
        <time>2022-05-11T14:38:21Z</time>
      </trkpt>
      <trkpt lat="46.41639" lon="5.46226">
        <ele>381.4</ele>
        <time>2022-05-11T14:38:22Z</time>
      </trkpt>
      <trkpt lat="46.41657" lon="5.46265">
        <ele>381.4</ele>
        <time>2022-05-11T14:38:27Z</time>
      </trkpt>
      <trkpt lat="46.41684" lon="5.46329">
        <ele>382.2</ele>
        <time>2022-05-11T14:38:35Z</time>
      </trkpt>
      <trkpt lat="46.417" lon="5.46368">
        <ele>382.8</ele>
        <time>2022-05-11T14:38:40Z</time>
      </trkpt>
      <trkpt lat="46.41716" lon="5.46405">
        <ele>383.4</ele>
        <time>2022-05-11T14:38:45Z</time>
      </trkpt>
      <trkpt lat="46.41726" lon="5.46428">
        <ele>384</ele>
        <time>2022-05-11T14:38:48Z</time>
      </trkpt>
      <trkpt lat="46.41742" lon="5.46465">
        <ele>385</ele>
        <time>2022-05-11T14:38:53Z</time>
      </trkpt>
      <trkpt lat="46.41745" lon="5.46472">
        <ele>385</ele>
        <time>2022-05-11T14:38:54Z</time>
      </trkpt>
      <trkpt lat="46.41771" lon="5.4653">
        <ele>385.8</ele>
        <time>2022-05-11T14:39:02Z</time>
      </trkpt>
      <trkpt lat="46.41783" lon="5.46559">
        <ele>386</ele>
        <time>2022-05-11T14:39:06Z</time>
      </trkpt>
      <trkpt lat="46.41796" lon="5.46586">
        <ele>386.2</ele>
        <time>2022-05-11T14:39:10Z</time>
      </trkpt>
      <trkpt lat="46.41799" lon="5.46592">
        <ele>386.2</ele>
        <time>2022-05-11T14:39:12Z</time>
      </trkpt>
      <trkpt lat="46.41806" lon="5.466">
        <ele>386.6</ele>
        <time>2022-05-11T14:39:13Z</time>
      </trkpt>
      <trkpt lat="46.41816" lon="5.46607">
        <ele>386.8</ele>
        <time>2022-05-11T14:39:15Z</time>
      </trkpt>
      <trkpt lat="46.41823" lon="5.4661">
        <ele>386.8</ele>
        <time>2022-05-11T14:39:16Z</time>
      </trkpt>
      <trkpt lat="46.41846" lon="5.46612">
        <ele>387</ele>
        <time>2022-05-11T14:39:20Z</time>
      </trkpt>
      <trkpt lat="46.41863" lon="5.46614">
        <ele>387.2</ele>
        <time>2022-05-11T14:39:23Z</time>
      </trkpt>
      <trkpt lat="46.41905" lon="5.46628">
        <ele>387.2</ele>
        <time>2022-05-11T14:39:30Z</time>
      </trkpt>
      <trkpt lat="46.41959" lon="5.46658">
        <ele>387.2</ele>
        <time>2022-05-11T14:39:39Z</time>
      </trkpt>
      <trkpt lat="46.41991" lon="5.46686">
        <ele>386.8</ele>
        <time>2022-05-11T14:39:45Z</time>
      </trkpt>
      <trkpt lat="46.42018" lon="5.46716">
        <ele>386.8</ele>
        <time>2022-05-11T14:39:51Z</time>
      </trkpt>
      <trkpt lat="46.42023" lon="5.4672">
        <ele>386.6</ele>
        <time>2022-05-11T14:39:52Z</time>
      </trkpt>
      <trkpt lat="46.42035" lon="5.46727">
        <ele>385.8</ele>
        <time>2022-05-11T14:39:54Z</time>
      </trkpt>
      <trkpt lat="46.42042" lon="5.46731">
        <ele>385.4</ele>
        <time>2022-05-11T14:39:55Z</time>
      </trkpt>
      <trkpt lat="46.42049" lon="5.46734">
        <ele>385.4</ele>
        <time>2022-05-11T14:39:56Z</time>
      </trkpt>
      <trkpt lat="46.42071" lon="5.46743">
        <ele>384.2</ele>
        <time>2022-05-11T14:39:59Z</time>
      </trkpt>
      <trkpt lat="46.42079" lon="5.46746">
        <ele>384.2</ele>
        <time>2022-05-11T14:40:00Z</time>
      </trkpt>
      <trkpt lat="46.421" lon="5.46756">
        <ele>383.2</ele>
        <time>2022-05-11T14:40:03Z</time>
      </trkpt>
      <trkpt lat="46.42114" lon="5.46763">
        <ele>382.4</ele>
        <time>2022-05-11T14:40:05Z</time>
      </trkpt>
      <trkpt lat="46.4212" lon="5.46766">
        <ele>382</ele>
        <time>2022-05-11T14:40:06Z</time>
      </trkpt>
      <trkpt lat="46.42136" lon="5.46776">
        <ele>381.6</ele>
        <time>2022-05-11T14:40:09Z</time>
      </trkpt>
      <trkpt lat="46.42141" lon="5.46778">
        <ele>381.6</ele>
        <time>2022-05-11T14:40:10Z</time>
      </trkpt>
      <trkpt lat="46.42155" lon="5.46785">
        <ele>381.6</ele>
        <time>2022-05-11T14:40:14Z</time>
      </trkpt>
      <trkpt lat="46.42178" lon="5.468">
        <ele>381.8</ele>
        <time>2022-05-11T14:40:21Z</time>
      </trkpt>
      <trkpt lat="46.42207" lon="5.46823">
        <ele>381.8</ele>
        <time>2022-05-11T14:40:29Z</time>
      </trkpt>
      <trkpt lat="46.42211" lon="5.46825">
        <ele>381.8</ele>
        <time>2022-05-11T14:40:30Z</time>
      </trkpt>
      <trkpt lat="46.42226" lon="5.46828">
        <ele>382.8</ele>
        <time>2022-05-11T14:40:34Z</time>
      </trkpt>
      <trkpt lat="46.42231" lon="5.46826">
        <ele>383.6</ele>
        <time>2022-05-11T14:40:36Z</time>
      </trkpt>
      <trkpt lat="46.42235" lon="5.46822">
        <ele>384</ele>
        <time>2022-05-11T14:40:38Z</time>
      </trkpt>
      <trkpt lat="46.4224" lon="5.46818">
        <ele>384.6</ele>
        <time>2022-05-11T14:40:41Z</time>
      </trkpt>
      <trkpt lat="46.42248" lon="5.4681">
        <ele>384.8</ele>
        <time>2022-05-11T14:40:45Z</time>
      </trkpt>
      <trkpt lat="46.42256" lon="5.46796">
        <ele>385.2</ele>
        <time>2022-05-11T14:40:51Z</time>
      </trkpt>
      <trkpt lat="46.42267" lon="5.46775">
        <ele>385.4</ele>
        <time>2022-05-11T14:40:57Z</time>
      </trkpt>
      <trkpt lat="46.42277" lon="5.4676">
        <ele>385.6</ele>
        <time>2022-05-11T14:41:02Z</time>
      </trkpt>
      <trkpt lat="46.42283" lon="5.46754">
        <ele>385.8</ele>
        <time>2022-05-11T14:41:04Z</time>
      </trkpt>
      <trkpt lat="46.42301" lon="5.46735">
        <ele>386</ele>
        <time>2022-05-11T14:41:11Z</time>
      </trkpt>
      <trkpt lat="46.42312" lon="5.46738">
        <ele>385.8</ele>
        <time>2022-05-11T14:41:15Z</time>
      </trkpt>
      <trkpt lat="46.42325" lon="5.46746">
        <ele>385.4</ele>
        <time>2022-05-11T14:41:22Z</time>
      </trkpt>
      <trkpt lat="46.4234" lon="5.46753">
        <ele>385.2</ele>
        <time>2022-05-11T14:41:30Z</time>
      </trkpt>
      <trkpt lat="46.42356" lon="5.46759">
        <ele>385.2</ele>
        <time>2022-05-11T14:41:36Z</time>
      </trkpt>
      <trkpt lat="46.42376" lon="5.46772">
        <ele>385.2</ele>
        <time>2022-05-11T14:41:41Z</time>
      </trkpt>
      <trkpt lat="46.42388" lon="5.46779">
        <ele>385.6</ele>
        <time>2022-05-11T14:41:44Z</time>
      </trkpt>
      <trkpt lat="46.42402" lon="5.46786">
        <ele>385.6</ele>
        <time>2022-05-11T14:41:47Z</time>
      </trkpt>
      <trkpt lat="46.42433" lon="5.46804">
        <ele>385.6</ele>
        <time>2022-05-11T14:41:55Z</time>
      </trkpt>
      <trkpt lat="46.42444" lon="5.46811">
        <ele>385.6</ele>
        <time>2022-05-11T14:41:58Z</time>
      </trkpt>
      <trkpt lat="46.42464" lon="5.46825">
        <ele>385.8</ele>
        <time>2022-05-11T14:42:03Z</time>
      </trkpt>
      <trkpt lat="46.42495" lon="5.46849">
        <ele>386</ele>
        <time>2022-05-11T14:42:11Z</time>
      </trkpt>
      <trkpt lat="46.42508" lon="5.46856">
        <ele>385.8</ele>
        <time>2022-05-11T14:42:14Z</time>
      </trkpt>
      <trkpt lat="46.42517" lon="5.46858">
        <ele>385.8</ele>
        <time>2022-05-11T14:42:16Z</time>
      </trkpt>
      <trkpt lat="46.42527" lon="5.46857">
        <ele>385.6</ele>
        <time>2022-05-11T14:42:18Z</time>
      </trkpt>
      <trkpt lat="46.42537" lon="5.46852">
        <ele>385.4</ele>
        <time>2022-05-11T14:42:20Z</time>
      </trkpt>
      <trkpt lat="46.42563" lon="5.46833">
        <ele>385.2</ele>
        <time>2022-05-11T14:42:25Z</time>
      </trkpt>
      <trkpt lat="46.42588" lon="5.46809">
        <ele>384.8</ele>
        <time>2022-05-11T14:42:30Z</time>
      </trkpt>
      <trkpt lat="46.426" lon="5.46798">
        <ele>384.4</ele>
        <time>2022-05-11T14:42:32Z</time>
      </trkpt>
      <trkpt lat="46.42623" lon="5.46775">
        <ele>383.8</ele>
        <time>2022-05-11T14:42:36Z</time>
      </trkpt>
      <trkpt lat="46.42646" lon="5.46752">
        <ele>383.4</ele>
        <time>2022-05-11T14:42:40Z</time>
      </trkpt>
      <trkpt lat="46.42674" lon="5.46731">
        <ele>382.6</ele>
        <time>2022-05-11T14:42:45Z</time>
      </trkpt>
      <trkpt lat="46.42683" lon="5.46727">
        <ele>382.6</ele>
        <time>2022-05-11T14:42:46Z</time>
      </trkpt>
      <trkpt lat="46.42727" lon="5.46718">
        <ele>381.8</ele>
        <time>2022-05-11T14:42:52Z</time>
      </trkpt>
      <trkpt lat="46.42734" lon="5.46716">
        <ele>381.6</ele>
        <time>2022-05-11T14:42:53Z</time>
      </trkpt>
      <trkpt lat="46.42777" lon="5.46701">
        <ele>380.6</ele>
        <time>2022-05-11T14:42:59Z</time>
      </trkpt>
      <trkpt lat="46.42831" lon="5.46684">
        <ele>380.2</ele>
        <time>2022-05-11T14:43:07Z</time>
      </trkpt>
      <trkpt lat="46.42873" lon="5.46672">
        <ele>380.2</ele>
        <time>2022-05-11T14:43:14Z</time>
      </trkpt>
      <trkpt lat="46.42905" lon="5.46668">
        <ele>380.2</ele>
        <time>2022-05-11T14:43:20Z</time>
      </trkpt>
      <trkpt lat="46.42954" lon="5.46662">
        <ele>380.6</ele>
        <time>2022-05-11T14:43:29Z</time>
      </trkpt>
      <trkpt lat="46.4299" lon="5.46658">
        <ele>380.8</ele>
        <time>2022-05-11T14:43:36Z</time>
      </trkpt>
      <trkpt lat="46.43025" lon="5.46645">
        <ele>381.2</ele>
        <time>2022-05-11T14:43:43Z</time>
      </trkpt>
      <trkpt lat="46.43033" lon="5.46642">
        <ele>381.4</ele>
        <time>2022-05-11T14:43:45Z</time>
      </trkpt>
      <trkpt lat="46.43047" lon="5.4664">
        <ele>382</ele>
        <time>2022-05-11T14:43:48Z</time>
      </trkpt>
      <trkpt lat="46.43078" lon="5.46645">
        <ele>383</ele>
        <time>2022-05-11T14:43:54Z</time>
      </trkpt>
      <trkpt lat="46.43088" lon="5.46649">
        <ele>383.2</ele>
        <time>2022-05-11T14:43:56Z</time>
      </trkpt>
      <trkpt lat="46.43099" lon="5.46652">
        <ele>383.4</ele>
        <time>2022-05-11T14:43:58Z</time>
      </trkpt>
      <trkpt lat="46.4311" lon="5.46654">
        <ele>383.8</ele>
        <time>2022-05-11T14:44:00Z</time>
      </trkpt>
      <trkpt lat="46.43121" lon="5.46654">
        <ele>384.2</ele>
        <time>2022-05-11T14:44:02Z</time>
      </trkpt>
      <trkpt lat="46.43148" lon="5.46646">
        <ele>384.8</ele>
        <time>2022-05-11T14:44:07Z</time>
      </trkpt>
      <trkpt lat="46.43158" lon="5.4664">
        <ele>384.8</ele>
        <time>2022-05-11T14:44:09Z</time>
      </trkpt>
      <trkpt lat="46.43181" lon="5.46625">
        <ele>385.2</ele>
        <time>2022-05-11T14:44:14Z</time>
      </trkpt>
      <trkpt lat="46.43187" lon="5.4662">
        <ele>385.2</ele>
        <time>2022-05-11T14:44:15Z</time>
      </trkpt>
      <trkpt lat="46.43191" lon="5.46616">
        <ele>385.4</ele>
        <time>2022-05-11T14:44:16Z</time>
      </trkpt>
      <trkpt lat="46.43199" lon="5.46608">
        <ele>385.6</ele>
        <time>2022-05-11T14:44:18Z</time>
      </trkpt>
      <trkpt lat="46.43203" lon="5.46603">
        <ele>385.6</ele>
        <time>2022-05-11T14:44:19Z</time>
      </trkpt>
      <trkpt lat="46.43212" lon="5.46587">
        <ele>385.8</ele>
        <time>2022-05-11T14:44:22Z</time>
      </trkpt>
      <trkpt lat="46.43217" lon="5.46578">
        <ele>386</ele>
        <time>2022-05-11T14:44:24Z</time>
      </trkpt>
      <trkpt lat="46.43224" lon="5.46568">
        <ele>386.4</ele>
        <time>2022-05-11T14:44:27Z</time>
      </trkpt>
      <trkpt lat="46.4323" lon="5.46558">
        <ele>387.4</ele>
        <time>2022-05-11T14:44:30Z</time>
      </trkpt>
      <trkpt lat="46.43252" lon="5.46531">
        <ele>388</ele>
        <time>2022-05-11T14:44:37Z</time>
      </trkpt>
      <trkpt lat="46.43269" lon="5.46509">
        <ele>388</ele>
        <time>2022-05-11T14:44:41Z</time>
      </trkpt>
      <trkpt lat="46.43273" lon="5.46502">
        <ele>388</ele>
        <time>2022-05-11T14:44:42Z</time>
      </trkpt>
      <trkpt lat="46.4328" lon="5.46486">
        <ele>388.2</ele>
        <time>2022-05-11T14:44:44Z</time>
      </trkpt>
      <trkpt lat="46.43285" lon="5.46469">
        <ele>388.2</ele>
        <time>2022-05-11T14:44:46Z</time>
      </trkpt>
      <trkpt lat="46.43287" lon="5.4646">
        <ele>388.2</ele>
        <time>2022-05-11T14:44:47Z</time>
      </trkpt>
      <trkpt lat="46.43304" lon="5.46384">
        <ele>388.2</ele>
        <time>2022-05-11T14:44:55Z</time>
      </trkpt>
      <trkpt lat="46.43321" lon="5.4633">
        <ele>388.4</ele>
        <time>2022-05-11T14:45:01Z</time>
      </trkpt>
      <trkpt lat="46.4335" lon="5.46263">
        <ele>388</ele>
        <time>2022-05-11T14:45:09Z</time>
      </trkpt>
      <trkpt lat="46.43377" lon="5.46218">
        <ele>387.6</ele>
        <time>2022-05-11T14:45:15Z</time>
      </trkpt>
      <trkpt lat="46.43418" lon="5.46183">
        <ele>387.2</ele>
        <time>2022-05-11T14:45:20Z</time>
      </trkpt>
      <trkpt lat="46.43433" lon="5.4617">
        <ele>386.6</ele>
        <time>2022-05-11T14:45:22Z</time>
      </trkpt>
      <trkpt lat="46.4347" lon="5.46138">
        <ele>385.4</ele>
        <time>2022-05-11T14:45:27Z</time>
      </trkpt>
      <trkpt lat="46.43523" lon="5.46095">
        <ele>384.6</ele>
        <time>2022-05-11T14:45:34Z</time>
      </trkpt>
      <trkpt lat="46.43531" lon="5.46091">
        <ele>384.6</ele>
        <time>2022-05-11T14:45:35Z</time>
      </trkpt>
      <trkpt lat="46.43564" lon="5.46079">
        <ele>384.6</ele>
        <time>2022-05-11T14:45:39Z</time>
      </trkpt>
      <trkpt lat="46.43622" lon="5.46067">
        <ele>384.4</ele>
        <time>2022-05-11T14:45:46Z</time>
      </trkpt>
      <trkpt lat="46.43639" lon="5.46064">
        <ele>384.2</ele>
        <time>2022-05-11T14:45:48Z</time>
      </trkpt>
      <trkpt lat="46.43672" lon="5.46051">
        <ele>383.8</ele>
        <time>2022-05-11T14:45:52Z</time>
      </trkpt>
      <trkpt lat="46.4368" lon="5.46044">
        <ele>383.6</ele>
        <time>2022-05-11T14:45:53Z</time>
      </trkpt>
      <trkpt lat="46.43687" lon="5.46036">
        <ele>383.4</ele>
        <time>2022-05-11T14:45:54Z</time>
      </trkpt>
      <trkpt lat="46.43694" lon="5.46027">
        <ele>383.4</ele>
        <time>2022-05-11T14:45:55Z</time>
      </trkpt>
      <trkpt lat="46.43699" lon="5.46018">
        <ele>383.4</ele>
        <time>2022-05-11T14:45:56Z</time>
      </trkpt>
      <trkpt lat="46.43728" lon="5.45974">
        <ele>382.8</ele>
        <time>2022-05-11T14:46:01Z</time>
      </trkpt>
      <trkpt lat="46.43765" lon="5.45931">
        <ele>382.6</ele>
        <time>2022-05-11T14:46:07Z</time>
      </trkpt>
      <trkpt lat="46.43771" lon="5.45924">
        <ele>382.8</ele>
        <time>2022-05-11T14:46:08Z</time>
      </trkpt>
      <trkpt lat="46.4379" lon="5.45909">
        <ele>383.2</ele>
        <time>2022-05-11T14:46:11Z</time>
      </trkpt>
      <trkpt lat="46.4379" lon="5.45909">
        <ele>383.2</ele>
        <time>2022-05-11T14:46:12Z</time>
      </trkpt>
      <trkpt lat="46.43801" lon="5.45904">
        <ele>383.4</ele>
        <time>2022-05-11T14:46:13Z</time>
      </trkpt>
      <trkpt lat="46.43823" lon="5.45893">
        <ele>383.8</ele>
        <time>2022-05-11T14:46:16Z</time>
      </trkpt>
      <trkpt lat="46.43879" lon="5.45863">
        <ele>384</ele>
        <time>2022-05-11T14:46:24Z</time>
      </trkpt>
      <trkpt lat="46.43886" lon="5.45857">
        <ele>383.8</ele>
        <time>2022-05-11T14:46:25Z</time>
      </trkpt>
      <trkpt lat="46.43898" lon="5.4584">
        <ele>383</ele>
        <time>2022-05-11T14:46:27Z</time>
      </trkpt>
      <trkpt lat="46.43901" lon="5.45818">
        <ele>382.4</ele>
        <time>2022-05-11T14:46:29Z</time>
      </trkpt>
      <trkpt lat="46.439" lon="5.45807">
        <ele>382.2</ele>
        <time>2022-05-11T14:46:30Z</time>
      </trkpt>
      <trkpt lat="46.43897" lon="5.45796">
        <ele>382.2</ele>
        <time>2022-05-11T14:46:31Z</time>
      </trkpt>
      <trkpt lat="46.43894" lon="5.45785">
        <ele>382.2</ele>
        <time>2022-05-11T14:46:32Z</time>
      </trkpt>
      <trkpt lat="46.4388" lon="5.45738">
        <ele>382.6</ele>
        <time>2022-05-11T14:46:37Z</time>
      </trkpt>
      <trkpt lat="46.43877" lon="5.4571">
        <ele>383</ele>
        <time>2022-05-11T14:46:41Z</time>
      </trkpt>
      <trkpt lat="46.43879" lon="5.45702">
        <ele>383</ele>
        <time>2022-05-11T14:46:44Z</time>
      </trkpt>
      <trkpt lat="46.4388" lon="5.457">
        <ele>383</ele>
        <time>2022-05-11T14:46:47Z</time>
      </trkpt>
      <trkpt lat="46.43882" lon="5.45698">
        <ele>382.2</ele>
        <time>2022-05-11T14:47:17Z</time>
      </trkpt>
      <trkpt lat="46.43896" lon="5.45695">
        <ele>382.2</ele>
        <time>2022-05-11T14:47:22Z</time>
      </trkpt>
      <trkpt lat="46.43916" lon="5.45691">
        <ele>382.4</ele>
        <time>2022-05-11T14:47:26Z</time>
      </trkpt>
      <trkpt lat="46.43956" lon="5.45684">
        <ele>382.2</ele>
        <time>2022-05-11T14:47:32Z</time>
      </trkpt>
      <trkpt lat="46.44014" lon="5.45674">
        <ele>382</ele>
        <time>2022-05-11T14:47:40Z</time>
      </trkpt>
      <trkpt lat="46.44075" lon="5.45663">
        <ele>382.6</ele>
        <time>2022-05-11T14:47:48Z</time>
      </trkpt>
      <trkpt lat="46.4409" lon="5.45661">
        <ele>382.8</ele>
        <time>2022-05-11T14:47:50Z</time>
      </trkpt>
      <trkpt lat="46.44145" lon="5.45652">
        <ele>383.2</ele>
        <time>2022-05-11T14:47:57Z</time>
      </trkpt>
      <trkpt lat="46.4416" lon="5.45648">
        <ele>383.4</ele>
        <time>2022-05-11T14:47:59Z</time>
      </trkpt>
      <trkpt lat="46.44196" lon="5.4564">
        <ele>384</ele>
        <time>2022-05-11T14:48:04Z</time>
      </trkpt>
      <trkpt lat="46.44203" lon="5.45639">
        <ele>384</ele>
        <time>2022-05-11T14:48:05Z</time>
      </trkpt>
      <trkpt lat="46.44258" lon="5.45632">
        <ele>384.4</ele>
        <time>2022-05-11T14:48:13Z</time>
      </trkpt>
      <trkpt lat="46.44308" lon="5.45634">
        <ele>385</ele>
        <time>2022-05-11T14:48:19Z</time>
      </trkpt>
      <trkpt lat="46.44316" lon="5.45635">
        <ele>385.2</ele>
        <time>2022-05-11T14:48:20Z</time>
      </trkpt>
      <trkpt lat="46.44359" lon="5.4564">
        <ele>385.8</ele>
        <time>2022-05-11T14:48:25Z</time>
      </trkpt>
      <trkpt lat="46.44377" lon="5.45642">
        <ele>386.4</ele>
        <time>2022-05-11T14:48:27Z</time>
      </trkpt>
      <trkpt lat="46.44426" lon="5.45646">
        <ele>387.2</ele>
        <time>2022-05-11T14:48:33Z</time>
      </trkpt>
      <trkpt lat="46.44434" lon="5.45647">
        <ele>387.4</ele>
        <time>2022-05-11T14:48:34Z</time>
      </trkpt>
      <trkpt lat="46.44465" lon="5.45651">
        <ele>388.2</ele>
        <time>2022-05-11T14:48:38Z</time>
      </trkpt>
      <trkpt lat="46.44481" lon="5.45653">
        <ele>388.8</ele>
        <time>2022-05-11T14:48:40Z</time>
      </trkpt>
      <trkpt lat="46.44489" lon="5.45654">
        <ele>389.2</ele>
        <time>2022-05-11T14:48:41Z</time>
      </trkpt>
      <trkpt lat="46.44529" lon="5.45664">
        <ele>390</ele>
        <time>2022-05-11T14:48:46Z</time>
      </trkpt>
      <trkpt lat="46.44563" lon="5.45674">
        <ele>390.6</ele>
        <time>2022-05-11T14:48:50Z</time>
      </trkpt>
      <trkpt lat="46.44622" lon="5.45693">
        <ele>390.4</ele>
        <time>2022-05-11T14:48:57Z</time>
      </trkpt>
      <trkpt lat="46.44631" lon="5.45696">
        <ele>390.4</ele>
        <time>2022-05-11T14:48:58Z</time>
      </trkpt>
      <trkpt lat="46.44684" lon="5.45715">
        <ele>390</ele>
        <time>2022-05-11T14:49:04Z</time>
      </trkpt>
      <trkpt lat="46.44693" lon="5.45718">
        <ele>390</ele>
        <time>2022-05-11T14:49:05Z</time>
      </trkpt>
      <trkpt lat="46.44749" lon="5.45744">
        <ele>390.4</ele>
        <time>2022-05-11T14:49:11Z</time>
      </trkpt>
      <trkpt lat="46.44807" lon="5.45776">
        <ele>390.8</ele>
        <time>2022-05-11T14:49:17Z</time>
      </trkpt>
      <trkpt lat="46.44826" lon="5.45787">
        <ele>390.8</ele>
        <time>2022-05-11T14:49:19Z</time>
      </trkpt>
      <trkpt lat="46.44866" lon="5.45811">
        <ele>391.2</ele>
        <time>2022-05-11T14:49:23Z</time>
      </trkpt>
      <trkpt lat="46.44897" lon="5.45828">
        <ele>391.6</ele>
        <time>2022-05-11T14:49:26Z</time>
      </trkpt>
      <trkpt lat="46.4495" lon="5.45859">
        <ele>391.4</ele>
        <time>2022-05-11T14:49:31Z</time>
      </trkpt>
      <trkpt lat="46.44983" lon="5.45878">
        <ele>391.4</ele>
        <time>2022-05-11T14:49:34Z</time>
      </trkpt>
      <trkpt lat="46.45038" lon="5.45912">
        <ele>390.2</ele>
        <time>2022-05-11T14:49:39Z</time>
      </trkpt>
      <trkpt lat="46.45072" lon="5.45931">
        <ele>389.2</ele>
        <time>2022-05-11T14:49:42Z</time>
      </trkpt>
      <trkpt lat="46.45083" lon="5.45936">
        <ele>389</ele>
        <time>2022-05-11T14:49:43Z</time>
      </trkpt>
      <trkpt lat="46.45135" lon="5.45966">
        <ele>388</ele>
        <time>2022-05-11T14:49:48Z</time>
      </trkpt>
      <trkpt lat="46.45144" lon="5.45973">
        <ele>388</ele>
        <time>2022-05-11T14:49:49Z</time>
      </trkpt>
      <trkpt lat="46.45181" lon="5.46002">
        <ele>388.4</ele>
        <time>2022-05-11T14:49:53Z</time>
      </trkpt>
      <trkpt lat="46.45224" lon="5.46039">
        <ele>389.6</ele>
        <time>2022-05-11T14:49:58Z</time>
      </trkpt>
      <trkpt lat="46.45234" lon="5.46046">
        <ele>389.8</ele>
        <time>2022-05-11T14:49:59Z</time>
      </trkpt>
      <trkpt lat="46.45255" lon="5.46053">
        <ele>390.8</ele>
        <time>2022-05-11T14:50:01Z</time>
      </trkpt>
      <trkpt lat="46.45276" lon="5.46056">
        <ele>392</ele>
        <time>2022-05-11T14:50:03Z</time>
      </trkpt>
      <trkpt lat="46.4533" lon="5.46066">
        <ele>393</ele>
        <time>2022-05-11T14:50:08Z</time>
      </trkpt>
      <trkpt lat="46.45341" lon="5.46068">
        <ele>393</ele>
        <time>2022-05-11T14:50:09Z</time>
      </trkpt>
      <trkpt lat="46.45352" lon="5.4607">
        <ele>393.2</ele>
        <time>2022-05-11T14:50:10Z</time>
      </trkpt>
      <trkpt lat="46.45408" lon="5.46078">
        <ele>393.4</ele>
        <time>2022-05-11T14:50:15Z</time>
      </trkpt>
      <trkpt lat="46.4543" lon="5.46082">
        <ele>393.4</ele>
        <time>2022-05-11T14:50:17Z</time>
      </trkpt>
      <trkpt lat="46.45495" lon="5.46093">
        <ele>392.6</ele>
        <time>2022-05-11T14:50:23Z</time>
      </trkpt>
      <trkpt lat="46.45505" lon="5.46095">
        <ele>392.2</ele>
        <time>2022-05-11T14:50:24Z</time>
      </trkpt>
      <trkpt lat="46.45524" lon="5.46099">
        <ele>391.8</ele>
        <time>2022-05-11T14:50:26Z</time>
      </trkpt>
      <trkpt lat="46.45539" lon="5.46102">
        <ele>391.6</ele>
        <time>2022-05-11T14:50:28Z</time>
      </trkpt>
      <trkpt lat="46.45545" lon="5.46103">
        <ele>391.4</ele>
        <time>2022-05-11T14:50:29Z</time>
      </trkpt>
      <trkpt lat="46.45553" lon="5.46109">
        <ele>390.8</ele>
        <time>2022-05-11T14:50:31Z</time>
      </trkpt>
    </trkseg>
  </trk>
</gpx>